﻿<?xml version="1.0" encoding="utf-8"?><gpx creator="Garmin Desktop App" version="1.1" xsi:schemaLocation="http://www.topografix.com/GPX/1/1 http://www.topografix.com/GPX/1/1/gpx.xsd http://www.garmin.com/xmlschemas/WaypointExtension/v1 http://www8.garmin.com/xmlschemas/WaypointExtensionv1.xsd http://www.garmin.com/xmlschemas/TrackPointExtension/v1 http://www.garmin.com/xmlschemas/TrackPointExtensionv1.xsd http://www.garmin.com/xmlschemas/GpxExtensions/v3 http://www8.garmin.com/xmlschemas/GpxExtensionsv3.xsd http://www.garmin.com/xmlschemas/ActivityExtension/v1 http://www8.garmin.com/xmlschemas/ActivityExtensionv1.xsd http://www.garmin.com/xmlschemas/AdventuresExtensions/v1 http://www8.garmin.com/xmlschemas/AdventuresExtensionv1.xsd http://www.garmin.com/xmlschemas/PressureExtension/v1 http://www.garmin.com/xmlschemas/PressureExtensionv1.xsd http://www.garmin.com/xmlschemas/TripExtensions/v1 http://www.garmin.com/xmlschemas/TripExtensionsv1.xsd http://www.garmin.com/xmlschemas/TripMetaDataExtensions/v1 http://www.garmin.com/xmlschemas/TripMetaDataExtensionsv1.xsd http://www.garmin.com/xmlschemas/ViaPointTransportationModeExtensions/v1 http://www.garmin.com/xmlschemas/ViaPointTransportationModeExtensionsv1.xsd http://www.garmin.com/xmlschemas/CreationTimeExtension/v1 http://www.garmin.com/xmlschemas/CreationTimeExtensionsv1.xsd http://www.garmin.com/xmlschemas/AccelerationExtension/v1 http://www.garmin.com/xmlschemas/AccelerationExtensionv1.xsd http://www.garmin.com/xmlschemas/PowerExtension/v1 http://www.garmin.com/xmlschemas/PowerExtensionv1.xsd http://www.garmin.com/xmlschemas/VideoExtension/v1 http://www.garmin.com/xmlschemas/VideoExtensionv1.xsd" xmlns="http://www.topografix.com/GPX/1/1" xmlns:xsi="http://www.w3.org/2001/XMLSchema-instance" xmlns:wptx1="http://www.garmin.com/xmlschemas/WaypointExtension/v1" xmlns:gpxtrx="http://www.garmin.com/xmlschemas/GpxExtensions/v3" xmlns:gpxtpx="http://www.garmin.com/xmlschemas/TrackPointExtension/v1" xmlns:gpxx="http://www.garmin.com/xmlschemas/GpxExtensions/v3" xmlns:trp="http://www.garmin.com/xmlschemas/TripExtensions/v1" xmlns:adv="http://www.garmin.com/xmlschemas/AdventuresExtensions/v1" xmlns:prs="http://www.garmin.com/xmlschemas/PressureExtension/v1" xmlns:tmd="http://www.garmin.com/xmlschemas/TripMetaDataExtensions/v1" xmlns:vptm="http://www.garmin.com/xmlschemas/ViaPointTransportationModeExtensions/v1" xmlns:ctx="http://www.garmin.com/xmlschemas/CreationTimeExtension/v1" xmlns:gpxacc="http://www.garmin.com/xmlschemas/AccelerationExtension/v1" xmlns:gpxpx="http://www.garmin.com/xmlschemas/PowerExtension/v1" xmlns:vidx1="http://www.garmin.com/xmlschemas/VideoExtension/v1">

  <metadata>
    <link href="http://www.garmin.com">
      <text>Garmin International</text>
    </link>
    <time>2017-06-28T19:25:57Z</time>
    <bounds maxlat="68.441311027854681" maxlon="17.430051974952221" minlat="66.306834993883967" minlon="14.134799027815461" />
  </metadata>

  <trk>
    <name>Track vom: 28 JUN 2017 07:40</name>
    <extensions>
      <gpxx:TrackExtension>
        <gpxx:DisplayColor>DarkGray</gpxx:DisplayColor>
      </gpxx:TrackExtension>
    </extensions>
    <trkseg>
      <trkpt lat="68.441304992884398" lon="17.420000983402133">
        <ele>74.640000000000001</ele>
        <time>2017-06-28T05:40:01Z</time>
      </trkpt>
      <trkpt lat="68.441311027854681" lon="17.419999977573752">
        <ele>74.640000000000001</ele>
        <time>2017-06-28T05:40:29Z</time>
      </trkpt>
      <trkpt lat="68.441255958750844" lon="17.420115983113647">
        <ele>72.719999999999999</ele>
        <time>2017-06-28T05:40:34Z</time>
      </trkpt>
      <trkpt lat="68.441175995394588" lon="17.420240035280585">
        <ele>73.680000000000007</ele>
        <time>2017-06-28T05:40:44Z</time>
      </trkpt>
      <trkpt lat="68.441172977909446" lon="17.420249003916979">
        <ele>74.159999999999997</ele>
        <time>2017-06-28T05:40:48Z</time>
      </trkpt>
      <trkpt lat="68.441115980967879" lon="17.420172980055213">
        <ele>74.159999999999997</ele>
        <time>2017-06-28T05:40:51Z</time>
      </trkpt>
      <trkpt lat="68.441086979582906" lon="17.420067032799125">
        <ele>74.640000000000001</ele>
        <time>2017-06-28T05:40:52Z</time>
      </trkpt>
      <trkpt lat="68.441057978197932" lon="17.419944992288947">
        <ele>74.640000000000001</ele>
        <time>2017-06-28T05:40:53Z</time>
      </trkpt>
      <trkpt lat="68.441029982641339" lon="17.419822029769421">
        <ele>75.120000000000005</ele>
        <time>2017-06-28T05:40:54Z</time>
      </trkpt>
      <trkpt lat="68.440934009850025" lon="17.419532015919685">
        <ele>75.599999999999994</ele>
        <time>2017-06-28T05:40:58Z</time>
      </trkpt>
      <trkpt lat="68.440906014293432" lon="17.419534027576447">
        <ele>76.079999999999998</ele>
        <time>2017-06-28T05:40:59Z</time>
      </trkpt>
      <trkpt lat="68.440868966281414" lon="17.419579038396478">
        <ele>76.079999999999998</ele>
        <time>2017-06-28T05:41:00Z</time>
      </trkpt>
      <trkpt lat="68.440417014062405" lon="17.420470034703612">
        <ele>74.159999999999997</ele>
        <time>2017-06-28T05:41:10Z</time>
      </trkpt>
      <trkpt lat="68.440004037693143" lon="17.421094989404082">
        <ele>66.469999999999999</ele>
        <time>2017-06-28T05:41:23Z</time>
      </trkpt>
      <trkpt lat="68.439871016889811" lon="17.421319037675858">
        <ele>63.579999999999998</ele>
        <time>2017-06-28T05:41:27Z</time>
      </trkpt>
      <trkpt lat="68.439396014437079" lon="17.422449002042413">
        <ele>70.310000000000002</ele>
        <time>2017-06-28T05:41:39Z</time>
      </trkpt>
      <trkpt lat="68.439343040809035" lon="17.422562995925546">
        <ele>68.390000000000001</ele>
        <time>2017-06-28T05:41:48Z</time>
      </trkpt>
      <trkpt lat="68.439315967261791" lon="17.422601971775293">
        <ele>67.909999999999997</ele>
        <time>2017-06-28T05:43:25Z</time>
      </trkpt>
      <trkpt lat="68.439306998625398" lon="17.422661986202002">
        <ele>67.430000000000007</ele>
        <time>2017-06-28T05:43:46Z</time>
      </trkpt>
      <trkpt lat="68.439302975311875" lon="17.422738010063767">
        <ele>66.950000000000003</ele>
        <time>2017-06-28T05:44:06Z</time>
      </trkpt>
      <trkpt lat="68.439283026382327" lon="17.422806993126869">
        <ele>67.430000000000007</ele>
        <time>2017-06-28T05:44:22Z</time>
      </trkpt>
      <trkpt lat="68.439187975600362" lon="17.423223992809653">
        <ele>66.950000000000003</ele>
        <time>2017-06-28T05:45:02Z</time>
      </trkpt>
      <trkpt lat="68.438987983390689" lon="17.424122029915452">
        <ele>66.469999999999999</ele>
        <time>2017-06-28T05:45:07Z</time>
      </trkpt>
      <trkpt lat="68.438638960942626" lon="17.425827998667955">
        <ele>61.659999999999997</ele>
        <time>2017-06-28T05:45:18Z</time>
      </trkpt>
      <trkpt lat="68.438446009531617" lon="17.426579017192125">
        <ele>58.780000000000001</ele>
        <time>2017-06-28T05:45:23Z</time>
      </trkpt>
      <trkpt lat="68.438408961519599" lon="17.426694016903639">
        <ele>58.780000000000001</ele>
        <time>2017-06-28T05:45:24Z</time>
      </trkpt>
      <trkpt lat="68.438375014811754" lon="17.426798036321998">
        <ele>58.780000000000001</ele>
        <time>2017-06-28T05:45:25Z</time>
      </trkpt>
      <trkpt lat="68.438325980678201" lon="17.426887974143028">
        <ele>58.780000000000001</ele>
        <time>2017-06-28T05:45:26Z</time>
      </trkpt>
      <trkpt lat="68.438263032585382" lon="17.426944971084595">
        <ele>58.780000000000001</ele>
        <time>2017-06-28T05:45:27Z</time>
      </trkpt>
      <trkpt lat="68.438192959874868" lon="17.426947988569736">
        <ele>58.780000000000001</ele>
        <time>2017-06-28T05:45:28Z</time>
      </trkpt>
      <trkpt lat="68.43810997903347" lon="17.426897026598454">
        <ele>58.299999999999997</ele>
        <time>2017-06-28T05:45:29Z</time>
      </trkpt>
      <trkpt lat="68.438026998192072" lon="17.426835000514984">
        <ele>58.299999999999997</ele>
        <time>2017-06-28T05:45:30Z</time>
      </trkpt>
      <trkpt lat="68.436898961663246" lon="17.426079036667943">
        <ele>50.130000000000003</ele>
        <time>2017-06-28T05:45:45Z</time>
      </trkpt>
      <trkpt lat="68.436236036941409" lon="17.425691960379481">
        <ele>44.359999999999999</ele>
        <time>2017-06-28T05:45:57Z</time>
      </trkpt>
      <trkpt lat="68.436116008087993" lon="17.425656002014875">
        <ele>42.439999999999998</ele>
        <time>2017-06-28T05:46:08Z</time>
      </trkpt>
      <trkpt lat="68.435610998421907" lon="17.425274960696697">
        <ele>41.469999999999999</ele>
        <time>2017-06-28T05:46:16Z</time>
      </trkpt>
      <trkpt lat="68.435388039797544" lon="17.425177982077003">
        <ele>40.990000000000002</ele>
        <time>2017-06-28T05:46:25Z</time>
      </trkpt>
      <trkpt lat="68.435365995392203" lon="17.425156021490693">
        <ele>41.469999999999999</ele>
        <time>2017-06-28T05:46:42Z</time>
      </trkpt>
      <trkpt lat="68.43527203425765" lon="17.42513095960021">
        <ele>41.950000000000003</ele>
        <time>2017-06-28T05:47:36Z</time>
      </trkpt>
      <trkpt lat="68.434703992679715" lon="17.424797024577856">
        <ele>40.509999999999998</ele>
        <time>2017-06-28T05:47:45Z</time>
      </trkpt>
      <trkpt lat="68.43370595946908" lon="17.424426963552833">
        <ele>34.740000000000002</ele>
        <time>2017-06-28T05:47:57Z</time>
      </trkpt>
      <trkpt lat="68.433002969250083" lon="17.424220014363527">
        <ele>28.02</ele>
        <time>2017-06-28T05:48:08Z</time>
      </trkpt>
      <trkpt lat="68.432690994814038" lon="17.424038965255022">
        <ele>26.57</ele>
        <time>2017-06-28T05:48:19Z</time>
      </trkpt>
      <trkpt lat="68.43185598962009" lon="17.423941986635327">
        <ele>26.57</ele>
        <time>2017-06-28T05:48:29Z</time>
      </trkpt>
      <trkpt lat="68.430785033851862" lon="17.42487003095448">
        <ele>26.09</ele>
        <time>2017-06-28T05:48:38Z</time>
      </trkpt>
      <trkpt lat="68.429423980414867" lon="17.427201960235834">
        <ele>27.530000000000001</ele>
        <time>2017-06-28T05:48:49Z</time>
      </trkpt>
      <trkpt lat="68.428466012701392" lon="17.430051974952221">
        <ele>32.82</ele>
        <time>2017-06-28T05:48:58Z</time>
      </trkpt>
      <trkpt lat="68.411548985168338" lon="17.427329029887915">
        <ele>13.119999999999999</ele>
        <time>2017-06-28T05:50:50Z</time>
      </trkpt>
      <trkpt lat="68.411326026543975" lon="17.427095007151365">
        <ele>10.23</ele>
        <time>2017-06-28T05:50:53Z</time>
      </trkpt>
      <trkpt lat="68.411245979368687" lon="17.427028035745025">
        <ele>10.710000000000001</ele>
        <time>2017-06-28T05:50:54Z</time>
      </trkpt>
      <trkpt lat="68.411158975213766" lon="17.427000962197781">
        <ele>7.35</ele>
        <time>2017-06-28T05:50:55Z</time>
      </trkpt>
      <trkpt lat="68.411068031564355" lon="17.427017977461219">
        <ele>6.87</ele>
        <time>2017-06-28T05:50:56Z</time>
      </trkpt>
      <trkpt lat="68.410965017974377" lon="17.427028035745025">
        <ele>5.91</ele>
        <time>2017-06-28T05:50:57Z</time>
      </trkpt>
      <trkpt lat="68.4100900311023" lon="17.427066005766392">
        <ele>2.54</ele>
        <time>2017-06-28T05:51:06Z</time>
      </trkpt>
      <trkpt lat="68.410019036382437" lon="17.427000040188432">
        <ele>2.54</ele>
        <time>2017-06-28T05:51:07Z</time>
      </trkpt>
      <trkpt lat="68.4098120033741" lon="17.426902977749705">
        <ele>3.02</ele>
        <time>2017-06-28T05:51:10Z</time>
      </trkpt>
      <trkpt lat="68.409545961767435" lon="17.426799964159727">
        <ele>2.54</ele>
        <time>2017-06-28T05:51:13Z</time>
      </trkpt>
      <trkpt lat="68.409445965662599" lon="17.426690999418497">
        <ele>2.06</ele>
        <time>2017-06-28T05:51:14Z</time>
      </trkpt>
      <trkpt lat="68.409344041720033" lon="17.426553033292294">
        <ele>2.54</ele>
        <time>2017-06-28T05:51:15Z</time>
      </trkpt>
      <trkpt lat="68.409246979281306" lon="17.426388999447227">
        <ele>2.54</ele>
        <time>2017-06-28T05:51:16Z</time>
      </trkpt>
      <trkpt lat="68.409155029803514" lon="17.42620300501585">
        <ele>3.5</ele>
        <time>2017-06-28T05:51:17Z</time>
      </trkpt>
      <trkpt lat="68.40906199067831" lon="17.425995972007513">
        <ele>3.98</ele>
        <time>2017-06-28T05:51:18Z</time>
      </trkpt>
      <trkpt lat="68.407756006345153" lon="17.42280799895525">
        <ele>9.27</ele>
        <time>2017-06-28T05:51:31Z</time>
      </trkpt>
      <trkpt lat="68.406939022243023" lon="17.420819979161024">
        <ele>6.87</ele>
        <time>2017-06-28T05:51:40Z</time>
      </trkpt>
      <trkpt lat="68.40590201318264" lon="17.417950015515089">
        <ele>4.46</ele>
        <time>2017-06-28T05:51:52Z</time>
      </trkpt>
      <trkpt lat="68.405847027897835" lon="17.417626976966858">
        <ele>4.46</ele>
        <time>2017-06-28T05:51:53Z</time>
      </trkpt>
      <trkpt lat="68.405803022906184" lon="17.417281977832317">
        <ele>3.98</ele>
        <time>2017-06-28T05:51:54Z</time>
      </trkpt>
      <trkpt lat="68.405778966844082" lon="17.416917029768229">
        <ele>3.98</ele>
        <time>2017-06-28T05:51:55Z</time>
      </trkpt>
      <trkpt lat="68.40577301569283" lon="17.41653598845005">
        <ele>3.98</ele>
        <time>2017-06-28T05:51:56Z</time>
      </trkpt>
      <trkpt lat="68.405786007642746" lon="17.416163999587297">
        <ele>3.5</ele>
        <time>2017-06-28T05:51:57Z</time>
      </trkpt>
      <trkpt lat="68.405822971835732" lon="17.415792010724545">
        <ele>3.98</ele>
        <time>2017-06-28T05:51:58Z</time>
      </trkpt>
      <trkpt lat="68.405876029282808" lon="17.415435025468469">
        <ele>3.5</ele>
        <time>2017-06-28T05:51:59Z</time>
      </trkpt>
      <trkpt lat="68.405948029831052" lon="17.415082985535264">
        <ele>3.5</ele>
        <time>2017-06-28T05:52:00Z</time>
      </trkpt>
      <trkpt lat="68.406036039814353" lon="17.414765981957316">
        <ele>3.5</ele>
        <time>2017-06-28T05:52:01Z</time>
      </trkpt>
      <trkpt lat="68.406135030090809" lon="17.414477979764342">
        <ele>3.5</ele>
        <time>2017-06-28T05:52:02Z</time>
      </trkpt>
      <trkpt lat="68.406248018145561" lon="17.414229037240148">
        <ele>3.02</ele>
        <time>2017-06-28T05:52:03Z</time>
      </trkpt>
      <trkpt lat="68.406366035342216" lon="17.414003983139992">
        <ele>3.02</ele>
        <time>2017-06-28T05:52:04Z</time>
      </trkpt>
      <trkpt lat="68.406486986204982" lon="17.413798039779067">
        <ele>2.54</ele>
        <time>2017-06-28T05:52:05Z</time>
      </trkpt>
      <trkpt lat="68.407988017424941" lon="17.411868022754788">
        <ele>2.06</ele>
        <time>2017-06-28T05:52:17Z</time>
      </trkpt>
      <trkpt lat="68.409418975934386" lon="17.411250025033951">
        <ele>2.06</ele>
        <time>2017-06-28T05:52:28Z</time>
      </trkpt>
      <trkpt lat="68.410638961941004" lon="17.409869022667408">
        <ele>2.06</ele>
        <time>2017-06-28T05:52:38Z</time>
      </trkpt>
      <trkpt lat="68.412335040047765" lon="17.407111963257194">
        <ele>4.94</ele>
        <time>2017-06-28T05:52:53Z</time>
      </trkpt>
      <trkpt lat="68.413268029689789" lon="17.405228968709707">
        <ele>5.42</ele>
        <time>2017-06-28T05:53:03Z</time>
      </trkpt>
      <trkpt lat="68.413368025794625" lon="17.40504196844995">
        <ele>5.42</ele>
        <time>2017-06-28T05:53:08Z</time>
      </trkpt>
      <trkpt lat="68.413459975272417" lon="17.404784979298711">
        <ele>6.39</ele>
        <time>2017-06-28T05:54:29Z</time>
      </trkpt>
      <trkpt lat="68.413523007184267" lon="17.40465397015214">
        <ele>6.87</ele>
        <time>2017-06-28T05:54:30Z</time>
      </trkpt>
      <trkpt lat="68.414337979629636" lon="17.402989994734526">
        <ele>6.87</ele>
        <time>2017-06-28T05:54:39Z</time>
      </trkpt>
      <trkpt lat="68.415130991488695" lon="17.400597967207432">
        <ele>6.39</ele>
        <time>2017-06-28T05:54:47Z</time>
      </trkpt>
      <trkpt lat="68.416457008570433" lon="17.395562035962939">
        <ele>6.87</ele>
        <time>2017-06-28T05:55:01Z</time>
      </trkpt>
      <trkpt lat="68.41771999374032" lon="17.39236400462687">
        <ele>4.94</ele>
        <time>2017-06-28T05:55:12Z</time>
      </trkpt>
      <trkpt lat="68.418937968090177" lon="17.38924995996058">
        <ele>4.46</ele>
        <time>2017-06-28T05:55:22Z</time>
      </trkpt>
      <trkpt lat="68.421208038926125" lon="17.385611962527037">
        <ele>3.98</ele>
        <time>2017-06-28T05:55:37Z</time>
      </trkpt>
      <trkpt lat="68.421578016132116" lon="17.384673021733761">
        <ele>4.46</ele>
        <time>2017-06-28T05:55:40Z</time>
      </trkpt>
      <trkpt lat="68.421680023893714" lon="17.384299021214247">
        <ele>4.46</ele>
        <time>2017-06-28T05:55:41Z</time>
      </trkpt>
      <trkpt lat="68.421767028048635" lon="17.383895013481379">
        <ele>3.98</ele>
        <time>2017-06-28T05:55:42Z</time>
      </trkpt>
      <trkpt lat="68.421838022768497" lon="17.383478013798594">
        <ele>3.98</ele>
        <time>2017-06-28T05:55:43Z</time>
      </trkpt>
      <trkpt lat="68.421899965032935" lon="17.383033018559217">
        <ele>3.98</ele>
        <time>2017-06-28T05:55:44Z</time>
      </trkpt>
      <trkpt lat="68.421944975852966" lon="17.382589029148221">
        <ele>3.98</ele>
        <time>2017-06-28T05:55:45Z</time>
      </trkpt>
      <trkpt lat="68.421971965581179" lon="17.382141016423702">
        <ele>3.98</ele>
        <time>2017-06-28T05:55:46Z</time>
      </trkpt>
      <trkpt lat="68.421987975016236" lon="17.381672970950603">
        <ele>3.98</ele>
        <time>2017-06-28T05:55:47Z</time>
      </trkpt>
      <trkpt lat="68.421993004158139" lon="17.381207020953298">
        <ele>3.98</ele>
        <time>2017-06-28T05:55:48Z</time>
      </trkpt>
      <trkpt lat="68.422058969736099" lon="17.376474011689425">
        <ele>3.02</ele>
        <time>2017-06-28T05:55:58Z</time>
      </trkpt>
      <trkpt lat="68.422606978565454" lon="17.370436023920774">
        <ele>4.94</ele>
        <time>2017-06-28T05:56:11Z</time>
      </trkpt>
      <trkpt lat="68.422929011285305" lon="17.365306969732046">
        <ele>2.06</ele>
        <time>2017-06-28T05:56:22Z</time>
      </trkpt>
      <trkpt lat="68.423448018729687" lon="17.360811000689864">
        <ele>1.1</ele>
        <time>2017-06-28T05:56:32Z</time>
      </trkpt>
      <trkpt lat="68.423939030617476" lon="17.357067978009582">
        <ele>5.42</ele>
        <time>2017-06-28T05:56:41Z</time>
      </trkpt>
      <trkpt lat="68.424394000321627" lon="17.353415982797742">
        <ele>8.310000000000001</ele>
        <time>2017-06-28T05:56:50Z</time>
      </trkpt>
      <trkpt lat="68.424352006986737" lon="17.349070971831679">
        <ele>8.310000000000001</ele>
        <time>2017-06-28T05:57:00Z</time>
      </trkpt>
      <trkpt lat="68.424073979258537" lon="17.342923013493419">
        <ele>17.920000000000002</ele>
        <time>2017-06-28T05:57:14Z</time>
      </trkpt>
      <trkpt lat="68.423480037599802" lon="17.336181029677391">
        <ele>17.920000000000002</ele>
        <time>2017-06-28T05:57:29Z</time>
      </trkpt>
      <trkpt lat="68.422350995242596" lon="17.330886013805866">
        <ele>19.359999999999999</ele>
        <time>2017-06-28T05:57:43Z</time>
      </trkpt>
      <trkpt lat="68.421169985085726" lon="17.326965965330601">
        <ele>24.649999999999999</ele>
        <time>2017-06-28T05:57:55Z</time>
      </trkpt>
      <trkpt lat="68.420713003724813" lon="17.323340037837625">
        <ele>25.129999999999999</ele>
        <time>2017-06-28T05:58:04Z</time>
      </trkpt>
      <trkpt lat="68.420468000695109" lon="17.31873300857842">
        <ele>20.32</ele>
        <time>2017-06-28T05:58:15Z</time>
      </trkpt>
      <trkpt lat="68.420659024268389" lon="17.310253959149122">
        <ele>22.25</ele>
        <time>2017-06-28T05:58:35Z</time>
      </trkpt>
      <trkpt lat="68.420639997348189" lon="17.308954009786248">
        <ele>20.809999999999999</ele>
        <time>2017-06-28T05:58:38Z</time>
      </trkpt>
      <trkpt lat="68.420605966821313" lon="17.308526029810309">
        <ele>20.32</ele>
        <time>2017-06-28T05:58:39Z</time>
      </trkpt>
      <trkpt lat="68.420557016506791" lon="17.308112969622016">
        <ele>19.84</ele>
        <time>2017-06-28T05:58:40Z</time>
      </trkpt>
      <trkpt lat="68.420492978766561" lon="17.307705022394657">
        <ele>19.359999999999999</ele>
        <time>2017-06-28T05:58:41Z</time>
      </trkpt>
      <trkpt lat="68.420419972389936" lon="17.307309983298182">
        <ele>18.879999999999999</ele>
        <time>2017-06-28T05:58:42Z</time>
      </trkpt>
      <trkpt lat="68.420334979891777" lon="17.306927014142275">
        <ele>18.399999999999999</ele>
        <time>2017-06-28T05:58:43Z</time>
      </trkpt>
      <trkpt lat="68.419643975794315" lon="17.304386040195823">
        <ele>19.359999999999999</ele>
        <time>2017-06-28T05:58:50Z</time>
      </trkpt>
      <trkpt lat="68.419527970254421" lon="17.304113041609526">
        <ele>20.32</ele>
        <time>2017-06-28T05:58:51Z</time>
      </trkpt>
      <trkpt lat="68.419398972764611" lon="17.303873989731073">
        <ele>20.809999999999999</ele>
        <time>2017-06-28T05:58:52Z</time>
      </trkpt>
      <trkpt lat="68.419258994981647" lon="17.303668968379498">
        <ele>20.809999999999999</ele>
        <time>2017-06-28T05:58:53Z</time>
      </trkpt>
      <trkpt lat="68.419117005541921" lon="17.303499989211559">
        <ele>21.289999999999999</ele>
        <time>2017-06-28T05:58:54Z</time>
      </trkpt>
      <trkpt lat="68.418961018323898" lon="17.303384989500046">
        <ele>21.77</ele>
        <time>2017-06-28T05:58:55Z</time>
      </trkpt>
      <trkpt lat="68.418806036934257" lon="17.303316006436944">
        <ele>21.289999999999999</ele>
        <time>2017-06-28T05:58:56Z</time>
      </trkpt>
      <trkpt lat="68.418656000867486" lon="17.303313994780183">
        <ele>21.289999999999999</ele>
        <time>2017-06-28T05:58:57Z</time>
      </trkpt>
      <trkpt lat="68.418505964800715" lon="17.303334027528763">
        <ele>21.289999999999999</ele>
        <time>2017-06-28T05:58:58Z</time>
      </trkpt>
      <trkpt lat="68.418357018381357" lon="17.3033959697932">
        <ele>21.289999999999999</ele>
        <time>2017-06-28T05:58:59Z</time>
      </trkpt>
      <trkpt lat="68.418207988142967" lon="17.303488003090024">
        <ele>21.289999999999999</ele>
        <time>2017-06-28T05:59:00Z</time>
      </trkpt>
      <trkpt lat="68.418060969561338" lon="17.303601996973157">
        <ele>21.289999999999999</ele>
        <time>2017-06-28T05:59:01Z</time>
      </trkpt>
      <trkpt lat="68.416664963588119" lon="17.305550035089254">
        <ele>22.73</ele>
        <time>2017-06-28T05:59:11Z</time>
      </trkpt>
      <trkpt lat="68.415390998125076" lon="17.309015030041337">
        <ele>24.649999999999999</ele>
        <time>2017-06-28T05:59:22Z</time>
      </trkpt>
      <trkpt lat="68.414291040971875" lon="17.311585005372763">
        <ele>25.129999999999999</ele>
        <time>2017-06-28T05:59:31Z</time>
      </trkpt>
      <trkpt lat="68.412524973973632" lon="17.313823979347944">
        <ele>19.359999999999999</ele>
        <time>2017-06-28T05:59:43Z</time>
      </trkpt>
      <trkpt lat="68.412028010934591" lon="17.313916012644768">
        <ele>16.960000000000001</ele>
        <time>2017-06-28T05:59:46Z</time>
      </trkpt>
      <trkpt lat="68.411861965432763" lon="17.313873013481498">
        <ele>16</ele>
        <time>2017-06-28T05:59:47Z</time>
      </trkpt>
      <trkpt lat="68.411699021235108" lon="17.313801012933254">
        <ele>15.039999999999999</ele>
        <time>2017-06-28T05:59:48Z</time>
      </trkpt>
      <trkpt lat="68.409805968403816" lon="17.312254970893264">
        <ele>9.75</ele>
        <time>2017-06-28T06:00:00Z</time>
      </trkpt>
      <trkpt lat="68.40633200481534" lon="17.309312000870705">
        <ele>9.27</ele>
        <time>2017-06-28T06:00:23Z</time>
      </trkpt>
      <trkpt lat="68.403859008103609" lon="17.306566005572677">
        <ele>6.39</ele>
        <time>2017-06-28T06:00:40Z</time>
      </trkpt>
      <trkpt lat="68.402687972411513" lon="17.303906008601189">
        <ele>0.14</ele>
        <time>2017-06-28T06:00:49Z</time>
      </trkpt>
      <trkpt lat="68.402190003544092" lon="17.300935965031385">
        <ele>-0.82</ele>
        <time>2017-06-28T06:00:56Z</time>
      </trkpt>
      <trkpt lat="68.402006020769477" lon="17.296094996854663">
        <ele>-0.34</ele>
        <time>2017-06-28T06:01:06Z</time>
      </trkpt>
      <trkpt lat="68.401625985279679" lon="17.29026798158884">
        <ele>-0.82</ele>
        <time>2017-06-28T06:01:17Z</time>
      </trkpt>
      <trkpt lat="68.400844959542155" lon="17.283078990876675">
        <ele>-1.3</ele>
        <time>2017-06-28T06:01:31Z</time>
      </trkpt>
      <trkpt lat="68.400688972324133" lon="17.276570023968816">
        <ele>-1.3</ele>
        <time>2017-06-28T06:01:43Z</time>
      </trkpt>
      <trkpt lat="68.400433994829655" lon="17.269626036286354">
        <ele>1.1</ele>
        <time>2017-06-28T06:01:56Z</time>
      </trkpt>
      <trkpt lat="68.399691022932529" lon="17.26579500362277">
        <ele>2.54</ele>
        <time>2017-06-28T06:02:04Z</time>
      </trkpt>
      <trkpt lat="68.39838202111423" lon="17.262235963717103">
        <ele>2.06</ele>
        <time>2017-06-28T06:02:13Z</time>
      </trkpt>
      <trkpt lat="68.396357959136367" lon="17.256371984258294">
        <ele>3.5</ele>
        <time>2017-06-28T06:02:28Z</time>
      </trkpt>
      <trkpt lat="68.395464029163122" lon="17.252312041819096">
        <ele>7.35</ele>
        <time>2017-06-28T06:02:37Z</time>
      </trkpt>
      <trkpt lat="68.394726002588868" lon="17.250581011176109">
        <ele>9.27</ele>
        <time>2017-06-28T06:02:42Z</time>
      </trkpt>
      <trkpt lat="68.39455702342093" lon="17.250344976782799">
        <ele>9.75</ele>
        <time>2017-06-28T06:02:43Z</time>
      </trkpt>
      <trkpt lat="68.394379997625947" lon="17.250171974301338">
        <ele>9.75</ele>
        <time>2017-06-28T06:02:44Z</time>
      </trkpt>
      <trkpt lat="68.394199032336473" lon="17.25004599429667">
        <ele>9.75</ele>
        <time>2017-06-28T06:02:45Z</time>
      </trkpt>
      <trkpt lat="68.394013037905097" lon="17.249974999576807">
        <ele>9.75</ele>
        <time>2017-06-28T06:02:46Z</time>
      </trkpt>
      <trkpt lat="68.393820002675056" lon="17.249955972656608">
        <ele>9.27</ele>
        <time>2017-06-28T06:02:47Z</time>
      </trkpt>
      <trkpt lat="68.393624033778906" lon="17.249965025112033">
        <ele>8.789999999999999</ele>
        <time>2017-06-28T06:02:48Z</time>
      </trkpt>
      <trkpt lat="68.391640959307551" lon="17.249489016830921">
        <ele>6.39</ele>
        <time>2017-06-28T06:02:58Z</time>
      </trkpt>
      <trkpt lat="68.39053999632597" lon="17.249109987169504">
        <ele>10.23</ele>
        <time>2017-06-28T06:03:04Z</time>
      </trkpt>
      <trkpt lat="68.39036900550127" lon="17.249148041009903">
        <ele>10.710000000000001</ele>
        <time>2017-06-28T06:03:05Z</time>
      </trkpt>
      <trkpt lat="68.390201032161713" lon="17.249232027679682">
        <ele>11.67</ele>
        <time>2017-06-28T06:03:06Z</time>
      </trkpt>
      <trkpt lat="68.390040015801787" lon="17.249363036826253">
        <ele>12.630000000000001</ele>
        <time>2017-06-28T06:03:07Z</time>
      </trkpt>
      <trkpt lat="68.389886962249875" lon="17.249557999894023">
        <ele>13.119999999999999</ele>
        <time>2017-06-28T06:03:08Z</time>
      </trkpt>
      <trkpt lat="68.389736004173756" lon="17.249798979610205">
        <ele>13.6</ele>
        <time>2017-06-28T06:03:09Z</time>
      </trkpt>
      <trkpt lat="68.389584040269256" lon="17.250074995681643">
        <ele>13.119999999999999</ele>
        <time>2017-06-28T06:03:10Z</time>
      </trkpt>
      <trkpt lat="68.387587973847985" lon="17.253899993374944">
        <ele>17.920000000000002</ele>
        <time>2017-06-28T06:03:23Z</time>
      </trkpt>
      <trkpt lat="68.386113010346889" lon="17.255214024335146">
        <ele>9.75</ele>
        <time>2017-06-28T06:03:31Z</time>
      </trkpt>
      <trkpt lat="68.384855976328254" lon="17.255380991846323">
        <ele>8.310000000000001</ele>
        <time>2017-06-28T06:03:38Z</time>
      </trkpt>
      <trkpt lat="68.382824035361409" lon="17.254239963367581">
        <ele>8.310000000000001</ele>
        <time>2017-06-28T06:03:50Z</time>
      </trkpt>
      <trkpt lat="68.382643992081285" lon="17.254255972802639">
        <ele>8.310000000000001</ele>
        <time>2017-06-28T06:03:51Z</time>
      </trkpt>
      <trkpt lat="68.382463026791811" lon="17.254315987229347">
        <ele>7.83</ele>
        <time>2017-06-28T06:03:52Z</time>
      </trkpt>
      <trkpt lat="68.382278960198164" lon="17.25442604161799">
        <ele>7.35</ele>
        <time>2017-06-28T06:03:53Z</time>
      </trkpt>
      <trkpt lat="68.38209698908031" lon="17.254563001915812">
        <ele>7.35</ele>
        <time>2017-06-28T06:03:54Z</time>
      </trkpt>
      <trkpt lat="68.380165966227651" lon="17.255647033452988">
        <ele>4.94</ele>
        <time>2017-06-28T06:04:04Z</time>
      </trkpt>
      <trkpt lat="68.378119021654129" lon="17.256610030308366">
        <ele>5.42</ele>
        <time>2017-06-28T06:04:15Z</time>
      </trkpt>
      <trkpt lat="68.376651015132666" lon="17.256881017237902">
        <ele>5.42</ele>
        <time>2017-06-28T06:04:23Z</time>
      </trkpt>
      <trkpt lat="68.374630976468325" lon="17.255971999838948">
        <ele>14.56</ele>
        <time>2017-06-28T06:04:34Z</time>
      </trkpt>
      <trkpt lat="68.372930036857724" lon="17.253861017525196">
        <ele>22.73</ele>
        <time>2017-06-28T06:04:44Z</time>
      </trkpt>
      <trkpt lat="68.371690018102527" lon="17.251072023063898">
        <ele>29.460000000000001</ele>
        <time>2017-06-28T06:04:53Z</time>
      </trkpt>
      <trkpt lat="68.37124602869153" lon="17.248467011377215">
        <ele>32.82</ele>
        <time>2017-06-28T06:04:59Z</time>
      </trkpt>
      <trkpt lat="68.37086196988821" lon="17.241758974269032">
        <ele>37.149999999999999</ele>
        <time>2017-06-28T06:05:13Z</time>
      </trkpt>
      <trkpt lat="68.370317984372377" lon="17.232837025076151">
        <ele>30.420000000000002</ele>
        <time>2017-06-28T06:05:31Z</time>
      </trkpt>
      <trkpt lat="68.370324019342661" lon="17.228706004098058">
        <ele>21.77</ele>
        <time>2017-06-28T06:05:39Z</time>
      </trkpt>
      <trkpt lat="68.370950985699892" lon="17.224614964798093">
        <ele>15.039999999999999</ele>
        <time>2017-06-28T06:05:47Z</time>
      </trkpt>
      <trkpt lat="68.372023031115532" lon="17.221214007586241">
        <ele>9.27</ele>
        <time>2017-06-28T06:05:55Z</time>
      </trkpt>
      <trkpt lat="68.373284004628658" lon="17.219165973365307">
        <ele>4.94</ele>
        <time>2017-06-28T06:06:02Z</time>
      </trkpt>
      <trkpt lat="68.375026015564799" lon="17.217693021520972">
        <ele>2.06</ele>
        <time>2017-06-28T06:06:11Z</time>
      </trkpt>
      <trkpt lat="68.376709017902613" lon="17.216091994196177">
        <ele>3.02</ele>
        <time>2017-06-28T06:06:20Z</time>
      </trkpt>
      <trkpt lat="68.378392020240426" lon="17.214375967159867">
        <ele>3.98</ele>
        <time>2017-06-28T06:06:29Z</time>
      </trkpt>
      <trkpt lat="68.380309967324138" lon="17.211407013237476">
        <ele>9.27</ele>
        <time>2017-06-28T06:06:40Z</time>
      </trkpt>
      <trkpt lat="68.380440976470709" lon="17.211011974141002">
        <ele>9.27</ele>
        <time>2017-06-28T06:06:41Z</time>
      </trkpt>
      <trkpt lat="68.380559999495745" lon="17.210579970851541">
        <ele>9.27</ele>
        <time>2017-06-28T06:06:42Z</time>
      </trkpt>
      <trkpt lat="68.381567001342773" lon="17.205751994624734">
        <ele>7.83</ele>
        <time>2017-06-28T06:06:52Z</time>
      </trkpt>
      <trkpt lat="68.382192039862275" lon="17.203032989054918">
        <ele>6.87</ele>
        <time>2017-06-28T06:06:58Z</time>
      </trkpt>
      <trkpt lat="68.38233302347362" lon="17.202677009627223">
        <ele>6.87</ele>
        <time>2017-06-28T06:06:59Z</time>
      </trkpt>
      <trkpt lat="68.382489010691643" lon="17.202365035191178">
        <ele>6.39</ele>
        <time>2017-06-28T06:07:00Z</time>
      </trkpt>
      <trkpt lat="68.382658995687962" lon="17.202098993584514">
        <ele>6.39</ele>
        <time>2017-06-28T06:07:01Z</time>
      </trkpt>
      <trkpt lat="68.382839038968086" lon="17.201868994161487">
        <ele>6.39</ele>
        <time>2017-06-28T06:07:02Z</time>
      </trkpt>
      <trkpt lat="68.383024027571082" lon="17.201670007780194">
        <ele>5.91</ele>
        <time>2017-06-28T06:07:03Z</time>
      </trkpt>
      <trkpt lat="68.384375022724271" lon="17.19951200298965">
        <ele>5.42</ele>
        <time>2017-06-28T06:07:11Z</time>
      </trkpt>
      <trkpt lat="68.385910000652075" lon="17.194596016779542">
        <ele>6.87</ele>
        <time>2017-06-28T06:07:23Z</time>
      </trkpt>
      <trkpt lat="68.386334963142872" lon="17.193545009940863">
        <ele>7.35</ele>
        <time>2017-06-28T06:07:26Z</time>
      </trkpt>
      <trkpt lat="68.386494973674417" lon="17.193278968334198">
        <ele>7.35</ele>
        <time>2017-06-28T06:07:27Z</time>
      </trkpt>
      <trkpt lat="68.386662025004625" lon="17.193061038851738">
        <ele>7.83</ele>
        <time>2017-06-28T06:07:28Z</time>
      </trkpt>
      <trkpt lat="68.386838966980577" lon="17.192889964208007">
        <ele>8.789999999999999</ele>
        <time>2017-06-28T06:07:29Z</time>
      </trkpt>
      <trkpt lat="68.387021021917462" lon="17.192778987810016">
        <ele>9.27</ele>
        <time>2017-06-28T06:07:30Z</time>
      </trkpt>
      <trkpt lat="68.387208022177219" lon="17.192707993090153">
        <ele>9.75</ele>
        <time>2017-06-28T06:07:31Z</time>
      </trkpt>
      <trkpt lat="68.387400973588228" lon="17.192677985876799">
        <ele>10.23</ele>
        <time>2017-06-28T06:07:32Z</time>
      </trkpt>
      <trkpt lat="68.387598032131791" lon="17.192667005583644">
        <ele>10.710000000000001</ele>
        <time>2017-06-28T06:07:33Z</time>
      </trkpt>
      <trkpt lat="68.388954978436232" lon="17.192480005323887">
        <ele>14.08</ele>
        <time>2017-06-28T06:07:40Z</time>
      </trkpt>
      <trkpt lat="68.389137033373117" lon="17.19231303781271">
        <ele>14.56</ele>
        <time>2017-06-28T06:07:41Z</time>
      </trkpt>
      <trkpt lat="68.389311963692307" lon="17.192097036167979">
        <ele>14.56</ele>
        <time>2017-06-28T06:07:42Z</time>
      </trkpt>
      <trkpt lat="68.389474991708994" lon="17.191829988732934">
        <ele>14.08</ele>
        <time>2017-06-28T06:07:43Z</time>
      </trkpt>
      <trkpt lat="68.389623016119003" lon="17.191493958234787">
        <ele>13.119999999999999</ele>
        <time>2017-06-28T06:07:44Z</time>
      </trkpt>
      <trkpt lat="68.389762993901968" lon="17.191131021827459">
        <ele>12.15</ele>
        <time>2017-06-28T06:07:45Z</time>
      </trkpt>
      <trkpt lat="68.389890985563397" lon="17.190743023529649">
        <ele>11.19</ele>
        <time>2017-06-28T06:07:46Z</time>
      </trkpt>
      <trkpt lat="68.390002967789769" lon="17.190301967784762">
        <ele>9.75</ele>
        <time>2017-06-28T06:07:47Z</time>
      </trkpt>
      <trkpt lat="68.390102963894606" lon="17.189837023615837">
        <ele>10.710000000000001</ele>
        <time>2017-06-28T06:07:48Z</time>
      </trkpt>
      <trkpt lat="68.390180999413133" lon="17.189347017556429">
        <ele>10.710000000000001</ele>
        <time>2017-06-28T06:07:49Z</time>
      </trkpt>
      <trkpt lat="68.390233973041177" lon="17.188836978748441">
        <ele>10.23</ele>
        <time>2017-06-28T06:07:50Z</time>
      </trkpt>
      <trkpt lat="68.390265991911292" lon="17.188320988789201">
        <ele>9.27</ele>
        <time>2017-06-28T06:07:51Z</time>
      </trkpt>
      <trkpt lat="68.390275966376066" lon="17.187792006880045">
        <ele>8.789999999999999</ele>
        <time>2017-06-28T06:07:52Z</time>
      </trkpt>
      <trkpt lat="68.390269009396434" lon="17.187254978343844">
        <ele>8.310000000000001</ele>
        <time>2017-06-28T06:07:53Z</time>
      </trkpt>
      <trkpt lat="68.390249982476234" lon="17.186722978949547">
        <ele>7.35</ele>
        <time>2017-06-28T06:07:54Z</time>
      </trkpt>
      <trkpt lat="68.390330029651523" lon="17.181811016052961">
        <ele>3.5</ele>
        <time>2017-06-28T06:08:03Z</time>
      </trkpt>
      <trkpt lat="68.391211973503232" lon="17.175991041585803">
        <ele>6.87</ele>
        <time>2017-06-28T06:08:15Z</time>
      </trkpt>
      <trkpt lat="68.392133982852101" lon="17.16853098012507">
        <ele>10.710000000000001</ele>
        <time>2017-06-28T06:08:30Z</time>
      </trkpt>
      <trkpt lat="68.39195704087615" lon="17.164194015786052">
        <ele>6.87</ele>
        <time>2017-06-28T06:08:38Z</time>
      </trkpt>
      <trkpt lat="68.391207028180361" lon="17.152434960007668">
        <ele>2.54</ele>
        <time>2017-06-28T06:09:00Z</time>
      </trkpt>
      <trkpt lat="68.390681985765696" lon="17.144280038774014">
        <ele>9.27</ele>
        <time>2017-06-28T06:09:16Z</time>
      </trkpt>
      <trkpt lat="68.390118973329663" lon="17.137487009167671">
        <ele>5.91</ele>
        <time>2017-06-28T06:09:29Z</time>
      </trkpt>
      <trkpt lat="68.389278016984463" lon="17.133969040587544">
        <ele>7.35</ele>
        <time>2017-06-28T06:09:37Z</time>
      </trkpt>
      <trkpt lat="68.386895963922143" lon="17.125962981954217">
        <ele>12.630000000000001</ele>
        <time>2017-06-28T06:09:57Z</time>
      </trkpt>
      <trkpt lat="68.385352017357945" lon="17.120997039601207">
        <ele>4.46</ele>
        <time>2017-06-28T06:10:09Z</time>
      </trkpt>
      <trkpt lat="68.384191961959004" lon="17.119448985904455">
        <ele>4.46</ele>
        <time>2017-06-28T06:10:16Z</time>
      </trkpt>
      <trkpt lat="68.382804002612829" lon="17.119324011728168">
        <ele>5.91</ele>
        <time>2017-06-28T06:10:23Z</time>
      </trkpt>
      <trkpt lat="68.382061030715704" lon="17.119199959561229">
        <ele>2.54</ele>
        <time>2017-06-28T06:10:27Z</time>
      </trkpt>
      <trkpt lat="68.381891967728734" lon="17.119070962071419">
        <ele>2.06</ele>
        <time>2017-06-28T06:10:28Z</time>
      </trkpt>
      <trkpt lat="68.381733968853951" lon="17.118893014267087">
        <ele>1.58</ele>
        <time>2017-06-28T06:10:29Z</time>
      </trkpt>
      <trkpt lat="68.381585022434592" lon="17.118664020672441">
        <ele>1.1</ele>
        <time>2017-06-28T06:10:30Z</time>
      </trkpt>
      <trkpt lat="68.381446972489357" lon="17.118380041792989">
        <ele>0.62</ele>
        <time>2017-06-28T06:10:31Z</time>
      </trkpt>
      <trkpt lat="68.381320992484689" lon="17.118054991587996">
        <ele>0.14</ele>
        <time>2017-06-28T06:10:32Z</time>
      </trkpt>
      <trkpt lat="68.381213033571839" lon="17.117675039917231">
        <ele>-0.34</ele>
        <time>2017-06-28T06:10:33Z</time>
      </trkpt>
      <trkpt lat="68.381119994446635" lon="17.117256028577685">
        <ele>-0.82</ele>
        <time>2017-06-28T06:10:34Z</time>
      </trkpt>
      <trkpt lat="68.381043970584869" lon="17.116803992539644">
        <ele>-0.82</ele>
        <time>2017-06-28T06:10:35Z</time>
      </trkpt>
      <trkpt lat="68.380986973643303" lon="17.116331001743674">
        <ele>-0.82</ele>
        <time>2017-06-28T06:10:36Z</time>
      </trkpt>
      <trkpt lat="68.380954032763839" lon="17.115834038704634">
        <ele>-0.82</ele>
        <time>2017-06-28T06:10:37Z</time>
      </trkpt>
      <trkpt lat="68.380939029157162" lon="17.115325005725026">
        <ele>-0.34</ele>
        <time>2017-06-28T06:10:38Z</time>
      </trkpt>
      <trkpt lat="68.380935005843639" lon="17.114805998280644">
        <ele>-0.34</ele>
        <time>2017-06-28T06:10:39Z</time>
      </trkpt>
      <trkpt lat="68.380965013056993" lon="17.10914402268827">
        <ele>-0.82</ele>
        <time>2017-06-28T06:10:50Z</time>
      </trkpt>
      <trkpt lat="68.381013963371515" lon="17.108664996922016">
        <ele>-0.34</ele>
        <time>2017-06-28T06:10:51Z</time>
      </trkpt>
      <trkpt lat="68.381084036082029" lon="17.108212960883975">
        <ele>-0.34</ele>
        <time>2017-06-28T06:10:52Z</time>
      </trkpt>
      <trkpt lat="68.381174979731441" lon="17.107795039191842">
        <ele>-0.34</ele>
        <time>2017-06-28T06:10:53Z</time>
      </trkpt>
      <trkpt lat="68.381287967786193" lon="17.107421960681677">
        <ele>0.62</ele>
        <time>2017-06-28T06:10:54Z</time>
      </trkpt>
      <trkpt lat="68.381417971104383" lon="17.107105040922761">
        <ele>1.1</ele>
        <time>2017-06-28T06:10:55Z</time>
      </trkpt>
      <trkpt lat="68.38155803270638" lon="17.106830030679703">
        <ele>2.06</ele>
        <time>2017-06-28T06:10:56Z</time>
      </trkpt>
      <trkpt lat="68.381700022146106" lon="17.106570024043322">
        <ele>3.02</ele>
        <time>2017-06-28T06:10:57Z</time>
      </trkpt>
      <trkpt lat="68.38196899741888" lon="17.105992008000612">
        <ele>4.94</ele>
        <time>2017-06-28T06:10:59Z</time>
      </trkpt>
      <trkpt lat="68.382080979645252" lon="17.105665029957891">
        <ele>4.94</ele>
        <time>2017-06-28T06:11:00Z</time>
      </trkpt>
      <trkpt lat="68.382186004891992" lon="17.105307960882783">
        <ele>5.42</ele>
        <time>2017-06-28T06:11:01Z</time>
      </trkpt>
      <trkpt lat="68.383288979530334" lon="17.100438997149467">
        <ele>15.52</ele>
        <time>2017-06-28T06:11:13Z</time>
      </trkpt>
      <trkpt lat="68.383447984233499" lon="17.097444981336594">
        <ele>18.879999999999999</ele>
        <time>2017-06-28T06:11:19Z</time>
      </trkpt>
      <trkpt lat="68.383190995082259" lon="17.092235963791609">
        <ele>23.690000000000001</ele>
        <time>2017-06-28T06:11:29Z</time>
      </trkpt>
      <trkpt lat="68.382757985964417" lon="17.085064994171262">
        <ele>30.899999999999999</ele>
        <time>2017-06-28T06:11:42Z</time>
      </trkpt>
      <trkpt lat="68.381976960226893" lon="17.078842017799616">
        <ele>41.950000000000003</ele>
        <time>2017-06-28T06:11:54Z</time>
      </trkpt>
      <trkpt lat="68.380883038043976" lon="17.070649964734912">
        <ele>37.149999999999999</ele>
        <time>2017-06-28T06:12:09Z</time>
      </trkpt>
      <trkpt lat="68.380343997851014" lon="17.064632009714842">
        <ele>30.420000000000002</ele>
        <time>2017-06-28T06:12:20Z</time>
      </trkpt>
      <trkpt lat="68.380618002265692" lon="17.059128032997251">
        <ele>32.82</ele>
        <time>2017-06-28T06:12:30Z</time>
      </trkpt>
      <trkpt lat="68.380630994215608" lon="17.05809697508812">
        <ele>32.340000000000003</ele>
        <time>2017-06-28T06:12:32Z</time>
      </trkpt>
      <trkpt lat="68.380611967295408" lon="17.057611998170614">
        <ele>31.379999999999999</ele>
        <time>2017-06-28T06:12:33Z</time>
      </trkpt>
      <trkpt lat="68.380581038072705" lon="17.05712903290987">
        <ele>29.940000000000001</ele>
        <time>2017-06-28T06:12:34Z</time>
      </trkpt>
      <trkpt lat="68.380045015364885" lon="17.052612025290728">
        <ele>18.879999999999999</ele>
        <time>2017-06-28T06:12:43Z</time>
      </trkpt>
      <trkpt lat="68.378860987722874" lon="17.045217007398605">
        <ele>-2.27</ele>
        <time>2017-06-28T06:12:58Z</time>
      </trkpt>
      <trkpt lat="68.378568962216377" lon="17.043640958145261">
        <ele>0.14</ele>
        <time>2017-06-28T06:13:02Z</time>
      </trkpt>
      <trkpt lat="68.378482041880488" lon="17.043344993144274">
        <ele>0.62</ele>
        <time>2017-06-28T06:13:03Z</time>
      </trkpt>
      <trkpt lat="68.378385985270143" lon="17.043098984286189">
        <ele>1.58</ele>
        <time>2017-06-28T06:13:04Z</time>
      </trkpt>
      <trkpt lat="68.378277020528913" lon="17.042890023440123">
        <ele>2.06</ele>
        <time>2017-06-28T06:13:05Z</time>
      </trkpt>
      <trkpt lat="68.378153974190354" lon="17.042718026787043">
        <ele>2.54</ele>
        <time>2017-06-28T06:13:06Z</time>
      </trkpt>
      <trkpt lat="68.378016008064151" lon="17.042592968791723">
        <ele>3.02</ele>
        <time>2017-06-28T06:13:07Z</time>
      </trkpt>
      <trkpt lat="68.377869995310903" lon="17.04251803457737">
        <ele>3.98</ele>
        <time>2017-06-28T06:13:08Z</time>
      </trkpt>
      <trkpt lat="68.377718031406403" lon="17.042474029585719">
        <ele>4.46</ele>
        <time>2017-06-28T06:13:09Z</time>
      </trkpt>
      <trkpt lat="68.377560032531619" lon="17.042451985180378">
        <ele>5.42</ele>
        <time>2017-06-28T06:13:10Z</time>
      </trkpt>
      <trkpt lat="68.375054011121392" lon="17.04260503873229">
        <ele>14.56</ele>
        <time>2017-06-28T06:13:25Z</time>
      </trkpt>
      <trkpt lat="68.373217033222318" lon="17.042663963511586">
        <ele>20.32</ele>
        <time>2017-06-28T06:13:36Z</time>
      </trkpt>
      <trkpt lat="68.373064985498786" lon="17.042560027912259">
        <ele>20.32</ele>
        <time>2017-06-28T06:13:37Z</time>
      </trkpt>
      <trkpt lat="68.37292199023068" lon="17.042405968531966">
        <ele>20.809999999999999</ele>
        <time>2017-06-28T06:13:38Z</time>
      </trkpt>
      <trkpt lat="68.372789975255728" lon="17.042193990200758">
        <ele>20.809999999999999</ele>
        <time>2017-06-28T06:13:39Z</time>
      </trkpt>
      <trkpt lat="68.372667012736201" lon="17.04193901270628">
        <ele>20.809999999999999</ele>
        <time>2017-06-28T06:13:40Z</time>
      </trkpt>
      <trkpt lat="68.372556958347559" lon="17.041631983593106">
        <ele>20.809999999999999</ele>
        <time>2017-06-28T06:13:41Z</time>
      </trkpt>
      <trkpt lat="68.372455034404993" lon="17.041285978630185">
        <ele>21.289999999999999</ele>
        <time>2017-06-28T06:13:42Z</time>
      </trkpt>
      <trkpt lat="68.37236400693655" lon="17.040922958403826">
        <ele>21.289999999999999</ele>
        <time>2017-06-28T06:13:43Z</time>
      </trkpt>
      <trkpt lat="68.372010039165616" lon="17.039685035124421">
        <ele>21.289999999999999</ele>
        <time>2017-06-28T06:13:47Z</time>
      </trkpt>
      <trkpt lat="68.371911970898509" lon="17.039484037086368">
        <ele>21.289999999999999</ele>
        <time>2017-06-28T06:13:48Z</time>
      </trkpt>
      <trkpt lat="68.371807029470801" lon="17.039331989362836">
        <ele>20.809999999999999</ele>
        <time>2017-06-28T06:13:49Z</time>
      </trkpt>
      <trkpt lat="68.371695969253778" lon="17.039228975772858">
        <ele>20.32</ele>
        <time>2017-06-28T06:13:50Z</time>
      </trkpt>
      <trkpt lat="68.371576024219394" lon="17.039168961346149">
        <ele>19.84</ele>
        <time>2017-06-28T06:13:51Z</time>
      </trkpt>
      <trkpt lat="68.371452977880836" lon="17.039162004366517">
        <ele>19.84</ele>
        <time>2017-06-28T06:13:52Z</time>
      </trkpt>
      <trkpt lat="68.37133496068418" lon="17.039211038500071">
        <ele>18.879999999999999</ele>
        <time>2017-06-28T06:13:53Z</time>
      </trkpt>
      <trkpt lat="68.371218033134937" lon="17.039317991584539">
        <ele>18.879999999999999</ele>
        <time>2017-06-28T06:13:54Z</time>
      </trkpt>
      <trkpt lat="68.371106972917914" lon="17.039472972974181">
        <ele>17.920000000000002</ele>
        <time>2017-06-28T06:13:55Z</time>
      </trkpt>
      <trkpt lat="68.370999014005065" lon="17.039672965183854">
        <ele>17.920000000000002</ele>
        <time>2017-06-28T06:13:56Z</time>
      </trkpt>
      <trkpt lat="68.370889965444803" lon="17.039905982092023">
        <ele>17.440000000000001</ele>
        <time>2017-06-28T06:13:57Z</time>
      </trkpt>
      <trkpt lat="68.369939960539341" lon="17.041860977187753">
        <ele>15.039999999999999</ele>
        <time>2017-06-28T06:14:05Z</time>
      </trkpt>
      <trkpt lat="68.369799982756376" lon="17.042017970234156">
        <ele>14.56</ele>
        <time>2017-06-28T06:14:06Z</time>
      </trkpt>
      <trkpt lat="68.369655981659889" lon="17.04213397577405">
        <ele>14.08</ele>
        <time>2017-06-28T06:14:07Z</time>
      </trkpt>
      <trkpt lat="68.369504017755389" lon="17.042208993807435">
        <ele>14.08</ele>
        <time>2017-06-28T06:14:08Z</time>
      </trkpt>
      <trkpt lat="68.369349036365747" lon="17.042245035991073">
        <ele>13.6</ele>
        <time>2017-06-28T06:14:09Z</time>
      </trkpt>
      <trkpt lat="68.369186008349061" lon="17.042254004627466">
        <ele>13.119999999999999</ele>
        <time>2017-06-28T06:14:10Z</time>
      </trkpt>
      <trkpt lat="68.367104027420282" lon="17.042447039857507">
        <ele>11.19</ele>
        <time>2017-06-28T06:14:23Z</time>
      </trkpt>
      <trkpt lat="68.366957008838654" lon="17.042403034865856">
        <ele>11.19</ele>
        <time>2017-06-28T06:14:24Z</time>
      </trkpt>
      <trkpt lat="68.366812001913786" lon="17.042303960770369">
        <ele>11.19</ele>
        <time>2017-06-28T06:14:25Z</time>
      </trkpt>
      <trkpt lat="68.366676969453692" lon="17.042159959673882">
        <ele>11.19</ele>
        <time>2017-06-28T06:14:26Z</time>
      </trkpt>
      <trkpt lat="68.366548977792263" lon="17.041958961635828">
        <ele>10.710000000000001</ele>
        <time>2017-06-28T06:14:27Z</time>
      </trkpt>
      <trkpt lat="68.366427021101117" lon="17.04172401688993">
        <ele>11.19</ele>
        <time>2017-06-28T06:14:28Z</time>
      </trkpt>
      <trkpt lat="68.366303974762559" lon="17.041486976668239">
        <ele>11.19</ele>
        <time>2017-06-28T06:14:29Z</time>
      </trkpt>
      <trkpt lat="68.366169026121497" lon="17.04127399250865">
        <ele>11.19</ele>
        <time>2017-06-28T06:14:30Z</time>
      </trkpt>
      <trkpt lat="68.366027036681771" lon="17.04110300168395">
        <ele>11.19</ele>
        <time>2017-06-28T06:14:31Z</time>
      </trkpt>
      <trkpt lat="68.365877000615001" lon="17.040977021679282">
        <ele>11.19</ele>
        <time>2017-06-28T06:14:32Z</time>
      </trkpt>
      <trkpt lat="68.365722019225359" lon="17.040893035009503">
        <ele>11.19</ele>
        <time>2017-06-28T06:14:33Z</time>
      </trkpt>
      <trkpt lat="68.365562008693814" lon="17.040836038067937">
        <ele>10.710000000000001</ele>
        <time>2017-06-28T06:14:34Z</time>
      </trkpt>
      <trkpt lat="68.362864963710308" lon="17.039688974618912">
        <ele>10.710000000000001</ele>
        <time>2017-06-28T06:14:50Z</time>
      </trkpt>
      <trkpt lat="68.360398001968861" lon="17.037292001768947">
        <ele>7.35</ele>
        <time>2017-06-28T06:15:05Z</time>
      </trkpt>
      <trkpt lat="68.358410988003016" lon="17.034788997843862">
        <ele>3.98</ele>
        <time>2017-06-28T06:15:17Z</time>
      </trkpt>
      <trkpt lat="68.356490023434162" lon="17.030367041006684">
        <ele>4.46</ele>
        <time>2017-06-28T06:15:30Z</time>
      </trkpt>
      <trkpt lat="68.355044983327389" lon="17.026052037253976">
        <ele>3.02</ele>
        <time>2017-06-28T06:15:41Z</time>
      </trkpt>
      <trkpt lat="68.354940041899681" lon="17.025600001215935">
        <ele>2.54</ele>
        <time>2017-06-28T06:15:42Z</time>
      </trkpt>
      <trkpt lat="68.354853037744761" lon="17.025124998763204">
        <ele>2.06</ele>
        <time>2017-06-28T06:15:43Z</time>
      </trkpt>
      <trkpt lat="68.354792017489672" lon="17.024635998532176">
        <ele>2.06</ele>
        <time>2017-06-28T06:15:44Z</time>
      </trkpt>
      <trkpt lat="68.354752035811543" lon="17.024131994694471">
        <ele>2.06</ele>
        <time>2017-06-28T06:15:45Z</time>
      </trkpt>
      <trkpt lat="68.354736026376486" lon="17.023611981421709">
        <ele>2.06</ele>
        <time>2017-06-28T06:15:46Z</time>
      </trkpt>
      <trkpt lat="68.354742983356118" lon="17.023106971755624">
        <ele>1.58</ele>
        <time>2017-06-28T06:15:47Z</time>
      </trkpt>
      <trkpt lat="68.354770978912711" lon="17.022597016766667">
        <ele>1.58</ele>
        <time>2017-06-28T06:15:48Z</time>
      </trkpt>
      <trkpt lat="68.354819007217884" lon="17.022097958251834">
        <ele>2.06</ele>
        <time>2017-06-28T06:15:49Z</time>
      </trkpt>
      <trkpt lat="68.354890001937747" lon="17.021617004647851">
        <ele>2.06</ele>
        <time>2017-06-28T06:15:50Z</time>
      </trkpt>
      <trkpt lat="68.354979017749429" lon="17.021145019680262">
        <ele>2.06</ele>
        <time>2017-06-28T06:15:51Z</time>
      </trkpt>
      <trkpt lat="68.355074990540743" lon="17.020688038319349">
        <ele>2.06</ele>
        <time>2017-06-28T06:15:52Z</time>
      </trkpt>
      <trkpt lat="68.355645965784788" lon="17.01671501621604">
        <ele>2.06</ele>
        <time>2017-06-28T06:16:00Z</time>
      </trkpt>
      <trkpt lat="68.355702040717006" lon="17.011652011424303">
        <ele>0.14</ele>
        <time>2017-06-28T06:16:10Z</time>
      </trkpt>
      <trkpt lat="68.355748979374766" lon="17.011211039498448">
        <ele>-0.34</ele>
        <time>2017-06-28T06:16:11Z</time>
      </trkpt>
      <trkpt lat="68.355813017114997" lon="17.010784987360239">
        <ele>-0.34</ele>
        <time>2017-06-28T06:16:12Z</time>
      </trkpt>
      <trkpt lat="68.355898009613156" lon="17.010380979627371">
        <ele>-0.82</ele>
        <time>2017-06-28T06:16:13Z</time>
      </trkpt>
      <trkpt lat="68.356001023203135" lon="17.010019971057773">
        <ele>-0.82</ele>
        <time>2017-06-28T06:16:14Z</time>
      </trkpt>
      <trkpt lat="68.356120968237519" lon="17.009680001065135">
        <ele>-0.82</ele>
        <time>2017-06-28T06:16:15Z</time>
      </trkpt>
      <trkpt lat="68.356260024011135" lon="17.0093709602952">
        <ele>-0.82</ele>
        <time>2017-06-28T06:16:16Z</time>
      </trkpt>
      <trkpt lat="68.356419028714299" lon="17.009096033871174">
        <ele>-0.34</ele>
        <time>2017-06-28T06:16:17Z</time>
      </trkpt>
      <trkpt lat="68.356580967083573" lon="17.008863016963005">
        <ele>0.14</ele>
        <time>2017-06-28T06:16:18Z</time>
      </trkpt>
      <trkpt lat="68.356751035898924" lon="17.00865900143981">
        <ele>-0.34</ele>
        <time>2017-06-28T06:16:19Z</time>
      </trkpt>
      <trkpt lat="68.356929989531636" lon="17.00848700478673">
        <ele>-0.34</ele>
        <time>2017-06-28T06:16:20Z</time>
      </trkpt>
      <trkpt lat="68.35711196064949" lon="17.008324982598424">
        <ele>0.14</ele>
        <time>2017-06-28T06:16:21Z</time>
      </trkpt>
      <trkpt lat="68.357966998592019" lon="17.007523002102971">
        <ele>1.58</ele>
        <time>2017-06-28T06:16:26Z</time>
      </trkpt>
      <trkpt lat="68.358107982203364" lon="17.007302977144718">
        <ele>2.06</ele>
        <time>2017-06-28T06:16:27Z</time>
      </trkpt>
      <trkpt lat="68.358229016885161" lon="17.007029978558421">
        <ele>2.06</ele>
        <time>2017-06-28T06:16:28Z</time>
      </trkpt>
      <trkpt lat="68.358330018818378" lon="17.006711969152093">
        <ele>2.06</ele>
        <time>2017-06-28T06:16:29Z</time>
      </trkpt>
      <trkpt lat="68.358417022973299" lon="17.006344003602862">
        <ele>2.06</ele>
        <time>2017-06-28T06:16:30Z</time>
      </trkpt>
      <trkpt lat="68.358492041006684" lon="17.005933038890362">
        <ele>2.06</ele>
        <time>2017-06-28T06:16:31Z</time>
      </trkpt>
      <trkpt lat="68.358553983271122" lon="17.005487959831953">
        <ele>2.06</ele>
        <time>2017-06-28T06:16:32Z</time>
      </trkpt>
      <trkpt lat="68.358609974384308" lon="17.005011029541492">
        <ele>2.06</ele>
        <time>2017-06-28T06:16:33Z</time>
      </trkpt>
      <trkpt lat="68.35902001708746" lon="17.000871039927006">
        <ele>1.58</ele>
        <time>2017-06-28T06:16:41Z</time>
      </trkpt>
      <trkpt lat="68.35902102291584" lon="17.00034499168396">
        <ele>1.58</ele>
        <time>2017-06-28T06:16:42Z</time>
      </trkpt>
      <trkpt lat="68.359003001824021" lon="16.999817015603185">
        <ele>1.58</ele>
        <time>2017-06-28T06:16:43Z</time>
      </trkpt>
      <trkpt lat="68.358966037631035" lon="16.999299013987184">
        <ele>1.58</ele>
        <time>2017-06-28T06:16:44Z</time>
      </trkpt>
      <trkpt lat="68.358908034861088" lon="16.99877698905766">
        <ele>1.58</ele>
        <time>2017-06-28T06:16:45Z</time>
      </trkpt>
      <trkpt lat="68.358833016827703" lon="16.998272985219955">
        <ele>1.58</ele>
        <time>2017-06-28T06:16:46Z</time>
      </trkpt>
      <trkpt lat="68.358745006844401" lon="16.997793959453702">
        <ele>1.58</ele>
        <time>2017-06-28T06:16:47Z</time>
      </trkpt>
      <trkpt lat="68.358641993254423" lon="16.997332032769918">
        <ele>1.58</ele>
        <time>2017-06-28T06:16:48Z</time>
      </trkpt>
      <trkpt lat="68.358530011028051" lon="16.996875973418355">
        <ele>1.1</ele>
        <time>2017-06-28T06:16:49Z</time>
      </trkpt>
      <trkpt lat="68.356655985116959" lon="16.988695990294218">
        <ele>-0.82</ele>
        <time>2017-06-28T06:17:07Z</time>
      </trkpt>
      <trkpt lat="68.356415005400777" lon="16.985150026157498">
        <ele>-0.82</ele>
        <time>2017-06-28T06:17:14Z</time>
      </trkpt>
      <trkpt lat="68.356307968497276" lon="16.9789660256356">
        <ele>-0.34</ele>
        <time>2017-06-28T06:17:26Z</time>
      </trkpt>
      <trkpt lat="68.35575602017343" lon="16.973359035328031">
        <ele>1.1</ele>
        <time>2017-06-28T06:17:37Z</time>
      </trkpt>
      <trkpt lat="68.35500399582088" lon="16.968433996662498">
        <ele>1.58</ele>
        <time>2017-06-28T06:17:47Z</time>
      </trkpt>
      <trkpt lat="68.354557994753122" lon="16.964323008432984">
        <ele>1.58</ele>
        <time>2017-06-28T06:17:55Z</time>
      </trkpt>
      <trkpt lat="68.353892974555492" lon="16.960304975509644">
        <ele>-1.3</ele>
        <time>2017-06-28T06:18:03Z</time>
      </trkpt>
      <trkpt lat="68.353054029867053" lon="16.954846009612083">
        <ele>-1.79</ele>
        <time>2017-06-28T06:18:14Z</time>
      </trkpt>
      <trkpt lat="68.351948959752917" lon="16.949607990682125">
        <ele>-2.75</ele>
        <time>2017-06-28T06:18:25Z</time>
      </trkpt>
      <trkpt lat="68.35137496702373" lon="16.94570898078382">
        <ele>0.62</ele>
        <time>2017-06-28T06:18:33Z</time>
      </trkpt>
      <trkpt lat="68.351280000060797" lon="16.945259962230921">
        <ele>1.58</ele>
        <time>2017-06-28T06:18:34Z</time>
      </trkpt>
      <trkpt lat="68.351163994520903" lon="16.944830976426601">
        <ele>1.58</ele>
        <time>2017-06-28T06:18:35Z</time>
      </trkpt>
      <trkpt lat="68.351033991202712" lon="16.94441900588572">
        <ele>1.58</ele>
        <time>2017-06-28T06:18:36Z</time>
      </trkpt>
      <trkpt lat="68.350890995934606" lon="16.94403100758791">
        <ele>1.1</ele>
        <time>2017-06-28T06:18:37Z</time>
      </trkpt>
      <trkpt lat="68.350738026201725" lon="16.943653989583254">
        <ele>1.1</ele>
        <time>2017-06-28T06:18:38Z</time>
      </trkpt>
      <trkpt lat="68.349228026345372" lon="16.939363963901997">
        <ele>2.54</ele>
        <time>2017-06-28T06:18:49Z</time>
      </trkpt>
      <trkpt lat="68.348602987825871" lon="16.935598980635405">
        <ele>5.42</ele>
        <time>2017-06-28T06:18:57Z</time>
      </trkpt>
      <trkpt lat="68.347932016476989" lon="16.93219400011003">
        <ele>8.789999999999999</ele>
        <time>2017-06-28T06:19:05Z</time>
      </trkpt>
      <trkpt lat="68.346906993538141" lon="16.928031966090202">
        <ele>4.94</ele>
        <time>2017-06-28T06:19:16Z</time>
      </trkpt>
      <trkpt lat="68.346338029950857" lon="16.923150010406971">
        <ele>2.06</ele>
        <time>2017-06-28T06:19:27Z</time>
      </trkpt>
      <trkpt lat="68.345537977293134" lon="16.915603028610349">
        <ele>3.5</ele>
        <time>2017-06-28T06:19:45Z</time>
      </trkpt>
      <trkpt lat="68.344817971810699" lon="16.910775974392891">
        <ele>4.94</ele>
        <time>2017-06-28T06:19:56Z</time>
      </trkpt>
      <trkpt lat="68.344072988256812" lon="16.906253015622497">
        <ele>8.789999999999999</ele>
        <time>2017-06-28T06:20:06Z</time>
      </trkpt>
      <trkpt lat="68.344053961336613" lon="16.905771978199482">
        <ele>9.27</ele>
        <time>2017-06-28T06:20:07Z</time>
      </trkpt>
      <trkpt lat="68.344050021842122" lon="16.905280966311693">
        <ele>9.75</ele>
        <time>2017-06-28T06:20:08Z</time>
      </trkpt>
      <trkpt lat="68.344063013792038" lon="16.904790038242936">
        <ele>10.23</ele>
        <time>2017-06-28T06:20:09Z</time>
      </trkpt>
      <trkpt lat="68.34408899769187" lon="16.90430598333478">
        <ele>10.23</ele>
        <time>2017-06-28T06:20:10Z</time>
      </trkpt>
      <trkpt lat="68.34413199685514" lon="16.903837015852332">
        <ele>10.710000000000001</ele>
        <time>2017-06-28T06:20:11Z</time>
      </trkpt>
      <trkpt lat="68.344192011281848" lon="16.903371987864375">
        <ele>11.19</ele>
        <time>2017-06-28T06:20:12Z</time>
      </trkpt>
      <trkpt lat="68.344267029315233" lon="16.902926992624998">
        <ele>11.67</ele>
        <time>2017-06-28T06:20:13Z</time>
      </trkpt>
      <trkpt lat="68.344352021813393" lon="16.902492977678776">
        <ele>12.15</ele>
        <time>2017-06-28T06:20:14Z</time>
      </trkpt>
      <trkpt lat="68.344450006261468" lon="16.902076983824372">
        <ele>12.630000000000001</ele>
        <time>2017-06-28T06:20:15Z</time>
      </trkpt>
      <trkpt lat="68.344555031508207" lon="16.901659984141588">
        <ele>14.08</ele>
        <time>2017-06-28T06:20:16Z</time>
      </trkpt>
      <trkpt lat="68.344667013734579" lon="16.901264023035765">
        <ele>14.56</ele>
        <time>2017-06-28T06:20:17Z</time>
      </trkpt>
      <trkpt lat="68.345347037538886" lon="16.898968974128366">
        <ele>16.48</ele>
        <time>2017-06-28T06:20:23Z</time>
      </trkpt>
      <trkpt lat="68.345428006723523" lon="16.898535965010524">
        <ele>16</ele>
        <time>2017-06-28T06:20:24Z</time>
      </trkpt>
      <trkpt lat="68.345493972301483" lon="16.898094993084669">
        <ele>15.52</ele>
        <time>2017-06-28T06:20:25Z</time>
      </trkpt>
      <trkpt lat="68.345545018091798" lon="16.89764304086566">
        <ele>14.56</ele>
        <time>2017-06-28T06:20:26Z</time>
      </trkpt>
      <trkpt lat="68.345577036961913" lon="16.897181030362844">
        <ele>13.119999999999999</ele>
        <time>2017-06-28T06:20:27Z</time>
      </trkpt>
      <trkpt lat="68.34559204056859" lon="16.896710973232985">
        <ele>12.15</ele>
        <time>2017-06-28T06:20:28Z</time>
      </trkpt>
      <trkpt lat="68.345583993941545" lon="16.896219961345196">
        <ele>10.23</ele>
        <time>2017-06-28T06:20:29Z</time>
      </trkpt>
      <trkpt lat="68.345560021698475" lon="16.895724004134536">
        <ele>8.789999999999999</ele>
        <time>2017-06-28T06:20:30Z</time>
      </trkpt>
      <trkpt lat="68.345524985343218" lon="16.895220000296831">
        <ele>7.83</ele>
        <time>2017-06-28T06:20:31Z</time>
      </trkpt>
      <trkpt lat="68.34548600949347" lon="16.89472203142941">
        <ele>6.39</ele>
        <time>2017-06-28T06:20:32Z</time>
      </trkpt>
      <trkpt lat="68.344866000115871" lon="16.890486991032958">
        <ele>5.42</ele>
        <time>2017-06-28T06:20:41Z</time>
      </trkpt>
      <trkpt lat="68.343567978590727" lon="16.88425999134779">
        <ele>-4.67</ele>
        <time>2017-06-28T06:20:55Z</time>
      </trkpt>
      <trkpt lat="68.342609005048871" lon="16.87833197414875">
        <ele>-2.75</ele>
        <time>2017-06-28T06:21:08Z</time>
      </trkpt>
      <trkpt lat="68.341850023716688" lon="16.876196013763547">
        <ele>-1.3</ele>
        <time>2017-06-28T06:21:14Z</time>
      </trkpt>
      <trkpt lat="68.340585026890039" lon="16.873028995469213">
        <ele>4.94</ele>
        <time>2017-06-28T06:21:23Z</time>
      </trkpt>
      <trkpt lat="68.339700987562537" lon="16.869496023282409">
        <ele>4.46</ele>
        <time>2017-06-28T06:21:32Z</time>
      </trkpt>
      <trkpt lat="68.338663978502154" lon="16.862620012834668">
        <ele>-1.3</ele>
        <time>2017-06-28T06:21:47Z</time>
      </trkpt>
      <trkpt lat="68.337671980261803" lon="16.856101993471384">
        <ele>-2.27</ele>
        <time>2017-06-28T06:22:02Z</time>
      </trkpt>
      <trkpt lat="68.33712799474597" lon="16.851128004491329">
        <ele>-1.79</ele>
        <time>2017-06-28T06:22:13Z</time>
      </trkpt>
      <trkpt lat="68.33693596534431" lon="16.844700006768107">
        <ele>-2.27</ele>
        <time>2017-06-28T06:22:26Z</time>
      </trkpt>
      <trkpt lat="68.336920039728284" lon="16.84318003244698">
        <ele>-1.3</ele>
        <time>2017-06-28T06:22:29Z</time>
      </trkpt>
      <trkpt lat="68.336877040565014" lon="16.842695977538824">
        <ele>-0.82</ele>
        <time>2017-06-28T06:22:30Z</time>
      </trkpt>
      <trkpt lat="68.336819959804416" lon="16.842220975086093">
        <ele>-0.34</ele>
        <time>2017-06-28T06:22:31Z</time>
      </trkpt>
      <trkpt lat="68.336751982569695" lon="16.841768017038703">
        <ele>-0.34</ele>
        <time>2017-06-28T06:22:32Z</time>
      </trkpt>
      <trkpt lat="68.33667503669858" lon="16.841327967122197">
        <ele>0.14</ele>
        <time>2017-06-28T06:22:33Z</time>
      </trkpt>
      <trkpt lat="68.336584009230137" lon="16.840895041823387">
        <ele>0.62</ele>
        <time>2017-06-28T06:22:34Z</time>
      </trkpt>
      <trkpt lat="68.33648300729692" lon="16.840486004948616">
        <ele>0.62</ele>
        <time>2017-06-28T06:22:35Z</time>
      </trkpt>
      <trkpt lat="68.3363769762218" lon="16.840088032186031">
        <ele>0.62</ele>
        <time>2017-06-28T06:22:36Z</time>
      </trkpt>
      <trkpt lat="68.334537986665964" lon="16.833637990057468">
        <ele>1.1</ele>
        <time>2017-06-28T06:22:53Z</time>
      </trkpt>
      <trkpt lat="68.333411039784551" lon="16.830644980072975">
        <ele>1.58</ele>
        <time>2017-06-28T06:23:02Z</time>
      </trkpt>
      <trkpt lat="68.331739017739892" lon="16.827652975916862">
        <ele>-0.82</ele>
        <time>2017-06-28T06:23:14Z</time>
      </trkpt>
      <trkpt lat="68.331667017191648" lon="16.827384000644088">
        <ele>-1.3</ele>
        <time>2017-06-28T06:23:15Z</time>
      </trkpt>
      <trkpt lat="68.331618988886476" lon="16.827088035643101">
        <ele>-1.3</ele>
        <time>2017-06-28T06:23:16Z</time>
      </trkpt>
      <trkpt lat="68.331589987501502" lon="16.826771032065153">
        <ele>-1.3</ele>
        <time>2017-06-28T06:23:17Z</time>
      </trkpt>
      <trkpt lat="68.331584958359599" lon="16.826428966596723">
        <ele>-1.3</ele>
        <time>2017-06-28T06:23:18Z</time>
      </trkpt>
      <trkpt lat="68.331599039956927" lon="16.826068041846156">
        <ele>-1.3</ele>
        <time>2017-06-28T06:23:19Z</time>
      </trkpt>
      <trkpt lat="68.33162896335125" lon="16.825695969164371">
        <ele>-1.3</ele>
        <time>2017-06-28T06:23:20Z</time>
      </trkpt>
      <trkpt lat="68.331674979999661" lon="16.825320962816477">
        <ele>-1.3</ele>
        <time>2017-06-28T06:23:21Z</time>
      </trkpt>
      <trkpt lat="68.331730971112847" lon="16.824944028630853">
        <ele>-0.82</ele>
        <time>2017-06-28T06:23:22Z</time>
      </trkpt>
      <trkpt lat="68.331795008853078" lon="16.824567010626197">
        <ele>-0.82</ele>
        <time>2017-06-28T06:23:23Z</time>
      </trkpt>
      <trkpt lat="68.331868015229702" lon="16.824190998449922">
        <ele>-0.82</ele>
        <time>2017-06-28T06:23:24Z</time>
      </trkpt>
      <trkpt lat="68.331952001899481" lon="16.823813980445266">
        <ele>-1.3</ele>
        <time>2017-06-28T06:23:25Z</time>
      </trkpt>
      <trkpt lat="68.332748031243682" lon="16.821525972336531">
        <ele>0.14</ele>
        <time>2017-06-28T06:23:32Z</time>
      </trkpt>
      <trkpt lat="68.334544021636248" lon="16.818017978221178">
        <ele>1.1</ele>
        <time>2017-06-28T06:23:46Z</time>
      </trkpt>
      <trkpt lat="68.335699969902635" lon="16.815709015354514">
        <ele>3.02</ele>
        <time>2017-06-28T06:23:54Z</time>
      </trkpt>
      <trkpt lat="68.336134990677238" lon="16.814946010708809">
        <ele>3.98</ele>
        <time>2017-06-28T06:23:58Z</time>
      </trkpt>
      <trkpt lat="68.336215959861875" lon="16.814903011545539">
        <ele>4.46</ele>
        <time>2017-06-28T06:23:59Z</time>
      </trkpt>
      <trkpt lat="68.336288966238499" lon="16.814936958253384">
        <ele>4.46</ele>
        <time>2017-06-28T06:24:00Z</time>
      </trkpt>
      <trkpt lat="68.33635501563549" lon="16.815042989328504">
        <ele>4.94</ele>
        <time>2017-06-28T06:24:01Z</time>
      </trkpt>
      <trkpt lat="68.336407989263535" lon="16.815213980153203">
        <ele>4.46</ele>
        <time>2017-06-28T06:24:02Z</time>
      </trkpt>
      <trkpt lat="68.336445037275553" lon="16.815453032031655">
        <ele>4.94</ele>
        <time>2017-06-28T06:24:03Z</time>
      </trkpt>
      <trkpt lat="68.336464986205101" lon="16.815739022567868">
        <ele>5.42</ele>
        <time>2017-06-28T06:24:04Z</time>
      </trkpt>
      <trkpt lat="68.336476972326636" lon="16.816069018095732">
        <ele>5.42</ele>
        <time>2017-06-28T06:24:05Z</time>
      </trkpt>
      <trkpt lat="68.336485018953681" lon="16.81643002666533">
        <ele>5.91</ele>
        <time>2017-06-28T06:24:06Z</time>
      </trkpt>
      <trkpt lat="68.336573028936982" lon="16.818114034831524">
        <ele>5.91</ele>
        <time>2017-06-28T06:24:11Z</time>
      </trkpt>
      <trkpt lat="68.336603958159685" lon="16.818330958485603">
        <ele>5.91</ele>
        <time>2017-06-28T06:24:12Z</time>
      </trkpt>
      <trkpt lat="68.33663497120142" lon="16.818500021472573">
        <ele>5.42</ele>
        <time>2017-06-28T06:24:13Z</time>
      </trkpt>
      <trkpt lat="68.336664978414774" lon="16.818618038669229">
        <ele>5.42</ele>
        <time>2017-06-28T06:24:14Z</time>
      </trkpt>
      <trkpt lat="68.336681993678212" lon="16.818673023954034">
        <ele>5.91</ele>
        <time>2017-06-28T06:24:15Z</time>
      </trkpt>
      <trkpt lat="68.336680987849832" lon="16.818763967603445">
        <ele>4.94</ele>
        <time>2017-06-28T06:24:24Z</time>
      </trkpt>
      <trkpt lat="68.33667897619307" lon="16.818814007565379">
        <ele>4.94</ele>
        <time>2017-06-28T06:24:25Z</time>
      </trkpt>
      <trkpt lat="68.336661038920283" lon="16.818978963419795">
        <ele>4.94</ele>
        <time>2017-06-28T06:24:40Z</time>
      </trkpt>
      <trkpt lat="68.336681993678212" lon="16.819270988926291">
        <ele>5.42</ele>
        <time>2017-06-28T06:24:42Z</time>
      </trkpt>
      <trkpt lat="68.336709989234805" lon="16.819471986964345">
        <ele>5.42</ele>
        <time>2017-06-28T06:24:43Z</time>
      </trkpt>
      <trkpt lat="68.337036967277527" lon="16.821965016424656">
        <ele>4.94</ele>
        <time>2017-06-28T06:24:52Z</time>
      </trkpt>
      <trkpt lat="68.337448015809059" lon="16.825466975569725">
        <ele>4.94</ele>
        <time>2017-06-28T06:25:01Z</time>
      </trkpt>
      <trkpt lat="68.337521022185683" lon="16.825835024937987">
        <ele>5.42</ele>
        <time>2017-06-28T06:25:02Z</time>
      </trkpt>
      <trkpt lat="68.337609032168984" lon="16.826181029900908">
        <ele>5.42</ele>
        <time>2017-06-28T06:25:03Z</time>
      </trkpt>
      <trkpt lat="68.337712967768312" lon="16.826501972973347">
        <ele>5.42</ele>
        <time>2017-06-28T06:25:04Z</time>
      </trkpt>
      <trkpt lat="68.337832996621728" lon="16.826795004308224">
        <ele>5.42</ele>
        <time>2017-06-28T06:25:05Z</time>
      </trkpt>
      <trkpt lat="68.337960988283157" lon="16.827074037864804">
        <ele>5.42</ele>
        <time>2017-06-28T06:25:06Z</time>
      </trkpt>
      <trkpt lat="68.339187009260058" lon="16.830330993980169">
        <ele>5.42</ele>
        <time>2017-06-28T06:25:16Z</time>
      </trkpt>
      <trkpt lat="68.339315000921488" lon="16.830594018101692">
        <ele>5.42</ele>
        <time>2017-06-28T06:25:17Z</time>
      </trkpt>
      <trkpt lat="68.339455984532833" lon="16.830828040838242">
        <ele>5.42</ele>
        <time>2017-06-28T06:25:18Z</time>
      </trkpt>
      <trkpt lat="68.339608032256365" lon="16.831014035269618">
        <ele>4.94</ele>
        <time>2017-06-28T06:25:19Z</time>
      </trkpt>
      <trkpt lat="68.339765025302768" lon="16.83116901665926">
        <ele>4.94</ele>
        <time>2017-06-28T06:25:20Z</time>
      </trkpt>
      <trkpt lat="68.339925035834312" lon="16.831305976957083">
        <ele>4.94</ele>
        <time>2017-06-28T06:25:21Z</time>
      </trkpt>
      <trkpt lat="68.341257004067302" lon="16.831778967753053">
        <ele>7.83</ele>
        <time>2017-06-28T06:25:30Z</time>
      </trkpt>
      <trkpt lat="68.342309016734362" lon="16.831650976091623">
        <ele>6.87</ele>
        <time>2017-06-28T06:25:40Z</time>
      </trkpt>
      <trkpt lat="68.34286498837173" lon="16.831582998856902">
        <ele>8.310000000000001</ele>
        <time>2017-06-28T06:25:47Z</time>
      </trkpt>
      <trkpt lat="68.34290899336338" lon="16.831523990258574">
        <ele>7.83</ele>
        <time>2017-06-28T06:25:48Z</time>
      </trkpt>
      <trkpt lat="68.342943023890257" lon="16.831422988325357">
        <ele>7.83</ele>
        <time>2017-06-28T06:25:49Z</time>
      </trkpt>
      <trkpt lat="68.342959033325315" lon="16.831272030249238">
        <ele>7.35</ele>
        <time>2017-06-28T06:25:50Z</time>
      </trkpt>
      <trkpt lat="68.342957021668553" lon="16.831080000847578">
        <ele>6.87</ele>
        <time>2017-06-28T06:25:51Z</time>
      </trkpt>
      <trkpt lat="68.342955010011792" lon="16.830860981717706">
        <ele>6.87</ele>
        <time>2017-06-28T06:25:52Z</time>
      </trkpt>
      <trkpt lat="68.342803968116641" lon="16.82850600220263">
        <ele>6.39</ele>
        <time>2017-06-28T06:26:00Z</time>
      </trkpt>
      <trkpt lat="68.342638006433845" lon="16.826706994324923">
        <ele>5.91</ele>
        <time>2017-06-28T06:26:07Z</time>
      </trkpt>
      <trkpt lat="68.342138025909662" lon="16.824265010654926">
        <ele>6.39</ele>
        <time>2017-06-28T06:26:15Z</time>
      </trkpt>
      <trkpt lat="68.341363035142422" lon="16.819988982751966">
        <ele>8.310000000000001</ele>
        <time>2017-06-28T06:26:26Z</time>
      </trkpt>
      <trkpt lat="68.340598018839955" lon="16.815546993166208">
        <ele>15.52</ele>
        <time>2017-06-28T06:26:37Z</time>
      </trkpt>
      <trkpt lat="68.340569017454982" lon="16.815184978768229">
        <ele>16.48</ele>
        <time>2017-06-28T06:26:38Z</time>
      </trkpt>
      <trkpt lat="68.340563988313079" lon="16.814821036532521">
        <ele>17.440000000000001</ele>
        <time>2017-06-28T06:26:39Z</time>
      </trkpt>
      <trkpt lat="68.340584021061659" lon="16.814448963850737">
        <ele>18.399999999999999</ele>
        <time>2017-06-28T06:26:40Z</time>
      </trkpt>
      <trkpt lat="68.340618973597884" lon="16.814078986644745">
        <ele>18.879999999999999</ele>
        <time>2017-06-28T06:26:41Z</time>
      </trkpt>
      <trkpt lat="68.340649986639619" lon="16.813716972246766">
        <ele>19.84</ele>
        <time>2017-06-28T06:26:42Z</time>
      </trkpt>
      <trkpt lat="68.340671025216579" lon="16.813346995040774">
        <ele>21.289999999999999</ele>
        <time>2017-06-28T06:26:43Z</time>
      </trkpt>
      <trkpt lat="68.340671025216579" lon="16.812968971207738">
        <ele>22.25</ele>
        <time>2017-06-28T06:26:44Z</time>
      </trkpt>
      <trkpt lat="68.340646969154477" lon="16.812578039243817">
        <ele>22.73</ele>
        <time>2017-06-28T06:26:45Z</time>
      </trkpt>
      <trkpt lat="68.34060899913311" lon="16.812186017632484">
        <ele>23.690000000000001</ele>
        <time>2017-06-28T06:26:46Z</time>
      </trkpt>
      <trkpt lat="68.340558037161827" lon="16.811792990192771">
        <ele>24.649999999999999</ele>
        <time>2017-06-28T06:26:47Z</time>
      </trkpt>
      <trkpt lat="68.339863009750843" lon="16.806883960962296">
        <ele>31.379999999999999</ele>
        <time>2017-06-28T06:26:58Z</time>
      </trkpt>
      <trkpt lat="68.339623035863042" lon="16.805673027411103">
        <ele>33.780000000000001</ele>
        <time>2017-06-28T06:27:01Z</time>
      </trkpt>
      <trkpt lat="68.339519016444683" lon="16.805330039933324">
        <ele>34.259999999999998</ele>
        <time>2017-06-28T06:27:02Z</time>
      </trkpt>
      <trkpt lat="68.339202012866735" lon="16.804332006722689">
        <ele>32.340000000000003</ele>
        <time>2017-06-28T06:27:05Z</time>
      </trkpt>
      <trkpt lat="68.339121965691447" lon="16.803954988718033">
        <ele>31.379999999999999</ele>
        <time>2017-06-28T06:27:06Z</time>
      </trkpt>
      <trkpt lat="68.339063040912151" lon="16.803549975156784">
        <ele>30.899999999999999</ele>
        <time>2017-06-28T06:27:07Z</time>
      </trkpt>
      <trkpt lat="68.339026998728514" lon="16.803124006837606">
        <ele>30.899999999999999</ele>
        <time>2017-06-28T06:27:08Z</time>
      </trkpt>
      <trkpt lat="68.339005960151553" lon="16.802673982456326">
        <ele>31.379999999999999</ele>
        <time>2017-06-28T06:27:09Z</time>
      </trkpt>
      <trkpt lat="68.338992968201637" lon="16.802204009145498">
        <ele>32.340000000000003</ele>
        <time>2017-06-28T06:27:10Z</time>
      </trkpt>
      <trkpt lat="68.33865400403738" lon="16.7967280279845">
        <ele>40.509999999999998</ele>
        <time>2017-06-28T06:27:21Z</time>
      </trkpt>
      <trkpt lat="68.338079005479813" lon="16.793408961966634">
        <ele>37.630000000000003</ele>
        <time>2017-06-28T06:27:28Z</time>
      </trkpt>
      <trkpt lat="68.336272034794092" lon="16.786053003743291">
        <ele>43.880000000000003</ele>
        <time>2017-06-28T06:27:45Z</time>
      </trkpt>
      <trkpt lat="68.334999997168779" lon="16.780733009800315">
        <ele>45.32</ele>
        <time>2017-06-28T06:27:58Z</time>
      </trkpt>
      <trkpt lat="68.334144959226251" lon="16.778493029996753">
        <ele>46.280000000000001</ele>
        <time>2017-06-28T06:28:05Z</time>
      </trkpt>
      <trkpt lat="68.334057033061981" lon="16.778162028640509">
        <ele>46.280000000000001</ele>
        <time>2017-06-28T06:28:06Z</time>
      </trkpt>
      <trkpt lat="68.333990983664989" lon="16.777802025899291">
        <ele>46.280000000000001</ele>
        <time>2017-06-28T06:28:07Z</time>
      </trkpt>
      <trkpt lat="68.333946978673339" lon="16.777412015944719">
        <ele>46.759999999999998</ele>
        <time>2017-06-28T06:28:08Z</time>
      </trkpt>
      <trkpt lat="68.333924012258649" lon="16.776998033747077">
        <ele>47.240000000000002</ele>
        <time>2017-06-28T06:28:09Z</time>
      </trkpt>
      <trkpt lat="68.333913031965494" lon="16.776568964123726">
        <ele>48.200000000000003</ele>
        <time>2017-06-28T06:28:10Z</time>
      </trkpt>
      <trkpt lat="68.333609020337462" lon="16.773430025205016">
        <ele>51.57</ele>
        <time>2017-06-28T06:28:17Z</time>
      </trkpt>
      <trkpt lat="68.333368040621281" lon="16.770669026300311">
        <ele>53.490000000000002</ele>
        <time>2017-06-28T06:28:23Z</time>
      </trkpt>
      <trkpt lat="68.333305008709431" lon="16.770275998860598">
        <ele>53.969999999999999</ele>
        <time>2017-06-28T06:28:24Z</time>
      </trkpt>
      <trkpt lat="68.333221022039652" lon="16.769906021654606">
        <ele>54.450000000000003</ele>
        <time>2017-06-28T06:28:25Z</time>
      </trkpt>
      <trkpt lat="68.333121025934815" lon="16.769563034176826">
        <ele>54.93</ele>
        <time>2017-06-28T06:28:26Z</time>
      </trkpt>
      <trkpt lat="68.333010971546173" lon="16.769233960658312">
        <ele>55.409999999999997</ele>
        <time>2017-06-28T06:28:27Z</time>
      </trkpt>
      <trkpt lat="68.332897983491421" lon="16.768922992050648">
        <ele>55.409999999999997</ele>
        <time>2017-06-28T06:28:28Z</time>
      </trkpt>
      <trkpt lat="68.332781977951527" lon="16.76864798180759">
        <ele>55.890000000000001</ele>
        <time>2017-06-28T06:28:29Z</time>
      </trkpt>
      <trkpt lat="68.332655997946858" lon="16.768408007919788">
        <ele>55.890000000000001</ele>
        <time>2017-06-28T06:28:30Z</time>
      </trkpt>
      <trkpt lat="68.332520965486765" lon="16.768242968246341">
        <ele>56.369999999999997</ele>
        <time>2017-06-28T06:28:31Z</time>
      </trkpt>
      <trkpt lat="68.332381993532181" lon="16.768145989626646">
        <ele>56.369999999999997</ele>
        <time>2017-06-28T06:28:32Z</time>
      </trkpt>
      <trkpt lat="68.332236986607313" lon="16.768096033483744">
        <ele>56.369999999999997</ele>
        <time>2017-06-28T06:28:33Z</time>
      </trkpt>
      <trkpt lat="68.332084016874433" lon="16.768103996291757">
        <ele>56.369999999999997</ele>
        <time>2017-06-28T06:28:34Z</time>
      </trkpt>
      <trkpt lat="68.331932974979281" lon="16.768161999061704">
        <ele>56.859999999999999</ele>
        <time>2017-06-28T06:28:35Z</time>
      </trkpt>
      <trkpt lat="68.331781011074781" lon="16.768264006823301">
        <ele>56.369999999999997</ele>
        <time>2017-06-28T06:28:36Z</time>
      </trkpt>
      <trkpt lat="68.331632986664772" lon="16.76838998682797">
        <ele>56.369999999999997</ele>
        <time>2017-06-28T06:28:37Z</time>
      </trkpt>
      <trkpt lat="68.331356970593333" lon="16.768580004572868">
        <ele>57.340000000000003</ele>
        <time>2017-06-28T06:28:39Z</time>
      </trkpt>
      <trkpt lat="68.331228978931904" lon="16.768596014007926">
        <ele>57.82</ele>
        <time>2017-06-28T06:28:40Z</time>
      </trkpt>
      <trkpt lat="68.331109033897519" lon="16.768529964610934">
        <ele>58.299999999999997</ele>
        <time>2017-06-28T06:28:41Z</time>
      </trkpt>
      <trkpt lat="68.330999985337257" lon="16.768399039283395">
        <ele>58.299999999999997</ele>
        <time>2017-06-28T06:28:42Z</time>
      </trkpt>
      <trkpt lat="68.330904012545943" lon="16.768203992396593">
        <ele>58.299999999999997</ele>
        <time>2017-06-28T06:28:43Z</time>
      </trkpt>
      <trkpt lat="68.330821031704545" lon="16.767954966053367">
        <ele>58.780000000000001</ele>
        <time>2017-06-28T06:28:44Z</time>
      </trkpt>
      <trkpt lat="68.330752970650792" lon="16.767655983567238">
        <ele>59.259999999999998</ele>
        <time>2017-06-28T06:28:45Z</time>
      </trkpt>
      <trkpt lat="68.330701002851129" lon="16.76731500774622">
        <ele>59.259999999999998</ele>
        <time>2017-06-28T06:28:46Z</time>
      </trkpt>
      <trkpt lat="68.330653980374336" lon="16.766945030540228">
        <ele>59.740000000000002</ele>
        <time>2017-06-28T06:28:47Z</time>
      </trkpt>
      <trkpt lat="68.330121980980039" lon="16.762258037924767">
        <ele>63.100000000000001</ele>
        <time>2017-06-28T06:28:58Z</time>
      </trkpt>
      <trkpt lat="68.32973800599575" lon="16.756793037056923">
        <ele>73.200000000000003</ele>
        <time>2017-06-28T06:29:10Z</time>
      </trkpt>
      <trkpt lat="68.329402981325984" lon="16.753600034862757">
        <ele>78</ele>
        <time>2017-06-28T06:29:18Z</time>
      </trkpt>
      <trkpt lat="68.329387977719307" lon="16.753268027678132">
        <ele>78.480000000000004</ele>
        <time>2017-06-28T06:29:19Z</time>
      </trkpt>
      <trkpt lat="68.329392001032829" lon="16.752930991351604">
        <ele>78.969999999999999</ele>
        <time>2017-06-28T06:29:20Z</time>
      </trkpt>
      <trkpt lat="68.329412033781409" lon="16.752595966681838">
        <ele>78.969999999999999</ele>
        <time>2017-06-28T06:29:21Z</time>
      </trkpt>
      <trkpt lat="68.329453021287918" lon="16.752271000295877">
        <ele>79.450000000000003</ele>
        <time>2017-06-28T06:29:22Z</time>
      </trkpt>
      <trkpt lat="68.329515969380736" lon="16.751973023638129">
        <ele>79.450000000000003</ele>
        <time>2017-06-28T06:29:23Z</time>
      </trkpt>
      <trkpt lat="68.329596016556025" lon="16.751701030880213">
        <ele>79.930000000000007</ele>
        <time>2017-06-28T06:29:24Z</time>
      </trkpt>
      <trkpt lat="68.329697018489242" lon="16.751474970951676">
        <ele>80.409999999999997</ele>
        <time>2017-06-28T06:29:25Z</time>
      </trkpt>
      <trkpt lat="68.329810006543994" lon="16.751294005662203">
        <ele>80.890000000000001</ele>
        <time>2017-06-28T06:29:26Z</time>
      </trkpt>
      <trkpt lat="68.329933974891901" lon="16.751166014000773">
        <ele>81.370000000000005</ele>
        <time>2017-06-28T06:29:27Z</time>
      </trkpt>
      <trkpt lat="68.330068001523614" lon="16.751096025109291">
        <ele>81.370000000000005</ele>
        <time>2017-06-28T06:29:28Z</time>
      </trkpt>
      <trkpt lat="68.330218037590384" lon="16.751092001795769">
        <ele>81.849999999999994</ele>
        <time>2017-06-28T06:29:29Z</time>
      </trkpt>
      <trkpt lat="68.330365978181362" lon="16.751119997352362">
        <ele>82.329999999999998</ele>
        <time>2017-06-28T06:29:30Z</time>
      </trkpt>
      <trkpt lat="68.330517020076513" lon="16.751161990687251">
        <ele>82.329999999999998</ele>
        <time>2017-06-28T06:29:31Z</time>
      </trkpt>
      <trkpt lat="68.330837041139603" lon="16.75122401677072">
        <ele>83.769999999999996</ele>
        <time>2017-06-28T06:29:33Z</time>
      </trkpt>
      <trkpt lat="68.330989005044103" lon="16.751185962930322">
        <ele>84.25</ele>
        <time>2017-06-28T06:29:34Z</time>
      </trkpt>
      <trkpt lat="68.331138035282493" lon="16.751092001795769">
        <ele>85.209999999999994</ele>
        <time>2017-06-28T06:29:35Z</time>
      </trkpt>
      <trkpt lat="68.331274995580316" lon="16.750936014577746">
        <ele>86.180000000000007</ele>
        <time>2017-06-28T06:29:36Z</time>
      </trkpt>
      <trkpt lat="68.331400975584984" lon="16.750721018761396">
        <ele>87.140000000000001</ele>
        <time>2017-06-28T06:29:37Z</time>
      </trkpt>
      <trkpt lat="68.331512035802007" lon="16.750448020175099">
        <ele>88.099999999999994</ele>
        <time>2017-06-28T06:29:38Z</time>
      </trkpt>
      <trkpt lat="68.331601973623037" lon="16.750125987455249">
        <ele>88.099999999999994</ele>
        <time>2017-06-28T06:29:39Z</time>
      </trkpt>
      <trkpt lat="68.331673974171281" lon="16.749778976663947">
        <ele>88.579999999999998</ele>
        <time>2017-06-28T06:29:40Z</time>
      </trkpt>
      <trkpt lat="68.331726025789976" lon="16.749393995851278">
        <ele>88.579999999999998</ele>
        <time>2017-06-28T06:29:41Z</time>
      </trkpt>
      <trkpt lat="68.331760978326201" lon="16.748979007825255">
        <ele>88.579999999999998</ele>
        <time>2017-06-28T06:29:42Z</time>
      </trkpt>
      <trkpt lat="68.331790985539556" lon="16.748544992879033">
        <ele>89.060000000000002</ele>
        <time>2017-06-28T06:29:43Z</time>
      </trkpt>
      <trkpt lat="68.332027019932866" lon="16.744394022971392">
        <ele>100.11</ele>
        <time>2017-06-28T06:29:52Z</time>
      </trkpt>
      <trkpt lat="68.332012016326189" lon="16.743960008025169">
        <ele>101.56</ele>
        <time>2017-06-28T06:29:53Z</time>
      </trkpt>
      <trkpt lat="68.331975974142551" lon="16.743543008342385">
        <ele>103</ele>
        <time>2017-06-28T06:29:54Z</time>
      </trkpt>
      <trkpt lat="68.331923000514507" lon="16.743160039186478">
        <ele>104.44</ele>
        <time>2017-06-28T06:29:55Z</time>
      </trkpt>
      <trkpt lat="68.331849994137883" lon="16.742797018960118">
        <ele>105.88</ele>
        <time>2017-06-28T06:29:56Z</time>
      </trkpt>
      <trkpt lat="68.331760978326201" lon="16.742460988461971">
        <ele>107.31999999999999</ele>
        <time>2017-06-28T06:29:57Z</time>
      </trkpt>
      <trkpt lat="68.331654025241733" lon="16.742150019854307">
        <ele>108.29000000000001</ele>
        <time>2017-06-28T06:29:58Z</time>
      </trkpt>
      <trkpt lat="68.331531984731555" lon="16.741869980469346">
        <ele>109.73</ele>
        <time>2017-06-28T06:29:59Z</time>
      </trkpt>
      <trkpt lat="68.331410028040409" lon="16.741578038781881">
        <ele>111.17</ele>
        <time>2017-06-28T06:30:00Z</time>
      </trkpt>
      <trkpt lat="68.331300979480147" lon="16.741259023547173">
        <ele>112.61</ele>
        <time>2017-06-28T06:30:01Z</time>
      </trkpt>
      <trkpt lat="68.331206012517214" lon="16.740901032462716">
        <ele>114.05</ele>
        <time>2017-06-28T06:30:02Z</time>
      </trkpt>
      <trkpt lat="68.331128982827067" lon="16.740510016679764">
        <ele>115.98</ele>
        <time>2017-06-28T06:30:03Z</time>
      </trkpt>
      <trkpt lat="68.331068968400359" lon="16.740092011168599">
        <ele>116.94</ele>
        <time>2017-06-28T06:30:04Z</time>
      </trkpt>
      <trkpt lat="68.331023035570979" lon="16.739652967080474">
        <ele>118.38</ele>
        <time>2017-06-28T06:30:05Z</time>
      </trkpt>
      <trkpt lat="68.330980958417058" lon="16.739207971841097">
        <ele>118.86</ele>
        <time>2017-06-28T06:30:06Z</time>
      </trkpt>
      <trkpt lat="68.330773003399372" lon="16.736292997375131">
        <ele>119.34</ele>
        <time>2017-06-28T06:30:12Z</time>
      </trkpt>
      <trkpt lat="68.330779038369656" lon="16.735802991315722">
        <ele>119.34</ele>
        <time>2017-06-28T06:30:13Z</time>
      </trkpt>
      <trkpt lat="68.330805022269487" lon="16.735314996913075">
        <ele>119.34</ele>
        <time>2017-06-28T06:30:14Z</time>
      </trkpt>
      <trkpt lat="68.33085598424077" lon="16.733478019014001">
        <ele>119.81999999999999</ele>
        <time>2017-06-28T06:30:18Z</time>
      </trkpt>
      <trkpt lat="68.33083301782608" lon="16.733031012117863">
        <ele>119.34</ele>
        <time>2017-06-28T06:30:19Z</time>
      </trkpt>
      <trkpt lat="68.330788007006049" lon="16.732580987736583">
        <ele>119.81999999999999</ele>
        <time>2017-06-28T06:30:20Z</time>
      </trkpt>
      <trkpt lat="68.330276040360332" lon="16.728276964277029">
        <ele>120.78</ele>
        <time>2017-06-28T06:30:29Z</time>
      </trkpt>
      <trkpt lat="68.329993989318609" lon="16.724721025675535">
        <ele>126.06999999999999</ele>
        <time>2017-06-28T06:30:36Z</time>
      </trkpt>
      <trkpt lat="68.329918971285224" lon="16.724310982972383">
        <ele>127.03</ele>
        <time>2017-06-28T06:30:37Z</time>
      </trkpt>
      <trkpt lat="68.329825010150671" lon="16.72393798828125">
        <ele>127.98999999999999</ele>
        <time>2017-06-28T06:30:38Z</time>
      </trkpt>
      <trkpt lat="68.329712022095919" lon="16.723601035773754">
        <ele>128.47</ele>
        <time>2017-06-28T06:30:39Z</time>
      </trkpt>
      <trkpt lat="68.329581012949347" lon="16.723302975296974">
        <ele>129.91999999999999</ele>
        <time>2017-06-28T06:30:40Z</time>
      </trkpt>
      <trkpt lat="68.329432988539338" lon="16.723052021116018">
        <ele>130.40000000000001</ele>
        <time>2017-06-28T06:30:41Z</time>
      </trkpt>
      <trkpt lat="68.329275995492935" lon="16.722850017249584">
        <ele>131.36000000000001</ele>
        <time>2017-06-28T06:30:42Z</time>
      </trkpt>
      <trkpt lat="68.329111039638519" lon="16.722701992839575">
        <ele>131.84</ele>
        <time>2017-06-28T06:30:43Z</time>
      </trkpt>
      <trkpt lat="68.328939964994788" lon="16.722581963986158">
        <ele>132.31999999999999</ele>
        <time>2017-06-28T06:30:44Z</time>
      </trkpt>
      <trkpt lat="68.328435039147735" lon="16.722091035917401">
        <ele>132.80000000000001</ele>
        <time>2017-06-28T06:30:47Z</time>
      </trkpt>
      <trkpt lat="68.328288020566106" lon="16.721838992089033">
        <ele>132.31999999999999</ele>
        <time>2017-06-28T06:30:48Z</time>
      </trkpt>
      <trkpt lat="68.328153993934393" lon="16.721545038744807">
        <ele>132.80000000000001</ele>
        <time>2017-06-28T06:30:49Z</time>
      </trkpt>
      <trkpt lat="68.328037988394499" lon="16.721200039610267">
        <ele>132.31999999999999</ele>
        <time>2017-06-28T06:30:50Z</time>
      </trkpt>
      <trkpt lat="68.327935980632901" lon="16.720827966928482">
        <ele>132.31999999999999</ele>
        <time>2017-06-28T06:30:51Z</time>
      </trkpt>
      <trkpt lat="68.327850988134742" lon="16.72041398473084">
        <ele>133.28</ele>
        <time>2017-06-28T06:30:52Z</time>
      </trkpt>
      <trkpt lat="68.327780999243259" lon="16.719988016411662">
        <ele>133.28</ele>
        <time>2017-06-28T06:30:53Z</time>
      </trkpt>
      <trkpt lat="68.327724002301693" lon="16.719545032829046">
        <ele>133.28</ele>
        <time>2017-06-28T06:30:54Z</time>
      </trkpt>
      <trkpt lat="68.327672034502029" lon="16.719086961820722">
        <ele>133.28</ele>
        <time>2017-06-28T06:30:55Z</time>
      </trkpt>
      <trkpt lat="68.326884973794222" lon="16.71424699947238">
        <ele>134.24000000000001</ele>
        <time>2017-06-28T06:31:06Z</time>
      </trkpt>
      <trkpt lat="68.326538968831301" lon="16.71222603879869">
        <ele>133.28</ele>
        <time>2017-06-28T06:31:11Z</time>
      </trkpt>
      <trkpt lat="68.32651499658823" lon="16.711836028844118">
        <ele>132.80000000000001</ele>
        <time>2017-06-28T06:31:12Z</time>
      </trkpt>
      <trkpt lat="68.326503010466695" lon="16.711444007232785">
        <ele>132.31999999999999</ele>
        <time>2017-06-28T06:31:13Z</time>
      </trkpt>
      <trkpt lat="68.326499992981553" lon="16.711046034470201">
        <ele>131.84</ele>
        <time>2017-06-28T06:31:14Z</time>
      </trkpt>
      <trkpt lat="68.326505022123456" lon="16.710652001202106">
        <ele>131.36000000000001</ele>
        <time>2017-06-28T06:31:15Z</time>
      </trkpt>
      <trkpt lat="68.326502004638314" lon="16.709825964644551">
        <ele>129.91999999999999</ele>
        <time>2017-06-28T06:31:17Z</time>
      </trkpt>
      <trkpt lat="68.326483983546495" lon="16.709414999932051">
        <ele>129.43000000000001</ele>
        <time>2017-06-28T06:31:18Z</time>
      </trkpt>
      <trkpt lat="68.32644802518189" lon="16.709002023562789">
        <ele>128.94999999999999</ele>
        <time>2017-06-28T06:31:19Z</time>
      </trkpt>
      <trkpt lat="68.326397985219955" lon="16.708589969202876">
        <ele>128.47</ele>
        <time>2017-06-28T06:31:20Z</time>
      </trkpt>
      <trkpt lat="68.32634199410677" lon="16.708175987005234">
        <ele>127.98999999999999</ele>
        <time>2017-06-28T06:31:21Z</time>
      </trkpt>
      <trkpt lat="68.3260209672153" lon="16.704301033169031">
        <ele>127.98999999999999</ele>
        <time>2017-06-28T06:31:30Z</time>
      </trkpt>
      <trkpt lat="68.325992971658707" lon="16.702894968912005">
        <ele>129.43000000000001</ele>
        <time>2017-06-28T06:31:33Z</time>
      </trkpt>
      <trkpt lat="68.325951984152198" lon="16.702435975894332">
        <ele>130.40000000000001</ele>
        <time>2017-06-28T06:31:34Z</time>
      </trkpt>
      <trkpt lat="68.325894987210631" lon="16.701984023675323">
        <ele>130.40000000000001</ele>
        <time>2017-06-28T06:31:35Z</time>
      </trkpt>
      <trkpt lat="68.325822986662388" lon="16.701526958495378">
        <ele>130.40000000000001</ele>
        <time>2017-06-28T06:31:36Z</time>
      </trkpt>
      <trkpt lat="68.325744029134512" lon="16.701069977134466">
        <ele>129.91999999999999</ele>
        <time>2017-06-28T06:31:37Z</time>
      </trkpt>
      <trkpt lat="68.324753036722541" lon="16.69553398154676">
        <ele>127.51000000000001</ele>
        <time>2017-06-28T06:31:48Z</time>
      </trkpt>
      <trkpt lat="68.323918031528592" lon="16.690544988960028">
        <ele>126.06999999999999</ele>
        <time>2017-06-28T06:31:58Z</time>
      </trkpt>
      <trkpt lat="68.323876038193703" lon="16.690027993172407">
        <ele>125.59</ele>
        <time>2017-06-28T06:31:59Z</time>
      </trkpt>
      <trkpt lat="68.323625000193715" lon="16.686356971040368">
        <ele>122.22</ele>
        <time>2017-06-28T06:32:06Z</time>
      </trkpt>
      <trkpt lat="68.323546964675188" lon="16.685898983851075">
        <ele>122.22</ele>
        <time>2017-06-28T06:32:07Z</time>
      </trkpt>
      <trkpt lat="68.323455015197396" lon="16.68545801192522">
        <ele>121.73999999999999</ele>
        <time>2017-06-28T06:32:08Z</time>
      </trkpt>
      <trkpt lat="68.322564018890262" lon="16.681979019194841">
        <ele>123.19</ele>
        <time>2017-06-28T06:32:17Z</time>
      </trkpt>
      <trkpt lat="68.322443990036845" lon="16.681723035871983">
        <ele>122.70999999999999</ele>
        <time>2017-06-28T06:32:18Z</time>
      </trkpt>
      <trkpt lat="68.322311975061893" lon="16.681514997035265">
        <ele>122.70999999999999</ele>
        <time>2017-06-28T06:32:19Z</time>
      </trkpt>
      <trkpt lat="68.322169985622168" lon="16.681358003988862">
        <ele>122.70999999999999</ele>
        <time>2017-06-28T06:32:20Z</time>
      </trkpt>
      <trkpt lat="68.322022967040539" lon="16.681231018155813">
        <ele>122.70999999999999</ele>
        <time>2017-06-28T06:32:21Z</time>
      </trkpt>
      <trkpt lat="68.321872008964419" lon="16.681120963767171">
        <ele>122.70999999999999</ele>
        <time>2017-06-28T06:32:22Z</time>
      </trkpt>
      <trkpt lat="68.321454003453255" lon="16.680648978799582">
        <ele>122.70999999999999</ele>
        <time>2017-06-28T06:32:25Z</time>
      </trkpt>
      <trkpt lat="68.321331962943077" lon="16.680417973548174">
        <ele>122.70999999999999</ele>
        <time>2017-06-28T06:32:26Z</time>
      </trkpt>
      <trkpt lat="68.321221992373466" lon="16.680136006325483">
        <ele>122.70999999999999</ele>
        <time>2017-06-28T06:32:27Z</time>
      </trkpt>
      <trkpt lat="68.321125013753772" lon="16.679812967777252">
        <ele>121.73999999999999</ele>
        <time>2017-06-28T06:32:28Z</time>
      </trkpt>
      <trkpt lat="68.321042032912374" lon="16.679455982521176">
        <ele>121.26000000000001</ele>
        <time>2017-06-28T06:32:29Z</time>
      </trkpt>
      <trkpt lat="68.320954022929072" lon="16.67907795868814">
        <ele>120.3</ele>
        <time>2017-06-28T06:32:30Z</time>
      </trkpt>
      <trkpt lat="68.320762999355793" lon="16.678369017317891">
        <ele>118.38</ele>
        <time>2017-06-28T06:32:32Z</time>
      </trkpt>
      <trkpt lat="68.320650011301041" lon="16.678061988204718">
        <ele>117.42</ele>
        <time>2017-06-28T06:32:33Z</time>
      </trkpt>
      <trkpt lat="68.320519002154469" lon="16.677786977961659">
        <ele>115.98</ele>
        <time>2017-06-28T06:32:34Z</time>
      </trkpt>
      <trkpt lat="68.320382963865995" lon="16.677551027387381">
        <ele>115.01000000000001</ele>
        <time>2017-06-28T06:32:35Z</time>
      </trkpt>
      <trkpt lat="68.320250026881695" lon="16.677315998822451">
        <ele>114.05</ele>
        <time>2017-06-28T06:32:36Z</time>
      </trkpt>
      <trkpt lat="68.320126980543137" lon="16.677065966650844">
        <ele>113.56999999999999</ele>
        <time>2017-06-28T06:32:37Z</time>
      </trkpt>
      <trkpt lat="68.320014998316765" lon="16.676779976114631">
        <ele>113.56999999999999</ele>
        <time>2017-06-28T06:32:38Z</time>
      </trkpt>
      <trkpt lat="68.319921959191561" lon="16.676457021385431">
        <ele>114.05</ele>
        <time>2017-06-28T06:32:39Z</time>
      </trkpt>
      <trkpt lat="68.319848030805588" lon="16.67611101642251">
        <ele>114.05</ele>
        <time>2017-06-28T06:32:40Z</time>
      </trkpt>
      <trkpt lat="68.319792039692402" lon="16.67574598453939">
        <ele>114.05</ele>
        <time>2017-06-28T06:32:41Z</time>
      </trkpt>
      <trkpt lat="68.319752980023623" lon="16.675367038697004">
        <ele>113.56999999999999</ele>
        <time>2017-06-28T06:32:42Z</time>
      </trkpt>
      <trkpt lat="68.319730013608932" lon="16.674964958801866">
        <ele>113.09</ele>
        <time>2017-06-28T06:32:43Z</time>
      </trkpt>
      <trkpt lat="68.319715010002255" lon="16.674547037109733">
        <ele>112.13</ele>
        <time>2017-06-28T06:32:44Z</time>
      </trkpt>
      <trkpt lat="68.319538990035653" lon="16.669216984882951">
        <ele>99.150000000000006</ele>
        <time>2017-06-28T06:32:56Z</time>
      </trkpt>
      <trkpt lat="68.318943958729506" lon="16.665781997144222">
        <ele>88.099999999999994</ele>
        <time>2017-06-28T06:33:04Z</time>
      </trkpt>
      <trkpt lat="68.318804986774921" lon="16.66468002833426">
        <ele>86.659999999999997</ele>
        <time>2017-06-28T06:33:07Z</time>
      </trkpt>
      <trkpt lat="68.318796018138528" lon="16.664350032806396">
        <ele>86.180000000000007</ele>
        <time>2017-06-28T06:33:08Z</time>
      </trkpt>
      <trkpt lat="68.318808004260063" lon="16.664016013965011">
        <ele>86.180000000000007</ele>
        <time>2017-06-28T06:33:09Z</time>
      </trkpt>
      <trkpt lat="68.318843962624669" lon="16.663680989295244">
        <ele>85.689999999999998</ele>
        <time>2017-06-28T06:33:10Z</time>
      </trkpt>
      <trkpt lat="68.318897020071745" lon="16.663349987939">
        <ele>85.209999999999994</ele>
        <time>2017-06-28T06:33:11Z</time>
      </trkpt>
      <trkpt lat="68.31897203810513" lon="16.66302502155304">
        <ele>84.730000000000004</ele>
        <time>2017-06-28T06:33:12Z</time>
      </trkpt>
      <trkpt lat="68.319056024774909" lon="16.66270399466157">
        <ele>84.730000000000004</ele>
        <time>2017-06-28T06:33:13Z</time>
      </trkpt>
      <trkpt lat="68.319149985909462" lon="16.662379028275609">
        <ele>84.25</ele>
        <time>2017-06-28T06:33:14Z</time>
      </trkpt>
      <trkpt lat="68.320160005241632" lon="16.658725021407008">
        <ele>82.329999999999998</ele>
        <time>2017-06-28T06:33:24Z</time>
      </trkpt>
      <trkpt lat="68.321032980456948" lon="16.655733017250896">
        <ele>77.040000000000006</ele>
        <time>2017-06-28T06:33:32Z</time>
      </trkpt>
      <trkpt lat="68.321703029796481" lon="16.651681959629059">
        <ele>75.599999999999994</ele>
        <time>2017-06-28T06:33:41Z</time>
      </trkpt>
      <trkpt lat="68.322082981467247" lon="16.646563969552517">
        <ele>77.519999999999996</ele>
        <time>2017-06-28T06:33:51Z</time>
      </trkpt>
      <trkpt lat="68.322450025007129" lon="16.640150975435972">
        <ele>86.659999999999997</ele>
        <time>2017-06-28T06:34:03Z</time>
      </trkpt>
      <trkpt lat="68.322436027228832" lon="16.639691982418299">
        <ele>87.620000000000005</ele>
        <time>2017-06-28T06:34:04Z</time>
      </trkpt>
      <trkpt lat="68.322398979216814" lon="16.639236006885767">
        <ele>88.099999999999994</ele>
        <time>2017-06-28T06:34:05Z</time>
      </trkpt>
      <trkpt lat="68.322341982275248" lon="16.638802997767925">
        <ele>88.579999999999998</ele>
        <time>2017-06-28T06:34:06Z</time>
      </trkpt>
      <trkpt lat="68.322265036404133" lon="16.638391027227044">
        <ele>88.579999999999998</ele>
        <time>2017-06-28T06:34:07Z</time>
      </trkpt>
      <trkpt lat="68.322165962308645" lon="16.637993976473808">
        <ele>88.579999999999998</ele>
        <time>2017-06-28T06:34:08Z</time>
      </trkpt>
      <trkpt lat="68.322047023102641" lon="16.637602038681507">
        <ele>88.579999999999998</ele>
        <time>2017-06-28T06:34:09Z</time>
      </trkpt>
      <trkpt lat="68.321914002299309" lon="16.637219991534948">
        <ele>88.579999999999998</ele>
        <time>2017-06-28T06:34:10Z</time>
      </trkpt>
      <trkpt lat="68.321762960404158" lon="16.636845991015434">
        <ele>87.620000000000005</ele>
        <time>2017-06-28T06:34:11Z</time>
      </trkpt>
      <trkpt lat="68.321604961529374" lon="16.636480037122965">
        <ele>87.140000000000001</ele>
        <time>2017-06-28T06:34:12Z</time>
      </trkpt>
      <trkpt lat="68.319429019466043" lon="16.632049027830362">
        <ele>92.420000000000002</ele>
        <time>2017-06-28T06:34:24Z</time>
      </trkpt>
      <trkpt lat="68.317764038220048" lon="16.628315979614854">
        <ele>102.52</ele>
        <time>2017-06-28T06:34:34Z</time>
      </trkpt>
      <trkpt lat="68.317659012973309" lon="16.627904009073973">
        <ele>102.04000000000001</ele>
        <time>2017-06-28T06:34:35Z</time>
      </trkpt>
      <trkpt lat="68.317563040181994" lon="16.627481980249286">
        <ele>101.08</ele>
        <time>2017-06-28T06:34:36Z</time>
      </trkpt>
      <trkpt lat="68.317389031872153" lon="16.626671031117439">
        <ele>99.150000000000006</ele>
        <time>2017-06-28T06:34:38Z</time>
      </trkpt>
      <trkpt lat="68.317290963605046" lon="16.626337012276053">
        <ele>98.189999999999998</ele>
        <time>2017-06-28T06:34:39Z</time>
      </trkpt>
      <trkpt lat="68.317179987207055" lon="16.626070970669389">
        <ele>97.230000000000004</ele>
        <time>2017-06-28T06:34:40Z</time>
      </trkpt>
      <trkpt lat="68.31705903634429" lon="16.625862009823322">
        <ele>96.75</ele>
        <time>2017-06-28T06:34:41Z</time>
      </trkpt>
      <trkpt lat="68.316928027197719" lon="16.625709040090442">
        <ele>96.269999999999996</ele>
        <time>2017-06-28T06:34:42Z</time>
      </trkpt>
      <trkpt lat="68.316787965595722" lon="16.625629998743534">
        <ele>95.310000000000002</ele>
        <time>2017-06-28T06:34:43Z</time>
      </trkpt>
      <trkpt lat="68.316641030833125" lon="16.625628992915154">
        <ele>95.310000000000002</ele>
        <time>2017-06-28T06:34:44Z</time>
      </trkpt>
      <trkpt lat="68.316494012251496" lon="16.625688001513481">
        <ele>94.829999999999998</ele>
        <time>2017-06-28T06:34:45Z</time>
      </trkpt>
      <trkpt lat="68.316344982013106" lon="16.625809036195278">
        <ele>94.829999999999998</ele>
        <time>2017-06-28T06:34:46Z</time>
      </trkpt>
      <trkpt lat="68.316197041422129" lon="16.625995030626655">
        <ele>94.829999999999998</ele>
        <time>2017-06-28T06:34:47Z</time>
      </trkpt>
      <trkpt lat="68.316049017012119" lon="16.626220000907779">
        <ele>94.829999999999998</ele>
        <time>2017-06-28T06:34:48Z</time>
      </trkpt>
      <trkpt lat="68.315903004258871" lon="16.626483025029302">
        <ele>94.349999999999994</ele>
        <time>2017-06-28T06:34:49Z</time>
      </trkpt>
      <trkpt lat="68.315480975434184" lon="16.627139998599887">
        <ele>93.390000000000001</ele>
        <time>2017-06-28T06:34:52Z</time>
      </trkpt>
      <trkpt lat="68.315343009307981" lon="16.627264972776175">
        <ele>93.390000000000001</ele>
        <time>2017-06-28T06:34:53Z</time>
      </trkpt>
      <trkpt lat="68.315204037353396" lon="16.627343008294702">
        <ele>92.900000000000006</ele>
        <time>2017-06-28T06:34:54Z</time>
      </trkpt>
      <trkpt lat="68.315055007115006" lon="16.62736002355814">
        <ele>92.420000000000002</ele>
        <time>2017-06-28T06:34:55Z</time>
      </trkpt>
      <trkpt lat="68.314903965219855" lon="16.627326998859644">
        <ele>91.939999999999998</ele>
        <time>2017-06-28T06:34:56Z</time>
      </trkpt>
      <trkpt lat="68.314747978001833" lon="16.627258015796542">
        <ele>91.939999999999998</ele>
        <time>2017-06-28T06:34:57Z</time>
      </trkpt>
      <trkpt lat="68.314587967470288" lon="16.627176040783525">
        <ele>91.939999999999998</ele>
        <time>2017-06-28T06:34:58Z</time>
      </trkpt>
      <trkpt lat="68.314131991937757" lon="16.62697596475482">
        <ele>90.980000000000004</ele>
        <time>2017-06-28T06:35:01Z</time>
      </trkpt>
      <trkpt lat="68.313983967527747" lon="16.627000020816922">
        <ele>90.5</ele>
        <time>2017-06-28T06:35:02Z</time>
      </trkpt>
      <trkpt lat="68.313838038593531" lon="16.627079984173179">
        <ele>90.019999999999996</ele>
        <time>2017-06-28T06:35:03Z</time>
      </trkpt>
      <trkpt lat="68.313690014183521" lon="16.627217028290033">
        <ele>89.540000000000006</ele>
        <time>2017-06-28T06:35:04Z</time>
      </trkpt>
      <trkpt lat="68.313549030572176" lon="16.627408973872662">
        <ele>89.060000000000002</ele>
        <time>2017-06-28T06:35:05Z</time>
      </trkpt>
      <trkpt lat="68.313411986455321" lon="16.627654982730746">
        <ele>88.579999999999998</ele>
        <time>2017-06-28T06:35:06Z</time>
      </trkpt>
      <trkpt lat="68.313285000622272" lon="16.627955976873636">
        <ele>88.099999999999994</ele>
        <time>2017-06-28T06:35:07Z</time>
      </trkpt>
      <trkpt lat="68.313166983425617" lon="16.628297958523035">
        <ele>88.099999999999994</ele>
        <time>2017-06-28T06:35:08Z</time>
      </trkpt>
      <trkpt lat="68.313047038391232" lon="16.6286710370332">
        <ele>87.620000000000005</ele>
        <time>2017-06-28T06:35:09Z</time>
      </trkpt>
      <trkpt lat="68.312074989080429" lon="16.63135701790452">
        <ele>87.620000000000005</ele>
        <time>2017-06-28T06:35:17Z</time>
      </trkpt>
      <trkpt lat="68.311937022954226" lon="16.631559021770954">
        <ele>87.620000000000005</ele>
        <time>2017-06-28T06:35:18Z</time>
      </trkpt>
      <trkpt lat="68.311787992715836" lon="16.631710985675454">
        <ele>87.620000000000005</ele>
        <time>2017-06-28T06:35:19Z</time>
      </trkpt>
      <trkpt lat="68.311634017154574" lon="16.631796984001994">
        <ele>87.620000000000005</ele>
        <time>2017-06-28T06:35:20Z</time>
      </trkpt>
      <trkpt lat="68.311478029936552" lon="16.631818022578955">
        <ele>88.099999999999994</ele>
        <time>2017-06-28T06:35:21Z</time>
      </trkpt>
      <trkpt lat="68.311316007748246" lon="16.631779968738556">
        <ele>87.620000000000005</ele>
        <time>2017-06-28T06:35:22Z</time>
      </trkpt>
      <trkpt lat="68.31115297973156" lon="16.631709979847074">
        <ele>87.620000000000005</ele>
        <time>2017-06-28T06:35:23Z</time>
      </trkpt>
      <trkpt lat="68.310257038101554" lon="16.631404040381312">
        <ele>83.290000000000006</ele>
        <time>2017-06-28T06:35:28Z</time>
      </trkpt>
      <trkpt lat="68.310071965679526" lon="16.631453996524215">
        <ele>81.849999999999994</ele>
        <time>2017-06-28T06:35:29Z</time>
      </trkpt>
      <trkpt lat="68.309882031753659" lon="16.631537983193994">
        <ele>80.409999999999997</ele>
        <time>2017-06-28T06:35:30Z</time>
      </trkpt>
      <trkpt lat="68.309693019837141" lon="16.631669998168945">
        <ele>78.969999999999999</ele>
        <time>2017-06-28T06:35:31Z</time>
      </trkpt>
      <trkpt lat="68.309506019577384" lon="16.631829002872109">
        <ele>78</ele>
        <time>2017-06-28T06:35:32Z</time>
      </trkpt>
      <trkpt lat="68.307722015306354" lon="16.634088009595871">
        <ele>78</ele>
        <time>2017-06-28T06:35:42Z</time>
      </trkpt>
      <trkpt lat="68.306345958262682" lon="16.63591199554503">
        <ele>86.659999999999997</ele>
        <time>2017-06-28T06:35:50Z</time>
      </trkpt>
      <trkpt lat="68.306196006014943" lon="16.636180970817804">
        <ele>88.099999999999994</ele>
        <time>2017-06-28T06:35:51Z</time>
      </trkpt>
      <trkpt lat="68.30605803988874" lon="16.636503003537655">
        <ele>89.540000000000006</ele>
        <time>2017-06-28T06:35:52Z</time>
      </trkpt>
      <trkpt lat="68.30593197606504" lon="16.63685898296535">
        <ele>90.980000000000004</ele>
        <time>2017-06-28T06:35:53Z</time>
      </trkpt>
      <trkpt lat="68.305812031030655" lon="16.637227032333612">
        <ele>91.459999999999994</ele>
        <time>2017-06-28T06:35:54Z</time>
      </trkpt>
      <trkpt lat="68.304779967293143" lon="16.639281017705798">
        <ele>100.59999999999999</ele>
        <time>2017-06-28T06:36:01Z</time>
      </trkpt>
      <trkpt lat="68.302673008292913" lon="16.642158022150397">
        <ele>99.629999999999995</ele>
        <time>2017-06-28T06:36:13Z</time>
      </trkpt>
      <trkpt lat="68.300999980419874" lon="16.646198015660048">
        <ele>93.870000000000005</ele>
        <time>2017-06-28T06:36:24Z</time>
      </trkpt>
      <trkpt lat="68.299955008551478" lon="16.648062989115715">
        <ele>87.620000000000005</ele>
        <time>2017-06-28T06:36:31Z</time>
      </trkpt>
      <trkpt lat="68.298039995133877" lon="16.65005000308156">
        <ele>78.969999999999999</ele>
        <time>2017-06-28T06:36:42Z</time>
      </trkpt>
      <trkpt lat="68.296511974185705" lon="16.652414035052061">
        <ele>76.079999999999998</ele>
        <time>2017-06-28T06:36:53Z</time>
      </trkpt>
      <trkpt lat="68.296333020552993" lon="16.652611009776592">
        <ele>75.120000000000005</ele>
        <time>2017-06-28T06:36:55Z</time>
      </trkpt>
      <trkpt lat="68.296254985034466" lon="16.652646968141198">
        <ele>74.640000000000001</ele>
        <time>2017-06-28T06:36:56Z</time>
      </trkpt>
      <trkpt lat="68.296170998364687" lon="16.652639005333185">
        <ele>74.159999999999997</ele>
        <time>2017-06-28T06:36:57Z</time>
      </trkpt>
      <trkpt lat="68.296085000038147" lon="16.65258502587676">
        <ele>73.200000000000003</ele>
        <time>2017-06-28T06:36:58Z</time>
      </trkpt>
      <trkpt lat="68.295996990054846" lon="16.652473965659738">
        <ele>72.719999999999999</ele>
        <time>2017-06-28T06:36:59Z</time>
      </trkpt>
      <trkpt lat="68.29591903835535" lon="16.652314960956573">
        <ele>71.760000000000005</ele>
        <time>2017-06-28T06:37:00Z</time>
      </trkpt>
      <trkpt lat="68.295853994786739" lon="16.652082027867436">
        <ele>70.790000000000006</ele>
        <time>2017-06-28T06:37:01Z</time>
      </trkpt>
      <trkpt lat="68.295804960653186" lon="16.651814980432391">
        <ele>70.310000000000002</ele>
        <time>2017-06-28T06:37:02Z</time>
      </trkpt>
      <trkpt lat="68.295764978975058" lon="16.651510968804359">
        <ele>69.349999999999994</ele>
        <time>2017-06-28T06:37:03Z</time>
      </trkpt>
      <trkpt lat="68.295732960104942" lon="16.651182984933257">
        <ele>68.390000000000001</ele>
        <time>2017-06-28T06:37:04Z</time>
      </trkpt>
      <trkpt lat="68.295715022832155" lon="16.650830022990704">
        <ele>67.430000000000007</ele>
        <time>2017-06-28T06:37:05Z</time>
      </trkpt>
      <trkpt lat="68.29570303671062" lon="16.650474965572357">
        <ele>65.989999999999995</ele>
        <time>2017-06-28T06:37:06Z</time>
      </trkpt>
      <trkpt lat="68.295704964548349" lon="16.650109011679888">
        <ele>65.030000000000001</ele>
        <time>2017-06-28T06:37:07Z</time>
      </trkpt>
      <trkpt lat="68.295717034488916" lon="16.649731993675232">
        <ele>64.069999999999993</ele>
        <time>2017-06-28T06:37:08Z</time>
      </trkpt>
      <trkpt lat="68.295738995075226" lon="16.649353969842196">
        <ele>63.100000000000001</ele>
        <time>2017-06-28T06:37:09Z</time>
      </trkpt>
      <trkpt lat="68.295767996460199" lon="16.648984998464584">
        <ele>61.659999999999997</ele>
        <time>2017-06-28T06:37:10Z</time>
      </trkpt>
      <trkpt lat="68.295939993113279" lon="16.64725698530674">
        <ele>57.82</ele>
        <time>2017-06-28T06:37:15Z</time>
      </trkpt>
      <trkpt lat="68.295949967578053" lon="16.646937970072031">
        <ele>56.859999999999999</ele>
        <time>2017-06-28T06:37:16Z</time>
      </trkpt>
      <trkpt lat="68.29594099894166" lon="16.64661199785769">
        <ele>56.369999999999997</ele>
        <time>2017-06-28T06:37:17Z</time>
      </trkpt>
      <trkpt lat="68.295909985899925" lon="16.646298011764884">
        <ele>55.409999999999997</ele>
        <time>2017-06-28T06:37:18Z</time>
      </trkpt>
      <trkpt lat="68.295858018100262" lon="16.646009003743529">
        <ele>54.450000000000003</ele>
        <time>2017-06-28T06:37:19Z</time>
      </trkpt>
      <trkpt lat="68.295784005895257" lon="16.645756037905812">
        <ele>53.490000000000002</ele>
        <time>2017-06-28T06:37:20Z</time>
      </trkpt>
      <trkpt lat="68.295692978426814" lon="16.645541964098811">
        <ele>52.530000000000001</ele>
        <time>2017-06-28T06:37:21Z</time>
      </trkpt>
      <trkpt lat="68.295588959008455" lon="16.645394023507833">
        <ele>51.090000000000003</ele>
        <time>2017-06-28T06:37:22Z</time>
      </trkpt>
      <trkpt lat="68.295475970953703" lon="16.645304001867771">
        <ele>50.130000000000003</ele>
        <time>2017-06-28T06:37:23Z</time>
      </trkpt>
      <trkpt lat="68.295350996777415" lon="16.645264020189643">
        <ele>48.68</ele>
        <time>2017-06-28T06:37:24Z</time>
      </trkpt>
      <trkpt lat="68.295220993459225" lon="16.645287992432714">
        <ele>47.719999999999999</ele>
        <time>2017-06-28T06:37:25Z</time>
      </trkpt>
      <trkpt lat="68.295089984312654" lon="16.645369967445731">
        <ele>46.759999999999998</ele>
        <time>2017-06-28T06:37:26Z</time>
      </trkpt>
      <trkpt lat="68.294957969337702" lon="16.645499970763922">
        <ele>45.799999999999997</ele>
        <time>2017-06-28T06:37:27Z</time>
      </trkpt>
      <trkpt lat="68.294826960191131" lon="16.645665010437369">
        <ele>45.32</ele>
        <time>2017-06-28T06:37:28Z</time>
      </trkpt>
      <trkpt lat="68.294304013252258" lon="16.646335981786251">
        <ele>41.469999999999999</ele>
        <time>2017-06-28T06:37:32Z</time>
      </trkpt>
      <trkpt lat="68.294165041297674" lon="16.646437989547849">
        <ele>40.990000000000002</ele>
        <time>2017-06-28T06:37:33Z</time>
      </trkpt>
      <trkpt lat="68.294025985524058" lon="16.646488029509783">
        <ele>40.030000000000001</ele>
        <time>2017-06-28T06:37:34Z</time>
      </trkpt>
      <trkpt lat="68.293886007741094" lon="16.646481994539499">
        <ele>39.07</ele>
        <time>2017-06-28T06:37:35Z</time>
      </trkpt>
      <trkpt lat="68.293743012472987" lon="16.64641703478992">
        <ele>38.109999999999999</ele>
        <time>2017-06-28T06:37:36Z</time>
      </trkpt>
      <trkpt lat="68.293603034690022" lon="16.646299017593265">
        <ele>38.109999999999999</ele>
        <time>2017-06-28T06:37:37Z</time>
      </trkpt>
      <trkpt lat="68.293471019715071" lon="16.646121991798282">
        <ele>37.630000000000003</ele>
        <time>2017-06-28T06:37:38Z</time>
      </trkpt>
      <trkpt lat="68.293350990861654" lon="16.645899033173919">
        <ele>37.149999999999999</ele>
        <time>2017-06-28T06:37:39Z</time>
      </trkpt>
      <trkpt lat="68.293244959786534" lon="16.645629974082112">
        <ele>37.149999999999999</ele>
        <time>2017-06-28T06:37:40Z</time>
      </trkpt>
      <trkpt lat="68.293159967288375" lon="16.645325962454081">
        <ele>36.189999999999998</ele>
        <time>2017-06-28T06:37:41Z</time>
      </trkpt>
      <trkpt lat="68.293097019195557" lon="16.644981969147921">
        <ele>35.229999999999997</ele>
        <time>2017-06-28T06:37:42Z</time>
      </trkpt>
      <trkpt lat="68.293042033910751" lon="16.644615009427071">
        <ele>34.740000000000002</ele>
        <time>2017-06-28T06:37:43Z</time>
      </trkpt>
      <trkpt lat="68.29299702309072" lon="16.644224999472499">
        <ele>34.259999999999998</ele>
        <time>2017-06-28T06:37:44Z</time>
      </trkpt>
      <trkpt lat="68.292655041441321" lon="16.640638969838619">
        <ele>27.530000000000001</ele>
        <time>2017-06-28T06:37:53Z</time>
      </trkpt>
      <trkpt lat="68.292602989822626" lon="16.64029598236084">
        <ele>26.57</ele>
        <time>2017-06-28T06:37:54Z</time>
      </trkpt>
      <trkpt lat="68.292536018416286" lon="16.639964981004596">
        <ele>26.09</ele>
        <time>2017-06-28T06:37:55Z</time>
      </trkpt>
      <trkpt lat="68.292453959584236" lon="16.639638002961874">
        <ele>25.129999999999999</ele>
        <time>2017-06-28T06:37:56Z</time>
      </trkpt>
      <trkpt lat="68.2923539634794" lon="16.639315970242023">
        <ele>24.649999999999999</ele>
        <time>2017-06-28T06:37:57Z</time>
      </trkpt>
      <trkpt lat="68.292237035930157" lon="16.639011958613992">
        <ele>24.170000000000002</ele>
        <time>2017-06-28T06:37:58Z</time>
      </trkpt>
      <trkpt lat="68.292108038440347" lon="16.638719011098146">
        <ele>23.690000000000001</ele>
        <time>2017-06-28T06:37:59Z</time>
      </trkpt>
      <trkpt lat="68.291968982666731" lon="16.638457998633385">
        <ele>23.210000000000001</ele>
        <time>2017-06-28T06:38:00Z</time>
      </trkpt>
      <trkpt lat="68.291817018762231" lon="16.638238979503512">
        <ele>23.210000000000001</ele>
        <time>2017-06-28T06:38:01Z</time>
      </trkpt>
      <trkpt lat="68.291664971038699" lon="16.638054996728897">
        <ele>23.210000000000001</ele>
        <time>2017-06-28T06:38:02Z</time>
      </trkpt>
      <trkpt lat="68.291521975770593" lon="16.63791099563241">
        <ele>23.210000000000001</ele>
        <time>2017-06-28T06:38:03Z</time>
      </trkpt>
      <trkpt lat="68.291377974674106" lon="16.637816028669477">
        <ele>22.73</ele>
        <time>2017-06-28T06:38:04Z</time>
      </trkpt>
      <trkpt lat="68.291233973577619" lon="16.637752996757627">
        <ele>22.73</ele>
        <time>2017-06-28T06:38:05Z</time>
      </trkpt>
      <trkpt lat="68.291088966652751" lon="16.637702034786344">
        <ele>22.73</ele>
        <time>2017-06-28T06:38:06Z</time>
      </trkpt>
      <trkpt lat="68.289820030331612" lon="16.637534983456135">
        <ele>23.210000000000001</ele>
        <time>2017-06-28T06:38:14Z</time>
      </trkpt>
      <trkpt lat="68.289681980386376" lon="16.637479998171329">
        <ele>23.210000000000001</ele>
        <time>2017-06-28T06:38:15Z</time>
      </trkpt>
      <trkpt lat="68.289563963189721" lon="16.637371033430099">
        <ele>23.690000000000001</ele>
        <time>2017-06-28T06:38:16Z</time>
      </trkpt>
      <trkpt lat="68.289451980963349" lon="16.637200964614749">
        <ele>24.649999999999999</ele>
        <time>2017-06-28T06:38:17Z</time>
      </trkpt>
      <trkpt lat="68.289348967373371" lon="16.63696501404047">
        <ele>24.649999999999999</ele>
        <time>2017-06-28T06:38:18Z</time>
      </trkpt>
      <trkpt lat="68.289259029552341" lon="16.636681035161018">
        <ele>25.129999999999999</ele>
        <time>2017-06-28T06:38:19Z</time>
      </trkpt>
      <trkpt lat="68.289180994033813" lon="16.636347016319633">
        <ele>26.09</ele>
        <time>2017-06-28T06:38:20Z</time>
      </trkpt>
      <trkpt lat="68.289117962121964" lon="16.63597796112299">
        <ele>26.09</ele>
        <time>2017-06-28T06:38:21Z</time>
      </trkpt>
      <trkpt lat="68.289064988493919" lon="16.635574959218502">
        <ele>26.09</ele>
        <time>2017-06-28T06:38:22Z</time>
      </trkpt>
      <trkpt lat="68.289017966017127" lon="16.63516097702086">
        <ele>26.09</ele>
        <time>2017-06-28T06:38:23Z</time>
      </trkpt>
      <trkpt lat="68.288933979347348" lon="16.633982984349132">
        <ele>25.129999999999999</ele>
        <time>2017-06-28T06:38:26Z</time>
      </trkpt>
      <trkpt lat="68.288932973518968" lon="16.633609989657998">
        <ele>24.649999999999999</ele>
        <time>2017-06-28T06:38:27Z</time>
      </trkpt>
      <trkpt lat="68.288944959640503" lon="16.633230037987232">
        <ele>24.170000000000002</ele>
        <time>2017-06-28T06:38:28Z</time>
      </trkpt>
      <trkpt lat="68.289254000410438" lon="16.628595013171434">
        <ele>20.32</ele>
        <time>2017-06-28T06:38:39Z</time>
      </trkpt>
      <trkpt lat="68.289247965440154" lon="16.628145994618535">
        <ele>20.32</ele>
        <time>2017-06-28T06:38:40Z</time>
      </trkpt>
      <trkpt lat="68.289226004853845" lon="16.627702005207539">
        <ele>20.32</ele>
        <time>2017-06-28T06:38:41Z</time>
      </trkpt>
      <trkpt lat="68.289178982377052" lon="16.627267990261316">
        <ele>20.32</ele>
        <time>2017-06-28T06:38:42Z</time>
      </trkpt>
      <trkpt lat="68.289111005142331" lon="16.626865994185209">
        <ele>20.809999999999999</ele>
        <time>2017-06-28T06:38:43Z</time>
      </trkpt>
      <trkpt lat="68.289024000987411" lon="16.626500962302089">
        <ele>20.809999999999999</ele>
        <time>2017-06-28T06:38:44Z</time>
      </trkpt>
      <trkpt lat="68.288917969912291" lon="16.626173984259367">
        <ele>21.289999999999999</ele>
        <time>2017-06-28T06:38:45Z</time>
      </trkpt>
      <trkpt lat="68.288798024877906" lon="16.625877013429999">
        <ele>21.289999999999999</ele>
        <time>2017-06-28T06:38:46Z</time>
      </trkpt>
      <trkpt lat="68.288668021559715" lon="16.625610971823335">
        <ele>21.77</ele>
        <time>2017-06-28T06:38:47Z</time>
      </trkpt>
      <trkpt lat="68.288526032119989" lon="16.625378038734198">
        <ele>21.77</ele>
        <time>2017-06-28T06:38:48Z</time>
      </trkpt>
      <trkpt lat="68.288369961082935" lon="16.625179974362254">
        <ele>22.25</ele>
        <time>2017-06-28T06:38:49Z</time>
      </trkpt>
      <trkpt lat="68.288209028542042" lon="16.625032033771276">
        <ele>22.25</ele>
        <time>2017-06-28T06:38:50Z</time>
      </trkpt>
      <trkpt lat="68.288042983040214" lon="16.624933965504169">
        <ele>22.25</ele>
        <time>2017-06-28T06:38:51Z</time>
      </trkpt>
      <trkpt lat="68.287870986387134" lon="16.624871017411351">
        <ele>22.25</ele>
        <time>2017-06-28T06:38:52Z</time>
      </trkpt>
      <trkpt lat="68.287698989734054" lon="16.624841010197997">
        <ele>22.25</ele>
        <time>2017-06-28T06:38:53Z</time>
      </trkpt>
      <trkpt lat="68.28657103702426" lon="16.624355027452111">
        <ele>23.690000000000001</ele>
        <time>2017-06-28T06:39:00Z</time>
      </trkpt>
      <trkpt lat="68.286426030099392" lon="16.624169033020735">
        <ele>24.170000000000002</ele>
        <time>2017-06-28T06:39:01Z</time>
      </trkpt>
      <trkpt lat="68.286286974325776" lon="16.623952025547624">
        <ele>24.170000000000002</ele>
        <time>2017-06-28T06:39:02Z</time>
      </trkpt>
      <trkpt lat="68.286160994321108" lon="16.623696964234114">
        <ele>24.649999999999999</ele>
        <time>2017-06-28T06:39:03Z</time>
      </trkpt>
      <trkpt lat="68.286044988781214" lon="16.623413991183043">
        <ele>24.649999999999999</ele>
        <time>2017-06-28T06:39:04Z</time>
      </trkpt>
      <trkpt lat="68.285942981019616" lon="16.623110985383391">
        <ele>24.649999999999999</ele>
        <time>2017-06-28T06:39:05Z</time>
      </trkpt>
      <trkpt lat="68.285850025713444" lon="16.622775038704276">
        <ele>24.649999999999999</ele>
        <time>2017-06-28T06:39:06Z</time>
      </trkpt>
      <trkpt lat="68.285767966881394" lon="16.622434984892607">
        <ele>25.129999999999999</ele>
        <time>2017-06-28T06:39:07Z</time>
      </trkpt>
      <trkpt lat="68.285694038495421" lon="16.622070958837867">
        <ele>25.609999999999999</ele>
        <time>2017-06-28T06:39:08Z</time>
      </trkpt>
      <trkpt lat="68.285633018240333" lon="16.621705004945397">
        <ele>25.609999999999999</ele>
        <time>2017-06-28T06:39:09Z</time>
      </trkpt>
      <trkpt lat="68.285582978278399" lon="16.621337039396167">
        <ele>25.609999999999999</ele>
        <time>2017-06-28T06:39:10Z</time>
      </trkpt>
      <trkpt lat="68.28554299660027" lon="16.62095901556313">
        <ele>25.609999999999999</ele>
        <time>2017-06-28T06:39:11Z</time>
      </trkpt>
      <trkpt lat="68.285513995215297" lon="16.620577974244952">
        <ele>26.09</ele>
        <time>2017-06-28T06:39:12Z</time>
      </trkpt>
      <trkpt lat="68.285493040457368" lon="16.620201040059328">
        <ele>26.09</ele>
        <time>2017-06-28T06:39:13Z</time>
      </trkpt>
      <trkpt lat="68.285361025482416" lon="16.596607994288206">
        <ele>14.56</ele>
        <time>2017-06-28T06:39:59Z</time>
      </trkpt>
      <trkpt lat="68.285182993859053" lon="16.589381033554673">
        <ele>8.310000000000001</ele>
        <time>2017-06-28T06:40:12Z</time>
      </trkpt>
      <trkpt lat="68.28535096719861" lon="16.585236014798284">
        <ele>3.98</ele>
        <time>2017-06-28T06:40:20Z</time>
      </trkpt>
      <trkpt lat="68.286021016538143" lon="16.581431971862912">
        <ele>-4.19</ele>
        <time>2017-06-28T06:40:28Z</time>
      </trkpt>
      <trkpt lat="68.286548992618918" lon="16.577356019988656">
        <ele>-6.11</ele>
        <time>2017-06-28T06:40:36Z</time>
      </trkpt>
      <trkpt lat="68.287742994725704" lon="16.570707997307181">
        <ele>-2.27</ele>
        <time>2017-06-28T06:40:49Z</time>
      </trkpt>
      <trkpt lat="68.289039004594088" lon="16.564454007893801">
        <ele>-5.15</ele>
        <time>2017-06-28T06:41:01Z</time>
      </trkpt>
      <trkpt lat="68.289257017895579" lon="16.563513977453113">
        <ele>-5.63</ele>
        <time>2017-06-28T06:41:03Z</time>
      </trkpt>
      <trkpt lat="68.289342010393739" lon="16.563016008585691">
        <ele>-5.15</ele>
        <time>2017-06-28T06:41:04Z</time>
      </trkpt>
      <trkpt lat="68.289407975971699" lon="16.562494989484549">
        <ele>-4.19</ele>
        <time>2017-06-28T06:41:05Z</time>
      </trkpt>
      <trkpt lat="68.289462961256504" lon="16.561951003968716">
        <ele>-3.23</ele>
        <time>2017-06-28T06:41:06Z</time>
      </trkpt>
      <trkpt lat="68.289513001218438" lon="16.561407018452883">
        <ele>-2.75</ele>
        <time>2017-06-28T06:41:07Z</time>
      </trkpt>
      <trkpt lat="68.289955984801054" lon="16.556656993925571">
        <ele>6.87</ele>
        <time>2017-06-28T06:41:16Z</time>
      </trkpt>
      <trkpt lat="68.290045000612736" lon="16.556242005899549">
        <ele>7.83</ele>
        <time>2017-06-28T06:41:17Z</time>
      </trkpt>
      <trkpt lat="68.290147008374333" lon="16.555868005380034">
        <ele>8.310000000000001</ele>
        <time>2017-06-28T06:41:18Z</time>
      </trkpt>
      <trkpt lat="68.290265025570989" lon="16.555520994588733">
        <ele>8.789999999999999</ele>
        <time>2017-06-28T06:41:19Z</time>
      </trkpt>
      <trkpt lat="68.290395028889179" lon="16.555203991010785">
        <ele>8.310000000000001</ele>
        <time>2017-06-28T06:41:20Z</time>
      </trkpt>
      <trkpt lat="68.290536012500525" lon="16.554925041273236">
        <ele>8.789999999999999</ele>
        <time>2017-06-28T06:41:21Z</time>
      </trkpt>
      <trkpt lat="68.290684036910534" lon="16.554685989394784">
        <ele>8.310000000000001</ele>
        <time>2017-06-28T06:41:22Z</time>
      </trkpt>
      <trkpt lat="68.290838012471795" lon="16.554511981084943">
        <ele>7.83</ele>
        <time>2017-06-28T06:41:23Z</time>
      </trkpt>
      <trkpt lat="68.290987964719534" lon="16.554374014958739">
        <ele>7.35</ele>
        <time>2017-06-28T06:41:24Z</time>
      </trkpt>
      <trkpt lat="68.291136994957924" lon="16.554272007197142">
        <ele>6.87</ele>
        <time>2017-06-28T06:41:25Z</time>
      </trkpt>
      <trkpt lat="68.292133016511798" lon="16.553238015621901">
        <ele>8.310000000000001</ele>
        <time>2017-06-28T06:41:33Z</time>
      </trkpt>
      <trkpt lat="68.292243992909789" lon="16.552983038127422">
        <ele>8.310000000000001</ele>
        <time>2017-06-28T06:41:34Z</time>
      </trkpt>
      <trkpt lat="68.292350023984909" lon="16.552691012620926">
        <ele>8.789999999999999</ele>
        <time>2017-06-28T06:41:35Z</time>
      </trkpt>
      <trkpt lat="68.292453959584236" lon="16.552365040406585">
        <ele>8.310000000000001</ele>
        <time>2017-06-28T06:41:36Z</time>
      </trkpt>
      <trkpt lat="68.292550016194582" lon="16.551999002695084">
        <ele>8.310000000000001</ele>
        <time>2017-06-28T06:41:37Z</time>
      </trkpt>
      <trkpt lat="68.292637020349503" lon="16.551590971648693">
        <ele>7.83</ele>
        <time>2017-06-28T06:41:38Z</time>
      </trkpt>
      <trkpt lat="68.29271899536252" lon="16.551155028864741">
        <ele>6.87</ele>
        <time>2017-06-28T06:41:39Z</time>
      </trkpt>
      <trkpt lat="68.29353497363627" lon="16.545959003269672">
        <ele>-0.34</ele>
        <time>2017-06-28T06:41:49Z</time>
      </trkpt>
      <trkpt lat="68.295053020119667" lon="16.536345966160297">
        <ele>-0.34</ele>
        <time>2017-06-28T06:42:06Z</time>
      </trkpt>
      <trkpt lat="68.295403970405459" lon="16.532362969592214">
        <ele>3.5</ele>
        <time>2017-06-28T06:42:13Z</time>
      </trkpt>
      <trkpt lat="68.295529028400779" lon="16.530773006379604">
        <ele>6.87</ele>
        <time>2017-06-28T06:42:16Z</time>
      </trkpt>
      <trkpt lat="68.295605974271894" lon="16.530277971178293">
        <ele>7.83</ele>
        <time>2017-06-28T06:42:17Z</time>
      </trkpt>
      <trkpt lat="68.295694990083575" lon="16.529806992039084">
        <ele>8.789999999999999</ele>
        <time>2017-06-28T06:42:18Z</time>
      </trkpt>
      <trkpt lat="68.296045018360019" lon="16.527976971119642">
        <ele>11.67</ele>
        <time>2017-06-28T06:42:22Z</time>
      </trkpt>
      <trkpt lat="68.296094974502921" lon="16.527489982545376">
        <ele>12.15</ele>
        <time>2017-06-28T06:42:23Z</time>
      </trkpt>
      <trkpt lat="68.2961340341717" lon="16.52698396705091">
        <ele>13.119999999999999</ele>
        <time>2017-06-28T06:42:24Z</time>
      </trkpt>
      <trkpt lat="68.29630795866251" lon="16.524973986670375">
        <ele>15.52</ele>
        <time>2017-06-28T06:42:28Z</time>
      </trkpt>
      <trkpt lat="68.296388005837798" lon="16.524479035288095">
        <ele>15.52</ele>
        <time>2017-06-28T06:42:29Z</time>
      </trkpt>
      <trkpt lat="68.296484984457493" lon="16.523988023400307">
        <ele>16</ele>
        <time>2017-06-28T06:42:30Z</time>
      </trkpt>
      <trkpt lat="68.297082027420402" lon="16.51997703127563">
        <ele>23.690000000000001</ele>
        <time>2017-06-28T06:42:38Z</time>
      </trkpt>
      <trkpt lat="68.297803960740566" lon="16.515069007873535">
        <ele>13.6</ele>
        <time>2017-06-28T06:42:48Z</time>
      </trkpt>
      <trkpt lat="68.298967033624649" lon="16.51215797290206">
        <ele>4.94</ele>
        <time>2017-06-28T06:42:56Z</time>
      </trkpt>
      <trkpt lat="68.29970296472311" lon="16.51013701222837">
        <ele>0.62</ele>
        <time>2017-06-28T06:43:02Z</time>
      </trkpt>
      <trkpt lat="68.299777982756495" lon="16.509766029193997">
        <ele>-0.82</ele>
        <time>2017-06-28T06:43:03Z</time>
      </trkpt>
      <trkpt lat="68.299839003011584" lon="16.509369984269142">
        <ele>-1.79</ele>
        <time>2017-06-28T06:43:04Z</time>
      </trkpt>
      <trkpt lat="68.299885019659996" lon="16.508954996243119">
        <ele>-1.3</ele>
        <time>2017-06-28T06:43:05Z</time>
      </trkpt>
      <trkpt lat="68.299911003559828" lon="16.50852701626718">
        <ele>-0.82</ele>
        <time>2017-06-28T06:43:06Z</time>
      </trkpt>
      <trkpt lat="68.29991502687335" lon="16.508099036291242">
        <ele>-1.3</ele>
        <time>2017-06-28T06:43:07Z</time>
      </trkpt>
      <trkpt lat="68.299901029095054" lon="16.507677007466555">
        <ele>-0.82</ele>
        <time>2017-06-28T06:43:08Z</time>
      </trkpt>
      <trkpt lat="68.2998710218817" lon="16.507267970591784">
        <ele>-0.82</ele>
        <time>2017-06-28T06:43:09Z</time>
      </trkpt>
      <trkpt lat="68.299826011061668" lon="16.506881983950734">
        <ele>-0.34</ele>
        <time>2017-06-28T06:43:10Z</time>
      </trkpt>
      <trkpt lat="68.299762979149818" lon="16.506521981209517">
        <ele>0.62</ele>
        <time>2017-06-28T06:43:11Z</time>
      </trkpt>
      <trkpt lat="68.299686033278704" lon="16.506195003166795">
        <ele>1.58</ele>
        <time>2017-06-28T06:43:12Z</time>
      </trkpt>
      <trkpt lat="68.299601040780544" lon="16.505913035944104">
        <ele>2.54</ele>
        <time>2017-06-28T06:43:13Z</time>
      </trkpt>
      <trkpt lat="68.299517976120114" lon="16.505671972408891">
        <ele>3.02</ele>
        <time>2017-06-28T06:43:14Z</time>
      </trkpt>
      <trkpt lat="68.299440024420619" lon="16.505477009341121">
        <ele>3.5</ele>
        <time>2017-06-28T06:43:15Z</time>
      </trkpt>
      <trkpt lat="68.299370035529137" lon="16.50532403960824">
        <ele>4.46</ele>
        <time>2017-06-28T06:43:16Z</time>
      </trkpt>
      <trkpt lat="68.299302980303764" lon="16.505207028239965">
        <ele>4.94</ele>
        <time>2017-06-28T06:43:17Z</time>
      </trkpt>
      <trkpt lat="68.299238020554185" lon="16.505109965801239">
        <ele>5.91</ele>
        <time>2017-06-28T06:43:18Z</time>
      </trkpt>
      <trkpt lat="68.299166020005941" lon="16.505030002444983">
        <ele>6.39</ele>
        <time>2017-06-28T06:43:19Z</time>
      </trkpt>
      <trkpt lat="68.299083039164543" lon="16.504949033260345">
        <ele>6.87</ele>
        <time>2017-06-28T06:43:20Z</time>
      </trkpt>
      <trkpt lat="68.298811968415976" lon="16.504696989431977">
        <ele>8.310000000000001</ele>
        <time>2017-06-28T06:43:23Z</time>
      </trkpt>
      <trkpt lat="68.297808989882469" lon="16.503861984238029">
        <ele>13.6</ele>
        <time>2017-06-28T06:43:33Z</time>
      </trkpt>
      <trkpt lat="68.296020962297916" lon="16.502200020477176">
        <ele>13.119999999999999</ele>
        <time>2017-06-28T06:43:47Z</time>
      </trkpt>
      <trkpt lat="68.294209968298674" lon="16.500159027054906">
        <ele>4.46</ele>
        <time>2017-06-28T06:43:59Z</time>
      </trkpt>
      <trkpt lat="68.293490968644619" lon="16.497940002009273">
        <ele>4.94</ele>
        <time>2017-06-28T06:44:05Z</time>
      </trkpt>
      <trkpt lat="68.293176982551813" lon="16.495182020589709">
        <ele>7.83</ele>
        <time>2017-06-28T06:44:11Z</time>
      </trkpt>
      <trkpt lat="68.293162984773517" lon="16.49331696331501">
        <ele>9.75</ele>
        <time>2017-06-28T06:44:17Z</time>
      </trkpt>
      <trkpt lat="68.293129960075021" lon="16.491602025926113">
        <ele>11.19</ele>
        <time>2017-06-28T06:44:24Z</time>
      </trkpt>
      <trkpt lat="68.293129038065672" lon="16.488909004256129">
        <ele>13.119999999999999</ele>
        <time>2017-06-28T06:44:32Z</time>
      </trkpt>
      <trkpt lat="68.293399019166827" lon="16.485523972660303">
        <ele>11.67</ele>
        <time>2017-06-28T06:44:41Z</time>
      </trkpt>
      <trkpt lat="68.293817024677992" lon="16.481359004974365">
        <ele>10.23</ele>
        <time>2017-06-28T06:44:50Z</time>
      </trkpt>
      <trkpt lat="68.293804032728076" lon="16.480892971158028">
        <ele>10.23</ele>
        <time>2017-06-28T06:44:51Z</time>
      </trkpt>
      <trkpt lat="68.293778970837593" lon="16.480436995625496">
        <ele>9.75</ele>
        <time>2017-06-28T06:44:52Z</time>
      </trkpt>
      <trkpt lat="68.293742006644607" lon="16.479992000386119">
        <ele>9.27</ele>
        <time>2017-06-28T06:44:53Z</time>
      </trkpt>
      <trkpt lat="68.293695989996195" lon="16.479561002925038">
        <ele>9.27</ele>
        <time>2017-06-28T06:44:54Z</time>
      </trkpt>
      <trkpt lat="68.293182011693716" lon="16.47548203356564">
        <ele>7.83</ele>
        <time>2017-06-28T06:45:04Z</time>
      </trkpt>
      <trkpt lat="68.292886968702078" lon="16.474377969279885">
        <ele>5.91</ele>
        <time>2017-06-28T06:45:07Z</time>
      </trkpt>
      <trkpt lat="68.292764006182551" lon="16.474069012328982">
        <ele>4.94</ele>
        <time>2017-06-28T06:45:08Z</time>
      </trkpt>
      <trkpt lat="68.292628973722458" lon="16.473803976550698">
        <ele>4.46</ele>
        <time>2017-06-28T06:45:09Z</time>
      </trkpt>
      <trkpt lat="68.29248396679759" lon="16.47357196547091">
        <ele>3.5</ele>
        <time>2017-06-28T06:45:10Z</time>
      </trkpt>
      <trkpt lat="68.292327979579568" lon="16.473371973261237">
        <ele>2.54</ele>
        <time>2017-06-28T06:45:11Z</time>
      </trkpt>
      <trkpt lat="68.292164029553533" lon="16.473211962729692">
        <ele>1.58</ele>
        <time>2017-06-28T06:45:12Z</time>
      </trkpt>
      <trkpt lat="68.291996978223324" lon="16.473101992160082">
        <ele>0.62</ele>
        <time>2017-06-28T06:45:13Z</time>
      </trkpt>
      <trkpt lat="68.291825987398624" lon="16.473044995218515">
        <ele>-0.34</ele>
        <time>2017-06-28T06:45:14Z</time>
      </trkpt>
      <trkpt lat="68.291649967432022" lon="16.473038960248232">
        <ele>-1.3</ele>
        <time>2017-06-28T06:45:15Z</time>
      </trkpt>
      <trkpt lat="68.291475037112832" lon="16.473068967461586">
        <ele>-2.27</ele>
        <time>2017-06-28T06:45:16Z</time>
      </trkpt>
      <trkpt lat="68.291295999661088" lon="16.473163012415171">
        <ele>-3.23</ele>
        <time>2017-06-28T06:45:17Z</time>
      </trkpt>
      <trkpt lat="68.289185017347336" lon="16.474736966192722">
        <ele>-6.59</ele>
        <time>2017-06-28T06:45:29Z</time>
      </trkpt>
      <trkpt lat="68.287552976980805" lon="16.475839018821716">
        <ele>-7.55</ele>
        <time>2017-06-28T06:45:39Z</time>
      </trkpt>
      <trkpt lat="68.287278972566128" lon="16.475885035470128">
        <ele>-7.55</ele>
        <time>2017-06-28T06:45:41Z</time>
      </trkpt>
      <trkpt lat="68.287135977298021" lon="16.475885035470128">
        <ele>-8.029999999999999</ele>
        <time>2017-06-28T06:45:42Z</time>
      </trkpt>
      <trkpt lat="68.28668000176549" lon="16.475684959441423">
        <ele>-8.029999999999999</ele>
        <time>2017-06-28T06:45:45Z</time>
      </trkpt>
      <trkpt lat="68.2865309715271" lon="16.475542970001698">
        <ele>-8.51</ele>
        <time>2017-06-28T06:45:46Z</time>
      </trkpt>
      <trkpt lat="68.286384036764503" lon="16.475358987227082">
        <ele>-8.51</ele>
        <time>2017-06-28T06:45:47Z</time>
      </trkpt>
      <trkpt lat="68.286242969334126" lon="16.475133011117578">
        <ele>-9</ele>
        <time>2017-06-28T06:45:48Z</time>
      </trkpt>
      <trkpt lat="68.286108020693064" lon="16.47487903945148">
        <ele>-9</ele>
        <time>2017-06-28T06:45:49Z</time>
      </trkpt>
      <trkpt lat="68.285981034860015" lon="16.474591959267855">
        <ele>-9</ele>
        <time>2017-06-28T06:45:50Z</time>
      </trkpt>
      <trkpt lat="68.285857988521457" lon="16.474267998710275">
        <ele>-9.48</ele>
        <time>2017-06-28T06:45:51Z</time>
      </trkpt>
      <trkpt lat="68.285746006295085" lon="16.473919982090592">
        <ele>-9</ele>
        <time>2017-06-28T06:45:52Z</time>
      </trkpt>
      <trkpt lat="68.285643998533487" lon="16.473547993227839">
        <ele>-8.51</ele>
        <time>2017-06-28T06:45:53Z</time>
      </trkpt>
      <trkpt lat="68.285554982721806" lon="16.473153959959745">
        <ele>-8.029999999999999</ele>
        <time>2017-06-28T06:45:54Z</time>
      </trkpt>
      <trkpt lat="68.285467978566885" lon="16.472759004682302">
        <ele>-7.55</ele>
        <time>2017-06-28T06:45:55Z</time>
      </trkpt>
      <trkpt lat="68.28461897559464" lon="16.467412021011114">
        <ele>3.98</ele>
        <time>2017-06-28T06:46:07Z</time>
      </trkpt>
      <trkpt lat="68.28395496122539" lon="16.4620750118047">
        <ele>18.399999999999999</ele>
        <time>2017-06-28T06:46:18Z</time>
      </trkpt>
      <trkpt lat="68.283896036446095" lon="16.458396026864648">
        <ele>29.460000000000001</ele>
        <time>2017-06-28T06:46:25Z</time>
      </trkpt>
      <trkpt lat="68.283861000090837" lon="16.457001026719809">
        <ele>33.299999999999997</ele>
        <time>2017-06-28T06:46:28Z</time>
      </trkpt>
      <trkpt lat="68.283824035897851" lon="16.456621997058392">
        <ele>33.780000000000001</ele>
        <time>2017-06-28T06:46:29Z</time>
      </trkpt>
      <trkpt lat="68.283770978450775" lon="16.456259982660413">
        <ele>33.780000000000001</ele>
        <time>2017-06-28T06:46:30Z</time>
      </trkpt>
      <trkpt lat="68.283701995387673" lon="16.455906014889479">
        <ele>33.780000000000001</ele>
        <time>2017-06-28T06:46:31Z</time>
      </trkpt>
      <trkpt lat="68.283614991232753" lon="16.455570990219712">
        <ele>33.780000000000001</ele>
        <time>2017-06-28T06:46:32Z</time>
      </trkpt>
      <trkpt lat="68.283507032319903" lon="16.455249963328242">
        <ele>33.780000000000001</ele>
        <time>2017-06-28T06:46:33Z</time>
      </trkpt>
      <trkpt lat="68.283388009294868" lon="16.454946035519242">
        <ele>33.780000000000001</ele>
        <time>2017-06-28T06:46:34Z</time>
      </trkpt>
      <trkpt lat="68.283255994319916" lon="16.454665996134281">
        <ele>33.780000000000001</ele>
        <time>2017-06-28T06:46:35Z</time>
      </trkpt>
      <trkpt lat="68.283109981566668" lon="16.454423004761338">
        <ele>33.780000000000001</ele>
        <time>2017-06-28T06:46:36Z</time>
      </trkpt>
      <trkpt lat="68.282950976863503" lon="16.45419099368155">
        <ele>33.780000000000001</ele>
        <time>2017-06-28T06:46:37Z</time>
      </trkpt>
      <trkpt lat="68.282786021009088" lon="16.453979015350342">
        <ele>34.259999999999998</ele>
        <time>2017-06-28T06:46:38Z</time>
      </trkpt>
      <trkpt lat="68.281015008687973" lon="16.451321030035615">
        <ele>41.469999999999999</ele>
        <time>2017-06-28T06:46:49Z</time>
      </trkpt>
      <trkpt lat="68.280891962349415" lon="16.450964966788888">
        <ele>42.439999999999998</ele>
        <time>2017-06-28T06:46:50Z</time>
      </trkpt>
      <trkpt lat="68.280777968466282" lon="16.450578980147839">
        <ele>43.399999999999999</ele>
        <time>2017-06-28T06:46:51Z</time>
      </trkpt>
      <trkpt lat="68.279738025739789" lon="16.446732021868229">
        <ele>52.049999999999997</ele>
        <time>2017-06-28T06:47:01Z</time>
      </trkpt>
      <trkpt lat="68.279454968869686" lon="16.446227012202144">
        <ele>50.609999999999999</ele>
        <time>2017-06-28T06:47:03Z</time>
      </trkpt>
      <trkpt lat="68.279294036328793" lon="16.446016961708665">
        <ele>50.130000000000003</ele>
        <time>2017-06-28T06:47:04Z</time>
      </trkpt>
      <trkpt lat="68.279123967513442" lon="16.44583398476243">
        <ele>49.159999999999997</ele>
        <time>2017-06-28T06:47:05Z</time>
      </trkpt>
      <trkpt lat="68.276807963848114" lon="16.443943027406931">
        <ele>48.200000000000003</ele>
        <time>2017-06-28T06:47:17Z</time>
      </trkpt>
      <trkpt lat="68.274678038433194" lon="16.442389022558928">
        <ele>44.359999999999999</ele>
        <time>2017-06-28T06:47:27Z</time>
      </trkpt>
      <trkpt lat="68.272925969213247" lon="16.442216020077467">
        <ele>37.149999999999999</ele>
        <time>2017-06-28T06:47:35Z</time>
      </trkpt>
      <trkpt lat="68.271463997662067" lon="16.441844031214714">
        <ele>41.950000000000003</ele>
        <time>2017-06-28T06:47:42Z</time>
      </trkpt>
      <trkpt lat="68.271295018494129" lon="16.441649990156293">
        <ele>42.439999999999998</ele>
        <time>2017-06-28T06:47:43Z</time>
      </trkpt>
      <trkpt lat="68.271139031276107" lon="16.441414039582014">
        <ele>43.399999999999999</ele>
        <time>2017-06-28T06:47:44Z</time>
      </trkpt>
      <trkpt lat="68.27099503017962" lon="16.441131988540292">
        <ele>44.359999999999999</ele>
        <time>2017-06-28T06:47:45Z</time>
      </trkpt>
      <trkpt lat="68.27086603268981" lon="16.440810039639473">
        <ele>45.32</ele>
        <time>2017-06-28T06:47:46Z</time>
      </trkpt>
      <trkpt lat="68.270748015493155" lon="16.440437966957688">
        <ele>45.799999999999997</ele>
        <time>2017-06-28T06:47:47Z</time>
      </trkpt>
      <trkpt lat="68.270633015781641" lon="16.440042005851865">
        <ele>47.240000000000002</ele>
        <time>2017-06-28T06:47:48Z</time>
      </trkpt>
      <trkpt lat="68.270527990534902" lon="16.439612014219165">
        <ele>48.200000000000003</ele>
        <time>2017-06-28T06:47:49Z</time>
      </trkpt>
      <trkpt lat="68.270429000258446" lon="16.43917297013104">
        <ele>49.159999999999997</ele>
        <time>2017-06-28T06:47:50Z</time>
      </trkpt>
      <trkpt lat="68.269946034997702" lon="16.43730397336185">
        <ele>54.450000000000003</ele>
        <time>2017-06-28T06:47:55Z</time>
      </trkpt>
      <trkpt lat="68.269827011972666" lon="16.437019994482398">
        <ele>55.890000000000001</ele>
        <time>2017-06-28T06:47:56Z</time>
      </trkpt>
      <trkpt lat="68.268710039556026" lon="16.434741038829088">
        <ele>66.950000000000003</ele>
        <time>2017-06-28T06:48:04Z</time>
      </trkpt>
      <trkpt lat="68.267416041344404" lon="16.430553020909429">
        <ele>80.890000000000001</ele>
        <time>2017-06-28T06:48:15Z</time>
      </trkpt>
      <trkpt lat="68.266219021752477" lon="16.425886983051896">
        <ele>92.900000000000006</ele>
        <time>2017-06-28T06:48:26Z</time>
      </trkpt>
      <trkpt lat="68.265293994918466" lon="16.418583998456597">
        <ele>110.69</ele>
        <time>2017-06-28T06:48:41Z</time>
      </trkpt>
      <trkpt lat="68.264411967247725" lon="16.411388972774148">
        <ele>133.28</ele>
        <time>2017-06-28T06:48:56Z</time>
      </trkpt>
      <trkpt lat="68.264310965314507" lon="16.407376974821091">
        <ele>145.78</ele>
        <time>2017-06-28T06:49:04Z</time>
      </trkpt>
      <trkpt lat="68.26407702639699" lon="16.402878994122148">
        <ele>160.19999999999999</ele>
        <time>2017-06-28T06:49:13Z</time>
      </trkpt>
      <trkpt lat="68.26399102807045" lon="16.402446990832686">
        <ele>161.63999999999999</ele>
        <time>2017-06-28T06:49:14Z</time>
      </trkpt>
      <trkpt lat="68.263892959803343" lon="16.402034014463425">
        <ele>163.08000000000001</ele>
        <time>2017-06-28T06:49:15Z</time>
      </trkpt>
      <trkpt lat="68.263781983405352" lon="16.401645010337234">
        <ele>164.52000000000001</ele>
        <time>2017-06-28T06:49:16Z</time>
      </trkpt>
      <trkpt lat="68.263658015057445" lon="16.401264974847436">
        <ele>165.96000000000001</ele>
        <time>2017-06-28T06:49:17Z</time>
      </trkpt>
      <trkpt lat="68.263527005910873" lon="16.400902960449457">
        <ele>167.88999999999999</ele>
        <time>2017-06-28T06:49:18Z</time>
      </trkpt>
      <trkpt lat="68.263385016471148" lon="16.400553015992045">
        <ele>169.33000000000001</ele>
        <time>2017-06-28T06:49:19Z</time>
      </trkpt>
      <trkpt lat="68.261130033060908" lon="16.395768960937858">
        <ele>197.21000000000001</ele>
        <time>2017-06-28T06:49:33Z</time>
      </trkpt>
      <trkpt lat="68.25969597324729" lon="16.393725033849478">
        <ele>210.66999999999999</ele>
        <time>2017-06-28T06:49:41Z</time>
      </trkpt>
      <trkpt lat="68.258499037474394" lon="16.393640963360667">
        <ele>220.75999999999999</ele>
        <time>2017-06-28T06:49:47Z</time>
      </trkpt>
      <trkpt lat="68.257069000974298" lon="16.394747961312532">
        <ele>233.25999999999999</ele>
        <time>2017-06-28T06:49:55Z</time>
      </trkpt>
      <trkpt lat="68.255624966695905" lon="16.395222041755915">
        <ele>242.87</ele>
        <time>2017-06-28T06:50:03Z</time>
      </trkpt>
      <trkpt lat="68.254310013726354" lon="16.394929010421038">
        <ele>235.18000000000001</ele>
        <time>2017-06-28T06:50:11Z</time>
      </trkpt>
      <trkpt lat="68.254164000973105" lon="16.39497603289783">
        <ele>233.74000000000001</ele>
        <time>2017-06-28T06:50:12Z</time>
      </trkpt>
      <trkpt lat="68.254015976563096" lon="16.39506203122437">
        <ele>231.81</ele>
        <time>2017-06-28T06:50:13Z</time>
      </trkpt>
      <trkpt lat="68.253863006830215" lon="16.395176025107503">
        <ele>230.84999999999999</ele>
        <time>2017-06-28T06:50:14Z</time>
      </trkpt>
      <trkpt lat="68.253723029047251" lon="16.395331006497145">
        <ele>228.93000000000001</ele>
        <time>2017-06-28T06:50:15Z</time>
      </trkpt>
      <trkpt lat="68.253581961616874" lon="16.395509038120508">
        <ele>227.49000000000001</ele>
        <time>2017-06-28T06:50:16Z</time>
      </trkpt>
      <trkpt lat="68.252769000828266" lon="16.396536994725466">
        <ele>219.31999999999999</ele>
        <time>2017-06-28T06:50:22Z</time>
      </trkpt>
      <trkpt lat="68.25262600556016" lon="16.396614024415612">
        <ele>218.84</ele>
        <time>2017-06-28T06:50:23Z</time>
      </trkpt>
      <trkpt lat="68.252489967271686" lon="16.396641014143825">
        <ele>217.88</ele>
        <time>2017-06-28T06:50:24Z</time>
      </trkpt>
      <trkpt lat="68.252354012802243" lon="16.396605977788568">
        <ele>216.43000000000001</ele>
        <time>2017-06-28T06:50:25Z</time>
      </trkpt>
      <trkpt lat="68.252224009484053" lon="16.396502964198589">
        <ele>215.94999999999999</ele>
        <time>2017-06-28T06:50:26Z</time>
      </trkpt>
      <trkpt lat="68.252104986459017" lon="16.396332979202271">
        <ele>214.99000000000001</ele>
        <time>2017-06-28T06:50:27Z</time>
      </trkpt>
      <trkpt lat="68.251999961212277" lon="16.396086970344186">
        <ele>213.55000000000001</ele>
        <time>2017-06-28T06:50:28Z</time>
      </trkpt>
      <trkpt lat="68.251914968714118" lon="16.395788993686438">
        <ele>212.11000000000001</ele>
        <time>2017-06-28T06:50:29Z</time>
      </trkpt>
      <trkpt lat="68.251855038106441" lon="16.395448017865419">
        <ele>210.66999999999999</ele>
        <time>2017-06-28T06:50:30Z</time>
      </trkpt>
      <trkpt lat="68.251818995922804" lon="16.395059013739228">
        <ele>209.22</ele>
        <time>2017-06-28T06:50:31Z</time>
      </trkpt>
      <trkpt lat="68.251814972609282" lon="16.394651988521218">
        <ele>206.81999999999999</ele>
        <time>2017-06-28T06:50:32Z</time>
      </trkpt>
      <trkpt lat="68.25183198787272" lon="16.394214034080505">
        <ele>204.41999999999999</ele>
        <time>2017-06-28T06:50:33Z</time>
      </trkpt>
      <trkpt lat="68.251868030056357" lon="16.393782030791044">
        <ele>202.49000000000001</ele>
        <time>2017-06-28T06:50:34Z</time>
      </trkpt>
      <trkpt lat="68.25191798619926" lon="16.393337035551667">
        <ele>201.05000000000001</ele>
        <time>2017-06-28T06:50:35Z</time>
      </trkpt>
      <trkpt lat="68.25198101811111" lon="16.39289396815002">
        <ele>199.13</ele>
        <time>2017-06-28T06:50:36Z</time>
      </trkpt>
      <trkpt lat="68.252663975581527" lon="16.388370003551245">
        <ele>184.71000000000001</ele>
        <time>2017-06-28T06:50:45Z</time>
      </trkpt>
      <trkpt lat="68.253038981929421" lon="16.385448994114995">
        <ele>174.62</ele>
        <time>2017-06-28T06:50:51Z</time>
      </trkpt>
      <trkpt lat="68.253052979707718" lon="16.384981032460928">
        <ele>173.16999999999999</ele>
        <time>2017-06-28T06:50:52Z</time>
      </trkpt>
      <trkpt lat="68.253047028556466" lon="16.384532013908029">
        <ele>172.21000000000001</ele>
        <time>2017-06-28T06:50:53Z</time>
      </trkpt>
      <trkpt lat="68.253019032999873" lon="16.384100010618567">
        <ele>171.25</ele>
        <time>2017-06-28T06:50:54Z</time>
      </trkpt>
      <trkpt lat="68.252968993037939" lon="16.383706983178854">
        <ele>169.81</ele>
        <time>2017-06-28T06:50:55Z</time>
      </trkpt>
      <trkpt lat="68.252897998318076" lon="16.383342035114765">
        <ele>168.84999999999999</ele>
        <time>2017-06-28T06:50:56Z</time>
      </trkpt>
      <trkpt lat="68.252806970849633" lon="16.383006004616618">
        <ele>168.37</ele>
        <time>2017-06-28T06:50:57Z</time>
      </trkpt>
      <trkpt lat="68.2526929769665" lon="16.382689001038671">
        <ele>167.41</ele>
        <time>2017-06-28T06:50:58Z</time>
      </trkpt>
      <trkpt lat="68.25256397947669" lon="16.382403010502458">
        <ele>166.44999999999999</ele>
        <time>2017-06-28T06:50:59Z</time>
      </trkpt>
      <trkpt lat="68.252417966723442" lon="16.38215197250247">
        <ele>165.47999999999999</ele>
        <time>2017-06-28T06:51:00Z</time>
      </trkpt>
      <trkpt lat="68.25226197950542" lon="16.381939994171262">
        <ele>164.52000000000001</ele>
        <time>2017-06-28T06:51:01Z</time>
      </trkpt>
      <trkpt lat="68.25209098868072" lon="16.381756011396646">
        <ele>163.56</ele>
        <time>2017-06-28T06:51:02Z</time>
      </trkpt>
      <trkpt lat="68.251916980370879" lon="16.381603041663766">
        <ele>162.12</ele>
        <time>2017-06-28T06:51:03Z</time>
      </trkpt>
      <trkpt lat="68.250634968280792" lon="16.380441980436444">
        <ele>152.99000000000001</ele>
        <time>2017-06-28T06:51:10Z</time>
      </trkpt>
      <trkpt lat="68.250486021861434" lon="16.380190020427108">
        <ele>151.06</ele>
        <time>2017-06-28T06:51:11Z</time>
      </trkpt>
      <trkpt lat="68.25034998357296" lon="16.379897994920611">
        <ele>149.62</ele>
        <time>2017-06-28T06:51:12Z</time>
      </trkpt>
      <trkpt lat="68.250235989689827" lon="16.379579985514283">
        <ele>148.18000000000001</ele>
        <time>2017-06-28T06:51:13Z</time>
      </trkpt>
      <trkpt lat="68.250142028555274" lon="16.379241021350026">
        <ele>146.74000000000001</ele>
        <time>2017-06-28T06:51:14Z</time>
      </trkpt>
      <trkpt lat="68.250061981379986" lon="16.378899039700627">
        <ele>144.81999999999999</ele>
        <time>2017-06-28T06:51:15Z</time>
      </trkpt>
      <trkpt lat="68.249992998316884" lon="16.378570972010493">
        <ele>143.84999999999999</ele>
        <time>2017-06-28T06:51:16Z</time>
      </trkpt>
      <trkpt lat="68.24981396086514" lon="16.37781199067831">
        <ele>140.49000000000001</ele>
        <time>2017-06-28T06:51:19Z</time>
      </trkpt>
      <trkpt lat="68.249736009165645" lon="16.377564975991845">
        <ele>139.53</ele>
        <time>2017-06-28T06:51:20Z</time>
      </trkpt>
      <trkpt lat="68.249640036374331" lon="16.377323996275663">
        <ele>138.56999999999999</ele>
        <time>2017-06-28T06:51:21Z</time>
      </trkpt>
      <trkpt lat="68.249528976157308" lon="16.377088967710733">
        <ele>137.61000000000001</ele>
        <time>2017-06-28T06:51:22Z</time>
      </trkpt>
      <trkpt lat="68.24940400198102" lon="16.376868020743132">
        <ele>136.16</ele>
        <time>2017-06-28T06:51:23Z</time>
      </trkpt>
      <trkpt lat="68.249262012541294" lon="16.376684959977865">
        <ele>134.72</ele>
        <time>2017-06-28T06:51:24Z</time>
      </trkpt>
      <trkpt lat="68.249111976474524" lon="16.376544982194901">
        <ele>133.75999999999999</ele>
        <time>2017-06-28T06:51:25Z</time>
      </trkpt>
      <trkpt lat="68.248948026448488" lon="16.376453032717109">
        <ele>132.80000000000001</ele>
        <time>2017-06-28T06:51:26Z</time>
      </trkpt>
      <trkpt lat="68.248777035623789" lon="16.376413973048329">
        <ele>131.36000000000001</ele>
        <time>2017-06-28T06:51:27Z</time>
      </trkpt>
      <trkpt lat="68.248597998172045" lon="16.376423025503755">
        <ele>129.91999999999999</ele>
        <time>2017-06-28T06:51:28Z</time>
      </trkpt>
      <trkpt lat="68.248416027054191" lon="16.376454960554838">
        <ele>128.47</ele>
        <time>2017-06-28T06:51:29Z</time>
      </trkpt>
      <trkpt lat="68.246523980051279" lon="16.376726031303406">
        <ele>116.94</ele>
        <time>2017-06-28T06:51:39Z</time>
      </trkpt>
      <trkpt lat="68.246362041682005" lon="16.376647995784879">
        <ele>114.53</ele>
        <time>2017-06-28T06:51:40Z</time>
      </trkpt>
      <trkpt lat="68.246199013665318" lon="16.376508018001914">
        <ele>113.56999999999999</ele>
        <time>2017-06-28T06:51:41Z</time>
      </trkpt>
      <trkpt lat="68.24603296816349" lon="16.37632898055017">
        <ele>111.65000000000001</ele>
        <time>2017-06-28T06:51:42Z</time>
      </trkpt>
      <trkpt lat="68.245862983167171" lon="16.376112978905439">
        <ele>110.69</ele>
        <time>2017-06-28T06:51:43Z</time>
      </trkpt>
      <trkpt lat="68.245696015655994" lon="16.375865964218974">
        <ele>109.25</ele>
        <time>2017-06-28T06:51:44Z</time>
      </trkpt>
      <trkpt lat="68.244175035506487" lon="16.373132038861513">
        <ele>94.349999999999994</ele>
        <time>2017-06-28T06:51:54Z</time>
      </trkpt>
      <trkpt lat="68.243206003680825" lon="16.369610968977213">
        <ele>80.409999999999997</ele>
        <time>2017-06-28T06:52:03Z</time>
      </trkpt>
      <trkpt lat="68.242168994620442" lon="16.364837978035212">
        <ele>62.140000000000001</ele>
        <time>2017-06-28T06:52:14Z</time>
      </trkpt>
      <trkpt lat="68.24070199392736" lon="16.359381023794413">
        <ele>43.399999999999999</ele>
        <time>2017-06-28T06:52:27Z</time>
      </trkpt>
      <trkpt lat="68.23969398625195" lon="16.355501962825656">
        <ele>34.259999999999998</ele>
        <time>2017-06-28T06:52:37Z</time>
      </trkpt>
      <trkpt lat="68.239637995138764" lon="16.355089992284775">
        <ele>32.82</ele>
        <time>2017-06-28T06:52:38Z</time>
      </trkpt>
      <trkpt lat="68.239592984318733" lon="16.354655977338552">
        <ele>31.379999999999999</ele>
        <time>2017-06-28T06:52:39Z</time>
      </trkpt>
      <trkpt lat="68.239559959620237" lon="16.354203019291162">
        <ele>29.940000000000001</ele>
        <time>2017-06-28T06:52:40Z</time>
      </trkpt>
      <trkpt lat="68.239539004862309" lon="16.353737991303205">
        <ele>28.5</ele>
        <time>2017-06-28T06:52:41Z</time>
      </trkpt>
      <trkpt lat="68.239533975720406" lon="16.353261983022094">
        <ele>27.050000000000001</ele>
        <time>2017-06-28T06:52:42Z</time>
      </trkpt>
      <trkpt lat="68.239543028175831" lon="16.352783963084221">
        <ele>26.57</ele>
        <time>2017-06-28T06:52:43Z</time>
      </trkpt>
      <trkpt lat="68.239572029560804" lon="16.352304015308619">
        <ele>26.57</ele>
        <time>2017-06-28T06:52:44Z</time>
      </trkpt>
      <trkpt lat="68.239617040380836" lon="16.351824989542365">
        <ele>26.09</ele>
        <time>2017-06-28T06:52:45Z</time>
      </trkpt>
      <trkpt lat="68.239679988473654" lon="16.351346969604492">
        <ele>26.09</ele>
        <time>2017-06-28T06:52:46Z</time>
      </trkpt>
      <trkpt lat="68.239762969315052" lon="16.350893005728722">
        <ele>26.09</ele>
        <time>2017-06-28T06:52:47Z</time>
      </trkpt>
      <trkpt lat="68.239857014268637" lon="16.350442981347442">
        <ele>26.57</ele>
        <time>2017-06-28T06:52:48Z</time>
      </trkpt>
      <trkpt lat="68.239964973181486" lon="16.350011983886361">
        <ele>27.050000000000001</ele>
        <time>2017-06-28T06:52:49Z</time>
      </trkpt>
      <trkpt lat="68.240082990378141" lon="16.349592972546816">
        <ele>26.57</ele>
        <time>2017-06-28T06:52:50Z</time>
      </trkpt>
      <trkpt lat="68.24020897038281" lon="16.349184019491076">
        <ele>25.609999999999999</ele>
        <time>2017-06-28T06:52:51Z</time>
      </trkpt>
      <trkpt lat="68.241742020472884" lon="16.345005976036191">
        <ele>12.15</ele>
        <time>2017-06-28T06:53:01Z</time>
      </trkpt>
      <trkpt lat="68.244144022464752" lon="16.338302968069911">
        <ele>25.129999999999999</ele>
        <time>2017-06-28T06:53:16Z</time>
      </trkpt>
      <trkpt lat="68.24525898322463" lon="16.333409026265144">
        <ele>23.210000000000001</ele>
        <time>2017-06-28T06:53:26Z</time>
      </trkpt>
      <trkpt lat="68.247004011645913" lon="16.325332978740335">
        <ele>7.83</ele>
        <time>2017-06-28T06:53:42Z</time>
      </trkpt>
      <trkpt lat="68.247121023014188" lon="16.324375011026859">
        <ele>7.35</ele>
        <time>2017-06-28T06:53:44Z</time>
      </trkpt>
      <trkpt lat="68.2471480127424" lon="16.323901014402509">
        <ele>7.35</ele>
        <time>2017-06-28T06:53:45Z</time>
      </trkpt>
      <trkpt lat="68.247158993035555" lon="16.323424000293016">
        <ele>7.35</ele>
        <time>2017-06-28T06:53:46Z</time>
      </trkpt>
      <trkpt lat="68.24714700691402" lon="16.32293701171875">
        <ele>6.39</ele>
        <time>2017-06-28T06:53:47Z</time>
      </trkpt>
      <trkpt lat="68.247122028842568" lon="16.322449017316103">
        <ele>4.94</ele>
        <time>2017-06-28T06:53:48Z</time>
      </trkpt>
      <trkpt lat="68.24708397500217" lon="16.321944007650018">
        <ele>3.98</ele>
        <time>2017-06-28T06:53:49Z</time>
      </trkpt>
      <trkpt lat="68.247035024687648" lon="16.32143103517592">
        <ele>3.02</ele>
        <time>2017-06-28T06:53:50Z</time>
      </trkpt>
      <trkpt lat="68.246404035016894" lon="16.315764030441642">
        <ele>-6.11</ele>
        <time>2017-06-28T06:54:00Z</time>
      </trkpt>
      <trkpt lat="68.245517984032631" lon="16.306798998266459">
        <ele>-6.11</ele>
        <time>2017-06-28T06:54:15Z</time>
      </trkpt>
      <trkpt lat="68.245153035968542" lon="16.304534962400794">
        <ele>-2.75</ele>
        <time>2017-06-28T06:54:20Z</time>
      </trkpt>
      <trkpt lat="68.245045999065042" lon="16.304160039871931">
        <ele>-2.75</ele>
        <time>2017-06-28T06:54:21Z</time>
      </trkpt>
      <trkpt lat="68.244924964383245" lon="16.303826021030545">
        <ele>-3.23</ele>
        <time>2017-06-28T06:54:22Z</time>
      </trkpt>
      <trkpt lat="68.244789009913802" lon="16.303519997745752">
        <ele>-3.71</ele>
        <time>2017-06-28T06:54:23Z</time>
      </trkpt>
      <trkpt lat="68.244639979675412" lon="16.303242975845933">
        <ele>-5.15</ele>
        <time>2017-06-28T06:54:24Z</time>
      </trkpt>
      <trkpt lat="68.244480974972248" lon="16.302980035543442">
        <ele>-6.11</ele>
        <time>2017-06-28T06:54:25Z</time>
      </trkpt>
      <trkpt lat="68.244307972490788" lon="16.302730003371835">
        <ele>-7.07</ele>
        <time>2017-06-28T06:54:26Z</time>
      </trkpt>
      <trkpt lat="68.242569984868169" lon="16.300875004380941">
        <ele>-8.029999999999999</ele>
        <time>2017-06-28T06:54:35Z</time>
      </trkpt>
      <trkpt lat="68.242050977423787" lon="16.299989959225059">
        <ele>-8.51</ele>
        <time>2017-06-28T06:54:38Z</time>
      </trkpt>
      <trkpt lat="68.241903958842158" lon="16.299612019211054">
        <ele>-8.029999999999999</ele>
        <time>2017-06-28T06:54:39Z</time>
      </trkpt>
      <trkpt lat="68.241768004372716" lon="16.299205999821424">
        <ele>-8.029999999999999</ele>
        <time>2017-06-28T06:54:40Z</time>
      </trkpt>
      <trkpt lat="68.24164898134768" lon="16.298762010410428">
        <ele>-8.51</ele>
        <time>2017-06-28T06:54:41Z</time>
      </trkpt>
      <trkpt lat="68.241541022434831" lon="16.298281978815794">
        <ele>-8.029999999999999</ele>
        <time>2017-06-28T06:54:42Z</time>
      </trkpt>
      <trkpt lat="68.241443037986755" lon="16.297776969149709">
        <ele>-8.029999999999999</ele>
        <time>2017-06-28T06:54:43Z</time>
      </trkpt>
      <trkpt lat="68.241354022175074" lon="16.297241030260921">
        <ele>-8.029999999999999</ele>
        <time>2017-06-28T06:54:44Z</time>
      </trkpt>
      <trkpt lat="68.241273974999785" lon="16.296688998118043">
        <ele>-8.029999999999999</ele>
        <time>2017-06-28T06:54:45Z</time>
      </trkpt>
      <trkpt lat="68.241204991936684" lon="16.296115005388856">
        <ele>-8.029999999999999</ele>
        <time>2017-06-28T06:54:46Z</time>
      </trkpt>
      <trkpt lat="68.241143971681595" lon="16.295535983517766">
        <ele>-8.029999999999999</ele>
        <time>2017-06-28T06:54:47Z</time>
      </trkpt>
      <trkpt lat="68.240371998399496" lon="16.290498040616512">
        <ele>-5.15</ele>
        <time>2017-06-28T06:54:56Z</time>
      </trkpt>
      <trkpt lat="68.239302970468998" lon="16.287218034267426">
        <ele>-8.51</ele>
        <time>2017-06-28T06:55:03Z</time>
      </trkpt>
      <trkpt lat="68.239187970757484" lon="16.286719981580973">
        <ele>-8.51</ele>
        <time>2017-06-28T06:55:04Z</time>
      </trkpt>
      <trkpt lat="68.239095015451312" lon="16.2861970346421">
        <ele>-8.51</ele>
        <time>2017-06-28T06:55:05Z</time>
      </trkpt>
      <trkpt lat="68.239017985761166" lon="16.285654976963997">
        <ele>-8.51</ele>
        <time>2017-06-28T06:55:06Z</time>
      </trkpt>
      <trkpt lat="68.238528985530138" lon="16.28125598654151">
        <ele>-4.19</ele>
        <time>2017-06-28T06:55:14Z</time>
      </trkpt>
      <trkpt lat="68.238356988877058" lon="16.280383011326194">
        <ele>-4.67</ele>
        <time>2017-06-28T06:55:16Z</time>
      </trkpt>
      <trkpt lat="68.238248024135828" lon="16.280000964179635">
        <ele>-5.63</ele>
        <time>2017-06-28T06:55:17Z</time>
      </trkpt>
      <trkpt lat="68.238122966140509" lon="16.279668034985662">
        <ele>-6.11</ele>
        <time>2017-06-28T06:55:18Z</time>
      </trkpt>
      <trkpt lat="68.237978965044022" lon="16.279357988387346">
        <ele>-7.07</ele>
        <time>2017-06-28T06:55:19Z</time>
      </trkpt>
      <trkpt lat="68.237818032503128" lon="16.279074009507895">
        <ele>-7.55</ele>
        <time>2017-06-28T06:55:20Z</time>
      </trkpt>
      <trkpt lat="68.2376519870013" lon="16.278809979557991">
        <ele>-7.55</ele>
        <time>2017-06-28T06:55:21Z</time>
      </trkpt>
      <trkpt lat="68.236987972632051" lon="16.2775609921664">
        <ele>-7.55</ele>
        <time>2017-06-28T06:55:25Z</time>
      </trkpt>
      <trkpt lat="68.236851012334228" lon="16.277156984433532">
        <ele>-6.59</ele>
        <time>2017-06-28T06:55:26Z</time>
      </trkpt>
      <trkpt lat="68.236727965995669" lon="16.276726992800832">
        <ele>-5.63</ele>
        <time>2017-06-28T06:55:27Z</time>
      </trkpt>
      <trkpt lat="68.235559025779366" lon="16.272603012621403">
        <ele>-6.59</ele>
        <time>2017-06-28T06:55:36Z</time>
      </trkpt>
      <trkpt lat="68.234969023615122" lon="16.270403014495969">
        <ele>-8.029999999999999</ele>
        <time>2017-06-28T06:55:41Z</time>
      </trkpt>
      <trkpt lat="68.234899034723639" lon="16.269947038963437">
        <ele>-8.029999999999999</ele>
        <time>2017-06-28T06:55:42Z</time>
      </trkpt>
      <trkpt lat="68.234853018075228" lon="16.269475976005197">
        <ele>-8.029999999999999</ele>
        <time>2017-06-28T06:55:43Z</time>
      </trkpt>
      <trkpt lat="68.234829967841506" lon="16.268992004916072">
        <ele>-8.029999999999999</ele>
        <time>2017-06-28T06:55:44Z</time>
      </trkpt>
      <trkpt lat="68.234830973669887" lon="16.268495041877031">
        <ele>-7.55</ele>
        <time>2017-06-28T06:55:45Z</time>
      </trkpt>
      <trkpt lat="68.234854023903608" lon="16.267982991412282">
        <ele>-7.07</ele>
        <time>2017-06-28T06:55:46Z</time>
      </trkpt>
      <trkpt lat="68.234898028895259" lon="16.267478987574577">
        <ele>-6.59</ele>
        <time>2017-06-28T06:55:47Z</time>
      </trkpt>
      <trkpt lat="68.234948990866542" lon="16.266964003443718">
        <ele>-6.11</ele>
        <time>2017-06-28T06:55:48Z</time>
      </trkpt>
      <trkpt lat="68.235169015824795" lon="16.263217963278294">
        <ele>-0.34</ele>
        <time>2017-06-28T06:55:55Z</time>
      </trkpt>
      <trkpt lat="68.235145965591073" lon="16.262673977762461">
        <ele>0.62</ele>
        <time>2017-06-28T06:55:56Z</time>
      </trkpt>
      <trkpt lat="68.235109001398087" lon="16.262124963104725">
        <ele>1.1</ele>
        <time>2017-06-28T06:55:57Z</time>
      </trkpt>
      <trkpt lat="68.234489997848868" lon="16.257582977414131">
        <ele>5.91</ele>
        <time>2017-06-28T06:56:06Z</time>
      </trkpt>
      <trkpt lat="68.234382038936019" lon="16.257202019914985">
        <ele>5.42</ele>
        <time>2017-06-28T06:56:07Z</time>
      </trkpt>
      <trkpt lat="68.234253041446209" lon="16.256836988031864">
        <ele>4.94</ele>
        <time>2017-06-28T06:56:08Z</time>
      </trkpt>
      <trkpt lat="68.234110968187451" lon="16.256497018039227">
        <ele>4.46</ele>
        <time>2017-06-28T06:56:09Z</time>
      </trkpt>
      <trkpt lat="68.233962021768093" lon="16.256165010854602">
        <ele>3.98</ele>
        <time>2017-06-28T06:56:10Z</time>
      </trkpt>
      <trkpt lat="68.232543971389532" lon="16.253074016422033">
        <ele>8.310000000000001</ele>
        <time>2017-06-28T06:56:20Z</time>
      </trkpt>
      <trkpt lat="68.232439029961824" lon="16.252730023115873">
        <ele>7.35</ele>
        <time>2017-06-28T06:56:21Z</time>
      </trkpt>
      <trkpt lat="68.232351019978523" lon="16.252348981797695">
        <ele>6.87</ele>
        <time>2017-06-28T06:56:22Z</time>
      </trkpt>
      <trkpt lat="68.23227901943028" lon="16.251943968236446">
        <ele>6.39</ele>
        <time>2017-06-28T06:56:23Z</time>
      </trkpt>
      <trkpt lat="68.232225039973855" lon="16.251512970775366">
        <ele>5.91</ele>
        <time>2017-06-28T06:56:24Z</time>
      </trkpt>
      <trkpt lat="68.23219302110374" lon="16.251060012727976">
        <ele>5.91</ele>
        <time>2017-06-28T06:56:25Z</time>
      </trkpt>
      <trkpt lat="68.232169970870018" lon="16.250590039417148">
        <ele>5.91</ele>
        <time>2017-06-28T06:56:26Z</time>
      </trkpt>
      <trkpt lat="68.232156978920102" lon="16.25010397285223">
        <ele>6.39</ele>
        <time>2017-06-28T06:56:27Z</time>
      </trkpt>
      <trkpt lat="68.232157984748483" lon="16.249615978449583">
        <ele>7.35</ele>
        <time>2017-06-28T06:56:28Z</time>
      </trkpt>
      <trkpt lat="68.232163013890386" lon="16.245748987421393">
        <ele>8.789999999999999</ele>
        <time>2017-06-28T06:56:37Z</time>
      </trkpt>
      <trkpt lat="68.231746014207602" lon="16.242548022419214">
        <ele>0.14</ele>
        <time>2017-06-28T06:56:46Z</time>
      </trkpt>
      <trkpt lat="68.231451977044344" lon="16.240870971232653">
        <ele>-4.67</ele>
        <time>2017-06-28T06:56:51Z</time>
      </trkpt>
      <trkpt lat="68.231424987316132" lon="16.240524966269732">
        <ele>-5.15</ele>
        <time>2017-06-28T06:56:52Z</time>
      </trkpt>
      <trkpt lat="68.231406966224313" lon="16.240177033469081">
        <ele>-6.11</ele>
        <time>2017-06-28T06:56:53Z</time>
      </trkpt>
      <trkpt lat="68.231402020901442" lon="16.239838991314173">
        <ele>-6.11</ele>
        <time>2017-06-28T06:56:54Z</time>
      </trkpt>
      <trkpt lat="68.231405038386583" lon="16.239503966644406">
        <ele>-6.59</ele>
        <time>2017-06-28T06:56:55Z</time>
      </trkpt>
      <trkpt lat="68.231416018679738" lon="16.239173971116543">
        <ele>-6.59</ele>
        <time>2017-06-28T06:56:56Z</time>
      </trkpt>
      <trkpt lat="68.231432028114796" lon="16.238867025822401">
        <ele>-7.07</ele>
        <time>2017-06-28T06:56:57Z</time>
      </trkpt>
      <trkpt lat="68.231676025316119" lon="16.236271988600492">
        <ele>-7.07</ele>
        <time>2017-06-28T06:57:07Z</time>
      </trkpt>
      <trkpt lat="68.231721958145499" lon="16.236055986955762">
        <ele>-7.55</ele>
        <time>2017-06-28T06:57:08Z</time>
      </trkpt>
      <trkpt lat="68.231773003935814" lon="16.23587803915143">
        <ele>-7.55</ele>
        <time>2017-06-28T06:57:09Z</time>
      </trkpt>
      <trkpt lat="68.231825977563858" lon="16.235726997256279">
        <ele>-7.55</ele>
        <time>2017-06-28T06:57:10Z</time>
      </trkpt>
      <trkpt lat="68.231877023354173" lon="16.235613003373146">
        <ele>-8.029999999999999</ele>
        <time>2017-06-28T06:57:11Z</time>
      </trkpt>
      <trkpt lat="68.231923962011933" lon="16.235509989783168">
        <ele>-8.51</ele>
        <time>2017-06-28T06:57:12Z</time>
      </trkpt>
      <trkpt lat="68.232135018333793" lon="16.235057031735778">
        <ele>-9.48</ele>
        <time>2017-06-28T06:57:21Z</time>
      </trkpt>
      <trkpt lat="68.232135018333793" lon="16.235046973451972">
        <ele>-8.51</ele>
        <time>2017-06-28T06:59:12Z</time>
      </trkpt>
      <trkpt lat="68.242205958813429" lon="16.188685996457934">
        <ele>-1.79</ele>
        <time>2017-06-28T08:13:32Z</time>
      </trkpt>
      <trkpt lat="68.242048965767026" lon="16.181815015152097">
        <ele>21.289999999999999</ele>
        <time>2017-06-28T08:14:24Z</time>
      </trkpt>
      <trkpt lat="68.241388974711299" lon="16.175626991316676">
        <ele>19.359999999999999</ele>
        <time>2017-06-28T08:15:13Z</time>
      </trkpt>
      <trkpt lat="68.24053100310266" lon="16.168166007846594">
        <ele>11.67</ele>
        <time>2017-06-28T08:16:12Z</time>
      </trkpt>
      <trkpt lat="68.239142959937453" lon="16.157031990587711">
        <ele>17.920000000000002</ele>
        <time>2017-06-28T08:17:41Z</time>
      </trkpt>
      <trkpt lat="68.237262982875109" lon="16.143372002989054">
        <ele>18.399999999999999</ele>
        <time>2017-06-28T08:19:30Z</time>
      </trkpt>
      <trkpt lat="68.235360961407423" lon="16.129962969571352">
        <ele>15.039999999999999</ele>
        <time>2017-06-28T08:21:18Z</time>
      </trkpt>
      <trkpt lat="68.234197972342372" lon="16.121908966451883">
        <ele>14.56</ele>
        <time>2017-06-28T08:22:22Z</time>
      </trkpt>
      <trkpt lat="68.232843959704041" lon="16.113515999168158">
        <ele>23.690000000000001</ele>
        <time>2017-06-28T08:23:30Z</time>
      </trkpt>
      <trkpt lat="68.225421030074358" lon="16.076219966635108">
        <ele>30.420000000000002</ele>
        <time>2017-06-28T08:30:11Z</time>
      </trkpt>
      <trkpt lat="68.225250961259007" lon="16.076130028814077">
        <ele>16</ele>
        <time>2017-06-28T08:30:25Z</time>
      </trkpt>
      <trkpt lat="68.225164962932467" lon="16.076068002730608">
        <ele>13.6</ele>
        <time>2017-06-28T08:31:13Z</time>
      </trkpt>
      <trkpt lat="68.225162029266357" lon="16.076077977195382">
        <ele>13.119999999999999</ele>
        <time>2017-06-28T08:31:39Z</time>
      </trkpt>
      <trkpt lat="68.225071001797915" lon="16.075949985533953">
        <ele>9.75</ele>
        <time>2017-06-28T08:31:45Z</time>
      </trkpt>
      <trkpt lat="68.224837984889746" lon="16.075682016089559">
        <ele>4.46</ele>
        <time>2017-06-28T08:31:51Z</time>
      </trkpt>
      <trkpt lat="68.224219987168908" lon="16.074276035651565">
        <ele>5.91</ele>
        <time>2017-06-28T08:32:02Z</time>
      </trkpt>
      <trkpt lat="68.223538035526872" lon="16.072851028293371">
        <ele>6.39</ele>
        <time>2017-06-28T08:32:10Z</time>
      </trkpt>
      <trkpt lat="68.223420018330216" lon="16.072721024975181">
        <ele>6.87</ele>
        <time>2017-06-28T08:32:11Z</time>
      </trkpt>
      <trkpt lat="68.223291020840406" lon="16.072624968364835">
        <ele>7.35</ele>
        <time>2017-06-28T08:32:12Z</time>
      </trkpt>
      <trkpt lat="68.221479021012783" lon="16.071215970441699">
        <ele>13.6</ele>
        <time>2017-06-28T08:32:26Z</time>
      </trkpt>
      <trkpt lat="68.219608012586832" lon="16.069829016923904">
        <ele>19.84</ele>
        <time>2017-06-28T08:32:39Z</time>
      </trkpt>
      <trkpt lat="68.219469040632248" lon="16.06964897364378">
        <ele>20.32</ele>
        <time>2017-06-28T08:32:40Z</time>
      </trkpt>
      <trkpt lat="68.219333002343774" lon="16.069429032504559">
        <ele>20.809999999999999</ele>
        <time>2017-06-28T08:32:41Z</time>
      </trkpt>
      <trkpt lat="68.219200987368822" lon="16.069163996726274">
        <ele>21.289999999999999</ele>
        <time>2017-06-28T08:32:42Z</time>
      </trkpt>
      <trkpt lat="68.219074001535773" lon="16.068860990926623">
        <ele>22.25</ele>
        <time>2017-06-28T08:32:43Z</time>
      </trkpt>
      <trkpt lat="68.218955984339118" lon="16.068515991792083">
        <ele>23.210000000000001</ele>
        <time>2017-06-28T08:32:44Z</time>
      </trkpt>
      <trkpt lat="68.218845007941127" lon="16.06814500875771">
        <ele>24.649999999999999</ele>
        <time>2017-06-28T08:32:45Z</time>
      </trkpt>
      <trkpt lat="68.217700961977243" lon="16.064009964466095">
        <ele>36.189999999999998</ele>
        <time>2017-06-28T08:32:55Z</time>
      </trkpt>
      <trkpt lat="68.217625021934509" lon="16.063558012247086">
        <ele>36.670000000000002</ele>
        <time>2017-06-28T08:32:56Z</time>
      </trkpt>
      <trkpt lat="68.217567019164562" lon="16.063086027279496">
        <ele>37.149999999999999</ele>
        <time>2017-06-28T08:32:57Z</time>
      </trkpt>
      <trkpt lat="68.217533994466066" lon="16.062596021220088">
        <ele>38.109999999999999</ele>
        <time>2017-06-28T08:32:58Z</time>
      </trkpt>
      <trkpt lat="68.21752100251615" lon="16.062083970755339">
        <ele>39.07</ele>
        <time>2017-06-28T08:32:59Z</time>
      </trkpt>
      <trkpt lat="68.217523014172912" lon="16.061554988846183">
        <ele>39.549999999999997</ele>
        <time>2017-06-28T08:33:00Z</time>
      </trkpt>
      <trkpt lat="68.217631978914142" lon="16.056659035384655">
        <ele>47.719999999999999</ele>
        <time>2017-06-28T08:33:09Z</time>
      </trkpt>
      <trkpt lat="68.217667015269399" lon="16.053670970723033">
        <ele>56.859999999999999</ele>
        <time>2017-06-28T08:33:15Z</time>
      </trkpt>
      <trkpt lat="68.217637008056045" lon="16.053221030160785">
        <ele>58.299999999999997</ele>
        <time>2017-06-28T08:33:16Z</time>
      </trkpt>
      <trkpt lat="68.217581016942859" lon="16.052794978022575">
        <ele>59.740000000000002</ele>
        <time>2017-06-28T08:33:17Z</time>
      </trkpt>
      <trkpt lat="68.21750096976757" lon="16.052407985553145">
        <ele>61.18</ele>
        <time>2017-06-28T08:33:18Z</time>
      </trkpt>
      <trkpt lat="68.217399967834353" lon="16.052056029438972">
        <ele>63.100000000000001</ele>
        <time>2017-06-28T08:33:19Z</time>
      </trkpt>
      <trkpt lat="68.217280022799969" lon="16.051752017810941">
        <ele>65.030000000000001</ele>
        <time>2017-06-28T08:33:20Z</time>
      </trkpt>
      <trkpt lat="68.217140967026353" lon="16.051501985639334">
        <ele>66.469999999999999</ele>
        <time>2017-06-28T08:33:21Z</time>
      </trkpt>
      <trkpt lat="68.216987997293472" lon="16.051309034228325">
        <ele>68.390000000000001</ele>
        <time>2017-06-28T08:33:22Z</time>
      </trkpt>
      <trkpt lat="68.216822035610676" lon="16.051174001768231">
        <ele>70.310000000000002</ele>
        <time>2017-06-28T08:33:23Z</time>
      </trkpt>
      <trkpt lat="68.216650960966945" lon="16.051090015098453">
        <ele>71.760000000000005</ele>
        <time>2017-06-28T08:33:24Z</time>
      </trkpt>
      <trkpt lat="68.216473013162613" lon="16.051043998450041">
        <ele>73.200000000000003</ele>
        <time>2017-06-28T08:33:25Z</time>
      </trkpt>
      <trkpt lat="68.216290958225727" lon="16.051007034257054">
        <ele>74.159999999999997</ele>
        <time>2017-06-28T08:33:26Z</time>
      </trkpt>
      <trkpt lat="68.214384997263551" lon="16.050401022657752">
        <ele>79.930000000000007</ele>
        <time>2017-06-28T08:33:36Z</time>
      </trkpt>
      <trkpt lat="68.21403899230063" lon="16.050422983244061">
        <ele>81.370000000000005</ele>
        <time>2017-06-28T08:33:38Z</time>
      </trkpt>
      <trkpt lat="68.21386699564755" lon="16.05050403624773">
        <ele>81.370000000000005</ele>
        <time>2017-06-28T08:33:39Z</time>
      </trkpt>
      <trkpt lat="68.213697010651231" lon="16.050630016252398">
        <ele>80.409999999999997</ele>
        <time>2017-06-28T08:33:40Z</time>
      </trkpt>
      <trkpt lat="68.213526019826531" lon="16.050809975713491">
        <ele>79.930000000000007</ele>
        <time>2017-06-28T08:33:41Z</time>
      </trkpt>
      <trkpt lat="68.213353017345071" lon="16.051003010943532">
        <ele>78</ele>
        <time>2017-06-28T08:33:42Z</time>
      </trkpt>
      <trkpt lat="68.211896996945143" lon="16.052925987169147">
        <ele>70.310000000000002</ele>
        <time>2017-06-28T08:33:50Z</time>
      </trkpt>
      <trkpt lat="68.211748972535133" lon="16.053248019888997">
        <ele>68.870000000000005</ele>
        <time>2017-06-28T08:33:51Z</time>
      </trkpt>
      <trkpt lat="68.211616035550833" lon="16.053603999316692">
        <ele>67.430000000000007</ele>
        <time>2017-06-28T08:33:52Z</time>
      </trkpt>
      <trkpt lat="68.211498018354177" lon="16.053971964865923">
        <ele>65.989999999999995</ele>
        <time>2017-06-28T08:33:53Z</time>
      </trkpt>
      <trkpt lat="68.211390981450677" lon="16.054364992305636">
        <ele>64.549999999999997</ele>
        <time>2017-06-28T08:33:54Z</time>
      </trkpt>
      <trkpt lat="68.211294002830982" lon="16.054785009473562">
        <ele>63.100000000000001</ele>
        <time>2017-06-28T08:33:55Z</time>
      </trkpt>
      <trkpt lat="68.211199035868049" lon="16.055224975571036">
        <ele>61.659999999999997</ele>
        <time>2017-06-28T08:33:56Z</time>
      </trkpt>
      <trkpt lat="68.210437037050724" lon="16.059891013428569">
        <ele>49.159999999999997</ele>
        <time>2017-06-28T08:34:06Z</time>
      </trkpt>
      <trkpt lat="68.210156997665763" lon="16.061446024104953">
        <ele>44.840000000000003</ele>
        <time>2017-06-28T08:34:10Z</time>
      </trkpt>
      <trkpt lat="68.210055995732546" lon="16.061765039339662">
        <ele>43.880000000000003</ele>
        <time>2017-06-28T08:34:11Z</time>
      </trkpt>
      <trkpt lat="68.209945019334555" lon="16.062041977420449">
        <ele>42.439999999999998</ele>
        <time>2017-06-28T08:34:12Z</time>
      </trkpt>
      <trkpt lat="68.209819039329886" lon="16.062268959358335">
        <ele>41.469999999999999</ele>
        <time>2017-06-28T08:34:13Z</time>
      </trkpt>
      <trkpt lat="68.209684006869793" lon="16.062437016516924">
        <ele>39.549999999999997</ele>
        <time>2017-06-28T08:34:14Z</time>
      </trkpt>
      <trkpt lat="68.209534976631403" lon="16.062535000964999">
        <ele>38.590000000000003</ele>
        <time>2017-06-28T08:34:15Z</time>
      </trkpt>
      <trkpt lat="68.209373960271478" lon="16.062575988471508">
        <ele>37.149999999999999</ele>
        <time>2017-06-28T08:34:16Z</time>
      </trkpt>
      <trkpt lat="68.209201041609049" lon="16.062553022056818">
        <ele>36.189999999999998</ele>
        <time>2017-06-28T08:34:17Z</time>
      </trkpt>
      <trkpt lat="68.209015969187021" lon="16.062484961003065">
        <ele>34.740000000000002</ele>
        <time>2017-06-28T08:34:18Z</time>
      </trkpt>
      <trkpt lat="68.208827041089535" lon="16.062381025403738">
        <ele>33.299999999999997</ele>
        <time>2017-06-28T08:34:19Z</time>
      </trkpt>
      <trkpt lat="68.207404967397451" lon="16.060918970033526">
        <ele>25.609999999999999</ele>
        <time>2017-06-28T08:34:27Z</time>
      </trkpt>
      <trkpt lat="68.205692963674664" lon="16.059104958549142">
        <ele>19.84</ele>
        <time>2017-06-28T08:34:38Z</time>
      </trkpt>
      <trkpt lat="68.205193988978863" lon="16.059105964377522">
        <ele>18.399999999999999</ele>
        <time>2017-06-28T08:34:41Z</time>
      </trkpt>
      <trkpt lat="68.205022998154163" lon="16.059193974360824">
        <ele>17.440000000000001</ele>
        <time>2017-06-28T08:34:42Z</time>
      </trkpt>
      <trkpt lat="68.204852007329464" lon="16.059331018477678">
        <ele>16.960000000000001</ele>
        <time>2017-06-28T08:34:43Z</time>
      </trkpt>
      <trkpt lat="68.204680010676384" lon="16.059512989595532">
        <ele>16</ele>
        <time>2017-06-28T08:34:44Z</time>
      </trkpt>
      <trkpt lat="68.204508014023304" lon="16.059732008725405">
        <ele>15.039999999999999</ele>
        <time>2017-06-28T08:34:45Z</time>
      </trkpt>
      <trkpt lat="68.203308982774615" lon="16.06098803691566">
        <ele>8.310000000000001</ele>
        <time>2017-06-28T08:34:52Z</time>
      </trkpt>
      <trkpt lat="68.201529001817107" lon="16.061089038848877">
        <ele>3.5</ele>
        <time>2017-06-28T08:35:02Z</time>
      </trkpt>
      <trkpt lat="68.200269034132361" lon="16.060304995626211">
        <ele>5.42</ele>
        <time>2017-06-28T08:35:10Z</time>
      </trkpt>
      <trkpt lat="68.198331976309419" lon="16.058919969946146">
        <ele>3.02</ele>
        <time>2017-06-28T08:35:23Z</time>
      </trkpt>
      <trkpt lat="68.195981020107865" lon="16.058376990258694">
        <ele>5.42</ele>
        <time>2017-06-28T08:35:39Z</time>
      </trkpt>
      <trkpt lat="68.19478701800108" lon="16.057506026700139">
        <ele>4.46</ele>
        <time>2017-06-28T08:35:48Z</time>
      </trkpt>
      <trkpt lat="68.19386500865221" lon="16.055492023006082">
        <ele>4.46</ele>
        <time>2017-06-28T08:35:56Z</time>
      </trkpt>
      <trkpt lat="68.193642972037196" lon="16.054379995912313">
        <ele>4.46</ele>
        <time>2017-06-28T08:35:59Z</time>
      </trkpt>
      <trkpt lat="68.193415990099311" lon="16.051324037835002">
        <ele>4.94</ele>
        <time>2017-06-28T08:36:07Z</time>
      </trkpt>
      <trkpt lat="68.193510035052896" lon="16.046394975855947">
        <ele>3.02</ele>
        <time>2017-06-28T08:36:19Z</time>
      </trkpt>
      <trkpt lat="68.193451026454568" lon="16.042077960446477">
        <ele>5.42</ele>
        <time>2017-06-28T08:36:29Z</time>
      </trkpt>
      <trkpt lat="68.193725030869246" lon="16.037997985258698">
        <ele>3.98</ele>
        <time>2017-06-28T08:36:39Z</time>
      </trkpt>
      <trkpt lat="68.194130966439843" lon="16.034309025853872">
        <ele>3.02</ele>
        <time>2017-06-28T08:36:48Z</time>
      </trkpt>
      <trkpt lat="68.194190980866551" lon="16.03009301237762">
        <ele>3.02</ele>
        <time>2017-06-28T08:36:59Z</time>
      </trkpt>
      <trkpt lat="68.194047985598445" lon="16.02880303747952">
        <ele>2.06</ele>
        <time>2017-06-28T08:37:05Z</time>
      </trkpt>
      <trkpt lat="68.193947989493608" lon="16.028053024783731">
        <ele>3.5</ele>
        <time>2017-06-28T08:37:10Z</time>
      </trkpt>
      <trkpt lat="68.193922005593777" lon="16.027992004528642">
        <ele>3.5</ele>
        <time>2017-06-28T08:37:11Z</time>
      </trkpt>
      <trkpt lat="68.193894010037184" lon="16.027961997315288">
        <ele>3.5</ele>
        <time>2017-06-28T08:37:12Z</time>
      </trkpt>
      <trkpt lat="68.193860985338688" lon="16.027969038113952">
        <ele>3.02</ele>
        <time>2017-06-28T08:37:13Z</time>
      </trkpt>
      <trkpt lat="68.193828966468573" lon="16.028004996478558">
        <ele>2.54</ele>
        <time>2017-06-28T08:37:14Z</time>
      </trkpt>
      <trkpt lat="68.193802982568741" lon="16.028064005076885">
        <ele>3.02</ele>
        <time>2017-06-28T08:37:15Z</time>
      </trkpt>
      <trkpt lat="68.193787978962064" lon="16.028156960383058">
        <ele>2.54</ele>
        <time>2017-06-28T08:37:16Z</time>
      </trkpt>
      <trkpt lat="68.193776998668909" lon="16.028281012549996">
        <ele>3.02</ele>
        <time>2017-06-28T08:37:17Z</time>
      </trkpt>
      <trkpt lat="68.193786973133683" lon="16.028414033353329">
        <ele>3.02</ele>
        <time>2017-06-28T08:37:18Z</time>
      </trkpt>
      <trkpt lat="68.19379803724587" lon="16.028535990044475">
        <ele>3.02</ele>
        <time>2017-06-28T08:37:19Z</time>
      </trkpt>
      <trkpt lat="68.193852016702294" lon="16.029480965808034">
        <ele>3.02</ele>
        <time>2017-06-28T08:37:31Z</time>
      </trkpt>
      <trkpt lat="68.193883029744029" lon="16.029617004096508">
        <ele>2.06</ele>
        <time>2017-06-28T08:37:39Z</time>
      </trkpt>
      <trkpt lat="68.193897027522326" lon="16.02962002158165">
        <ele>2.06</ele>
        <time>2017-06-28T08:37:40Z</time>
      </trkpt>
      <trkpt lat="68.193915970623493" lon="16.029608035460114">
        <ele>2.06</ele>
        <time>2017-06-28T08:37:41Z</time>
      </trkpt>
      <trkpt lat="68.193936003372073" lon="16.02957702241838">
        <ele>2.06</ele>
        <time>2017-06-28T08:37:42Z</time>
      </trkpt>
      <trkpt lat="68.193947989493608" lon="16.029519019648433">
        <ele>2.06</ele>
        <time>2017-06-28T08:37:43Z</time>
      </trkpt>
      <trkpt lat="68.193948995321989" lon="16.029437966644764">
        <ele>2.06</ele>
        <time>2017-06-28T08:37:44Z</time>
      </trkpt>
      <trkpt lat="68.193940026685596" lon="16.029348028823733">
        <ele>2.06</ele>
        <time>2017-06-28T08:37:45Z</time>
      </trkpt>
      <trkpt lat="68.193924017250538" lon="16.029249960556626">
        <ele>2.06</ele>
        <time>2017-06-28T08:37:46Z</time>
      </trkpt>
      <trkpt lat="68.193796025589108" lon="16.028257962316275">
        <ele>2.54</ele>
        <time>2017-06-28T08:37:56Z</time>
      </trkpt>
      <trkpt lat="68.193806000053883" lon="16.028171963989735">
        <ele>2.54</ele>
        <time>2017-06-28T08:37:57Z</time>
      </trkpt>
      <trkpt lat="68.193816980347037" lon="16.028087977319956">
        <ele>2.06</ele>
        <time>2017-06-28T08:37:58Z</time>
      </trkpt>
      <trkpt lat="68.193833995610476" lon="16.028012037277222">
        <ele>2.06</ele>
        <time>2017-06-28T08:37:59Z</time>
      </trkpt>
      <trkpt lat="68.193852016702294" lon="16.027947999536991">
        <ele>2.06</ele>
        <time>2017-06-28T08:38:00Z</time>
      </trkpt>
      <trkpt lat="68.193890992552042" lon="16.027754964306951">
        <ele>3.02</ele>
        <time>2017-06-28T08:38:02Z</time>
      </trkpt>
      <trkpt lat="68.193891998380423" lon="16.027589002624154">
        <ele>3.02</ele>
        <time>2017-06-28T08:38:03Z</time>
      </trkpt>
      <trkpt lat="68.193881018087268" lon="16.027383981272578">
        <ele>3.5</ele>
        <time>2017-06-28T08:38:04Z</time>
      </trkpt>
      <trkpt lat="68.193602990359068" lon="16.024806965142488">
        <ele>4.94</ele>
        <time>2017-06-28T08:38:13Z</time>
      </trkpt>
      <trkpt lat="68.193185990676284" lon="16.022722972556949">
        <ele>5.91</ele>
        <time>2017-06-28T08:38:19Z</time>
      </trkpt>
      <trkpt lat="68.193078031763434" lon="16.022422984242439">
        <ele>5.91</ele>
        <time>2017-06-28T08:38:20Z</time>
      </trkpt>
      <trkpt lat="68.192956997081637" lon="16.022146968171">
        <ele>6.39</ele>
        <time>2017-06-28T08:38:21Z</time>
      </trkpt>
      <trkpt lat="68.191669033840299" lon="16.019338024780154">
        <ele>7.83</ele>
        <time>2017-06-28T08:38:31Z</time>
      </trkpt>
      <trkpt lat="68.191530983895063" lon="16.019099978730083">
        <ele>7.83</ele>
        <time>2017-06-28T08:38:32Z</time>
      </trkpt>
      <trkpt lat="68.191382959485054" lon="16.01892001926899">
        <ele>7.35</ele>
        <time>2017-06-28T08:38:33Z</time>
      </trkpt>
      <trkpt lat="68.191226972267032" lon="16.018809964880347">
        <ele>7.35</ele>
        <time>2017-06-28T08:38:34Z</time>
      </trkpt>
      <trkpt lat="68.191066039726138" lon="16.018741987645626">
        <ele>7.35</ele>
        <time>2017-06-28T08:38:35Z</time>
      </trkpt>
      <trkpt lat="68.190901000052691" lon="16.01870602928102">
        <ele>7.35</ele>
        <time>2017-06-28T08:38:36Z</time>
      </trkpt>
      <trkpt lat="68.189197964966297" lon="16.018367987126112">
        <ele>3.98</ele>
        <time>2017-06-28T08:38:46Z</time>
      </trkpt>
      <trkpt lat="68.189026974141598" lon="16.018402017652988">
        <ele>3.98</ele>
        <time>2017-06-28T08:38:47Z</time>
      </trkpt>
      <trkpt lat="68.18885900080204" lon="16.018498996272683">
        <ele>3.98</ele>
        <time>2017-06-28T08:38:48Z</time>
      </trkpt>
      <trkpt lat="68.188695972785354" lon="16.018650960177183">
        <ele>4.46</ele>
        <time>2017-06-28T08:38:49Z</time>
      </trkpt>
      <trkpt lat="68.188541997224092" lon="16.018864028155804">
        <ele>4.46</ele>
        <time>2017-06-28T08:38:50Z</time>
      </trkpt>
      <trkpt lat="68.188395984470844" lon="16.019110037013888">
        <ele>4.46</ele>
        <time>2017-06-28T08:38:51Z</time>
      </trkpt>
      <trkpt lat="68.188250977545977" lon="16.019366020336747">
        <ele>4.46</ele>
        <time>2017-06-28T08:38:52Z</time>
      </trkpt>
      <trkpt lat="68.186531011015177" lon="16.021824013441801">
        <ele>4.94</ele>
        <time>2017-06-28T08:39:03Z</time>
      </trkpt>
      <trkpt lat="68.186392039060593" lon="16.022078990936279">
        <ele>5.42</ele>
        <time>2017-06-28T08:39:04Z</time>
      </trkpt>
      <trkpt lat="68.186267986893654" lon="16.022385014221072">
        <ele>5.91</ele>
        <time>2017-06-28T08:39:05Z</time>
      </trkpt>
      <trkpt lat="68.186163967475295" lon="16.022729007527232">
        <ele>6.87</ele>
        <time>2017-06-28T08:39:06Z</time>
      </trkpt>
      <trkpt lat="68.186072017997503" lon="16.023095967248082">
        <ele>7.35</ele>
        <time>2017-06-28T08:39:07Z</time>
      </trkpt>
      <trkpt lat="68.185424013063312" lon="16.025080969557166">
        <ele>8.789999999999999</ele>
        <time>2017-06-28T08:39:13Z</time>
      </trkpt>
      <trkpt lat="68.185286968946457" lon="16.02532303892076">
        <ele>9.27</ele>
        <time>2017-06-28T08:39:14Z</time>
      </trkpt>
      <trkpt lat="68.185141962021589" lon="16.02553803473711">
        <ele>9.75</ele>
        <time>2017-06-28T08:39:15Z</time>
      </trkpt>
      <trkpt lat="68.184987986460328" lon="16.025708019733429">
        <ele>10.23</ele>
        <time>2017-06-28T08:39:16Z</time>
      </trkpt>
      <trkpt lat="68.184825964272022" lon="16.025855960324407">
        <ele>10.710000000000001</ele>
        <time>2017-06-28T08:39:17Z</time>
      </trkpt>
      <trkpt lat="68.184657990932465" lon="16.025983029976487">
        <ele>11.67</ele>
        <time>2017-06-28T08:39:18Z</time>
      </trkpt>
      <trkpt lat="68.183589968830347" lon="16.027561007067561">
        <ele>16.48</ele>
        <time>2017-06-28T08:39:25Z</time>
      </trkpt>
      <trkpt lat="68.182604005560279" lon="16.030098041519523">
        <ele>20.809999999999999</ele>
        <time>2017-06-28T08:39:33Z</time>
      </trkpt>
      <trkpt lat="68.182331006973982" lon="16.030560974031687">
        <ele>21.77</ele>
        <time>2017-06-28T08:39:35Z</time>
      </trkpt>
      <trkpt lat="68.182183988392353" lon="16.030749985948205">
        <ele>22.25</ele>
        <time>2017-06-28T08:39:36Z</time>
      </trkpt>
      <trkpt lat="68.182032024487853" lon="16.030905973166227">
        <ele>23.210000000000001</ele>
        <time>2017-06-28T08:39:37Z</time>
      </trkpt>
      <trkpt lat="68.18187402561307" lon="16.031029019504786">
        <ele>24.170000000000002</ele>
        <time>2017-06-28T08:39:38Z</time>
      </trkpt>
      <trkpt lat="68.18170303478837" lon="16.031114012002945">
        <ele>25.129999999999999</ele>
        <time>2017-06-28T08:39:39Z</time>
      </trkpt>
      <trkpt lat="68.1815339718014" lon="16.031165979802608">
        <ele>25.609999999999999</ele>
        <time>2017-06-28T08:39:40Z</time>
      </trkpt>
      <trkpt lat="68.181362980976701" lon="16.031179977580905">
        <ele>26.09</ele>
        <time>2017-06-28T08:39:41Z</time>
      </trkpt>
      <trkpt lat="68.181187966838479" lon="16.031162962317467">
        <ele>27.050000000000001</ele>
        <time>2017-06-28T08:39:42Z</time>
      </trkpt>
      <trkpt lat="68.181012030690908" lon="16.031109988689423">
        <ele>28.02</ele>
        <time>2017-06-28T08:39:43Z</time>
      </trkpt>
      <trkpt lat="68.180836010724306" lon="16.031028013676405">
        <ele>28.98</ele>
        <time>2017-06-28T08:39:44Z</time>
      </trkpt>
      <trkpt lat="68.179374039173126" lon="16.030725007876754">
        <ele>36.189999999999998</ele>
        <time>2017-06-28T08:39:52Z</time>
      </trkpt>
      <trkpt lat="68.178654033690691" lon="16.030561979860067">
        <ele>40.509999999999998</ele>
        <time>2017-06-28T08:39:56Z</time>
      </trkpt>
      <trkpt lat="68.178477007895708" lon="16.03063004091382">
        <ele>41.950000000000003</ele>
        <time>2017-06-28T08:39:57Z</time>
      </trkpt>
      <trkpt lat="68.178299982100725" lon="16.030744034796953">
        <ele>43.399999999999999</ele>
        <time>2017-06-28T08:39:58Z</time>
      </trkpt>
      <trkpt lat="68.177268002182245" lon="16.031433027237654">
        <ele>50.609999999999999</ele>
        <time>2017-06-28T08:40:04Z</time>
      </trkpt>
      <trkpt lat="68.177105979993939" lon="16.031437972560525">
        <ele>51.57</ele>
        <time>2017-06-28T08:40:05Z</time>
      </trkpt>
      <trkpt lat="68.176944963634014" lon="16.031391033902764">
        <ele>53.009999999999998</ele>
        <time>2017-06-28T08:40:06Z</time>
      </trkpt>
      <trkpt lat="68.176787970587611" lon="16.031286008656025">
        <ele>53.969999999999999</ele>
        <time>2017-06-28T08:40:07Z</time>
      </trkpt>
      <trkpt lat="68.176635000854731" lon="16.031130021438003">
        <ele>54.93</ele>
        <time>2017-06-28T08:40:08Z</time>
      </trkpt>
      <trkpt lat="68.176486976444721" lon="16.030906978994608">
        <ele>55.890000000000001</ele>
        <time>2017-06-28T08:40:09Z</time>
      </trkpt>
      <trkpt lat="68.176348004490137" lon="16.030644038692117">
        <ele>56.859999999999999</ele>
        <time>2017-06-28T08:40:10Z</time>
      </trkpt>
      <trkpt lat="68.176212972030044" lon="16.030342960730195">
        <ele>58.299999999999997</ele>
        <time>2017-06-28T08:40:11Z</time>
      </trkpt>
      <trkpt lat="68.176078023388982" lon="16.030019000172615">
        <ele>58.780000000000001</ele>
        <time>2017-06-28T08:40:12Z</time>
      </trkpt>
      <trkpt lat="68.174643041566014" lon="16.026577977463603">
        <ele>68.870000000000005</ele>
        <time>2017-06-28T08:40:22Z</time>
      </trkpt>
      <trkpt lat="68.174243979156017" lon="16.025586985051632">
        <ele>70.790000000000006</ele>
        <time>2017-06-28T08:40:25Z</time>
      </trkpt>
      <trkpt lat="68.174135014414787" lon="16.025203010067344">
        <ele>71.269999999999996</ele>
        <time>2017-06-28T08:40:26Z</time>
      </trkpt>
      <trkpt lat="68.174039041623473" lon="16.024802019819617">
        <ele>72.239999999999995</ele>
        <time>2017-06-28T08:40:27Z</time>
      </trkpt>
      <trkpt lat="68.173953965306282" lon="16.024372028186917">
        <ele>72.719999999999999</ele>
        <time>2017-06-28T08:40:28Z</time>
      </trkpt>
      <trkpt lat="68.173878025263548" lon="16.023918986320496">
        <ele>73.680000000000007</ele>
        <time>2017-06-28T08:40:29Z</time>
      </trkpt>
      <trkpt lat="68.173407968133688" lon="16.02132897824049">
        <ele>75.599999999999994</ele>
        <time>2017-06-28T08:40:35Z</time>
      </trkpt>
      <trkpt lat="68.173300009220839" lon="16.020992025732994">
        <ele>75.599999999999994</ele>
        <time>2017-06-28T08:40:36Z</time>
      </trkpt>
      <trkpt lat="68.173181992024183" lon="16.020686002448201">
        <ele>74.640000000000001</ele>
        <time>2017-06-28T08:40:37Z</time>
      </trkpt>
      <trkpt lat="68.173048971220851" lon="16.020416021347046">
        <ele>74.159999999999997</ele>
        <time>2017-06-28T08:40:38Z</time>
      </trkpt>
      <trkpt lat="68.172901030629873" lon="16.020177975296974">
        <ele>73.200000000000003</ele>
        <time>2017-06-28T08:40:39Z</time>
      </trkpt>
      <trkpt lat="68.172736996784806" lon="16.019963985309005">
        <ele>71.760000000000005</ele>
        <time>2017-06-28T08:40:40Z</time>
      </trkpt>
      <trkpt lat="68.172567011788487" lon="16.019762987270951">
        <ele>70.310000000000002</ele>
        <time>2017-06-28T08:40:41Z</time>
      </trkpt>
      <trkpt lat="68.170822989195585" lon="16.017555026337504">
        <ele>72.239999999999995</ele>
        <time>2017-06-28T08:40:51Z</time>
      </trkpt>
      <trkpt lat="68.170238016173244" lon="16.01628097705543">
        <ele>73.200000000000003</ele>
        <time>2017-06-28T08:40:55Z</time>
      </trkpt>
      <trkpt lat="68.170122010633349" lon="16.015893984586">
        <ele>73.680000000000007</ele>
        <time>2017-06-28T08:40:56Z</time>
      </trkpt>
      <trkpt lat="68.170017991214991" lon="16.015486037358642">
        <ele>74.159999999999997</ele>
        <time>2017-06-28T08:40:57Z</time>
      </trkpt>
      <trkpt lat="68.169923024252057" lon="16.015042969956994">
        <ele>74.640000000000001</ele>
        <time>2017-06-28T08:40:58Z</time>
      </trkpt>
      <trkpt lat="68.169837025925517" lon="16.014571990817785">
        <ele>75.120000000000005</ele>
        <time>2017-06-28T08:40:59Z</time>
      </trkpt>
      <trkpt lat="68.169065974652767" lon="16.011620974168181">
        <ele>74.159999999999997</ele>
        <time>2017-06-28T08:41:06Z</time>
      </trkpt>
      <trkpt lat="68.168736984953284" lon="16.010550018399954">
        <ele>74.640000000000001</ele>
        <time>2017-06-28T08:41:09Z</time>
      </trkpt>
      <trkpt lat="68.168654004111886" lon="16.010157996788621">
        <ele>75.120000000000005</ele>
        <time>2017-06-28T08:41:10Z</time>
      </trkpt>
      <trkpt lat="68.168583009392023" lon="16.009733034297824">
        <ele>75.120000000000005</ele>
        <time>2017-06-28T08:41:11Z</time>
      </trkpt>
      <trkpt lat="68.16853397525847" lon="16.00927697494626">
        <ele>75.599999999999994</ele>
        <time>2017-06-28T08:41:12Z</time>
      </trkpt>
      <trkpt lat="68.168500028550625" lon="16.008811024948955">
        <ele>76.560000000000002</ele>
        <time>2017-06-28T08:41:13Z</time>
      </trkpt>
      <trkpt lat="68.168474966660142" lon="16.008336022496223">
        <ele>77.519999999999996</ele>
        <time>2017-06-28T08:41:14Z</time>
      </trkpt>
      <trkpt lat="68.168462980538607" lon="16.007846016436815">
        <ele>78</ele>
        <time>2017-06-28T08:41:15Z</time>
      </trkpt>
      <trkpt lat="68.168461974710226" lon="16.007351987063885">
        <ele>78.480000000000004</ele>
        <time>2017-06-28T08:41:16Z</time>
      </trkpt>
      <trkpt lat="68.168478989973664" lon="16.006843037903309">
        <ele>79.930000000000007</ele>
        <time>2017-06-28T08:41:17Z</time>
      </trkpt>
      <trkpt lat="68.168642017990351" lon="16.002342961728573">
        <ele>88.099999999999994</ele>
        <time>2017-06-28T08:41:26Z</time>
      </trkpt>
      <trkpt lat="68.168612010776997" lon="16.001953035593033">
        <ele>89.060000000000002</ele>
        <time>2017-06-28T08:41:27Z</time>
      </trkpt>
      <trkpt lat="68.168558031320572" lon="16.001598984003067">
        <ele>90.019999999999996</ele>
        <time>2017-06-28T08:41:28Z</time>
      </trkpt>
      <trkpt lat="68.168483013287187" lon="16.001298995688558">
        <ele>91.459999999999994</ele>
        <time>2017-06-28T08:41:29Z</time>
      </trkpt>
      <trkpt lat="68.168389974161983" lon="16.001060027629137">
        <ele>92.420000000000002</ele>
        <time>2017-06-28T08:41:30Z</time>
      </trkpt>
      <trkpt lat="68.168280003592372" lon="16.000889958813787">
        <ele>93.870000000000005</ele>
        <time>2017-06-28T08:41:31Z</time>
      </trkpt>
      <trkpt lat="68.168159974738955" lon="16.000769007951021">
        <ele>94.349999999999994</ele>
        <time>2017-06-28T08:41:32Z</time>
      </trkpt>
      <trkpt lat="68.168031983077526" lon="16.000675968825817">
        <ele>95.310000000000002</ele>
        <time>2017-06-28T08:41:33Z</time>
      </trkpt>
      <trkpt lat="68.167102010920644" lon="15.999280968680978">
        <ele>98.670000000000002</ele>
        <time>2017-06-28T08:41:40Z</time>
      </trkpt>
      <trkpt lat="68.166386028751731" lon="15.997323961928487">
        <ele>104.44</ele>
        <time>2017-06-28T08:41:46Z</time>
      </trkpt>
      <trkpt lat="68.166143037378788" lon="15.996119985356927">
        <ele>107.81</ele>
        <time>2017-06-28T08:41:49Z</time>
      </trkpt>
      <trkpt lat="68.166090985760093" lon="15.995688987895846">
        <ele>109.73</ele>
        <time>2017-06-28T08:41:50Z</time>
      </trkpt>
      <trkpt lat="68.166045974940062" lon="15.995248015969992">
        <ele>111.17</ele>
        <time>2017-06-28T08:41:51Z</time>
      </trkpt>
      <trkpt lat="68.165556974709034" lon="15.988985979929566">
        <ele>126.06999999999999</ele>
        <time>2017-06-28T08:42:04Z</time>
      </trkpt>
      <trkpt lat="68.164892960339785" lon="15.980616984888911">
        <ele>138.56999999999999</ele>
        <time>2017-06-28T08:42:20Z</time>
      </trkpt>
      <trkpt lat="68.164953980594873" lon="15.975590022280812">
        <ele>147.69999999999999</ele>
        <time>2017-06-28T08:42:29Z</time>
      </trkpt>
      <trkpt lat="68.165195966139436" lon="15.971624962985516">
        <ele>159.24000000000001</ele>
        <time>2017-06-28T08:42:37Z</time>
      </trkpt>
      <trkpt lat="68.165012989193201" lon="15.966301029548049">
        <ele>147.22</ele>
        <time>2017-06-28T08:42:48Z</time>
      </trkpt>
      <trkpt lat="68.165020029991865" lon="15.964552983641624">
        <ele>143.37</ele>
        <time>2017-06-28T08:42:52Z</time>
      </trkpt>
      <trkpt lat="68.165058000013232" lon="15.964162973687053">
        <ele>142.41</ele>
        <time>2017-06-28T08:42:53Z</time>
      </trkpt>
      <trkpt lat="68.165116002783179" lon="15.963785033673048">
        <ele>141.44999999999999</ele>
        <time>2017-06-28T08:42:54Z</time>
      </trkpt>
      <trkpt lat="68.165192026644945" lon="15.963431987911463">
        <ele>140.00999999999999</ele>
        <time>2017-06-28T08:42:55Z</time>
      </trkpt>
      <trkpt lat="68.165282970294356" lon="15.963101992383599">
        <ele>139.05000000000001</ele>
        <time>2017-06-28T08:42:56Z</time>
      </trkpt>
      <trkpt lat="68.165389001369476" lon="15.962784988805652">
        <ele>138.09</ele>
        <time>2017-06-28T08:42:57Z</time>
      </trkpt>
      <trkpt lat="68.165497966110706" lon="15.962473014369607">
        <ele>137.13</ele>
        <time>2017-06-28T08:42:58Z</time>
      </trkpt>
      <trkpt lat="68.166033988818526" lon="15.959779992699623">
        <ele>129.43000000000001</ele>
        <time>2017-06-28T08:43:05Z</time>
      </trkpt>
      <trkpt lat="68.166059972718358" lon="15.959342960268259">
        <ele>127.98999999999999</ele>
        <time>2017-06-28T08:43:06Z</time>
      </trkpt>
      <trkpt lat="68.166068019345403" lon="15.958896037191153">
        <ele>127.51000000000001</ele>
        <time>2017-06-28T08:43:07Z</time>
      </trkpt>
      <trkpt lat="68.166057961061597" lon="15.958452969789505">
        <ele>126.06999999999999</ele>
        <time>2017-06-28T08:43:08Z</time>
      </trkpt>
      <trkpt lat="68.166029965505004" lon="15.958030018955469">
        <ele>125.11</ele>
        <time>2017-06-28T08:43:09Z</time>
      </trkpt>
      <trkpt lat="68.165982021018863" lon="15.957628022879362">
        <ele>123.67</ele>
        <time>2017-06-28T08:43:10Z</time>
      </trkpt>
      <trkpt lat="68.165921000763774" lon="15.957232983782887">
        <ele>122.70999999999999</ele>
        <time>2017-06-28T08:43:11Z</time>
      </trkpt>
      <trkpt lat="68.165841037407517" lon="15.956844985485077">
        <ele>120.78</ele>
        <time>2017-06-28T08:43:12Z</time>
      </trkpt>
      <trkpt lat="68.165750009939075" lon="15.956493029370904">
        <ele>120.78</ele>
        <time>2017-06-28T08:43:13Z</time>
      </trkpt>
      <trkpt lat="68.165646996349096" lon="15.956168984994292">
        <ele>120.3</ele>
        <time>2017-06-28T08:43:14Z</time>
      </trkpt>
      <trkpt lat="68.165534008294344" lon="15.955873019993305">
        <ele>120.3</ele>
        <time>2017-06-28T08:43:15Z</time>
      </trkpt>
      <trkpt lat="68.165410961955786" lon="15.95562600530684">
        <ele>119.34</ele>
        <time>2017-06-28T08:43:16Z</time>
      </trkpt>
      <trkpt lat="68.165276013314724" lon="15.955418972298503">
        <ele>119.34</ele>
        <time>2017-06-28T08:43:17Z</time>
      </trkpt>
      <trkpt lat="68.165132012218237" lon="15.955258961766958">
        <ele>118.86</ele>
        <time>2017-06-28T08:43:18Z</time>
      </trkpt>
      <trkpt lat="68.164969990029931" lon="15.955130970105529">
        <ele>117.42</ele>
        <time>2017-06-28T08:43:19Z</time>
      </trkpt>
      <trkpt lat="68.164807967841625" lon="15.955051006749272">
        <ele>116.94</ele>
        <time>2017-06-28T08:43:20Z</time>
      </trkpt>
      <trkpt lat="68.164636977016926" lon="15.955011025071144">
        <ele>115.98</ele>
        <time>2017-06-28T08:43:21Z</time>
      </trkpt>
      <trkpt lat="68.164457017555833" lon="15.955005995929241">
        <ele>114.53</ele>
        <time>2017-06-28T08:43:22Z</time>
      </trkpt>
      <trkpt lat="68.164274962618947" lon="15.955018987879157">
        <ele>113.09</ele>
        <time>2017-06-28T08:43:23Z</time>
      </trkpt>
      <trkpt lat="68.162649041041732" lon="15.955114038661122">
        <ele>107.31999999999999</ele>
        <time>2017-06-28T08:43:32Z</time>
      </trkpt>
      <trkpt lat="68.162499004974961" lon="15.955022005364299">
        <ele>106.36</ele>
        <time>2017-06-28T08:43:33Z</time>
      </trkpt>
      <trkpt lat="68.162353998050094" lon="15.954884039238095">
        <ele>104.92</ele>
        <time>2017-06-28T08:43:34Z</time>
      </trkpt>
      <trkpt lat="68.16221603192389" lon="15.954695027321577">
        <ele>103.95999999999999</ele>
        <time>2017-06-28T08:43:35Z</time>
      </trkpt>
      <trkpt lat="68.1620860286057" lon="15.954449018463492">
        <ele>102.52</ele>
        <time>2017-06-28T08:43:36Z</time>
      </trkpt>
      <trkpt lat="68.161971028894186" lon="15.954162022098899">
        <ele>101.56</ele>
        <time>2017-06-28T08:43:37Z</time>
      </trkpt>
      <trkpt lat="68.161863991990685" lon="15.953825991600752">
        <ele>100.11</ele>
        <time>2017-06-28T08:43:38Z</time>
      </trkpt>
      <trkpt lat="68.161761984229088" lon="15.953450985252857">
        <ele>99.150000000000006</ele>
        <time>2017-06-28T08:43:39Z</time>
      </trkpt>
      <trkpt lat="68.16030696965754" lon="15.947936028242111">
        <ele>95.790000000000006</ele>
        <time>2017-06-28T08:43:52Z</time>
      </trkpt>
      <trkpt lat="68.15905999392271" lon="15.942572029307485">
        <ele>86.180000000000007</ele>
        <time>2017-06-28T08:44:04Z</time>
      </trkpt>
      <trkpt lat="68.158467980101705" lon="15.940838987007737">
        <ele>81.849999999999994</ele>
        <time>2017-06-28T08:44:09Z</time>
      </trkpt>
      <trkpt lat="68.158321967348456" lon="15.94058501534164">
        <ele>81.370000000000005</ele>
        <time>2017-06-28T08:44:10Z</time>
      </trkpt>
      <trkpt lat="68.158170003443956" lon="15.940359961241484">
        <ele>80.890000000000001</ele>
        <time>2017-06-28T08:44:11Z</time>
      </trkpt>
      <trkpt lat="68.158007981255651" lon="15.940172038972378">
        <ele>80.409999999999997</ele>
        <time>2017-06-28T08:44:12Z</time>
      </trkpt>
      <trkpt lat="68.157843025401235" lon="15.940013034269214">
        <ele>79.930000000000007</ele>
        <time>2017-06-28T08:44:13Z</time>
      </trkpt>
      <trkpt lat="68.157673040404916" lon="15.939880013465881">
        <ele>79.450000000000003</ele>
        <time>2017-06-28T08:44:14Z</time>
      </trkpt>
      <trkpt lat="68.156686993315816" lon="15.939024975523353">
        <ele>70.310000000000002</ele>
        <time>2017-06-28T08:44:20Z</time>
      </trkpt>
      <trkpt lat="68.156551038846374" lon="15.938806962221861">
        <ele>68.390000000000001</ele>
        <time>2017-06-28T08:44:21Z</time>
      </trkpt>
      <trkpt lat="68.156421035528183" lon="15.938535975292325">
        <ele>67.430000000000007</ele>
        <time>2017-06-28T08:44:22Z</time>
      </trkpt>
      <trkpt lat="68.156305029988289" lon="15.938216960057616">
        <ele>66.469999999999999</ele>
        <time>2017-06-28T08:44:23Z</time>
      </trkpt>
      <trkpt lat="68.156203022226691" lon="15.93785896897316">
        <ele>65.510000000000005</ele>
        <time>2017-06-28T08:44:24Z</time>
      </trkpt>
      <trkpt lat="68.156116018071771" lon="15.937470970675349">
        <ele>64.549999999999997</ele>
        <time>2017-06-28T08:44:25Z</time>
      </trkpt>
      <trkpt lat="68.156044017523527" lon="15.93706302344799">
        <ele>63.100000000000001</ele>
        <time>2017-06-28T08:44:26Z</time>
      </trkpt>
      <trkpt lat="68.155989032238722" lon="15.9366359654814">
        <ele>62.140000000000001</ele>
        <time>2017-06-28T08:44:27Z</time>
      </trkpt>
      <trkpt lat="68.155950978398323" lon="15.936193987727165">
        <ele>62.140000000000001</ele>
        <time>2017-06-28T08:44:28Z</time>
      </trkpt>
      <trkpt lat="68.155928011983633" lon="15.935741029679775">
        <ele>60.700000000000003</ele>
        <time>2017-06-28T08:44:29Z</time>
      </trkpt>
      <trkpt lat="68.15592197701335" lon="15.935257980599999">
        <ele>59.259999999999998</ele>
        <time>2017-06-28T08:44:30Z</time>
      </trkpt>
      <trkpt lat="68.155840002000332" lon="15.932072019204497">
        <ele>47.719999999999999</ele>
        <time>2017-06-28T08:44:38Z</time>
      </trkpt>
      <trkpt lat="68.155809994786978" lon="15.931883007287979">
        <ele>49.159999999999997</ele>
        <time>2017-06-28T08:44:39Z</time>
      </trkpt>
      <trkpt lat="68.155760960653424" lon="15.931751998141408">
        <ele>48.68</ele>
        <time>2017-06-28T08:44:40Z</time>
      </trkpt>
      <trkpt lat="68.155703041702509" lon="15.931698018684983">
        <ele>48.68</ele>
        <time>2017-06-28T08:44:41Z</time>
      </trkpt>
      <trkpt lat="68.155634980648756" lon="15.931700030341744">
        <ele>48.200000000000003</ele>
        <time>2017-06-28T08:44:42Z</time>
      </trkpt>
      <trkpt lat="68.155575972050428" lon="15.931788040325046">
        <ele>47.240000000000002</ele>
        <time>2017-06-28T08:44:43Z</time>
      </trkpt>
      <trkpt lat="68.155527021735907" lon="15.931947967037559">
        <ele>46.759999999999998</ele>
        <time>2017-06-28T08:44:44Z</time>
      </trkpt>
      <trkpt lat="68.155499026179314" lon="15.932174026966095">
        <ele>45.799999999999997</ele>
        <time>2017-06-28T08:44:45Z</time>
      </trkpt>
      <trkpt lat="68.155481005087495" lon="15.932445013895631">
        <ele>44.840000000000003</ele>
        <time>2017-06-28T08:44:46Z</time>
      </trkpt>
      <trkpt lat="68.15546901896596" lon="15.932751037180424">
        <ele>43.399999999999999</ele>
        <time>2017-06-28T08:44:47Z</time>
      </trkpt>
      <trkpt lat="68.155463989824057" lon="15.933096036314964">
        <ele>41.950000000000003</ele>
        <time>2017-06-28T08:44:48Z</time>
      </trkpt>
      <trkpt lat="68.155424008145928" lon="15.936576034873724">
        <ele>29.940000000000001</ele>
        <time>2017-06-28T08:44:56Z</time>
      </trkpt>
      <trkpt lat="68.155256034806371" lon="15.938736973330379">
        <ele>23.210000000000001</ele>
        <time>2017-06-28T08:45:01Z</time>
      </trkpt>
      <trkpt lat="68.155195014551282" lon="15.939094964414835">
        <ele>21.77</ele>
        <time>2017-06-28T08:45:02Z</time>
      </trkpt>
      <trkpt lat="68.155117984861135" lon="15.93942697159946">
        <ele>20.809999999999999</ele>
        <time>2017-06-28T08:45:03Z</time>
      </trkpt>
      <trkpt lat="68.155030980706215" lon="15.939737018197775">
        <ele>19.359999999999999</ele>
        <time>2017-06-28T08:45:04Z</time>
      </trkpt>
      <trkpt lat="68.154926961287856" lon="15.94002602621913">
        <ele>18.879999999999999</ele>
        <time>2017-06-28T08:45:05Z</time>
      </trkpt>
      <trkpt lat="68.154815984889865" lon="15.940292989835143">
        <ele>17.920000000000002</ele>
        <time>2017-06-28T08:45:06Z</time>
      </trkpt>
      <trkpt lat="68.15469603985548" lon="15.940550984814763">
        <ele>16.960000000000001</ele>
        <time>2017-06-28T08:45:07Z</time>
      </trkpt>
      <trkpt lat="68.153717033565044" lon="15.943151973187923">
        <ele>9.75</ele>
        <time>2017-06-28T08:45:16Z</time>
      </trkpt>
      <trkpt lat="68.153414027765393" lon="15.944553008303046">
        <ele>7.35</ele>
        <time>2017-06-28T08:45:20Z</time>
      </trkpt>
      <trkpt lat="68.153326017782092" lon="15.944825001060963">
        <ele>6.87</ele>
        <time>2017-06-28T08:45:21Z</time>
      </trkpt>
      <trkpt lat="68.153229961171746" lon="15.945076961070299">
        <ele>6.39</ele>
        <time>2017-06-28T08:45:22Z</time>
      </trkpt>
      <trkpt lat="68.153122002258897" lon="15.945280976593494">
        <ele>5.91</ele>
        <time>2017-06-28T08:45:23Z</time>
      </trkpt>
      <trkpt lat="68.153002979233861" lon="15.945433024317026">
        <ele>5.42</ele>
        <time>2017-06-28T08:45:24Z</time>
      </trkpt>
      <trkpt lat="68.152874987572432" lon="15.945523967966437">
        <ele>4.94</ele>
        <time>2017-06-28T08:45:25Z</time>
      </trkpt>
      <trkpt lat="68.152739033102989" lon="15.945550035685301">
        <ele>4.94</ele>
        <time>2017-06-28T08:45:26Z</time>
      </trkpt>
      <trkpt lat="68.152606012299657" lon="15.945523967966437">
        <ele>4.46</ele>
        <time>2017-06-28T08:45:27Z</time>
      </trkpt>
      <trkpt lat="68.152472991496325" lon="15.945440987125039">
        <ele>4.46</ele>
        <time>2017-06-28T08:45:28Z</time>
      </trkpt>
      <trkpt lat="68.152338964864612" lon="15.945306960493326">
        <ele>4.46</ele>
        <time>2017-06-28T08:45:29Z</time>
      </trkpt>
      <trkpt lat="68.152209967374802" lon="15.945115014910698">
        <ele>4.46</ele>
        <time>2017-06-28T08:45:30Z</time>
      </trkpt>
      <trkpt lat="68.152090022340417" lon="15.944881998002529">
        <ele>3.98</ele>
        <time>2017-06-28T08:45:31Z</time>
      </trkpt>
      <trkpt lat="68.151975022628903" lon="15.944624003022909">
        <ele>3.98</ele>
        <time>2017-06-28T08:45:32Z</time>
      </trkpt>
      <trkpt lat="68.151862034574151" lon="15.944343041628599">
        <ele>3.5</ele>
        <time>2017-06-28T08:45:33Z</time>
      </trkpt>
      <trkpt lat="68.151056030765176" lon="15.941381966695189">
        <ele>3.5</ele>
        <time>2017-06-28T08:45:41Z</time>
      </trkpt>
      <trkpt lat="68.150294031947851" lon="15.936859007924795">
        <ele>2.54</ele>
        <time>2017-06-28T08:45:51Z</time>
      </trkpt>
      <trkpt lat="68.149717021733522" lon="15.929146986454725">
        <ele>5.91</ele>
        <time>2017-06-28T08:46:05Z</time>
      </trkpt>
      <trkpt lat="68.149082008749247" lon="15.923452991992235">
        <ele>6.87</ele>
        <time>2017-06-28T08:46:15Z</time>
      </trkpt>
      <trkpt lat="68.148149019107223" lon="15.916796000674367">
        <ele>10.23</ele>
        <time>2017-06-28T08:46:27Z</time>
      </trkpt>
      <trkpt lat="68.147206977009773" lon="15.912946024909616">
        <ele>8.789999999999999</ele>
        <time>2017-06-28T08:46:35Z</time>
      </trkpt>
      <trkpt lat="68.146801963448524" lon="15.909782024100423">
        <ele>10.23</ele>
        <time>2017-06-28T08:46:41Z</time>
      </trkpt>
      <trkpt lat="68.146850997582078" lon="15.905272979289293">
        <ele>11.67</ele>
        <time>2017-06-28T08:46:49Z</time>
      </trkpt>
      <trkpt lat="68.146817972883582" lon="15.902479961514473">
        <ele>12.15</ele>
        <time>2017-06-28T08:46:54Z</time>
      </trkpt>
      <trkpt lat="68.146766005083919" lon="15.901977969333529">
        <ele>12.15</ele>
        <time>2017-06-28T08:46:55Z</time>
      </trkpt>
      <trkpt lat="68.146694004535675" lon="15.901502966880798">
        <ele>12.15</ele>
        <time>2017-06-28T08:46:56Z</time>
      </trkpt>
      <trkpt lat="68.146601971238852" lon="15.901055037975311">
        <ele>12.15</ele>
        <time>2017-06-28T08:46:57Z</time>
      </trkpt>
      <trkpt lat="68.14649099484086" lon="15.900632003322244">
        <ele>12.630000000000001</ele>
        <time>2017-06-28T08:46:58Z</time>
      </trkpt>
      <trkpt lat="68.146370965987444" lon="15.900244005024433">
        <ele>13.119999999999999</ele>
        <time>2017-06-28T08:46:59Z</time>
      </trkpt>
      <trkpt lat="68.146243980154395" lon="15.89989397674799">
        <ele>13.119999999999999</ele>
        <time>2017-06-28T08:47:00Z</time>
      </trkpt>
      <trkpt lat="68.146107019856572" lon="15.899599017575383">
        <ele>13.119999999999999</ele>
        <time>2017-06-28T08:47:01Z</time>
      </trkpt>
      <trkpt lat="68.14595497213304" lon="15.89935502037406">
        <ele>12.15</ele>
        <time>2017-06-28T08:47:02Z</time>
      </trkpt>
      <trkpt lat="68.145794039592147" lon="15.899153016507626">
        <ele>12.15</ele>
        <time>2017-06-28T08:47:03Z</time>
      </trkpt>
      <trkpt lat="68.145617013797164" lon="15.898985965177417">
        <ele>12.15</ele>
        <time>2017-06-28T08:47:04Z</time>
      </trkpt>
      <trkpt lat="68.145429007709026" lon="15.898855961859226">
        <ele>11.67</ele>
        <time>2017-06-28T08:47:05Z</time>
      </trkpt>
      <trkpt lat="68.145236978307366" lon="15.898748002946377">
        <ele>11.19</ele>
        <time>2017-06-28T08:47:06Z</time>
      </trkpt>
      <trkpt lat="68.143426990136504" lon="15.897312015295029">
        <ele>6.39</ele>
        <time>2017-06-28T08:47:15Z</time>
      </trkpt>
      <trkpt lat="68.142740009352565" lon="15.896237036213279">
        <ele>10.710000000000001</ele>
        <time>2017-06-28T08:47:19Z</time>
      </trkpt>
      <trkpt lat="68.141180975362659" lon="15.89222202077508">
        <ele>23.210000000000001</ele>
        <time>2017-06-28T08:47:30Z</time>
      </trkpt>
      <trkpt lat="68.140450995415449" lon="15.890282029286027">
        <ele>30.420000000000002</ele>
        <time>2017-06-28T08:47:36Z</time>
      </trkpt>
      <trkpt lat="68.140328032895923" lon="15.890070972964168">
        <ele>30.899999999999999</ele>
        <time>2017-06-28T08:47:37Z</time>
      </trkpt>
      <trkpt lat="68.14019400626421" lon="15.889897970482707">
        <ele>31.859999999999999</ele>
        <time>2017-06-28T08:47:38Z</time>
      </trkpt>
      <trkpt lat="68.140051010996103" lon="15.889769978821278">
        <ele>31.859999999999999</ele>
        <time>2017-06-28T08:47:39Z</time>
      </trkpt>
      <trkpt lat="68.139900974929333" lon="15.889702001586556">
        <ele>31.859999999999999</ele>
        <time>2017-06-28T08:47:40Z</time>
      </trkpt>
      <trkpt lat="68.139745993539691" lon="15.889694960787892">
        <ele>31.859999999999999</ele>
        <time>2017-06-28T08:47:41Z</time>
      </trkpt>
      <trkpt lat="68.13959201797843" lon="15.889752963557839">
        <ele>31.379999999999999</ele>
        <time>2017-06-28T08:47:42Z</time>
      </trkpt>
      <trkpt lat="68.139436030760407" lon="15.889877015724778">
        <ele>30.899999999999999</ele>
        <time>2017-06-28T08:47:43Z</time>
      </trkpt>
      <trkpt lat="68.139287000522017" lon="15.890062004327774">
        <ele>30.420000000000002</ele>
        <time>2017-06-28T08:47:44Z</time>
      </trkpt>
      <trkpt lat="68.139145011082292" lon="15.890281023457646">
        <ele>30.420000000000002</ele>
        <time>2017-06-28T08:47:45Z</time>
      </trkpt>
      <trkpt lat="68.13901400193572" lon="15.890552010387182">
        <ele>29.940000000000001</ele>
        <time>2017-06-28T08:47:46Z</time>
      </trkpt>
      <trkpt lat="68.138895984739065" lon="15.890865996479988">
        <ele>29.940000000000001</ele>
        <time>2017-06-28T08:47:47Z</time>
      </trkpt>
      <trkpt lat="68.138792971149087" lon="15.891224993392825">
        <ele>29.460000000000001</ele>
        <time>2017-06-28T08:47:48Z</time>
      </trkpt>
      <trkpt lat="68.138707978650928" lon="15.891621960327029">
        <ele>28.98</ele>
        <time>2017-06-28T08:47:49Z</time>
      </trkpt>
      <trkpt lat="68.138632038608193" lon="15.892049018293619">
        <ele>28.5</ele>
        <time>2017-06-28T08:47:50Z</time>
      </trkpt>
      <trkpt lat="68.138565989211202" lon="15.892505999654531">
        <ele>28.98</ele>
        <time>2017-06-28T08:47:51Z</time>
      </trkpt>
      <trkpt lat="68.138503041118383" lon="15.89297697879374">
        <ele>28.98</ele>
        <time>2017-06-28T08:47:52Z</time>
      </trkpt>
      <trkpt lat="68.137868028134108" lon="15.896316999569535">
        <ele>24.170000000000002</ele>
        <time>2017-06-28T08:48:00Z</time>
      </trkpt>
      <trkpt lat="68.137189010158181" lon="15.898277023807168">
        <ele>18.879999999999999</ele>
        <time>2017-06-28T08:48:06Z</time>
      </trkpt>
      <trkpt lat="68.13705800101161" lon="15.89851900935173">
        <ele>17.920000000000002</ele>
        <time>2017-06-28T08:48:07Z</time>
      </trkpt>
      <trkpt lat="68.136916011571884" lon="15.898725958541036">
        <ele>17.440000000000001</ele>
        <time>2017-06-28T08:48:08Z</time>
      </trkpt>
      <trkpt lat="68.136766981333494" lon="15.898887980729342">
        <ele>17.440000000000001</ele>
        <time>2017-06-28T08:48:09Z</time>
      </trkpt>
      <trkpt lat="68.136608982458711" lon="15.899019995704293">
        <ele>16.960000000000001</ele>
        <time>2017-06-28T08:48:10Z</time>
      </trkpt>
      <trkpt lat="68.136448971927166" lon="15.899136001244187">
        <ele>16.48</ele>
        <time>2017-06-28T08:48:11Z</time>
      </trkpt>
      <trkpt lat="68.134711990132928" lon="15.899541014805436">
        <ele>9.75</ele>
        <time>2017-06-28T08:48:21Z</time>
      </trkpt>
      <trkpt lat="68.134534964337945" lon="15.899432972073555">
        <ele>9.27</ele>
        <time>2017-06-28T08:48:22Z</time>
      </trkpt>
      <trkpt lat="68.134359028190374" lon="15.899285031482577">
        <ele>8.310000000000001</ele>
        <time>2017-06-28T08:48:23Z</time>
      </trkpt>
      <trkpt lat="68.134185019880533" lon="15.899089984595776">
        <ele>7.83</ele>
        <time>2017-06-28T08:48:24Z</time>
      </trkpt>
      <trkpt lat="68.134015034884214" lon="15.898854034021497">
        <ele>6.87</ele>
        <time>2017-06-28T08:48:25Z</time>
      </trkpt>
      <trkpt lat="68.133851001039147" lon="15.898580029606819">
        <ele>5.91</ele>
        <time>2017-06-28T08:48:26Z</time>
      </trkpt>
      <trkpt lat="68.133690990507603" lon="15.898278029635549">
        <ele>5.42</ele>
        <time>2017-06-28T08:48:27Z</time>
      </trkpt>
      <trkpt lat="68.132534958422184" lon="15.896261008456349">
        <ele>3.98</ele>
        <time>2017-06-28T08:48:35Z</time>
      </trkpt>
      <trkpt lat="68.132381988689303" lon="15.896127987653017">
        <ele>3.02</ele>
        <time>2017-06-28T08:48:36Z</time>
      </trkpt>
      <trkpt lat="68.131774971261621" lon="15.895648039877415">
        <ele>2.54</ele>
        <time>2017-06-28T08:48:40Z</time>
      </trkpt>
      <trkpt lat="68.131633987650275" lon="15.895448969677091">
        <ele>2.06</ele>
        <time>2017-06-28T08:48:41Z</time>
      </trkpt>
      <trkpt lat="68.131498033180833" lon="15.895204972475767">
        <ele>2.06</ele>
        <time>2017-06-28T08:48:42Z</time>
      </trkpt>
      <trkpt lat="68.131369035691023" lon="15.894916970282793">
        <ele>2.54</ele>
        <time>2017-06-28T08:48:43Z</time>
      </trkpt>
      <trkpt lat="68.131245989352465" lon="15.894603990018368">
        <ele>3.5</ele>
        <time>2017-06-28T08:48:44Z</time>
      </trkpt>
      <trkpt lat="68.131125960499048" lon="15.894272988662124">
        <ele>3.98</ele>
        <time>2017-06-28T08:48:45Z</time>
      </trkpt>
      <trkpt lat="68.13016296364367" lon="15.890646977350116">
        <ele>8.310000000000001</ele>
        <time>2017-06-28T08:48:54Z</time>
      </trkpt>
      <trkpt lat="68.129190998151898" lon="15.885655973106623">
        <ele>5.42</ele>
        <time>2017-06-28T08:49:05Z</time>
      </trkpt>
      <trkpt lat="68.127775965258479" lon="15.879927026107907">
        <ele>10.23</ele>
        <time>2017-06-28T08:49:18Z</time>
      </trkpt>
      <trkpt lat="68.127544960007071" lon="15.879280027002096">
        <ele>11.19</ele>
        <time>2017-06-28T08:49:20Z</time>
      </trkpt>
      <trkpt lat="68.127414034679532" lon="15.878999987617135">
        <ele>11.19</ele>
        <time>2017-06-28T08:49:21Z</time>
      </trkpt>
      <trkpt lat="68.127271039411426" lon="15.878747021779418">
        <ele>10.710000000000001</ele>
        <time>2017-06-28T08:49:22Z</time>
      </trkpt>
      <trkpt lat="68.125940999016166" lon="15.876808958128095">
        <ele>9.75</ele>
        <time>2017-06-28T08:49:30Z</time>
      </trkpt>
      <trkpt lat="68.124754959717393" lon="15.875584026798606">
        <ele>10.710000000000001</ele>
        <time>2017-06-28T08:49:37Z</time>
      </trkpt>
      <trkpt lat="68.124593021348119" lon="15.875572962686419">
        <ele>10.710000000000001</ele>
        <time>2017-06-28T08:49:38Z</time>
      </trkpt>
      <trkpt lat="68.124436028301716" lon="15.875625014305115">
        <ele>10.710000000000001</ele>
        <time>2017-06-28T08:49:39Z</time>
      </trkpt>
      <trkpt lat="68.124282974749804" lon="15.875741019845009">
        <ele>10.710000000000001</ele>
        <time>2017-06-28T08:49:40Z</time>
      </trkpt>
      <trkpt lat="68.124133022502065" lon="15.875904969871044">
        <ele>10.23</ele>
        <time>2017-06-28T08:49:41Z</time>
      </trkpt>
      <trkpt lat="68.123990027233958" lon="15.876105967909098">
        <ele>10.23</ele>
        <time>2017-06-28T08:49:42Z</time>
      </trkpt>
      <trkpt lat="68.123862035572529" lon="15.876354994252324">
        <ele>10.23</ele>
        <time>2017-06-28T08:49:43Z</time>
      </trkpt>
      <trkpt lat="68.123744018375874" lon="15.876640984788537">
        <ele>10.23</ele>
        <time>2017-06-28T08:49:44Z</time>
      </trkpt>
      <trkpt lat="68.123635975643992" lon="15.876956982538104">
        <ele>9.75</ele>
        <time>2017-06-28T08:49:45Z</time>
      </trkpt>
      <trkpt lat="68.123535979539156" lon="15.877298964187503">
        <ele>9.75</ele>
        <time>2017-06-28T08:49:46Z</time>
      </trkpt>
      <trkpt lat="68.123434977605939" lon="15.877649998292327">
        <ele>9.75</ele>
        <time>2017-06-28T08:49:47Z</time>
      </trkpt>
      <trkpt lat="68.122632997110486" lon="15.880542006343603">
        <ele>9.75</ele>
        <time>2017-06-28T08:49:55Z</time>
      </trkpt>
      <trkpt lat="68.122508022934198" lon="15.8808150049299">
        <ele>9.75</ele>
        <time>2017-06-28T08:49:56Z</time>
      </trkpt>
      <trkpt lat="68.122376007959247" lon="15.88103000074625">
        <ele>10.23</ele>
        <time>2017-06-28T08:49:57Z</time>
      </trkpt>
      <trkpt lat="68.122237036004663" lon="15.881172996014357">
        <ele>10.710000000000001</ele>
        <time>2017-06-28T08:49:58Z</time>
      </trkpt>
      <trkpt lat="68.122094040736556" lon="15.88126502931118">
        <ele>10.710000000000001</ele>
        <time>2017-06-28T08:49:59Z</time>
      </trkpt>
      <trkpt lat="68.121948027983308" lon="15.881293024867773">
        <ele>10.710000000000001</ele>
        <time>2017-06-28T08:50:00Z</time>
      </trkpt>
      <trkpt lat="68.121809978038073" lon="15.881267040967941">
        <ele>11.19</ele>
        <time>2017-06-28T08:50:01Z</time>
      </trkpt>
      <trkpt lat="68.121670000255108" lon="15.881185987964272">
        <ele>11.67</ele>
        <time>2017-06-28T08:50:02Z</time>
      </trkpt>
      <trkpt lat="68.121537985280156" lon="15.881063025444746">
        <ele>12.15</ele>
        <time>2017-06-28T08:50:03Z</time>
      </trkpt>
      <trkpt lat="68.121405970305204" lon="15.880876025184989">
        <ele>12.15</ele>
        <time>2017-06-28T08:50:04Z</time>
      </trkpt>
      <trkpt lat="68.121290970593691" lon="15.880663963034749">
        <ele>12.15</ele>
        <time>2017-06-28T08:50:05Z</time>
      </trkpt>
      <trkpt lat="68.121174965053797" lon="15.880417032167315">
        <ele>12.630000000000001</ele>
        <time>2017-06-28T08:50:06Z</time>
      </trkpt>
      <trkpt lat="68.121060971170664" lon="15.880142021924257">
        <ele>13.119999999999999</ele>
        <time>2017-06-28T08:50:07Z</time>
      </trkpt>
      <trkpt lat="68.119625989347696" lon="15.876297997310758">
        <ele>7.35</ele>
        <time>2017-06-28T08:50:19Z</time>
      </trkpt>
      <trkpt lat="68.118418995290995" lon="15.873081022873521">
        <ele>4.46</ele>
        <time>2017-06-28T08:50:31Z</time>
      </trkpt>
      <trkpt lat="68.116771029308438" lon="15.868663005530834">
        <ele>5.42</ele>
        <time>2017-06-28T08:50:50Z</time>
      </trkpt>
      <trkpt lat="68.115795962512493" lon="15.86607500910759">
        <ele>9.27</ele>
        <time>2017-06-28T08:51:02Z</time>
      </trkpt>
      <trkpt lat="68.115709964185953" lon="15.865922039374709">
        <ele>9.75</ele>
        <time>2017-06-28T08:51:03Z</time>
      </trkpt>
      <trkpt lat="68.115628995001316" lon="15.865811984986067">
        <ele>10.23</ele>
        <time>2017-06-28T08:51:04Z</time>
      </trkpt>
      <trkpt lat="68.115545008331537" lon="15.865750964730978">
        <ele>11.19</ele>
        <time>2017-06-28T08:51:05Z</time>
      </trkpt>
      <trkpt lat="68.115459010004997" lon="15.86573101580143">
        <ele>11.19</ele>
        <time>2017-06-28T08:51:06Z</time>
      </trkpt>
      <trkpt lat="68.11537996865809" lon="15.865738978609443">
        <ele>11.19</ele>
        <time>2017-06-28T08:51:07Z</time>
      </trkpt>
      <trkpt lat="68.115306040272117" lon="15.865769991651177">
        <ele>11.67</ele>
        <time>2017-06-28T08:51:08Z</time>
      </trkpt>
      <trkpt lat="68.115245020017028" lon="15.865809973329306">
        <ele>11.67</ele>
        <time>2017-06-28T08:51:09Z</time>
      </trkpt>
      <trkpt lat="68.115031030029058" lon="15.866151032969356">
        <ele>13.119999999999999</ele>
        <time>2017-06-28T08:51:16Z</time>
      </trkpt>
      <trkpt lat="68.114974033087492" lon="15.866263015195727">
        <ele>13.6</ele>
        <time>2017-06-28T08:51:18Z</time>
      </trkpt>
      <trkpt lat="68.114937990903854" lon="15.866337027400732">
        <ele>13.6</ele>
        <time>2017-06-28T08:51:28Z</time>
      </trkpt>
      <trkpt lat="68.114732969552279" lon="15.86639896966517">
        <ele>14.56</ele>
        <time>2017-06-28T08:51:38Z</time>
      </trkpt>
      <trkpt lat="68.114503975957632" lon="15.866382038220763">
        <ele>16.960000000000001</ele>
        <time>2017-06-28T08:51:41Z</time>
      </trkpt>
      <trkpt lat="68.113585989922285" lon="15.866861985996366">
        <ele>24.170000000000002</ele>
        <time>2017-06-28T08:51:49Z</time>
      </trkpt>
      <trkpt lat="68.112185038626194" lon="15.867648040875793">
        <ele>34.740000000000002</ele>
        <time>2017-06-28T08:51:58Z</time>
      </trkpt>
      <trkpt lat="68.110865978524089" lon="15.86914898827672">
        <ele>48.200000000000003</ele>
        <time>2017-06-28T08:52:06Z</time>
      </trkpt>
      <trkpt lat="68.108646031469107" lon="15.873279003426433">
        <ele>72.719999999999999</ele>
        <time>2017-06-28T08:52:20Z</time>
      </trkpt>
      <trkpt lat="68.107652021571994" lon="15.876248963177204">
        <ele>86.659999999999997</ele>
        <time>2017-06-28T08:52:27Z</time>
      </trkpt>
      <trkpt lat="68.106964034959674" lon="15.879311040043831">
        <ele>99.629999999999995</ele>
        <time>2017-06-28T08:52:34Z</time>
      </trkpt>
      <trkpt lat="68.106922041624784" lon="15.879745976999402">
        <ele>101.56</ele>
        <time>2017-06-28T08:52:35Z</time>
      </trkpt>
      <trkpt lat="68.106907960027456" lon="15.880183009430766">
        <ele>103.95999999999999</ele>
        <time>2017-06-28T08:52:36Z</time>
      </trkpt>
      <trkpt lat="68.106916006654501" lon="15.880632027983665">
        <ele>105.40000000000001</ele>
        <time>2017-06-28T08:52:37Z</time>
      </trkpt>
      <trkpt lat="68.106948025524616" lon="15.881082974374294">
        <ele>107.31999999999999</ele>
        <time>2017-06-28T08:52:38Z</time>
      </trkpt>
      <trkpt lat="68.107005022466183" lon="15.881537022069097">
        <ele>108.77</ele>
        <time>2017-06-28T08:52:39Z</time>
      </trkpt>
      <trkpt lat="68.107078028842807" lon="15.881984028965235">
        <ele>110.69</ele>
        <time>2017-06-28T08:52:40Z</time>
      </trkpt>
      <trkpt lat="68.107166038826108" lon="15.882433969527483">
        <ele>112.13</ele>
        <time>2017-06-28T08:52:41Z</time>
      </trkpt>
      <trkpt lat="68.107259999960661" lon="15.882887011393905">
        <ele>114.05</ele>
        <time>2017-06-28T08:52:42Z</time>
      </trkpt>
      <trkpt lat="68.108301032334566" lon="15.887681040912867">
        <ele>134.24000000000001</ele>
        <time>2017-06-28T08:52:52Z</time>
      </trkpt>
      <trkpt lat="68.108909977599978" lon="15.889340993016958">
        <ele>145.30000000000001</ele>
        <time>2017-06-28T08:52:58Z</time>
      </trkpt>
      <trkpt lat="68.108984995633364" lon="15.889547020196915">
        <ele>146.74000000000001</ele>
        <time>2017-06-28T08:52:59Z</time>
      </trkpt>
      <trkpt lat="68.109044004231691" lon="15.889769978821278">
        <ele>147.69999999999999</ele>
        <time>2017-06-28T08:53:00Z</time>
      </trkpt>
      <trkpt lat="68.109087003394961" lon="15.890024034306407">
        <ele>148.66</ele>
        <time>2017-06-28T08:53:01Z</time>
      </trkpt>
      <trkpt lat="68.109106030315161" lon="15.890298038721085">
        <ele>149.62</ele>
        <time>2017-06-28T08:53:02Z</time>
      </trkpt>
      <trkpt lat="68.109094966202974" lon="15.890580005943775">
        <ele>150.58000000000001</ele>
        <time>2017-06-28T08:53:03Z</time>
      </trkpt>
      <trkpt lat="68.109059007838368" lon="15.890845041722059">
        <ele>152.03</ele>
        <time>2017-06-28T08:53:04Z</time>
      </trkpt>
      <trkpt lat="68.108995975926518" lon="15.891069006174803">
        <ele>152.99000000000001</ele>
        <time>2017-06-28T08:53:05Z</time>
      </trkpt>
      <trkpt lat="68.108908971771598" lon="15.891241002827883">
        <ele>153.94999999999999</ele>
        <time>2017-06-28T08:53:06Z</time>
      </trkpt>
      <trkpt lat="68.108808975666761" lon="15.891345022246242">
        <ele>154.91</ele>
        <time>2017-06-28T08:53:07Z</time>
      </trkpt>
      <trkpt lat="68.108693975955248" lon="15.89136597700417">
        <ele>155.38999999999999</ele>
        <time>2017-06-28T08:53:08Z</time>
      </trkpt>
      <trkpt lat="68.108577970415354" lon="15.891313003376126">
        <ele>156.34999999999999</ele>
        <time>2017-06-28T08:53:09Z</time>
      </trkpt>
      <trkpt lat="68.108452996239066" lon="15.891188029199839">
        <ele>157.31</ele>
        <time>2017-06-28T08:53:10Z</time>
      </trkpt>
      <trkpt lat="68.108322992920876" lon="15.891013015061617">
        <ele>157.78999999999999</ele>
        <time>2017-06-28T08:53:11Z</time>
      </trkpt>
      <trkpt lat="68.108185026794672" lon="15.890830038115382">
        <ele>158.27000000000001</ele>
        <time>2017-06-28T08:53:12Z</time>
      </trkpt>
      <trkpt lat="68.106950959190726" lon="15.889604017138481">
        <ele>166.93000000000001</ele>
        <time>2017-06-28T08:53:20Z</time>
      </trkpt>
      <trkpt lat="68.106772005558014" lon="15.889579961076379">
        <ele>169.33000000000001</ele>
        <time>2017-06-28T08:53:21Z</time>
      </trkpt>
      <trkpt lat="68.106586011126637" lon="15.889614997431636">
        <ele>170.77000000000001</ele>
        <time>2017-06-28T08:53:22Z</time>
      </trkpt>
      <trkpt lat="68.106404040008783" lon="15.889706024900079">
        <ele>172.21000000000001</ele>
        <time>2017-06-28T08:53:23Z</time>
      </trkpt>
      <trkpt lat="68.106222990900278" lon="15.889852959662676">
        <ele>174.13999999999999</ele>
        <time>2017-06-28T08:53:24Z</time>
      </trkpt>
      <trkpt lat="68.106045965105295" lon="15.890025962144136">
        <ele>175.09999999999999</ele>
        <time>2017-06-28T08:53:25Z</time>
      </trkpt>
      <trkpt lat="68.105874974280596" lon="15.890209022909403">
        <ele>177.02000000000001</ele>
        <time>2017-06-28T08:53:26Z</time>
      </trkpt>
      <trkpt lat="68.105172989889979" lon="15.890701962634921">
        <ele>183.75</ele>
        <time>2017-06-28T08:53:30Z</time>
      </trkpt>
      <trkpt lat="68.104995964094996" lon="15.890715038403869">
        <ele>186.15000000000001</ele>
        <time>2017-06-28T08:53:31Z</time>
      </trkpt>
      <trkpt lat="68.104817010462284" lon="15.890681007876992">
        <ele>188.08000000000001</ele>
        <time>2017-06-28T08:53:32Z</time>
      </trkpt>
      <trkpt lat="68.104634033516049" lon="15.890605989843607">
        <ele>190</ele>
        <time>2017-06-28T08:53:33Z</time>
      </trkpt>
      <trkpt lat="68.104447033256292" lon="15.890497025102377">
        <ele>191.91999999999999</ele>
        <time>2017-06-28T08:53:34Z</time>
      </trkpt>
      <trkpt lat="68.102515004575253" lon="15.889202021062374">
        <ele>210.19</ele>
        <time>2017-06-28T08:53:44Z</time>
      </trkpt>
      <trkpt lat="68.101137019693851" lon="15.888975039124489">
        <ele>210.19</ele>
        <time>2017-06-28T08:53:52Z</time>
      </trkpt>
      <trkpt lat="68.099947962909937" lon="15.890173986554146">
        <ele>211.15000000000001</ele>
        <time>2017-06-28T08:53:59Z</time>
      </trkpt>
      <trkpt lat="68.099785018712282" lon="15.89026995934546">
        <ele>211.15000000000001</ele>
        <time>2017-06-28T08:54:00Z</time>
      </trkpt>
      <trkpt lat="68.099620984867215" lon="15.890311030671">
        <ele>211.15000000000001</ele>
        <time>2017-06-28T08:54:01Z</time>
      </trkpt>
      <trkpt lat="68.099455023184419" lon="15.890303989872336">
        <ele>210.66999999999999</ele>
        <time>2017-06-28T08:54:02Z</time>
      </trkpt>
      <trkpt lat="68.099285960197449" lon="15.890247998759151">
        <ele>209.69999999999999</ele>
        <time>2017-06-28T08:54:03Z</time>
      </trkpt>
      <trkpt lat="68.099113963544369" lon="15.890150014311075">
        <ele>209.22</ele>
        <time>2017-06-28T08:54:04Z</time>
      </trkpt>
      <trkpt lat="68.098939033225179" lon="15.890022022649646">
        <ele>208.74000000000001</ele>
        <time>2017-06-28T08:54:05Z</time>
      </trkpt>
      <trkpt lat="68.097554007545114" lon="15.8884840272367">
        <ele>206.81999999999999</ele>
        <time>2017-06-28T08:54:13Z</time>
      </trkpt>
      <trkpt lat="68.097055032849312" lon="15.887663019821048">
        <ele>208.25999999999999</ele>
        <time>2017-06-28T08:54:17Z</time>
      </trkpt>
      <trkpt lat="68.096951013430953" lon="15.887384992092848">
        <ele>208.25999999999999</ele>
        <time>2017-06-28T08:54:18Z</time>
      </trkpt>
      <trkpt lat="68.096855962648988" lon="15.8870870154351">
        <ele>208.74000000000001</ele>
        <time>2017-06-28T08:54:19Z</time>
      </trkpt>
      <trkpt lat="68.096775999292731" lon="15.886745033785701">
        <ele>208.74000000000001</ele>
        <time>2017-06-28T08:54:20Z</time>
      </trkpt>
      <trkpt lat="68.096705004572868" lon="15.886360974982381">
        <ele>208.74000000000001</ele>
        <time>2017-06-28T08:54:21Z</time>
      </trkpt>
      <trkpt lat="68.096642978489399" lon="15.885941041633487">
        <ele>208.25999999999999</ele>
        <time>2017-06-28T08:54:22Z</time>
      </trkpt>
      <trkpt lat="68.096082983538508" lon="15.881682028993964">
        <ele>197.69</ele>
        <time>2017-06-28T08:54:31Z</time>
      </trkpt>
      <trkpt lat="68.095810990780592" lon="15.880333967506886">
        <ele>190.96000000000001</ele>
        <time>2017-06-28T08:54:34Z</time>
      </trkpt>
      <trkpt lat="68.095694985240698" lon="15.879918979480863">
        <ele>189.52000000000001</ele>
        <time>2017-06-28T08:54:35Z</time>
      </trkpt>
      <trkpt lat="68.094373997300863" lon="15.876126000657678">
        <ele>173.66</ele>
        <time>2017-06-28T08:54:44Z</time>
      </trkpt>
      <trkpt lat="68.092305008322001" lon="15.870343996211886">
        <ele>155.38999999999999</ele>
        <time>2017-06-28T08:54:58Z</time>
      </trkpt>
      <trkpt lat="68.091759011149406" lon="15.86837399750948">
        <ele>149.62</ele>
        <time>2017-06-28T08:55:03Z</time>
      </trkpt>
      <trkpt lat="68.091695979237556" lon="15.867932019755244">
        <ele>149.13999999999999</ele>
        <time>2017-06-28T08:55:04Z</time>
      </trkpt>
      <trkpt lat="68.091649962589145" lon="15.867455005645752">
        <ele>148.66</ele>
        <time>2017-06-28T08:55:05Z</time>
      </trkpt>
      <trkpt lat="68.091623978689313" lon="15.866941027343273">
        <ele>148.66</ele>
        <time>2017-06-28T08:55:06Z</time>
      </trkpt>
      <trkpt lat="68.091604029759765" lon="15.866408022120595">
        <ele>147.69999999999999</ele>
        <time>2017-06-28T08:55:07Z</time>
      </trkpt>
      <trkpt lat="68.091295994818211" lon="15.862358976155519">
        <ele>139.05000000000001</ele>
        <time>2017-06-28T08:55:15Z</time>
      </trkpt>
      <trkpt lat="68.091127015650272" lon="15.861194981262088">
        <ele>136.16</ele>
        <time>2017-06-28T08:55:18Z</time>
      </trkpt>
      <trkpt lat="68.091048980131745" lon="15.860909996554255">
        <ele>134.24000000000001</ele>
        <time>2017-06-28T08:55:19Z</time>
      </trkpt>
      <trkpt lat="68.090952001512051" lon="15.860672034323215">
        <ele>133.75999999999999</ele>
        <time>2017-06-28T08:55:20Z</time>
      </trkpt>
      <trkpt lat="68.090837001800537" lon="15.860501965507865">
        <ele>132.31999999999999</ele>
        <time>2017-06-28T08:55:21Z</time>
      </trkpt>
      <trkpt lat="68.090704986825585" lon="15.860390989109874">
        <ele>131.36000000000001</ele>
        <time>2017-06-28T08:55:22Z</time>
      </trkpt>
      <trkpt lat="68.090566014871001" lon="15.860371962189674">
        <ele>129.91999999999999</ele>
        <time>2017-06-28T08:55:23Z</time>
      </trkpt>
      <trkpt lat="68.090437017381191" lon="15.860432982444763">
        <ele>128.47</ele>
        <time>2017-06-28T08:55:24Z</time>
      </trkpt>
      <trkpt lat="68.090316988527775" lon="15.860559968277812">
        <ele>127.03</ele>
        <time>2017-06-28T08:55:25Z</time>
      </trkpt>
      <trkpt lat="68.090206012129784" lon="15.860780999064445">
        <ele>125.59</ele>
        <time>2017-06-28T08:55:26Z</time>
      </trkpt>
      <trkpt lat="68.09009101241827" lon="15.861043017357588">
        <ele>123.67</ele>
        <time>2017-06-28T08:55:27Z</time>
      </trkpt>
      <trkpt lat="68.089970983564854" lon="15.86134702898562">
        <ele>122.22</ele>
        <time>2017-06-28T08:55:28Z</time>
      </trkpt>
      <trkpt lat="68.089848021045327" lon="15.861680964007974">
        <ele>120.3</ele>
        <time>2017-06-28T08:55:29Z</time>
      </trkpt>
      <trkpt lat="68.089497992768884" lon="15.86283297277987">
        <ele>115.01000000000001</ele>
        <time>2017-06-28T08:55:32Z</time>
      </trkpt>
      <trkpt lat="68.089407971128821" lon="15.863271011039615">
        <ele>113.09</ele>
        <time>2017-06-28T08:55:33Z</time>
      </trkpt>
      <trkpt lat="68.089332031086087" lon="15.863740984350443">
        <ele>111.65000000000001</ele>
        <time>2017-06-28T08:55:34Z</time>
      </trkpt>
      <trkpt lat="68.088676985353231" lon="15.869110012426972">
        <ele>95.310000000000002</ele>
        <time>2017-06-28T08:55:44Z</time>
      </trkpt>
      <trkpt lat="68.087951028719544" lon="15.876368992030621">
        <ele>73.200000000000003</ele>
        <time>2017-06-28T08:55:57Z</time>
      </trkpt>
      <trkpt lat="68.08688904158771" lon="15.880925981327891">
        <ele>59.740000000000002</ele>
        <time>2017-06-28T08:56:06Z</time>
      </trkpt>
      <trkpt lat="68.085315003991127" lon="15.886450996622443">
        <ele>57.340000000000003</ele>
        <time>2017-06-28T08:56:18Z</time>
      </trkpt>
      <trkpt lat="68.084189984947443" lon="15.891159027814865">
        <ele>56.369999999999997</ele>
        <time>2017-06-28T08:56:28Z</time>
      </trkpt>
      <trkpt lat="68.082042038440704" lon="15.901116980239749">
        <ele>48.200000000000003</ele>
        <time>2017-06-28T08:56:47Z</time>
      </trkpt>
      <trkpt lat="68.079999033361673" lon="15.910646030679345">
        <ele>35.710000000000001</ele>
        <time>2017-06-28T08:57:04Z</time>
      </trkpt>
      <trkpt lat="68.079195963218808" lon="15.913954032585025">
        <ele>40.509999999999998</ele>
        <time>2017-06-28T08:57:11Z</time>
      </trkpt>
      <trkpt lat="68.079059002920985" lon="15.914297020062804">
        <ele>40.509999999999998</ele>
        <time>2017-06-28T08:57:12Z</time>
      </trkpt>
      <trkpt lat="68.078912990167737" lon="15.914592985063791">
        <ele>40.990000000000002</ele>
        <time>2017-06-28T08:57:13Z</time>
      </trkpt>
      <trkpt lat="68.078753985464573" lon="15.914842011407018">
        <ele>40.990000000000002</ele>
        <time>2017-06-28T08:57:14Z</time>
      </trkpt>
      <trkpt lat="68.078584000468254" lon="15.915048960596323">
        <ele>41.469999999999999</ele>
        <time>2017-06-28T08:57:15Z</time>
      </trkpt>
      <trkpt lat="68.078404041007161" lon="15.915210982784629">
        <ele>41.950000000000003</ele>
        <time>2017-06-28T08:57:16Z</time>
      </trkpt>
      <trkpt lat="68.078222991898656" lon="15.915349032729864">
        <ele>41.469999999999999</ele>
        <time>2017-06-28T08:57:17Z</time>
      </trkpt>
      <trkpt lat="68.078036997467279" lon="15.915452968329191">
        <ele>41.469999999999999</ele>
        <time>2017-06-28T08:57:18Z</time>
      </trkpt>
      <trkpt lat="68.077842034399509" lon="15.915532009676099">
        <ele>40.509999999999998</ele>
        <time>2017-06-28T08:57:19Z</time>
      </trkpt>
      <trkpt lat="68.077643970027566" lon="15.915580959990621">
        <ele>39.549999999999997</ele>
        <time>2017-06-28T08:57:20Z</time>
      </trkpt>
      <trkpt lat="68.077440038323402" lon="15.915603004395962">
        <ele>38.109999999999999</ele>
        <time>2017-06-28T08:57:21Z</time>
      </trkpt>
      <trkpt lat="68.076677033677697" lon="15.915288012474775">
        <ele>35.710000000000001</ele>
        <time>2017-06-28T08:57:25Z</time>
      </trkpt>
      <trkpt lat="68.076510988175869" lon="15.915066981688142">
        <ele>36.670000000000002</ele>
        <time>2017-06-28T08:57:26Z</time>
      </trkpt>
      <trkpt lat="68.076358018442988" lon="15.91480303555727">
        <ele>37.630000000000003</ele>
        <time>2017-06-28T08:57:27Z</time>
      </trkpt>
      <trkpt lat="68.076214017346501" lon="15.914495000615716">
        <ele>40.030000000000001</ele>
        <time>2017-06-28T08:57:28Z</time>
      </trkpt>
      <trkpt lat="68.076074961572886" lon="15.914167016744614">
        <ele>41.469999999999999</ele>
        <time>2017-06-28T08:57:29Z</time>
      </trkpt>
      <trkpt lat="68.074811976402998" lon="15.91194799169898">
        <ele>40.990000000000002</ele>
        <time>2017-06-28T08:57:37Z</time>
      </trkpt>
      <trkpt lat="68.072694959118962" lon="15.909552024677396">
        <ele>43.880000000000003</ele>
        <time>2017-06-28T08:57:48Z</time>
      </trkpt>
      <trkpt lat="68.072318024933338" lon="15.90934700332582">
        <ele>42.920000000000002</ele>
        <time>2017-06-28T08:57:50Z</time>
      </trkpt>
      <trkpt lat="68.072117026895285" lon="15.909323031082749">
        <ele>42.439999999999998</ele>
        <time>2017-06-28T08:57:51Z</time>
      </trkpt>
      <trkpt lat="68.071921980008483" lon="15.909349014982581">
        <ele>42.439999999999998</ele>
        <time>2017-06-28T08:57:52Z</time>
      </trkpt>
      <trkpt lat="68.071726011112332" lon="15.909440964460373">
        <ele>42.920000000000002</ele>
        <time>2017-06-28T08:57:53Z</time>
      </trkpt>
      <trkpt lat="68.071544962003827" lon="15.909583037719131">
        <ele>43.399999999999999</ele>
        <time>2017-06-28T08:57:54Z</time>
      </trkpt>
      <trkpt lat="68.071363996714354" lon="15.909756040200591">
        <ele>43.399999999999999</ele>
        <time>2017-06-28T08:57:55Z</time>
      </trkpt>
      <trkpt lat="68.070510970428586" lon="15.910880975425243">
        <ele>47.240000000000002</ele>
        <time>2017-06-28T08:58:00Z</time>
      </trkpt>
      <trkpt lat="68.070365963503718" lon="15.91119303368032">
        <ele>48.200000000000003</ele>
        <time>2017-06-28T08:58:01Z</time>
      </trkpt>
      <trkpt lat="68.070231014862657" lon="15.911541972309351">
        <ele>48.68</ele>
        <time>2017-06-28T08:58:02Z</time>
      </trkpt>
      <trkpt lat="68.070106040686369" lon="15.911930976435542">
        <ele>48.200000000000003</ele>
        <time>2017-06-28T08:58:03Z</time>
      </trkpt>
      <trkpt lat="68.069992968812585" lon="15.912347976118326">
        <ele>48.200000000000003</ele>
        <time>2017-06-28T08:58:04Z</time>
      </trkpt>
      <trkpt lat="68.069892972707748" lon="15.912799006327987">
        <ele>48.200000000000003</ele>
        <time>2017-06-28T08:58:05Z</time>
      </trkpt>
      <trkpt lat="68.069807980209589" lon="15.91327803209424">
        <ele>47.719999999999999</ele>
        <time>2017-06-28T08:58:06Z</time>
      </trkpt>
      <trkpt lat="68.069729022681713" lon="15.913779018446803">
        <ele>47.719999999999999</ele>
        <time>2017-06-28T08:58:07Z</time>
      </trkpt>
      <trkpt lat="68.069567000493407" lon="15.915369987487793">
        <ele>47.719999999999999</ele>
        <time>2017-06-28T08:58:10Z</time>
      </trkpt>
      <trkpt lat="68.069549985229969" lon="15.915916990488768">
        <ele>47.719999999999999</ele>
        <time>2017-06-28T08:58:11Z</time>
      </trkpt>
      <trkpt lat="68.069557026028633" lon="15.916476985439658">
        <ele>47.719999999999999</ele>
        <time>2017-06-28T08:58:12Z</time>
      </trkpt>
      <trkpt lat="68.069580998271704" lon="15.917050978168845">
        <ele>47.719999999999999</ele>
        <time>2017-06-28T08:58:13Z</time>
      </trkpt>
      <trkpt lat="68.069619974121451" lon="15.917635029181838">
        <ele>46.759999999999998</ele>
        <time>2017-06-28T08:58:14Z</time>
      </trkpt>
      <trkpt lat="68.070010989904404" lon="15.923308990895748">
        <ele>40.990000000000002</ele>
        <time>2017-06-28T08:58:24Z</time>
      </trkpt>
      <trkpt lat="68.070155996829271" lon="15.926122963428497">
        <ele>40.990000000000002</ele>
        <time>2017-06-28T08:58:30Z</time>
      </trkpt>
      <trkpt lat="68.070134958252311" lon="15.92651397921145">
        <ele>40.030000000000001</ele>
        <time>2017-06-28T08:58:31Z</time>
      </trkpt>
      <trkpt lat="68.070086007937789" lon="15.926885968074203">
        <ele>39.07</ele>
        <time>2017-06-28T08:58:32Z</time>
      </trkpt>
      <trkpt lat="68.070013001561165" lon="15.92724203132093">
        <ele>37.630000000000003</ele>
        <time>2017-06-28T08:58:33Z</time>
      </trkpt>
      <trkpt lat="68.069914011284709" lon="15.927560962736607">
        <ele>36.670000000000002</ele>
        <time>2017-06-28T08:58:34Z</time>
      </trkpt>
      <trkpt lat="68.069793982431293" lon="15.92780495993793">
        <ele>35.710000000000001</ele>
        <time>2017-06-28T08:58:35Z</time>
      </trkpt>
      <trkpt lat="68.069659033790231" lon="15.927988020703197">
        <ele>34.740000000000002</ele>
        <time>2017-06-28T08:58:36Z</time>
      </trkpt>
      <trkpt lat="68.069512015208602" lon="15.928107965737581">
        <ele>34.740000000000002</ele>
        <time>2017-06-28T08:58:37Z</time>
      </trkpt>
      <trkpt lat="68.069358039647341" lon="15.928144007921219">
        <ele>34.740000000000002</ele>
        <time>2017-06-28T08:58:38Z</time>
      </trkpt>
      <trkpt lat="68.069204986095428" lon="15.92810302041471">
        <ele>35.229999999999997</ele>
        <time>2017-06-28T08:58:39Z</time>
      </trkpt>
      <trkpt lat="68.069066014140844" lon="15.928003024309874">
        <ele>35.229999999999997</ele>
        <time>2017-06-28T08:58:40Z</time>
      </trkpt>
      <trkpt lat="68.068924024701118" lon="15.927844019606709">
        <ele>35.710000000000001</ele>
        <time>2017-06-28T08:58:41Z</time>
      </trkpt>
      <trkpt lat="68.068793015554547" lon="15.927644027397037">
        <ele>36.670000000000002</ele>
        <time>2017-06-28T08:58:42Z</time>
      </trkpt>
      <trkpt lat="68.068668963387609" lon="15.927408998832107">
        <ele>37.149999999999999</ele>
        <time>2017-06-28T08:58:43Z</time>
      </trkpt>
      <trkpt lat="68.068548012524843" lon="15.927155027166009">
        <ele>37.630000000000003</ele>
        <time>2017-06-28T08:58:44Z</time>
      </trkpt>
      <trkpt lat="68.067517038434744" lon="15.925088971853256">
        <ele>42.920000000000002</ele>
        <time>2017-06-28T08:58:52Z</time>
      </trkpt>
      <trkpt lat="68.067373959347606" lon="15.924915969371796">
        <ele>44.359999999999999</ele>
        <time>2017-06-28T08:58:53Z</time>
      </trkpt>
      <trkpt lat="68.067220989614725" lon="15.924808010458946">
        <ele>45.799999999999997</ele>
        <time>2017-06-28T08:58:54Z</time>
      </trkpt>
      <trkpt lat="68.067061984911561" lon="15.924764005467296">
        <ele>46.280000000000001</ele>
        <time>2017-06-28T08:58:55Z</time>
      </trkpt>
      <trkpt lat="68.066903986036777" lon="15.924792001023889">
        <ele>46.759999999999998</ele>
        <time>2017-06-28T08:58:56Z</time>
      </trkpt>
      <trkpt lat="68.066749004647136" lon="15.924901971593499">
        <ele>46.280000000000001</ele>
        <time>2017-06-28T08:58:57Z</time>
      </trkpt>
      <trkpt lat="68.066611960530281" lon="15.925069022923708">
        <ele>45.32</ele>
        <time>2017-06-28T08:58:58Z</time>
      </trkpt>
      <trkpt lat="68.066476006060839" lon="15.925296004861593">
        <ele>44.359999999999999</ele>
        <time>2017-06-28T08:58:59Z</time>
      </trkpt>
      <trkpt lat="68.066342985257506" lon="15.9255909640342">
        <ele>43.399999999999999</ele>
        <time>2017-06-28T08:59:00Z</time>
      </trkpt>
      <trkpt lat="68.066213987767696" lon="15.925944009795785">
        <ele>42.439999999999998</ele>
        <time>2017-06-28T08:59:01Z</time>
      </trkpt>
      <trkpt lat="68.066090019419789" lon="15.926352962851524">
        <ele>40.990000000000002</ele>
        <time>2017-06-28T08:59:02Z</time>
      </trkpt>
      <trkpt lat="68.065968984737992" lon="15.926781026646495">
        <ele>39.549999999999997</ele>
        <time>2017-06-28T08:59:03Z</time>
      </trkpt>
      <trkpt lat="68.064801972359419" lon="15.930598983541131">
        <ele>31.379999999999999</ele>
        <time>2017-06-28T08:59:12Z</time>
      </trkpt>
      <trkpt lat="68.063425999134779" lon="15.933499038219452">
        <ele>30.899999999999999</ele>
        <time>2017-06-28T08:59:19Z</time>
      </trkpt>
      <trkpt lat="68.061992023140192" lon="15.936414012685418">
        <ele>33.299999999999997</ele>
        <time>2017-06-28T08:59:27Z</time>
      </trkpt>
      <trkpt lat="68.059638971462846" lon="15.941233020275831">
        <ele>26.09</ele>
        <time>2017-06-28T08:59:42Z</time>
      </trkpt>
      <trkpt lat="68.057324979454279" lon="15.945953959599137">
        <ele>28.02</ele>
        <time>2017-06-28T08:59:57Z</time>
      </trkpt>
      <trkpt lat="68.055829983204603" lon="15.948975970968604">
        <ele>31.859999999999999</ele>
        <time>2017-06-28T09:00:07Z</time>
      </trkpt>
      <trkpt lat="68.053859984502196" lon="15.953032979741693">
        <ele>33.299999999999997</ele>
        <time>2017-06-28T09:00:20Z</time>
      </trkpt>
      <trkpt lat="68.052407987415791" lon="15.955977039411664">
        <ele>31.379999999999999</ele>
        <time>2017-06-28T09:00:31Z</time>
      </trkpt>
      <trkpt lat="68.050791034474969" lon="15.958240991458297">
        <ele>28.98</ele>
        <time>2017-06-28T09:00:41Z</time>
      </trkpt>
      <trkpt lat="68.049428975209594" lon="15.958979018032551">
        <ele>28.5</ele>
        <time>2017-06-28T09:00:48Z</time>
      </trkpt>
      <trkpt lat="68.046696977689862" lon="15.959581006318331">
        <ele>27.050000000000001</ele>
        <time>2017-06-28T09:00:59Z</time>
      </trkpt>
      <trkpt lat="68.04542301222682" lon="15.95998601987958">
        <ele>27.530000000000001</ele>
        <time>2017-06-28T09:01:05Z</time>
      </trkpt>
      <trkpt lat="68.045239029452205" lon="15.960154999047518">
        <ele>27.530000000000001</ele>
        <time>2017-06-28T09:01:06Z</time>
      </trkpt>
      <trkpt lat="68.045062003657222" lon="15.96035398542881">
        <ele>27.050000000000001</ele>
        <time>2017-06-28T09:01:07Z</time>
      </trkpt>
      <trkpt lat="68.044029017910361" lon="15.962397996336222">
        <ele>23.690000000000001</ele>
        <time>2017-06-28T09:01:14Z</time>
      </trkpt>
      <trkpt lat="68.043342037126422" lon="15.965430987998843">
        <ele>22.25</ele>
        <time>2017-06-28T09:01:20Z</time>
      </trkpt>
      <trkpt lat="68.04202800616622" lon="15.971157001331449">
        <ele>24.170000000000002</ele>
        <time>2017-06-28T09:01:30Z</time>
      </trkpt>
      <trkpt lat="68.04091396741569" lon="15.975018963217735">
        <ele>21.77</ele>
        <time>2017-06-28T09:01:38Z</time>
      </trkpt>
      <trkpt lat="68.039152007550001" lon="15.980858970433474">
        <ele>18.879999999999999</ele>
        <time>2017-06-28T09:01:49Z</time>
      </trkpt>
      <trkpt lat="68.037513010203838" lon="15.985890040174127">
        <ele>19.359999999999999</ele>
        <time>2017-06-28T09:02:00Z</time>
      </trkpt>
      <trkpt lat="68.036774983629584" lon="15.986977005377412">
        <ele>24.649999999999999</ele>
        <time>2017-06-28T09:02:04Z</time>
      </trkpt>
      <trkpt lat="68.036583038046956" lon="15.987127041444182">
        <ele>25.129999999999999</ele>
        <time>2017-06-28T09:02:05Z</time>
      </trkpt>
      <trkpt lat="68.036386985331774" lon="15.987221002578735">
        <ele>25.609999999999999</ele>
        <time>2017-06-28T09:02:06Z</time>
      </trkpt>
      <trkpt lat="68.03618498146534" lon="15.987285040318966">
        <ele>25.129999999999999</ele>
        <time>2017-06-28T09:02:07Z</time>
      </trkpt>
      <trkpt lat="68.035979038104415" lon="15.98731798119843">
        <ele>24.170000000000002</ele>
        <time>2017-06-28T09:02:08Z</time>
      </trkpt>
      <trkpt lat="68.034148011356592" lon="15.987184038385749">
        <ele>20.32</ele>
        <time>2017-06-28T09:02:17Z</time>
      </trkpt>
      <trkpt lat="68.033664040267467" lon="15.987283028662205">
        <ele>22.73</ele>
        <time>2017-06-28T09:02:20Z</time>
      </trkpt>
      <trkpt lat="68.033516015857458" lon="15.987426023930311">
        <ele>23.210000000000001</ele>
        <time>2017-06-28T09:02:21Z</time>
      </trkpt>
      <trkpt lat="68.033376960083842" lon="15.9876390080899">
        <ele>23.690000000000001</ele>
        <time>2017-06-28T09:02:22Z</time>
      </trkpt>
      <trkpt lat="68.033247962594032" lon="15.987915024161339">
        <ele>23.690000000000001</ele>
        <time>2017-06-28T09:02:23Z</time>
      </trkpt>
      <trkpt lat="68.033129023388028" lon="15.988233033567667">
        <ele>23.690000000000001</ele>
        <time>2017-06-28T09:02:24Z</time>
      </trkpt>
      <trkpt lat="68.033025003969669" lon="15.988589012995362">
        <ele>23.210000000000001</ele>
        <time>2017-06-28T09:02:25Z</time>
      </trkpt>
      <trkpt lat="68.032942023128271" lon="15.988974999636412">
        <ele>23.210000000000001</ele>
        <time>2017-06-28T09:02:26Z</time>
      </trkpt>
      <trkpt lat="68.032874967902899" lon="15.989375989884138">
        <ele>22.73</ele>
        <time>2017-06-28T09:02:27Z</time>
      </trkpt>
      <trkpt lat="68.032814031466842" lon="15.989768011495471">
        <ele>22.73</ele>
        <time>2017-06-28T09:02:28Z</time>
      </trkpt>
      <trkpt lat="68.032227968797088" lon="15.993667021393776">
        <ele>17.920000000000002</ele>
        <time>2017-06-28T09:02:38Z</time>
      </trkpt>
      <trkpt lat="68.031475022435188" lon="15.998643022030592">
        <ele>4.94</ele>
        <time>2017-06-28T09:02:50Z</time>
      </trkpt>
      <trkpt lat="68.031163970008492" lon="15.999854039400816">
        <ele>3.98</ele>
        <time>2017-06-28T09:02:55Z</time>
      </trkpt>
      <trkpt lat="68.030672958120704" lon="16.001033037900925">
        <ele>3.5</ele>
        <time>2017-06-28T09:03:01Z</time>
      </trkpt>
      <trkpt lat="68.029595967382193" lon="16.002212036401033">
        <ele>2.06</ele>
        <time>2017-06-28T09:03:08Z</time>
      </trkpt>
      <trkpt lat="68.027428993955255" lon="16.003150977194309">
        <ele>5.91</ele>
        <time>2017-06-28T09:03:18Z</time>
      </trkpt>
      <trkpt lat="68.023146009072661" lon="16.005028020590544">
        <ele>2.06</ele>
        <time>2017-06-28T09:03:36Z</time>
      </trkpt>
      <trkpt lat="68.020809972658753" lon="16.006020018830895">
        <ele>12.15</ele>
        <time>2017-06-28T09:03:47Z</time>
      </trkpt>
      <trkpt lat="68.018641993403435" lon="16.007070019841194">
        <ele>12.630000000000001</ele>
        <time>2017-06-28T09:03:58Z</time>
      </trkpt>
      <trkpt lat="68.018478965386748" lon="16.007287027314305">
        <ele>12.630000000000001</ele>
        <time>2017-06-28T09:03:59Z</time>
      </trkpt>
      <trkpt lat="68.018334964290261" lon="16.007553990930319">
        <ele>12.630000000000001</ele>
        <time>2017-06-28T09:04:00Z</time>
      </trkpt>
      <trkpt lat="68.018216025084257" lon="16.007865965366364">
        <ele>13.119999999999999</ele>
        <time>2017-06-28T09:04:01Z</time>
      </trkpt>
      <trkpt lat="68.018116028979421" lon="16.008222028613091">
        <ele>13.119999999999999</ele>
        <time>2017-06-28T09:04:02Z</time>
      </trkpt>
      <trkpt lat="68.018031036481261" lon="16.008624024689198">
        <ele>13.119999999999999</ele>
        <time>2017-06-28T09:04:03Z</time>
      </trkpt>
      <trkpt lat="68.017949983477592" lon="16.009072959423065">
        <ele>12.630000000000001</ele>
        <time>2017-06-28T09:04:04Z</time>
      </trkpt>
      <trkpt lat="68.017186978831887" lon="16.013474967330694">
        <ele>13.6</ele>
        <time>2017-06-28T09:04:12Z</time>
      </trkpt>
      <trkpt lat="68.016188023611903" lon="16.019125962629914">
        <ele>19.359999999999999</ele>
        <time>2017-06-28T09:04:22Z</time>
      </trkpt>
      <trkpt lat="68.015307001769543" lon="16.022827997803688">
        <ele>14.08</ele>
        <time>2017-06-28T09:04:30Z</time>
      </trkpt>
      <trkpt lat="68.013856010511518" lon="16.026263991370797">
        <ele>18.399999999999999</ele>
        <time>2017-06-28T09:04:40Z</time>
      </trkpt>
      <trkpt lat="68.013693988323212" lon="16.026459960266948">
        <ele>19.359999999999999</ele>
        <time>2017-06-28T09:04:41Z</time>
      </trkpt>
      <trkpt lat="68.013520985841751" lon="16.026593986898661">
        <ele>20.32</ele>
        <time>2017-06-28T09:04:42Z</time>
      </trkpt>
      <trkpt lat="68.013341026380658" lon="16.026666993275285">
        <ele>21.289999999999999</ele>
        <time>2017-06-28T09:04:43Z</time>
      </trkpt>
      <trkpt lat="68.013156959787011" lon="16.026684008538723">
        <ele>22.73</ele>
        <time>2017-06-28T09:04:44Z</time>
      </trkpt>
      <trkpt lat="68.012965014204383" lon="16.026631034910679">
        <ele>23.210000000000001</ele>
        <time>2017-06-28T09:04:45Z</time>
      </trkpt>
      <trkpt lat="68.011131975799799" lon="16.02620598860085">
        <ele>32.82</ele>
        <time>2017-06-28T09:04:54Z</time>
      </trkpt>
      <trkpt lat="68.008700972422957" lon="16.02575202472508">
        <ele>34.740000000000002</ele>
        <time>2017-06-28T09:05:05Z</time>
      </trkpt>
      <trkpt lat="68.005923964083195" lon="16.025664014741778">
        <ele>43.399999999999999</ele>
        <time>2017-06-28T09:05:19Z</time>
      </trkpt>
      <trkpt lat="68.004598030820489" lon="16.026542019098997">
        <ele>55.890000000000001</ele>
        <time>2017-06-28T09:05:26Z</time>
      </trkpt>
      <trkpt lat="68.004415975883603" lon="16.026534978300333">
        <ele>57.82</ele>
        <time>2017-06-28T09:05:27Z</time>
      </trkpt>
      <trkpt lat="68.004240039736032" lon="16.02646398358047">
        <ele>58.780000000000001</ele>
        <time>2017-06-28T09:05:28Z</time>
      </trkpt>
      <trkpt lat="68.004070976749063" lon="16.026330040767789">
        <ele>59.740000000000002</ele>
        <time>2017-06-28T09:05:29Z</time>
      </trkpt>
      <trkpt lat="68.003905015066266" lon="16.02613901719451">
        <ele>59.740000000000002</ele>
        <time>2017-06-28T09:05:30Z</time>
      </trkpt>
      <trkpt lat="68.003746010363102" lon="16.025883033871651">
        <ele>60.219999999999999</ele>
        <time>2017-06-28T09:05:31Z</time>
      </trkpt>
      <trkpt lat="68.003596980124712" lon="16.025576004758477">
        <ele>60.700000000000003</ele>
        <time>2017-06-28T09:05:32Z</time>
      </trkpt>
      <trkpt lat="68.003460019826889" lon="16.025218013674021">
        <ele>61.18</ele>
        <time>2017-06-28T09:05:33Z</time>
      </trkpt>
      <trkpt lat="68.003328004851937" lon="16.024820040911436">
        <ele>61.18</ele>
        <time>2017-06-28T09:05:34Z</time>
      </trkpt>
      <trkpt lat="68.00215202383697" lon="16.021308023482561">
        <ele>62.140000000000001</ele>
        <time>2017-06-28T09:05:42Z</time>
      </trkpt>
      <trkpt lat="68.00157300196588" lon="16.019686963409185">
        <ele>61.659999999999997</ele>
        <time>2017-06-28T09:05:46Z</time>
      </trkpt>
      <trkpt lat="68.001410979777575" lon="16.019368031993508">
        <ele>61.659999999999997</ele>
        <time>2017-06-28T09:05:47Z</time>
      </trkpt>
      <trkpt lat="68.001233031973243" lon="16.019097967073321">
        <ele>61.659999999999997</ele>
        <time>2017-06-28T09:05:48Z</time>
      </trkpt>
      <trkpt lat="68.001044020056725" lon="16.018888000398874">
        <ele>61.659999999999997</ele>
        <time>2017-06-28T09:05:49Z</time>
      </trkpt>
      <trkpt lat="68.000834975391626" lon="16.018723966553807">
        <ele>61.18</ele>
        <time>2017-06-28T09:05:50Z</time>
      </trkpt>
      <trkpt lat="68.000612016767263" lon="16.018588012084365">
        <ele>61.18</ele>
        <time>2017-06-28T09:05:51Z</time>
      </trkpt>
      <trkpt lat="67.998170033097267" lon="16.017279010266066">
        <ele>69.829999999999998</ele>
        <time>2017-06-28T09:06:02Z</time>
      </trkpt>
      <trkpt lat="67.995998030528426" lon="16.015808992087841">
        <ele>74.159999999999997</ele>
        <time>2017-06-28T09:06:14Z</time>
      </trkpt>
      <trkpt lat="67.994921039789915" lon="16.013875035569072">
        <ele>65.510000000000005</ele>
        <time>2017-06-28T09:06:22Z</time>
      </trkpt>
      <trkpt lat="67.994506973773241" lon="16.013171961531043">
        <ele>61.18</ele>
        <time>2017-06-28T09:06:25Z</time>
      </trkpt>
      <trkpt lat="67.99435299821198" lon="16.013011028990149">
        <ele>60.219999999999999</ele>
        <time>2017-06-28T09:06:26Z</time>
      </trkpt>
      <trkpt lat="67.994192987680435" lon="16.012901980429888">
        <ele>58.780000000000001</ele>
        <time>2017-06-28T09:06:27Z</time>
      </trkpt>
      <trkpt lat="67.994026020169258" lon="16.01284297183156">
        <ele>57.340000000000003</ele>
        <time>2017-06-28T09:06:28Z</time>
      </trkpt>
      <trkpt lat="67.993856035172939" lon="16.012829979881644">
        <ele>55.890000000000001</ele>
        <time>2017-06-28T09:06:29Z</time>
      </trkpt>
      <trkpt lat="67.993683032691479" lon="16.012859987094998">
        <ele>54.450000000000003</ele>
        <time>2017-06-28T09:06:30Z</time>
      </trkpt>
      <trkpt lat="67.993512041866779" lon="16.012914972379804">
        <ele>52.530000000000001</ele>
        <time>2017-06-28T09:06:31Z</time>
      </trkpt>
      <trkpt lat="67.993047013878822" lon="16.013021003454924">
        <ele>47.719999999999999</ele>
        <time>2017-06-28T09:06:34Z</time>
      </trkpt>
      <trkpt lat="67.992914998903871" lon="16.012955037876964">
        <ele>46.280000000000001</ele>
        <time>2017-06-28T09:06:35Z</time>
      </trkpt>
      <trkpt lat="67.992791030555964" lon="16.012823022902012">
        <ele>44.840000000000003</ele>
        <time>2017-06-28T09:06:36Z</time>
      </trkpt>
      <trkpt lat="67.992680976167321" lon="16.012613978236914">
        <ele>43.399999999999999</ele>
        <time>2017-06-28T09:06:37Z</time>
      </trkpt>
      <trkpt lat="67.992593972012401" lon="16.012312984094024">
        <ele>41.950000000000003</ele>
        <time>2017-06-28T09:06:38Z</time>
      </trkpt>
      <trkpt lat="67.992524988949299" lon="16.011965973302722">
        <ele>40.509999999999998</ele>
        <time>2017-06-28T09:06:39Z</time>
      </trkpt>
      <trkpt lat="67.992490958422422" lon="16.011580992490053">
        <ele>39.549999999999997</ele>
        <time>2017-06-28T09:06:40Z</time>
      </trkpt>
      <trkpt lat="67.992485007271171" lon="16.011177990585566">
        <ele>37.630000000000003</ele>
        <time>2017-06-28T09:06:41Z</time>
      </trkpt>
      <trkpt lat="67.992511996999383" lon="16.010752022266388">
        <ele>35.710000000000001</ele>
        <time>2017-06-28T09:06:42Z</time>
      </trkpt>
      <trkpt lat="67.992562036961317" lon="16.01030602119863">
        <ele>34.259999999999998</ele>
        <time>2017-06-28T09:06:43Z</time>
      </trkpt>
      <trkpt lat="67.992625990882516" lon="16.009844010695815">
        <ele>32.82</ele>
        <time>2017-06-28T09:06:44Z</time>
      </trkpt>
      <trkpt lat="67.993000997230411" lon="16.00603099912405">
        <ele>18.399999999999999</ele>
        <time>2017-06-28T09:06:51Z</time>
      </trkpt>
      <trkpt lat="67.993119014427066" lon="16.00235897116363">
        <ele>13.119999999999999</ele>
        <time>2017-06-28T09:06:58Z</time>
      </trkpt>
      <trkpt lat="67.993114991113544" lon="15.999353975057602">
        <ele>6.87</ele>
        <time>2017-06-28T09:07:05Z</time>
      </trkpt>
      <trkpt lat="67.993075009435415" lon="15.998950973153114">
        <ele>6.39</ele>
        <time>2017-06-28T09:07:06Z</time>
      </trkpt>
      <trkpt lat="67.993019018322229" lon="15.998571021482348">
        <ele>5.42</ele>
        <time>2017-06-28T09:07:07Z</time>
      </trkpt>
      <trkpt lat="67.992949029430747" lon="15.998203977942467">
        <ele>4.94</ele>
        <time>2017-06-28T09:07:08Z</time>
      </trkpt>
      <trkpt lat="67.992867976427078" lon="15.997854033485055">
        <ele>4.94</ele>
        <time>2017-06-28T09:07:09Z</time>
      </trkpt>
      <trkpt lat="67.992775021120906" lon="15.997510040178895">
        <ele>5.42</ele>
        <time>2017-06-28T09:07:10Z</time>
      </trkpt>
      <trkpt lat="67.992673013359308" lon="15.997202005237341">
        <ele>5.42</ele>
        <time>2017-06-28T09:07:11Z</time>
      </trkpt>
      <trkpt lat="67.992560025304556" lon="15.996910985559225">
        <ele>5.91</ele>
        <time>2017-06-28T09:07:12Z</time>
      </trkpt>
      <trkpt lat="67.992437984794378" lon="15.996632035821676">
        <ele>6.39</ele>
        <time>2017-06-28T09:07:13Z</time>
      </trkpt>
      <trkpt lat="67.99168998375535" lon="15.994845014065504">
        <ele>5.91</ele>
        <time>2017-06-28T09:07:19Z</time>
      </trkpt>
      <trkpt lat="67.991589987650514" lon="15.994488028809428">
        <ele>5.91</ele>
        <time>2017-06-28T09:07:20Z</time>
      </trkpt>
      <trkpt lat="67.991492003202438" lon="15.994121991097927">
        <ele>5.42</ele>
        <time>2017-06-28T09:07:21Z</time>
      </trkpt>
      <trkpt lat="67.99140902236104" lon="15.993726029992104">
        <ele>4.94</ele>
        <time>2017-06-28T09:07:22Z</time>
      </trkpt>
      <trkpt lat="67.991340039297938" lon="15.993310958147049">
        <ele>4.46</ele>
        <time>2017-06-28T09:07:23Z</time>
      </trkpt>
      <trkpt lat="67.99127901904285" lon="15.992873003706336">
        <ele>3.98</ele>
        <time>2017-06-28T09:07:24Z</time>
      </trkpt>
      <trkpt lat="67.991231996566057" lon="15.992427002638578">
        <ele>3.02</ele>
        <time>2017-06-28T09:07:25Z</time>
      </trkpt>
      <trkpt lat="67.991200983524323" lon="15.991953006014228">
        <ele>2.06</ele>
        <time>2017-06-28T09:07:26Z</time>
      </trkpt>
      <trkpt lat="67.991180028766394" lon="15.991460988298059">
        <ele>0.62</ele>
        <time>2017-06-28T09:07:27Z</time>
      </trkpt>
      <trkpt lat="67.991171982139349" lon="15.990979028865695">
        <ele>0.14</ele>
        <time>2017-06-28T09:07:28Z</time>
      </trkpt>
      <trkpt lat="67.991178017109632" lon="15.990493968129158">
        <ele>-0.82</ele>
        <time>2017-06-28T09:07:29Z</time>
      </trkpt>
      <trkpt lat="67.991191009059548" lon="15.990011002868414">
        <ele>-0.82</ele>
        <time>2017-06-28T09:07:30Z</time>
      </trkpt>
      <trkpt lat="67.991353031247854" lon="15.983633967116475">
        <ele>0.14</ele>
        <time>2017-06-28T09:07:43Z</time>
      </trkpt>
      <trkpt lat="67.99093502573669" lon="15.980455968528986">
        <ele>-3.23</ele>
        <time>2017-06-28T09:07:50Z</time>
      </trkpt>
      <trkpt lat="67.989894999191165" lon="15.975580969825387">
        <ele>-3.71</ele>
        <time>2017-06-28T09:08:01Z</time>
      </trkpt>
      <trkpt lat="67.989643961191177" lon="15.974894994869828">
        <ele>-2.75</ele>
        <time>2017-06-28T09:08:03Z</time>
      </trkpt>
      <trkpt lat="67.989503983408213" lon="15.974600035697222">
        <ele>-2.75</ele>
        <time>2017-06-28T09:08:04Z</time>
      </trkpt>
      <trkpt lat="67.989354031160474" lon="15.974358972162008">
        <ele>-2.75</ele>
        <time>2017-06-28T09:08:05Z</time>
      </trkpt>
      <trkpt lat="67.989188991487026" lon="15.974159985780716">
        <ele>-3.23</ele>
        <time>2017-06-28T09:08:06Z</time>
      </trkpt>
      <trkpt lat="67.989013977348804" lon="15.973985977470875">
        <ele>-3.71</ele>
        <time>2017-06-28T09:08:07Z</time>
      </trkpt>
      <trkpt lat="67.988836029544473" lon="15.973867038264871">
        <ele>-4.19</ele>
        <time>2017-06-28T09:08:08Z</time>
      </trkpt>
      <trkpt lat="67.988657997921109" lon="15.97378296777606">
        <ele>-4.19</ele>
        <time>2017-06-28T09:08:09Z</time>
      </trkpt>
      <trkpt lat="67.988476026803255" lon="15.973746003583074">
        <ele>-3.71</ele>
        <time>2017-06-28T09:08:10Z</time>
      </trkpt>
      <trkpt lat="67.988292966037989" lon="15.973767964169383">
        <ele>-3.23</ele>
        <time>2017-06-28T09:08:11Z</time>
      </trkpt>
      <trkpt lat="67.988108983263373" lon="15.973830996081233">
        <ele>-3.71</ele>
        <time>2017-06-28T09:08:12Z</time>
      </trkpt>
      <trkpt lat="67.987917037680745" lon="15.973939038813114">
        <ele>-4.19</ele>
        <time>2017-06-28T09:08:13Z</time>
      </trkpt>
      <trkpt lat="67.987726014107466" lon="15.974074993282557">
        <ele>-4.67</ele>
        <time>2017-06-28T09:08:14Z</time>
      </trkpt>
      <trkpt lat="67.986168991774321" lon="15.975332027301192">
        <ele>5.42</ele>
        <time>2017-06-28T09:08:23Z</time>
      </trkpt>
      <trkpt lat="67.984788995236158" lon="15.976409018039703">
        <ele>14.56</ele>
        <time>2017-06-28T09:08:32Z</time>
      </trkpt>
      <trkpt lat="67.982958974316716" lon="15.977838970720768">
        <ele>8.789999999999999</ele>
        <time>2017-06-28T09:08:43Z</time>
      </trkpt>
      <trkpt lat="67.980641964823008" lon="15.97956002689898">
        <ele>0.62</ele>
        <time>2017-06-28T09:08:55Z</time>
      </trkpt>
      <trkpt lat="67.978945970535278" lon="15.98104496486485">
        <ele>-7.07</ele>
        <time>2017-06-28T09:09:04Z</time>
      </trkpt>
      <trkpt lat="67.978748995810747" lon="15.981369009241462">
        <ele>-7.55</ele>
        <time>2017-06-28T09:09:05Z</time>
      </trkpt>
      <trkpt lat="67.977255005389452" lon="15.9840920381248">
        <ele>-6.59</ele>
        <time>2017-06-28T09:09:12Z</time>
      </trkpt>
      <trkpt lat="67.976163011044264" lon="15.985526014119387">
        <ele>-3.23</ele>
        <time>2017-06-28T09:09:18Z</time>
      </trkpt>
      <trkpt lat="67.975065987557173" lon="15.98561997525394">
        <ele>3.5</ele>
        <time>2017-06-28T09:09:24Z</time>
      </trkpt>
      <trkpt lat="67.973465966060758" lon="15.984633006155491">
        <ele>6.87</ele>
        <time>2017-06-28T09:09:32Z</time>
      </trkpt>
      <trkpt lat="67.971732001751661" lon="15.98344998434186">
        <ele>14.08</ele>
        <time>2017-06-28T09:09:40Z</time>
      </trkpt>
      <trkpt lat="67.969734007492661" lon="15.981738986447453">
        <ele>18.399999999999999</ele>
        <time>2017-06-28T09:09:51Z</time>
      </trkpt>
      <trkpt lat="67.967997025698423" lon="15.979770999401808">
        <ele>28.02</ele>
        <time>2017-06-28T09:10:02Z</time>
      </trkpt>
      <trkpt lat="67.967459997162223" lon="15.979038001969457">
        <ele>28.02</ele>
        <time>2017-06-28T09:10:06Z</time>
      </trkpt>
      <trkpt lat="67.967338962480426" lon="15.978786963969469">
        <ele>27.530000000000001</ele>
        <time>2017-06-28T09:10:07Z</time>
      </trkpt>
      <trkpt lat="67.967226980254054" lon="15.978498961776495">
        <ele>27.050000000000001</ele>
        <time>2017-06-28T09:10:08Z</time>
      </trkpt>
      <trkpt lat="67.967134024947882" lon="15.978161003440619">
        <ele>26.57</ele>
        <time>2017-06-28T09:10:09Z</time>
      </trkpt>
      <trkpt lat="67.967040985822678" lon="15.977794965729117">
        <ele>26.09</ele>
        <time>2017-06-28T09:10:10Z</time>
      </trkpt>
      <trkpt lat="67.966955993324518" lon="15.977406967431307">
        <ele>25.609999999999999</ele>
        <time>2017-06-28T09:10:11Z</time>
      </trkpt>
      <trkpt lat="67.966876029968262" lon="15.976949986070395">
        <ele>24.649999999999999</ele>
        <time>2017-06-28T09:10:12Z</time>
      </trkpt>
      <trkpt lat="67.966803023591638" lon="15.976441958919168">
        <ele>24.649999999999999</ele>
        <time>2017-06-28T09:10:13Z</time>
      </trkpt>
      <trkpt lat="67.966738985851407" lon="15.975915994495153">
        <ele>24.649999999999999</ele>
        <time>2017-06-28T09:10:14Z</time>
      </trkpt>
      <trkpt lat="67.96646598726511" lon="15.973314000293612">
        <ele>27.530000000000001</ele>
        <time>2017-06-28T09:10:20Z</time>
      </trkpt>
      <trkpt lat="67.966310000047088" lon="15.970155028626323">
        <ele>27.530000000000001</ele>
        <time>2017-06-28T09:10:27Z</time>
      </trkpt>
      <trkpt lat="67.965980004519224" lon="15.967042995616794">
        <ele>23.690000000000001</ele>
        <time>2017-06-28T09:10:34Z</time>
      </trkpt>
      <trkpt lat="67.965339040383697" lon="15.961750997230411">
        <ele>25.129999999999999</ele>
        <time>2017-06-28T09:10:45Z</time>
      </trkpt>
      <trkpt lat="67.964783990755677" lon="15.957661969587207">
        <ele>22.73</ele>
        <time>2017-06-28T09:10:52Z</time>
      </trkpt>
      <trkpt lat="67.964153001084924" lon="15.953415026888251">
        <ele>23.210000000000001</ele>
        <time>2017-06-28T09:11:01Z</time>
      </trkpt>
      <trkpt lat="67.963399970903993" lon="15.948269041255116">
        <ele>24.649999999999999</ele>
        <time>2017-06-28T09:11:12Z</time>
      </trkpt>
      <trkpt lat="67.963018007576466" lon="15.944336000829935">
        <ele>20.32</ele>
        <time>2017-06-28T09:11:21Z</time>
      </trkpt>
      <trkpt lat="67.963153962045908" lon="15.939688989892602">
        <ele>7.35</ele>
        <time>2017-06-28T09:11:31Z</time>
      </trkpt>
      <trkpt lat="67.96328597702086" lon="15.936639988794923">
        <ele>5.91</ele>
        <time>2017-06-28T09:11:40Z</time>
      </trkpt>
      <trkpt lat="67.963453028351068" lon="15.932224988937378">
        <ele>-1.79</ele>
        <time>2017-06-28T09:11:56Z</time>
      </trkpt>
      <trkpt lat="67.9634790122509" lon="15.93111396767199">
        <ele>-2.27</ele>
        <time>2017-06-28T09:12:04Z</time>
      </trkpt>
      <trkpt lat="67.963490998372436" lon="15.931000979617238">
        <ele>-2.27</ele>
        <time>2017-06-28T09:12:05Z</time>
      </trkpt>
      <trkpt lat="67.963494015857577" lon="15.93055497854948">
        <ele>-1.79</ele>
        <time>2017-06-28T09:12:10Z</time>
      </trkpt>
      <trkpt lat="67.963456967845559" lon="15.930457999929786">
        <ele>-1.79</ele>
        <time>2017-06-28T09:12:11Z</time>
      </trkpt>
      <trkpt lat="67.963234009221196" lon="15.929932035505772">
        <ele>-1.79</ele>
        <time>2017-06-28T09:12:15Z</time>
      </trkpt>
      <trkpt lat="67.96300602145493" lon="15.929086972028017">
        <ele>-1.3</ele>
        <time>2017-06-28T09:12:22Z</time>
      </trkpt>
      <trkpt lat="67.962994035333395" lon="15.928980018943548">
        <ele>-0.82</ele>
        <time>2017-06-28T09:12:23Z</time>
      </trkpt>
      <trkpt lat="67.963001998141408" lon="15.928889997303486">
        <ele>-0.82</ele>
        <time>2017-06-28T09:12:24Z</time>
      </trkpt>
      <trkpt lat="67.963013984262943" lon="15.928823025897145">
        <ele>-0.82</ele>
        <time>2017-06-28T09:12:25Z</time>
      </trkpt>
      <trkpt lat="67.963038040325046" lon="15.928792012855411">
        <ele>-0.82</ele>
        <time>2017-06-28T09:12:26Z</time>
      </trkpt>
      <trkpt lat="67.963067963719368" lon="15.928808022290468">
        <ele>-0.82</ele>
        <time>2017-06-28T09:12:27Z</time>
      </trkpt>
      <trkpt lat="67.963093025609851" lon="15.92885697260499">
        <ele>-1.3</ele>
        <time>2017-06-28T09:12:28Z</time>
      </trkpt>
      <trkpt lat="67.963120015338063" lon="15.928917992860079">
        <ele>-1.3</ele>
        <time>2017-06-28T09:12:29Z</time>
      </trkpt>
      <trkpt lat="67.963144993409514" lon="15.928977001458406">
        <ele>-1.79</ele>
        <time>2017-06-28T09:12:30Z</time>
      </trkpt>
      <trkpt lat="67.963211964815855" lon="15.929195014759898">
        <ele>0.14</ele>
        <time>2017-06-28T09:12:39Z</time>
      </trkpt>
      <trkpt lat="67.963212970644236" lon="15.929213035851717">
        <ele>1.58</ele>
        <time>2017-06-28T09:13:36Z</time>
      </trkpt>
      <trkpt lat="67.962946007028222" lon="15.928728980943561">
        <ele>7.83</ele>
        <time>2017-06-28T09:50:26Z</time>
      </trkpt>
      <trkpt lat="67.96296201646328" lon="15.928794024512172">
        <ele>1.58</ele>
        <time>2017-06-28T09:50:44Z</time>
      </trkpt>
      <trkpt lat="67.962900996208191" lon="15.928733004257083">
        <ele>1.1</ele>
        <time>2017-06-28T09:50:47Z</time>
      </trkpt>
      <trkpt lat="67.962869983166456" lon="15.928639965131879">
        <ele>1.58</ele>
        <time>2017-06-28T09:50:48Z</time>
      </trkpt>
      <trkpt lat="67.962837964296341" lon="15.928514990955591">
        <ele>1.58</ele>
        <time>2017-06-28T09:50:49Z</time>
      </trkpt>
      <trkpt lat="67.962378971278667" lon="15.926711959764361">
        <ele>2.06</ele>
        <time>2017-06-28T09:50:59Z</time>
      </trkpt>
      <trkpt lat="67.961758961901069" lon="15.924167968332767">
        <ele>4.46</ele>
        <time>2017-06-28T09:51:10Z</time>
      </trkpt>
      <trkpt lat="67.960847010836005" lon="15.921419961377978">
        <ele>4.46</ele>
        <time>2017-06-28T09:51:21Z</time>
      </trkpt>
      <trkpt lat="67.959700031206012" lon="15.918812016025186">
        <ele>0.62</ele>
        <time>2017-06-28T09:51:30Z</time>
      </trkpt>
      <trkpt lat="67.957659959793091" lon="15.913768960162997">
        <ele>2.54</ele>
        <time>2017-06-28T09:51:44Z</time>
      </trkpt>
      <trkpt lat="67.956676008179784" lon="15.911191022023559">
        <ele>-0.34</ele>
        <time>2017-06-28T09:51:52Z</time>
      </trkpt>
      <trkpt lat="67.95619597658515" lon="15.909549007192254">
        <ele>1.58</ele>
        <time>2017-06-28T09:51:59Z</time>
      </trkpt>
      <trkpt lat="67.956137973815203" lon="15.909287994727492">
        <ele>3.02</ele>
        <time>2017-06-28T09:52:06Z</time>
      </trkpt>
      <trkpt lat="67.956134034320712" lon="15.909255975857377">
        <ele>3.02</ele>
        <time>2017-06-28T09:52:23Z</time>
      </trkpt>
      <trkpt lat="67.956135040149093" lon="15.909259999170899">
        <ele>3.02</ele>
        <time>2017-06-28T09:54:27Z</time>
      </trkpt>
    </trkseg>
  </trk>

  <trk>
    <name>Track vom: 28 JUN 2017 11:54</name>
    <extensions>
      <gpxx:TrackExtension>
        <gpxx:DisplayColor>DarkGray</gpxx:DisplayColor>
      </gpxx:TrackExtension>
    </extensions>
    <trkseg>
      <trkpt lat="67.956135040149093" lon="15.909259999170899">
        <ele>3.02</ele>
        <time>2017-06-28T09:54:37Z</time>
      </trkpt>
      <trkpt lat="67.956091035157442" lon="15.909108035266399">
        <ele>3.02</ele>
        <time>2017-06-28T09:55:09Z</time>
      </trkpt>
      <trkpt lat="67.955948039889336" lon="15.908683994784951">
        <ele>4.46</ele>
        <time>2017-06-28T09:55:12Z</time>
      </trkpt>
      <trkpt lat="67.955387961119413" lon="15.907087996602058">
        <ele>6.39</ele>
        <time>2017-06-28T09:55:19Z</time>
      </trkpt>
      <trkpt lat="67.953962031751871" lon="15.903812013566494">
        <ele>5.42</ele>
        <time>2017-06-28T09:55:30Z</time>
      </trkpt>
      <trkpt lat="67.952109966427088" lon="15.900267977267504">
        <ele>8.789999999999999</ele>
        <time>2017-06-28T09:55:41Z</time>
      </trkpt>
      <trkpt lat="67.94882501475513" lon="15.894799958914518">
        <ele>6.87</ele>
        <time>2017-06-28T09:55:58Z</time>
      </trkpt>
      <trkpt lat="67.947284001857042" lon="15.892361998558044">
        <ele>12.15</ele>
        <time>2017-06-28T09:56:07Z</time>
      </trkpt>
      <trkpt lat="67.947112005203962" lon="15.892239036038518">
        <ele>11.19</ele>
        <time>2017-06-28T09:56:08Z</time>
      </trkpt>
      <trkpt lat="67.946929028257728" lon="15.892152031883597">
        <ele>10.23</ele>
        <time>2017-06-28T09:56:09Z</time>
      </trkpt>
      <trkpt lat="67.945492034777999" lon="15.891856988891959">
        <ele>4.46</ele>
        <time>2017-06-28T09:56:16Z</time>
      </trkpt>
      <trkpt lat="67.944117989391088" lon="15.890781003981829">
        <ele>3.02</ele>
        <time>2017-06-28T09:56:23Z</time>
      </trkpt>
      <trkpt lat="67.943216012790799" lon="15.888800024986267">
        <ele>0.62</ele>
        <time>2017-06-28T09:56:29Z</time>
      </trkpt>
      <trkpt lat="67.942504975944757" lon="15.885661002248526">
        <ele>3.02</ele>
        <time>2017-06-28T09:56:36Z</time>
      </trkpt>
      <trkpt lat="67.941449023783207" lon="15.880133975297213">
        <ele>4.46</ele>
        <time>2017-06-28T09:56:48Z</time>
      </trkpt>
      <trkpt lat="67.941063037142158" lon="15.876709967851639">
        <ele>1.58</ele>
        <time>2017-06-28T09:56:55Z</time>
      </trkpt>
      <trkpt lat="67.940512010827661" lon="15.872609037905931">
        <ele>1.58</ele>
        <time>2017-06-28T09:57:04Z</time>
      </trkpt>
      <trkpt lat="67.940406985580921" lon="15.872259009629488">
        <ele>1.58</ele>
        <time>2017-06-28T09:57:05Z</time>
      </trkpt>
      <trkpt lat="67.940290980041027" lon="15.871948963031173">
        <ele>1.1</ele>
        <time>2017-06-28T09:57:06Z</time>
      </trkpt>
      <trkpt lat="67.940165000036359" lon="15.871669007465243">
        <ele>1.58</ele>
        <time>2017-06-28T09:57:07Z</time>
      </trkpt>
      <trkpt lat="67.940027033910155" lon="15.871433978900313">
        <ele>1.58</ele>
        <time>2017-06-28T09:57:08Z</time>
      </trkpt>
      <trkpt lat="67.939881021156907" lon="15.871222000569105">
        <ele>1.58</ele>
        <time>2017-06-28T09:57:09Z</time>
      </trkpt>
      <trkpt lat="67.939728973433375" lon="15.871052015572786">
        <ele>2.06</ele>
        <time>2017-06-28T09:57:10Z</time>
      </trkpt>
      <trkpt lat="67.939567035064101" lon="15.870922012254596">
        <ele>2.06</ele>
        <time>2017-06-28T09:57:11Z</time>
      </trkpt>
      <trkpt lat="67.939400989562273" lon="15.870836013928056">
        <ele>1.58</ele>
        <time>2017-06-28T09:57:12Z</time>
      </trkpt>
      <trkpt lat="67.939225975424051" lon="15.870769964531064">
        <ele>1.58</ele>
        <time>2017-06-28T09:57:13Z</time>
      </trkpt>
      <trkpt lat="67.937608016654849" lon="15.870410967618227">
        <ele>5.42</ele>
        <time>2017-06-28T09:57:22Z</time>
      </trkpt>
      <trkpt lat="67.936311000958085" lon="15.871642017737031">
        <ele>7.35</ele>
        <time>2017-06-28T09:57:29Z</time>
      </trkpt>
      <trkpt lat="67.934750961139798" lon="15.874000014737248">
        <ele>6.39</ele>
        <time>2017-06-28T09:57:38Z</time>
      </trkpt>
      <trkpt lat="67.934136986732483" lon="15.875124027952552">
        <ele>1.1</ele>
        <time>2017-06-28T09:57:42Z</time>
      </trkpt>
      <trkpt lat="67.933972030878067" lon="15.875317985191941">
        <ele>0.14</ele>
        <time>2017-06-28T09:57:43Z</time>
      </trkpt>
      <trkpt lat="67.933800034224987" lon="15.875472966581583">
        <ele>-0.82</ele>
        <time>2017-06-28T09:57:44Z</time>
      </trkpt>
      <trkpt lat="67.933620996773243" lon="15.875563994050026">
        <ele>-1.3</ele>
        <time>2017-06-28T09:57:45Z</time>
      </trkpt>
      <trkpt lat="67.93344103731215" lon="15.875605987384915">
        <ele>-1.3</ele>
        <time>2017-06-28T09:57:46Z</time>
      </trkpt>
      <trkpt lat="67.933258982375264" lon="15.875596012920141">
        <ele>-1.3</ele>
        <time>2017-06-28T09:57:47Z</time>
      </trkpt>
      <trkpt lat="67.933072987943888" lon="15.87555100210011">
        <ele>-1.3</ele>
        <time>2017-06-28T09:57:48Z</time>
      </trkpt>
      <trkpt lat="67.932885987684131" lon="15.875482019037008">
        <ele>-1.3</ele>
        <time>2017-06-28T09:57:49Z</time>
      </trkpt>
      <trkpt lat="67.931448994204402" lon="15.874337973073125">
        <ele>2.54</ele>
        <time>2017-06-28T09:57:57Z</time>
      </trkpt>
      <trkpt lat="67.930911965668201" lon="15.87411099113524">
        <ele>3.98</ele>
        <time>2017-06-28T09:58:00Z</time>
      </trkpt>
      <trkpt lat="67.930726977065206" lon="15.874120965600014">
        <ele>4.46</ele>
        <time>2017-06-28T09:58:01Z</time>
      </trkpt>
      <trkpt lat="67.930544000118971" lon="15.874160025268793">
        <ele>4.94</ele>
        <time>2017-06-28T09:58:02Z</time>
      </trkpt>
      <trkpt lat="67.930359011515975" lon="15.874237976968288">
        <ele>5.42</ele>
        <time>2017-06-28T09:58:03Z</time>
      </trkpt>
      <trkpt lat="67.930174022912979" lon="15.874350965023041">
        <ele>5.91</ele>
        <time>2017-06-28T09:58:04Z</time>
      </trkpt>
      <trkpt lat="67.929992973804474" lon="15.87449798360467">
        <ele>6.39</ele>
        <time>2017-06-28T09:58:05Z</time>
      </trkpt>
      <trkpt lat="67.929813014343381" lon="15.874676015228033">
        <ele>6.39</ele>
        <time>2017-06-28T09:58:06Z</time>
      </trkpt>
      <trkpt lat="67.927675964310765" lon="15.87692404165864">
        <ele>11.67</ele>
        <time>2017-06-28T09:58:18Z</time>
      </trkpt>
      <trkpt lat="67.926581958308816" lon="15.878549963235855">
        <ele>4.94</ele>
        <time>2017-06-28T09:58:25Z</time>
      </trkpt>
      <trkpt lat="67.926458995789289" lon="15.878865960985422">
        <ele>3.98</ele>
        <time>2017-06-28T09:58:26Z</time>
      </trkpt>
      <trkpt lat="67.926348019391298" lon="15.879200985655189">
        <ele>2.54</ele>
        <time>2017-06-28T09:58:27Z</time>
      </trkpt>
      <trkpt lat="67.926252968609333" lon="15.879555037245154">
        <ele>2.06</ele>
        <time>2017-06-28T09:58:28Z</time>
      </trkpt>
      <trkpt lat="67.926173005253077" lon="15.879915961995721">
        <ele>1.58</ele>
        <time>2017-06-28T09:58:29Z</time>
      </trkpt>
      <trkpt lat="67.926112990826368" lon="15.880287028849125">
        <ele>0.62</ele>
        <time>2017-06-28T09:58:30Z</time>
      </trkpt>
      <trkpt lat="67.926068985834718" lon="15.880682989954948">
        <ele>-0.34</ele>
        <time>2017-06-28T09:58:31Z</time>
      </trkpt>
      <trkpt lat="67.926033027470112" lon="15.881105018779635">
        <ele>-1.3</ele>
        <time>2017-06-28T09:58:32Z</time>
      </trkpt>
      <trkpt lat="67.926004026085138" lon="15.881554959341884">
        <ele>-1.79</ele>
        <time>2017-06-28T09:58:33Z</time>
      </trkpt>
      <trkpt lat="67.925608986988664" lon="15.886173974722624">
        <ele>-2.27</ele>
        <time>2017-06-28T09:58:43Z</time>
      </trkpt>
      <trkpt lat="67.924904990941286" lon="15.888629034161568">
        <ele>-3.23</ele>
        <time>2017-06-28T09:58:50Z</time>
      </trkpt>
      <trkpt lat="67.924314988777041" lon="15.889694960787892">
        <ele>-3.23</ele>
        <time>2017-06-28T09:58:56Z</time>
      </trkpt>
      <trkpt lat="67.924154978245497" lon="15.889861006289721">
        <ele>-3.23</ele>
        <time>2017-06-28T09:59:02Z</time>
      </trkpt>
      <trkpt lat="67.924157995730639" lon="15.889836028218269">
        <ele>-2.75</ele>
        <time>2017-06-28T10:00:54Z</time>
      </trkpt>
      <trkpt lat="67.924154978245497" lon="15.889833010733128">
        <ele>-2.75</ele>
        <time>2017-06-28T10:02:19Z</time>
      </trkpt>
      <trkpt lat="67.924057999625802" lon="15.889915991574526">
        <ele>-2.75</ele>
        <time>2017-06-28T10:02:21Z</time>
      </trkpt>
      <trkpt lat="67.923978958278894" lon="15.889940969645977">
        <ele>-2.75</ele>
        <time>2017-06-28T10:02:22Z</time>
      </trkpt>
      <trkpt lat="67.923888014629483" lon="15.889944992959499">
        <ele>-2.75</ele>
        <time>2017-06-28T10:02:23Z</time>
      </trkpt>
      <trkpt lat="67.923340005800128" lon="15.889801997691393">
        <ele>-2.27</ele>
        <time>2017-06-28T10:02:28Z</time>
      </trkpt>
      <trkpt lat="67.923224000260234" lon="15.889708958566189">
        <ele>-2.27</ele>
        <time>2017-06-28T10:02:29Z</time>
      </trkpt>
      <trkpt lat="67.92310799472034" lon="15.889570992439985">
        <ele>-2.27</ele>
        <time>2017-06-28T10:02:30Z</time>
      </trkpt>
      <trkpt lat="67.922990983352065" lon="15.889407964423299">
        <ele>-2.27</ele>
        <time>2017-06-28T10:02:31Z</time>
      </trkpt>
      <trkpt lat="67.92287397198379" lon="15.889219958335161">
        <ele>-1.79</ele>
        <time>2017-06-28T10:02:32Z</time>
      </trkpt>
      <trkpt lat="67.922758972272277" lon="15.889017032459378">
        <ele>-1.79</ele>
        <time>2017-06-28T10:02:33Z</time>
      </trkpt>
      <trkpt lat="67.922644978389144" lon="15.888786027207971">
        <ele>-1.3</ele>
        <time>2017-06-28T10:02:34Z</time>
      </trkpt>
      <trkpt lat="67.922536013647914" lon="15.888529038056731">
        <ele>-0.34</ele>
        <time>2017-06-28T10:02:35Z</time>
      </trkpt>
      <trkpt lat="67.922428976744413" lon="15.888254027813673">
        <ele>0.62</ele>
        <time>2017-06-28T10:02:36Z</time>
      </trkpt>
      <trkpt lat="67.921983981505036" lon="15.886800019070506">
        <ele>2.06</ele>
        <time>2017-06-28T10:02:41Z</time>
      </trkpt>
      <trkpt lat="67.921916004270315" lon="15.886459965258837">
        <ele>2.54</ele>
        <time>2017-06-28T10:02:42Z</time>
      </trkpt>
      <trkpt lat="67.921695979312062" lon="15.884678978472948">
        <ele>7.83</ele>
        <time>2017-06-28T10:02:47Z</time>
      </trkpt>
      <trkpt lat="67.921683993190527" lon="15.884330961853266">
        <ele>9.27</ele>
        <time>2017-06-28T10:02:48Z</time>
      </trkpt>
      <trkpt lat="67.921684999018908" lon="15.883986968547106">
        <ele>10.23</ele>
        <time>2017-06-28T10:02:49Z</time>
      </trkpt>
      <trkpt lat="67.921780971810222" lon="15.882310001179576">
        <ele>16</ele>
        <time>2017-06-28T10:02:54Z</time>
      </trkpt>
      <trkpt lat="67.921780971810222" lon="15.881989980116487">
        <ele>16.960000000000001</ele>
        <time>2017-06-28T10:02:55Z</time>
      </trkpt>
      <trkpt lat="67.921764962375164" lon="15.881675994023681">
        <ele>17.920000000000002</ele>
        <time>2017-06-28T10:02:56Z</time>
      </trkpt>
      <trkpt lat="67.921729004010558" lon="15.881388997659087">
        <ele>19.359999999999999</ele>
        <time>2017-06-28T10:02:57Z</time>
      </trkpt>
      <trkpt lat="67.921675024554133" lon="15.881117004901171">
        <ele>19.84</ele>
        <time>2017-06-28T10:02:58Z</time>
      </trkpt>
      <trkpt lat="67.921601012349129" lon="15.88087703101337">
        <ele>20.32</ele>
        <time>2017-06-28T10:02:59Z</time>
      </trkpt>
      <trkpt lat="67.921513002365828" lon="15.880663963034749">
        <ele>20.809999999999999</ele>
        <time>2017-06-28T10:03:00Z</time>
      </trkpt>
      <trkpt lat="67.921419041231275" lon="15.88049297221005">
        <ele>21.289999999999999</ele>
        <time>2017-06-28T10:03:01Z</time>
      </trkpt>
      <trkpt lat="67.921317033469677" lon="15.880359029397368">
        <ele>21.77</ele>
        <time>2017-06-28T10:03:02Z</time>
      </trkpt>
      <trkpt lat="67.921206979081035" lon="15.880272025242448">
        <ele>22.25</ele>
        <time>2017-06-28T10:03:03Z</time>
      </trkpt>
      <trkpt lat="67.921085022389889" lon="15.880236988887191">
        <ele>23.210000000000001</ele>
        <time>2017-06-28T10:03:04Z</time>
      </trkpt>
      <trkpt lat="67.920957030728459" lon="15.880254004150629">
        <ele>23.690000000000001</ele>
        <time>2017-06-28T10:03:05Z</time>
      </trkpt>
      <trkpt lat="67.920826021581888" lon="15.880313012748957">
        <ele>24.170000000000002</ele>
        <time>2017-06-28T10:03:06Z</time>
      </trkpt>
      <trkpt lat="67.920695012435317" lon="15.880416026338935">
        <ele>24.649999999999999</ele>
        <time>2017-06-28T10:03:07Z</time>
      </trkpt>
      <trkpt lat="67.920559979975224" lon="15.880548963323236">
        <ele>24.170000000000002</ele>
        <time>2017-06-28T10:03:08Z</time>
      </trkpt>
      <trkpt lat="67.92042201384902" lon="15.880716014653444">
        <ele>23.690000000000001</ele>
        <time>2017-06-28T10:03:09Z</time>
      </trkpt>
      <trkpt lat="67.918859962373972" lon="15.882579982280731">
        <ele>12.15</ele>
        <time>2017-06-28T10:03:19Z</time>
      </trkpt>
      <trkpt lat="67.917091967537999" lon="15.884521985426545">
        <ele>5.42</ele>
        <time>2017-06-28T10:03:30Z</time>
      </trkpt>
      <trkpt lat="67.915469985455275" lon="15.8850890211761">
        <ele>1.58</ele>
        <time>2017-06-28T10:03:39Z</time>
      </trkpt>
      <trkpt lat="67.914177998900414" lon="15.884375972673297">
        <ele>0.62</ele>
        <time>2017-06-28T10:03:46Z</time>
      </trkpt>
      <trkpt lat="67.913271998986602" lon="15.883153975009918">
        <ele>7.35</ele>
        <time>2017-06-28T10:03:52Z</time>
      </trkpt>
      <trkpt lat="67.913137972354889" lon="15.883055990561843">
        <ele>7.83</ele>
        <time>2017-06-28T10:03:53Z</time>
      </trkpt>
      <trkpt lat="67.912879977375269" lon="15.882906038314104">
        <ele>8.310000000000001</ele>
        <time>2017-06-28T10:03:55Z</time>
      </trkpt>
      <trkpt lat="67.912761960178614" lon="15.882762037217617">
        <ele>8.789999999999999</ele>
        <time>2017-06-28T10:03:56Z</time>
      </trkpt>
      <trkpt lat="67.912641009315848" lon="15.88257797062397">
        <ele>9.27</ele>
        <time>2017-06-28T10:03:57Z</time>
      </trkpt>
      <trkpt lat="67.911245003342628" lon="15.880375038832426">
        <ele>12.630000000000001</ele>
        <time>2017-06-28T10:04:07Z</time>
      </trkpt>
      <trkpt lat="67.909301994368434" lon="15.877277003601193">
        <ele>10.23</ele>
        <time>2017-06-28T10:04:18Z</time>
      </trkpt>
      <trkpt lat="67.907558977603912" lon="15.873667001724243">
        <ele>12.630000000000001</ele>
        <time>2017-06-28T10:04:28Z</time>
      </trkpt>
      <trkpt lat="67.905994998291135" lon="15.871323002502322">
        <ele>18.399999999999999</ele>
        <time>2017-06-28T10:04:36Z</time>
      </trkpt>
      <trkpt lat="67.904292969033122" lon="15.868774987757206">
        <ele>32.82</ele>
        <time>2017-06-28T10:04:45Z</time>
      </trkpt>
      <trkpt lat="67.902918001636863" lon="15.864996006712317">
        <ele>44.840000000000003</ele>
        <time>2017-06-28T10:04:54Z</time>
      </trkpt>
      <trkpt lat="67.901357039809227" lon="15.861817002296448">
        <ele>49.649999999999999</ele>
        <time>2017-06-28T10:05:03Z</time>
      </trkpt>
      <trkpt lat="67.899503968656063" lon="15.859883967787027">
        <ele>50.130000000000003</ele>
        <time>2017-06-28T10:05:12Z</time>
      </trkpt>
      <trkpt lat="67.897674031555653" lon="15.859366971999407">
        <ele>51.57</ele>
        <time>2017-06-28T10:05:20Z</time>
      </trkpt>
      <trkpt lat="67.895818026736379" lon="15.860192002728581">
        <ele>55.890000000000001</ele>
        <time>2017-06-28T10:05:28Z</time>
      </trkpt>
      <trkpt lat="67.89418900385499" lon="15.862247999757528">
        <ele>63.100000000000001</ele>
        <time>2017-06-28T10:05:36Z</time>
      </trkpt>
      <trkpt lat="67.892451016232371" lon="15.863163974136114">
        <ele>67.909999999999997</ele>
        <time>2017-06-28T10:05:44Z</time>
      </trkpt>
      <trkpt lat="67.888589976355433" lon="15.864147003740072">
        <ele>68.870000000000005</ele>
        <time>2017-06-28T10:06:01Z</time>
      </trkpt>
      <trkpt lat="67.886829022318125" lon="15.865824976935983">
        <ele>66.950000000000003</ele>
        <time>2017-06-28T10:06:09Z</time>
      </trkpt>
      <trkpt lat="67.884847037494183" lon="15.86805297061801">
        <ele>55.890000000000001</ele>
        <time>2017-06-28T10:06:19Z</time>
      </trkpt>
      <trkpt lat="67.884683003649116" lon="15.86837500333786">
        <ele>54.93</ele>
        <time>2017-06-28T10:06:20Z</time>
      </trkpt>
      <trkpt lat="67.884533973410726" lon="15.868741041049361">
        <ele>53.969999999999999</ele>
        <time>2017-06-28T10:06:21Z</time>
      </trkpt>
      <trkpt lat="67.884402964264154" lon="15.869154017418623">
        <ele>53.009999999999998</ele>
        <time>2017-06-28T10:06:22Z</time>
      </trkpt>
      <trkpt lat="67.884289976209402" lon="15.869613010436296">
        <ele>52.049999999999997</ele>
        <time>2017-06-28T10:06:23Z</time>
      </trkpt>
      <trkpt lat="67.884196015074849" lon="15.870096981525421">
        <ele>51.090000000000003</ele>
        <time>2017-06-28T10:06:24Z</time>
      </trkpt>
      <trkpt lat="67.884117979556322" lon="15.870600985363126">
        <ele>49.649999999999999</ele>
        <time>2017-06-28T10:06:25Z</time>
      </trkpt>
      <trkpt lat="67.884057965129614" lon="15.871115969493985">
        <ele>48.68</ele>
        <time>2017-06-28T10:06:26Z</time>
      </trkpt>
      <trkpt lat="67.884013960137963" lon="15.871646041050553">
        <ele>47.719999999999999</ele>
        <time>2017-06-28T10:06:27Z</time>
      </trkpt>
      <trkpt lat="67.883979007601738" lon="15.872183991596103">
        <ele>47.719999999999999</ele>
        <time>2017-06-28T10:06:28Z</time>
      </trkpt>
      <trkpt lat="67.883689999580383" lon="15.876250974833965">
        <ele>48.200000000000003</ele>
        <time>2017-06-28T10:06:36Z</time>
      </trkpt>
      <trkpt lat="67.883625039830804" lon="15.876691024750471">
        <ele>47.240000000000002</ele>
        <time>2017-06-28T10:06:37Z</time>
      </trkpt>
      <trkpt lat="67.883542980998755" lon="15.877082040533423">
        <ele>46.759999999999998</ele>
        <time>2017-06-28T10:06:38Z</time>
      </trkpt>
      <trkpt lat="67.883436027914286" lon="15.877424022182822">
        <ele>46.280000000000001</ele>
        <time>2017-06-28T10:06:39Z</time>
      </trkpt>
      <trkpt lat="67.883302001282573" lon="15.877731973305345">
        <ele>45.799999999999997</ele>
        <time>2017-06-28T10:06:40Z</time>
      </trkpt>
      <trkpt lat="67.883151965215802" lon="15.87800002656877">
        <ele>45.799999999999997</ele>
        <time>2017-06-28T10:06:41Z</time>
      </trkpt>
      <trkpt lat="67.882986003533006" lon="15.878234971314669">
        <ele>45.32</ele>
        <time>2017-06-28T10:06:42Z</time>
      </trkpt>
      <trkpt lat="67.882807971909642" lon="15.878462959080935">
        <ele>44.840000000000003</ele>
        <time>2017-06-28T10:06:43Z</time>
      </trkpt>
      <trkpt lat="67.880434971302748" lon="15.881334012374282">
        <ele>41.950000000000003</ele>
        <time>2017-06-28T10:06:55Z</time>
      </trkpt>
      <trkpt lat="67.87717298604548" lon="15.885236961767077">
        <ele>40.509999999999998</ele>
        <time>2017-06-28T10:07:10Z</time>
      </trkpt>
      <trkpt lat="67.876519029960036" lon="15.885784970596433">
        <ele>39.07</ele>
        <time>2017-06-28T10:07:13Z</time>
      </trkpt>
      <trkpt lat="67.876295987516642" lon="15.88584003970027">
        <ele>39.549999999999997</ele>
        <time>2017-06-28T10:07:14Z</time>
      </trkpt>
      <trkpt lat="67.87607504054904" lon="15.885859988629818">
        <ele>40.509999999999998</ele>
        <time>2017-06-28T10:07:15Z</time>
      </trkpt>
      <trkpt lat="67.875017998740077" lon="15.885831993073225">
        <ele>48.68</ele>
        <time>2017-06-28T10:07:20Z</time>
      </trkpt>
      <trkpt lat="67.874828986823559" lon="15.8859490044415">
        <ele>49.649999999999999</ele>
        <time>2017-06-28T10:07:21Z</time>
      </trkpt>
      <trkpt lat="67.874649027362466" lon="15.88614103384316">
        <ele>50.609999999999999</ele>
        <time>2017-06-28T10:07:22Z</time>
      </trkpt>
      <trkpt lat="67.874478958547115" lon="15.886398022994399">
        <ele>51.57</ele>
        <time>2017-06-28T10:07:23Z</time>
      </trkpt>
      <trkpt lat="67.874320037662983" lon="15.88670396246016">
        <ele>52.049999999999997</ele>
        <time>2017-06-28T10:07:24Z</time>
      </trkpt>
      <trkpt lat="67.874176958575845" lon="15.887058014050126">
        <ele>51.57</ele>
        <time>2017-06-28T10:07:25Z</time>
      </trkpt>
      <trkpt lat="67.874051984399557" lon="15.887456992641091">
        <ele>51.090000000000003</ele>
        <time>2017-06-28T10:07:26Z</time>
      </trkpt>
      <trkpt lat="67.873946959152818" lon="15.887901987880468">
        <ele>49.649999999999999</ele>
        <time>2017-06-28T10:07:27Z</time>
      </trkpt>
      <trkpt lat="67.873869007453322" lon="15.888391993939877">
        <ele>48.68</ele>
        <time>2017-06-28T10:07:28Z</time>
      </trkpt>
      <trkpt lat="67.873811004683375" lon="15.888906978070736">
        <ele>47.719999999999999</ele>
        <time>2017-06-28T10:07:29Z</time>
      </trkpt>
      <trkpt lat="67.873772028833628" lon="15.889461021870375">
        <ele>46.280000000000001</ele>
        <time>2017-06-28T10:07:30Z</time>
      </trkpt>
      <trkpt lat="67.873741015791893" lon="15.890024034306407">
        <ele>45.32</ele>
        <time>2017-06-28T10:07:31Z</time>
      </trkpt>
      <trkpt lat="67.87334798835218" lon="15.89765902608633">
        <ele>42.920000000000002</ele>
        <time>2017-06-28T10:07:44Z</time>
      </trkpt>
      <trkpt lat="67.873340025544167" lon="15.898220026865602">
        <ele>42.439999999999998</ele>
        <time>2017-06-28T10:07:45Z</time>
      </trkpt>
      <trkpt lat="67.873352011665702" lon="15.89877700433135">
        <ele>41.950000000000003</ele>
        <time>2017-06-28T10:07:46Z</time>
      </trkpt>
      <trkpt lat="67.873385036364198" lon="15.89933498762548">
        <ele>41.469999999999999</ele>
        <time>2017-06-28T10:07:47Z</time>
      </trkpt>
      <trkpt lat="67.873441027477384" lon="15.899880984798074">
        <ele>41.469999999999999</ele>
        <time>2017-06-28T10:07:48Z</time>
      </trkpt>
      <trkpt lat="67.873506993055344" lon="15.900416001677513">
        <ele>40.990000000000002</ele>
        <time>2017-06-28T10:07:49Z</time>
      </trkpt>
      <trkpt lat="67.873661974444985" lon="15.902084000408649">
        <ele>39.549999999999997</ele>
        <time>2017-06-28T10:07:52Z</time>
      </trkpt>
      <trkpt lat="67.873676978051662" lon="15.902668973430991">
        <ele>40.030000000000001</ele>
        <time>2017-06-28T10:07:53Z</time>
      </trkpt>
      <trkpt lat="67.873629033565521" lon="15.909522017464042">
        <ele>43.880000000000003</ele>
        <time>2017-06-28T10:08:05Z</time>
      </trkpt>
      <trkpt lat="67.873589973896742" lon="15.910048987716436">
        <ele>44.359999999999999</ele>
        <time>2017-06-28T10:08:06Z</time>
      </trkpt>
      <trkpt lat="67.873540017753839" lon="15.910586016252637">
        <ele>44.359999999999999</ele>
        <time>2017-06-28T10:08:07Z</time>
      </trkpt>
      <trkpt lat="67.872707024216652" lon="15.915797967463732">
        <ele>40.509999999999998</ele>
        <time>2017-06-28T10:08:17Z</time>
      </trkpt>
      <trkpt lat="67.871859027072787" lon="15.91858696192503">
        <ele>40.509999999999998</ele>
        <time>2017-06-28T10:08:23Z</time>
      </trkpt>
      <trkpt lat="67.871682001277804" lon="15.91893196105957">
        <ele>40.990000000000002</ele>
        <time>2017-06-28T10:08:24Z</time>
      </trkpt>
      <trkpt lat="67.871495001018047" lon="15.919227004051208">
        <ele>41.469999999999999</ele>
        <time>2017-06-28T10:08:25Z</time>
      </trkpt>
      <trkpt lat="67.871300037950277" lon="15.919480975717306">
        <ele>41.469999999999999</ele>
        <time>2017-06-28T10:08:26Z</time>
      </trkpt>
      <trkpt lat="67.871083030477166" lon="15.91965900734067">
        <ele>42.439999999999998</ele>
        <time>2017-06-28T10:08:27Z</time>
      </trkpt>
      <trkpt lat="67.870872979983687" lon="15.919826980680227">
        <ele>42.920000000000002</ele>
        <time>2017-06-28T10:08:28Z</time>
      </trkpt>
      <trkpt lat="67.868511965498328" lon="15.921069011092186">
        <ele>54.450000000000003</ele>
        <time>2017-06-28T10:08:39Z</time>
      </trkpt>
      <trkpt lat="67.867581993341446" lon="15.921704024076462">
        <ele>50.609999999999999</ele>
        <time>2017-06-28T10:08:44Z</time>
      </trkpt>
      <trkpt lat="67.867422988638282" lon="15.921933017671108">
        <ele>49.159999999999997</ele>
        <time>2017-06-28T10:08:45Z</time>
      </trkpt>
      <trkpt lat="67.867278987541795" lon="15.922230994328856">
        <ele>47.240000000000002</ele>
        <time>2017-06-28T10:08:46Z</time>
      </trkpt>
      <trkpt lat="67.867153007537127" lon="15.9225810226053">
        <ele>45.32</ele>
        <time>2017-06-28T10:08:47Z</time>
      </trkpt>
      <trkpt lat="67.867037001997232" lon="15.92299098148942">
        <ele>43.399999999999999</ele>
        <time>2017-06-28T10:08:48Z</time>
      </trkpt>
      <trkpt lat="67.866928037256002" lon="15.923443017527461">
        <ele>41.469999999999999</ele>
        <time>2017-06-28T10:08:49Z</time>
      </trkpt>
      <trkpt lat="67.866411041468382" lon="15.925249988213181">
        <ele>38.109999999999999</ele>
        <time>2017-06-28T10:08:53Z</time>
      </trkpt>
      <trkpt lat="67.866247007623315" lon="15.925618037581444">
        <ele>38.109999999999999</ele>
        <time>2017-06-28T10:08:54Z</time>
      </trkpt>
      <trkpt lat="67.866071993485093" lon="15.925949038937688">
        <ele>38.109999999999999</ele>
        <time>2017-06-28T10:08:55Z</time>
      </trkpt>
      <trkpt lat="67.86370100453496" lon="15.929444041103125">
        <ele>38.109999999999999</ele>
        <time>2017-06-28T10:09:07Z</time>
      </trkpt>
      <trkpt lat="67.86223903298378" lon="15.931716961786151">
        <ele>50.609999999999999</ele>
        <time>2017-06-28T10:09:15Z</time>
      </trkpt>
      <trkpt lat="67.862105006352067" lon="15.932043017819524">
        <ele>52.530000000000001</ele>
        <time>2017-06-28T10:09:16Z</time>
      </trkpt>
      <trkpt lat="67.861991012468934" lon="15.932406960055232">
        <ele>53.490000000000002</ele>
        <time>2017-06-28T10:09:17Z</time>
      </trkpt>
      <trkpt lat="67.861903002485633" lon="15.932796970009804">
        <ele>54.93</ele>
        <time>2017-06-28T10:09:18Z</time>
      </trkpt>
      <trkpt lat="67.861836031079292" lon="15.93321799300611">
        <ele>56.369999999999997</ele>
        <time>2017-06-28T10:09:19Z</time>
      </trkpt>
      <trkpt lat="67.861794037744403" lon="15.933657037094235">
        <ele>57.340000000000003</ele>
        <time>2017-06-28T10:09:20Z</time>
      </trkpt>
      <trkpt lat="67.861766964197159" lon="15.93414000235498">
        <ele>58.780000000000001</ele>
        <time>2017-06-28T10:09:21Z</time>
      </trkpt>
      <trkpt lat="67.86174600943923" lon="15.934620033949614">
        <ele>60.219999999999999</ele>
        <time>2017-06-28T10:09:22Z</time>
      </trkpt>
      <trkpt lat="67.861575018614531" lon="15.940297013148665">
        <ele>63.579999999999998</ele>
        <time>2017-06-28T10:09:33Z</time>
      </trkpt>
      <trkpt lat="67.861625980585814" lon="15.949344020336866">
        <ele>53.969999999999999</ele>
        <time>2017-06-28T10:09:48Z</time>
      </trkpt>
      <trkpt lat="67.861651964485645" lon="15.957639003172517">
        <ele>49.159999999999997</ele>
        <time>2017-06-28T10:10:01Z</time>
      </trkpt>
      <trkpt lat="67.861491031944752" lon="15.961689976975322">
        <ele>42.439999999999998</ele>
        <time>2017-06-28T10:10:08Z</time>
      </trkpt>
      <trkpt lat="67.860732972621918" lon="15.970535986125469">
        <ele>45.799999999999997</ele>
        <time>2017-06-28T10:10:23Z</time>
      </trkpt>
      <trkpt lat="67.86015797406435" lon="15.975037990137935">
        <ele>47.719999999999999</ele>
        <time>2017-06-28T10:10:31Z</time>
      </trkpt>
      <trkpt lat="67.858915021643043" lon="15.98070097155869">
        <ele>65.989999999999995</ele>
        <time>2017-06-28T10:10:43Z</time>
      </trkpt>
      <trkpt lat="67.858746964484453" lon="15.983982989564538">
        <ele>63.100000000000001</ele>
        <time>2017-06-28T10:10:50Z</time>
      </trkpt>
      <trkpt lat="67.858710000291467" lon="15.984548013657331">
        <ele>63.100000000000001</ele>
        <time>2017-06-28T10:10:54Z</time>
      </trkpt>
      <trkpt lat="67.858703965321183" lon="15.984532004222274">
        <ele>62.619999999999997</ele>
        <time>2017-06-28T10:11:12Z</time>
      </trkpt>
      <trkpt lat="67.858706982806325" lon="15.984649015590549">
        <ele>63.100000000000001</ele>
        <time>2017-06-28T10:11:42Z</time>
      </trkpt>
      <trkpt lat="67.858701031655073" lon="15.985198030248284">
        <ele>63.100000000000001</ele>
        <time>2017-06-28T10:11:45Z</time>
      </trkpt>
      <trkpt lat="67.858628025278449" lon="15.987449996173382">
        <ele>61.659999999999997</ele>
        <time>2017-06-28T10:11:52Z</time>
      </trkpt>
      <trkpt lat="67.858513025566936" lon="15.990852965041995">
        <ele>50.609999999999999</ele>
        <time>2017-06-28T10:11:59Z</time>
      </trkpt>
      <trkpt lat="67.858147993683815" lon="15.99726696498692">
        <ele>40.030000000000001</ele>
        <time>2017-06-28T10:12:10Z</time>
      </trkpt>
      <trkpt lat="67.857445003464818" lon="16.000951984897256">
        <ele>37.149999999999999</ele>
        <time>2017-06-28T10:12:17Z</time>
      </trkpt>
      <trkpt lat="67.855653958395123" lon="16.00839301943779">
        <ele>35.229999999999997</ele>
        <time>2017-06-28T10:12:32Z</time>
      </trkpt>
      <trkpt lat="67.854561964049935" lon="16.011877963319421">
        <ele>33.780000000000001</ele>
        <time>2017-06-28T10:12:40Z</time>
      </trkpt>
      <trkpt lat="67.85323896445334" lon="16.013726005330682">
        <ele>34.259999999999998</ele>
        <time>2017-06-28T10:12:47Z</time>
      </trkpt>
      <trkpt lat="67.850773008540273" lon="16.015704972669482">
        <ele>37.630000000000003</ele>
        <time>2017-06-28T10:12:58Z</time>
      </trkpt>
      <trkpt lat="67.849094029515982" lon="16.016655983403325">
        <ele>43.880000000000003</ele>
        <time>2017-06-28T10:13:06Z</time>
      </trkpt>
      <trkpt lat="67.848892025649548" lon="16.016649026423693">
        <ele>44.359999999999999</ele>
        <time>2017-06-28T10:13:07Z</time>
      </trkpt>
      <trkpt lat="67.847267026081681" lon="16.01569902151823">
        <ele>46.280000000000001</ele>
        <time>2017-06-28T10:13:15Z</time>
      </trkpt>
      <trkpt lat="67.844505021348596" lon="16.013726005330682">
        <ele>46.280000000000001</ele>
        <time>2017-06-28T10:13:28Z</time>
      </trkpt>
      <trkpt lat="67.842917991802096" lon="16.011669002473354">
        <ele>51.57</ele>
        <time>2017-06-28T10:13:36Z</time>
      </trkpt>
      <trkpt lat="67.839907966554165" lon="16.00736397318542">
        <ele>47.240000000000002</ele>
        <time>2017-06-28T10:13:51Z</time>
      </trkpt>
      <trkpt lat="67.83819898031652" lon="16.00448202341795">
        <ele>53.009999999999998</ele>
        <time>2017-06-28T10:14:00Z</time>
      </trkpt>
      <trkpt lat="67.836158992722631" lon="16.00078702904284">
        <ele>66.469999999999999</ele>
        <time>2017-06-28T10:14:11Z</time>
      </trkpt>
      <trkpt lat="67.834724010899663" lon="15.999492025002837">
        <ele>76.560000000000002</ele>
        <time>2017-06-28T10:14:18Z</time>
      </trkpt>
      <trkpt lat="67.832056973129511" lon="15.997245004400611">
        <ele>93.870000000000005</ele>
        <time>2017-06-28T10:14:31Z</time>
      </trkpt>
      <trkpt lat="67.83190400339663" lon="15.996960019692779">
        <ele>95.310000000000002</ele>
        <time>2017-06-28T10:14:32Z</time>
      </trkpt>
      <trkpt lat="67.831764025613666" lon="15.996633041650057">
        <ele>96.269999999999996</ele>
        <time>2017-06-28T10:14:33Z</time>
      </trkpt>
      <trkpt lat="67.831633016467094" lon="15.996274966746569">
        <ele>97.709999999999994</ele>
        <time>2017-06-28T10:14:34Z</time>
      </trkpt>
      <trkpt lat="67.83151600509882" lon="15.995883028954268">
        <ele>99.150000000000006</ele>
        <time>2017-06-28T10:14:35Z</time>
      </trkpt>
      <trkpt lat="67.831404022872448" lon="15.99548002704978">
        <ele>100.11</ele>
        <time>2017-06-28T10:14:36Z</time>
      </trkpt>
      <trkpt lat="67.830991968512535" lon="15.993984024971724">
        <ele>100.11</ele>
        <time>2017-06-28T10:14:40Z</time>
      </trkpt>
      <trkpt lat="67.830876968801022" lon="15.993683030828834">
        <ele>99.150000000000006</ele>
        <time>2017-06-28T10:14:41Z</time>
      </trkpt>
      <trkpt lat="67.830757023766637" lon="15.99339796230197">
        <ele>97.230000000000004</ele>
        <time>2017-06-28T10:14:42Z</time>
      </trkpt>
      <trkpt lat="67.830626014620066" lon="15.993141978979111">
        <ele>96.269999999999996</ele>
        <time>2017-06-28T10:14:43Z</time>
      </trkpt>
      <trkpt lat="67.83048402518034" lon="15.992927988991141">
        <ele>94.349999999999994</ele>
        <time>2017-06-28T10:14:44Z</time>
      </trkpt>
      <trkpt lat="67.83033600077033" lon="15.992765966802835">
        <ele>92.900000000000006</ele>
        <time>2017-06-28T10:14:45Z</time>
      </trkpt>
      <trkpt lat="67.830176996067166" lon="15.992658007889986">
        <ele>90.980000000000004</ele>
        <time>2017-06-28T10:14:46Z</time>
      </trkpt>
      <trkpt lat="67.830007011070848" lon="15.992590030655265">
        <ele>89.060000000000002</ele>
        <time>2017-06-28T10:14:47Z</time>
      </trkpt>
      <trkpt lat="67.829827973619103" lon="15.992547031491995">
        <ele>87.620000000000005</ele>
        <time>2017-06-28T10:14:48Z</time>
      </trkpt>
      <trkpt lat="67.829641979187727" lon="15.992539990693331">
        <ele>86.180000000000007</ele>
        <time>2017-06-28T10:14:49Z</time>
      </trkpt>
      <trkpt lat="67.829442992806435" lon="15.992565974593163">
        <ele>84.730000000000004</ele>
        <time>2017-06-28T10:14:50Z</time>
      </trkpt>
      <trkpt lat="67.829240988940001" lon="15.992617020383477">
        <ele>83.290000000000006</ele>
        <time>2017-06-28T10:14:51Z</time>
      </trkpt>
      <trkpt lat="67.826891038566828" lon="15.993578005582094">
        <ele>72.719999999999999</ele>
        <time>2017-06-28T10:15:02Z</time>
      </trkpt>
      <trkpt lat="67.824820037931204" lon="15.993861984461546">
        <ele>80.890000000000001</ele>
        <time>2017-06-28T10:15:12Z</time>
      </trkpt>
      <trkpt lat="67.824000958353281" lon="15.994153004139662">
        <ele>77.519999999999996</ele>
        <time>2017-06-28T10:15:18Z</time>
      </trkpt>
      <trkpt lat="67.823550011962652" lon="15.994311003014445">
        <ele>77.040000000000006</ele>
        <time>2017-06-28T10:15:25Z</time>
      </trkpt>
      <trkpt lat="67.823535008355975" lon="15.994328018277884">
        <ele>75.599999999999994</ele>
        <time>2017-06-28T10:15:34Z</time>
      </trkpt>
      <trkpt lat="67.823295034468174" lon="15.994434971362352">
        <ele>76.079999999999998</ele>
        <time>2017-06-28T10:16:01Z</time>
      </trkpt>
      <trkpt lat="67.822488024830818" lon="15.99470897577703">
        <ele>78.480000000000004</ele>
        <time>2017-06-28T10:16:07Z</time>
      </trkpt>
      <trkpt lat="67.821069974452257" lon="15.994712999090552">
        <ele>82.329999999999998</ele>
        <time>2017-06-28T10:16:14Z</time>
      </trkpt>
      <trkpt lat="67.819125959649682" lon="15.99344196729362">
        <ele>92.420000000000002</ele>
        <time>2017-06-28T10:16:22Z</time>
      </trkpt>
      <trkpt lat="67.816050974652171" lon="15.992075968533754">
        <ele>104.92</ele>
        <time>2017-06-28T10:16:34Z</time>
      </trkpt>
      <trkpt lat="67.812549015507102" lon="15.991972032934427">
        <ele>116.45999999999999</ele>
        <time>2017-06-28T10:16:47Z</time>
      </trkpt>
      <trkpt lat="67.808437021449208" lon="15.992396995425224">
        <ele>130.40000000000001</ele>
        <time>2017-06-28T10:17:03Z</time>
      </trkpt>
      <trkpt lat="67.806280022487044" lon="15.992132965475321">
        <ele>135.68000000000001</ele>
        <time>2017-06-28T10:17:12Z</time>
      </trkpt>
      <trkpt lat="67.80465804040432" lon="15.990422973409295">
        <ele>138.09</ele>
        <time>2017-06-28T10:17:19Z</time>
      </trkpt>
      <trkpt lat="67.802325021475554" lon="15.986388009041548">
        <ele>141.93000000000001</ele>
        <time>2017-06-28T10:17:30Z</time>
      </trkpt>
      <trkpt lat="67.800375977531075" lon="15.982781024649739">
        <ele>144.81999999999999</ele>
        <time>2017-06-28T10:17:40Z</time>
      </trkpt>
      <trkpt lat="67.798719964921474" lon="15.966407982632518">
        <ele>148.66</ele>
        <time>2017-06-28T10:18:09Z</time>
      </trkpt>
      <trkpt lat="67.798789031803608" lon="15.960293971002102">
        <ele>162.12</ele>
        <time>2017-06-28T10:18:19Z</time>
      </trkpt>
      <trkpt lat="67.798202969133854" lon="15.956246014684439">
        <ele>175.09999999999999</ele>
        <time>2017-06-28T10:18:26Z</time>
      </trkpt>
      <trkpt lat="67.796788020059466" lon="15.95117898657918">
        <ele>190</ele>
        <time>2017-06-28T10:18:36Z</time>
      </trkpt>
      <trkpt lat="67.793646985664964" lon="15.94015602953732">
        <ele>210.66999999999999</ele>
        <time>2017-06-28T10:18:57Z</time>
      </trkpt>
      <trkpt lat="67.792359022423625" lon="15.937115997076035">
        <ele>220.28</ele>
        <time>2017-06-28T10:19:04Z</time>
      </trkpt>
      <trkpt lat="67.789487969130278" lon="15.931801032274961">
        <ele>241.91</ele>
        <time>2017-06-28T10:19:18Z</time>
      </trkpt>
      <trkpt lat="67.786207962781191" lon="15.927290981635451">
        <ele>264.5</ele>
        <time>2017-06-28T10:19:33Z</time>
      </trkpt>
      <trkpt lat="67.784107038751245" lon="15.924025978893042">
        <ele>279.88</ele>
        <time>2017-06-28T10:19:43Z</time>
      </trkpt>
      <trkpt lat="67.782741039991379" lon="15.922785038128495">
        <ele>285.64999999999998</ele>
        <time>2017-06-28T10:19:49Z</time>
      </trkpt>
      <trkpt lat="67.780271982774138" lon="15.922369966283441">
        <ele>300.55000000000001</ele>
        <time>2017-06-28T10:19:59Z</time>
      </trkpt>
      <trkpt lat="67.778832977637649" lon="15.922897020354867">
        <ele>312.08999999999997</ele>
        <time>2017-06-28T10:20:05Z</time>
      </trkpt>
      <trkpt lat="67.777565969154239" lon="15.924904989078641">
        <ele>319.77999999999997</ele>
        <time>2017-06-28T10:20:11Z</time>
      </trkpt>
      <trkpt lat="67.775252982974052" lon="15.930259013548493">
        <ele>334.68000000000001</ele>
        <time>2017-06-28T10:20:23Z</time>
      </trkpt>
      <trkpt lat="67.773159015923738" lon="15.935083972290158">
        <ele>337.07999999999998</ele>
        <time>2017-06-28T10:20:34Z</time>
      </trkpt>
      <trkpt lat="67.77161599136889" lon="15.937443980947137">
        <ele>335.63999999999999</ele>
        <time>2017-06-28T10:20:42Z</time>
      </trkpt>
      <trkpt lat="67.77140099555254" lon="15.937563003972173">
        <ele>336.12</ele>
        <time>2017-06-28T10:20:43Z</time>
      </trkpt>
      <trkpt lat="67.771188011392951" lon="15.937629975378513">
        <ele>337.07999999999998</ele>
        <time>2017-06-28T10:20:44Z</time>
      </trkpt>
      <trkpt lat="67.77097100391984" lon="15.937654031440616">
        <ele>338.04000000000002</ele>
        <time>2017-06-28T10:20:45Z</time>
      </trkpt>
      <trkpt lat="67.769294958561659" lon="15.937827033922076">
        <ele>351.98000000000002</ele>
        <time>2017-06-28T10:20:53Z</time>
      </trkpt>
      <trkpt lat="67.769104018807411" lon="15.938014034181833">
        <ele>353.89999999999998</ele>
        <time>2017-06-28T10:20:54Z</time>
      </trkpt>
      <trkpt lat="67.768919030204415" lon="15.938258031383157">
        <ele>355.33999999999997</ele>
        <time>2017-06-28T10:20:55Z</time>
      </trkpt>
      <trkpt lat="67.768738986924291" lon="15.938548967242241">
        <ele>357.26999999999998</ele>
        <time>2017-06-28T10:20:56Z</time>
      </trkpt>
      <trkpt lat="67.768561961129308" lon="15.938883991912007">
        <ele>358.70999999999998</ele>
        <time>2017-06-28T10:20:57Z</time>
      </trkpt>
      <trkpt lat="67.768394993618131" lon="15.939265033230186">
        <ele>360.14999999999998</ele>
        <time>2017-06-28T10:20:58Z</time>
      </trkpt>
      <trkpt lat="67.768230959773064" lon="15.939666023477912">
        <ele>361.11000000000001</ele>
        <time>2017-06-28T10:20:59Z</time>
      </trkpt>
      <trkpt lat="67.765645980834961" lon="15.94617398455739">
        <ele>367.36000000000001</ele>
        <time>2017-06-28T10:21:14Z</time>
      </trkpt>
      <trkpt lat="67.763721998780966" lon="15.950154969468713">
        <ele>364</ele>
        <time>2017-06-28T10:21:25Z</time>
      </trkpt>
      <trkpt lat="67.763517983257771" lon="15.95034297555685">
        <ele>363.04000000000002</ele>
        <time>2017-06-28T10:21:26Z</time>
      </trkpt>
      <trkpt lat="67.763312039896846" lon="15.950477002188563">
        <ele>361.58999999999997</ele>
        <time>2017-06-28T10:21:27Z</time>
      </trkpt>
      <trkpt lat="67.763102995231748" lon="15.950553026050329">
        <ele>360.14999999999998</ele>
        <time>2017-06-28T10:21:28Z</time>
      </trkpt>
      <trkpt lat="67.762886993587017" lon="15.950570041313767">
        <ele>358.70999999999998</ele>
        <time>2017-06-28T10:21:29Z</time>
      </trkpt>
      <trkpt lat="67.762667974457145" lon="15.950542967766523">
        <ele>357.75</ele>
        <time>2017-06-28T10:21:30Z</time>
      </trkpt>
      <trkpt lat="67.760613989084959" lon="15.950077017769217">
        <ele>346.69</ele>
        <time>2017-06-28T10:21:39Z</time>
      </trkpt>
      <trkpt lat="67.758420025929809" lon="15.949119972065091">
        <ele>343.32999999999998</ele>
        <time>2017-06-28T10:21:49Z</time>
      </trkpt>
      <trkpt lat="67.757301963865757" lon="15.946912011131644">
        <ele>348.13</ele>
        <time>2017-06-28T10:21:55Z</time>
      </trkpt>
      <trkpt lat="67.755478983744979" lon="15.941048031672835">
        <ele>346.20999999999998</ele>
        <time>2017-06-28T10:22:07Z</time>
      </trkpt>
      <trkpt lat="67.752697030082345" lon="15.932119963690639">
        <ele>334.19999999999999</ele>
        <time>2017-06-28T10:22:24Z</time>
      </trkpt>
      <trkpt lat="67.749519031494856" lon="15.921911979094148">
        <ele>330.35000000000002</ele>
        <time>2017-06-28T10:22:43Z</time>
      </trkpt>
      <trkpt lat="67.747719017788768" lon="15.916185965761542">
        <ele>323.62</ele>
        <time>2017-06-28T10:22:55Z</time>
      </trkpt>
      <trkpt lat="67.747454987838864" lon="15.915502002462745">
        <ele>322.18000000000001</ele>
        <time>2017-06-28T10:22:57Z</time>
      </trkpt>
      <trkpt lat="67.747309980913997" lon="15.915232021361589">
        <ele>321.22000000000003</ele>
        <time>2017-06-28T10:22:58Z</time>
      </trkpt>
      <trkpt lat="67.747150976210833" lon="15.915004033595324">
        <ele>320.74000000000001</ele>
        <time>2017-06-28T10:22:59Z</time>
      </trkpt>
      <trkpt lat="67.746981997042894" lon="15.914831031113863">
        <ele>320.25999999999999</ele>
        <time>2017-06-28T10:23:00Z</time>
      </trkpt>
      <trkpt lat="67.746805977076292" lon="15.914703961461782">
        <ele>320.25999999999999</ele>
        <time>2017-06-28T10:23:01Z</time>
      </trkpt>
      <trkpt lat="67.746621994301677" lon="15.914614023640752">
        <ele>320.74000000000001</ele>
        <time>2017-06-28T10:23:02Z</time>
      </trkpt>
      <trkpt lat="67.746428037062287" lon="15.91454696841538">
        <ele>320.74000000000001</ele>
        <time>2017-06-28T10:23:03Z</time>
      </trkpt>
      <trkpt lat="67.745608035475016" lon="15.91422401368618">
        <ele>319.30000000000001</ele>
        <time>2017-06-28T10:23:07Z</time>
      </trkpt>
      <trkpt lat="67.745407959446311" lon="15.914050005376339">
        <ele>318.81</ele>
        <time>2017-06-28T10:23:08Z</time>
      </trkpt>
      <trkpt lat="67.745214002206922" lon="15.913832997903228">
        <ele>316.88999999999999</ele>
        <time>2017-06-28T10:23:09Z</time>
      </trkpt>
      <trkpt lat="67.745025996118784" lon="15.913563016802073">
        <ele>314.97000000000003</ele>
        <time>2017-06-28T10:23:10Z</time>
      </trkpt>
      <trkpt lat="67.74484503082931" lon="15.913249030709267">
        <ele>313.05000000000001</ele>
        <time>2017-06-28T10:23:11Z</time>
      </trkpt>
      <trkpt lat="67.74467202834785" lon="15.91289003379643">
        <ele>311.12</ele>
        <time>2017-06-28T10:23:12Z</time>
      </trkpt>
      <trkpt lat="67.744505982846022" lon="15.912498012185097">
        <ele>309.68000000000001</ele>
        <time>2017-06-28T10:23:13Z</time>
      </trkpt>
      <trkpt lat="67.744355024769902" lon="15.912060979753733">
        <ele>307.75999999999999</ele>
        <time>2017-06-28T10:23:14Z</time>
      </trkpt>
      <trkpt lat="67.744217980653048" lon="15.911610033363104">
        <ele>305.83999999999997</ele>
        <time>2017-06-28T10:23:15Z</time>
      </trkpt>
      <trkpt lat="67.744096023961902" lon="15.911138970404863">
        <ele>304.38999999999999</ele>
        <time>2017-06-28T10:23:16Z</time>
      </trkpt>
      <trkpt lat="67.743989992886782" lon="15.910643013194203">
        <ele>302.94999999999999</ele>
        <time>2017-06-28T10:23:17Z</time>
      </trkpt>
      <trkpt lat="67.743894020095468" lon="15.910131968557835">
        <ele>301.50999999999999</ele>
        <time>2017-06-28T10:23:18Z</time>
      </trkpt>
      <trkpt lat="67.743811039254069" lon="15.909597035497427">
        <ele>300.06999999999999</ele>
        <time>2017-06-28T10:23:19Z</time>
      </trkpt>
      <trkpt lat="67.742962958291173" lon="15.902781961485744">
        <ele>277.48000000000002</ele>
        <time>2017-06-28T10:23:31Z</time>
      </trkpt>
      <trkpt lat="67.742296010255814" lon="15.899237003177404">
        <ele>267.38</ele>
        <time>2017-06-28T10:23:38Z</time>
      </trkpt>
      <trkpt lat="67.742156032472849" lon="15.898836012929678">
        <ele>265.94</ele>
        <time>2017-06-28T10:23:39Z</time>
      </trkpt>
      <trkpt lat="67.742010019719601" lon="15.898493025451899">
        <ele>264.01999999999998</ele>
        <time>2017-06-28T10:23:40Z</time>
      </trkpt>
      <trkpt lat="67.741851015016437" lon="15.898208962753415">
        <ele>262.10000000000002</ele>
        <time>2017-06-28T10:23:41Z</time>
      </trkpt>
      <trkpt lat="67.741679018363357" lon="15.897971000522375">
        <ele>260.64999999999998</ele>
        <time>2017-06-28T10:23:42Z</time>
      </trkpt>
      <trkpt lat="67.741509033367038" lon="15.897747036069632">
        <ele>259.20999999999998</ele>
        <time>2017-06-28T10:23:43Z</time>
      </trkpt>
      <trkpt lat="67.74119202978909" lon="15.897245965898037">
        <ele>256.32999999999998</ele>
        <time>2017-06-28T10:23:45Z</time>
      </trkpt>
      <trkpt lat="67.741048028692603" lon="15.89690800756216">
        <ele>254.88999999999999</ele>
        <time>2017-06-28T10:23:46Z</time>
      </trkpt>
      <trkpt lat="67.740909978747368" lon="15.89654297567904">
        <ele>253.44</ele>
        <time>2017-06-28T10:23:47Z</time>
      </trkpt>
      <trkpt lat="67.74048401042819" lon="15.895403958857059">
        <ele>248.63999999999999</ele>
        <time>2017-06-28T10:23:50Z</time>
      </trkpt>
      <trkpt lat="67.740322994068265" lon="15.895087039098144">
        <ele>246.72</ele>
        <time>2017-06-28T10:23:51Z</time>
      </trkpt>
      <trkpt lat="67.740148985758424" lon="15.894819991663098">
        <ele>245.27000000000001</ele>
        <time>2017-06-28T10:23:52Z</time>
      </trkpt>
      <trkpt lat="67.739959973841906" lon="15.894606001675129">
        <ele>244.31</ele>
        <time>2017-06-28T10:23:53Z</time>
      </trkpt>
      <trkpt lat="67.739762999117374" lon="15.894440039992332">
        <ele>243.34999999999999</ele>
        <time>2017-06-28T10:23:54Z</time>
      </trkpt>
      <trkpt lat="67.739558983594179" lon="15.894316993653774">
        <ele>242.38999999999999</ele>
        <time>2017-06-28T10:23:55Z</time>
      </trkpt>
      <trkpt lat="67.739349016919732" lon="15.894234012812376">
        <ele>240.94999999999999</ele>
        <time>2017-06-28T10:23:56Z</time>
      </trkpt>
      <trkpt lat="67.739136032760143" lon="15.894206017255783">
        <ele>239.50999999999999</ele>
        <time>2017-06-28T10:23:57Z</time>
      </trkpt>
      <trkpt lat="67.738927993923426" lon="15.894222026690841">
        <ele>238.06</ele>
        <time>2017-06-28T10:23:58Z</time>
      </trkpt>
      <trkpt lat="67.738719033077359" lon="15.894293021410704">
        <ele>236.13999999999999</ele>
        <time>2017-06-28T10:23:59Z</time>
      </trkpt>
      <trkpt lat="67.7385079767555" lon="15.894410032778978">
        <ele>234.22</ele>
        <time>2017-06-28T10:24:00Z</time>
      </trkpt>
      <trkpt lat="67.738294992595911" lon="15.89454498142004">
        <ele>232.30000000000001</ele>
        <time>2017-06-28T10:24:01Z</time>
      </trkpt>
      <trkpt lat="67.734653977677226" lon="15.897149993106723">
        <ele>202.49000000000001</ele>
        <time>2017-06-28T10:24:18Z</time>
      </trkpt>
      <trkpt lat="67.732853963971138" lon="15.899436995387077">
        <ele>184.71000000000001</ele>
        <time>2017-06-28T10:24:27Z</time>
      </trkpt>
      <trkpt lat="67.729942006990314" lon="15.903218993917108">
        <ele>157.31</ele>
        <time>2017-06-28T10:24:42Z</time>
      </trkpt>
      <trkpt lat="67.728529991582036" lon="15.905279014259577">
        <ele>142.88999999999999</ele>
        <time>2017-06-28T10:24:50Z</time>
      </trkpt>
      <trkpt lat="67.728360006585717" lon="15.9054159745574">
        <ele>141.44999999999999</ele>
        <time>2017-06-28T10:24:51Z</time>
      </trkpt>
      <trkpt lat="67.728190021589398" lon="15.905478000640869">
        <ele>139.53</ele>
        <time>2017-06-28T10:24:52Z</time>
      </trkpt>
      <trkpt lat="67.728015007451177" lon="15.905460985377431">
        <ele>138.09</ele>
        <time>2017-06-28T10:24:53Z</time>
      </trkpt>
      <trkpt lat="67.727848961949348" lon="15.905353026464581">
        <ele>136.63999999999999</ele>
        <time>2017-06-28T10:24:54Z</time>
      </trkpt>
      <trkpt lat="67.727676965296268" lon="15.905195027589798">
        <ele>135.19999999999999</ele>
        <time>2017-06-28T10:24:55Z</time>
      </trkpt>
      <trkpt lat="67.727514021098614" lon="15.904951030388474">
        <ele>133.75999999999999</ele>
        <time>2017-06-28T10:24:56Z</time>
      </trkpt>
      <trkpt lat="67.727359039708972" lon="15.904664034023881">
        <ele>132.80000000000001</ele>
        <time>2017-06-28T10:24:57Z</time>
      </trkpt>
      <trkpt lat="67.727210009470582" lon="15.904317023232579">
        <ele>131.36000000000001</ele>
        <time>2017-06-28T10:24:58Z</time>
      </trkpt>
      <trkpt lat="67.727052010595798" lon="15.903935981914401">
        <ele>129.91999999999999</ele>
        <time>2017-06-28T10:24:59Z</time>
      </trkpt>
      <trkpt lat="67.725495994091034" lon="15.900756977498531">
        <ele>112.61</ele>
        <time>2017-06-28T10:25:07Z</time>
      </trkpt>
      <trkpt lat="67.724166959524155" lon="15.897847032174468">
        <ele>100.11</ele>
        <time>2017-06-28T10:25:14Z</time>
      </trkpt>
      <trkpt lat="67.723774015903473" lon="15.897222999483347">
        <ele>96.75</ele>
        <time>2017-06-28T10:25:16Z</time>
      </trkpt>
      <trkpt lat="67.723563965409994" lon="15.896982019767165">
        <ele>95.790000000000006</ele>
        <time>2017-06-28T10:25:17Z</time>
      </trkpt>
      <trkpt lat="67.723350981250405" lon="15.896769035607576">
        <ele>95.310000000000002</ele>
        <time>2017-06-28T10:25:18Z</time>
      </trkpt>
      <trkpt lat="67.723129028454423" lon="15.896598966792226">
        <ele>95.790000000000006</ele>
        <time>2017-06-28T10:25:19Z</time>
      </trkpt>
      <trkpt lat="67.722912020981312" lon="15.896443985402584">
        <ele>96.75</ele>
        <time>2017-06-28T10:25:20Z</time>
      </trkpt>
      <trkpt lat="67.721955981105566" lon="15.895495992153883">
        <ele>101.56</ele>
        <time>2017-06-28T10:25:25Z</time>
      </trkpt>
      <trkpt lat="67.721803011372685" lon="15.895200027152896">
        <ele>102.04000000000001</ele>
        <time>2017-06-28T10:25:26Z</time>
      </trkpt>
      <trkpt lat="67.72166202776134" lon="15.894869025796652">
        <ele>103</ele>
        <time>2017-06-28T10:25:27Z</time>
      </trkpt>
      <trkpt lat="67.721537975594401" lon="15.89447901584208">
        <ele>103.48</ele>
        <time>2017-06-28T10:25:28Z</time>
      </trkpt>
      <trkpt lat="67.721422975882888" lon="15.894075008109212">
        <ele>103.95999999999999</ele>
        <time>2017-06-28T10:25:29Z</time>
      </trkpt>
      <trkpt lat="67.721316022798419" lon="15.89364199899137">
        <ele>103.95999999999999</ele>
        <time>2017-06-28T10:25:30Z</time>
      </trkpt>
      <trkpt lat="67.720353025943041" lon="15.889005968347192">
        <ele>94.349999999999994</ele>
        <time>2017-06-28T10:25:41Z</time>
      </trkpt>
      <trkpt lat="67.719306964427233" lon="15.884096017107368">
        <ele>79.450000000000003</ele>
        <time>2017-06-28T10:25:55Z</time>
      </trkpt>
      <trkpt lat="67.718558963388205" lon="15.881219012662768">
        <ele>79.930000000000007</ele>
        <time>2017-06-28T10:26:02Z</time>
      </trkpt>
      <trkpt lat="67.717888997867703" lon="15.877641029655933">
        <ele>84.25</ele>
        <time>2017-06-28T10:26:09Z</time>
      </trkpt>
      <trkpt lat="67.717502005398273" lon="15.875583020970225">
        <ele>78</ele>
        <time>2017-06-28T10:26:14Z</time>
      </trkpt>
      <trkpt lat="67.717383988201618" lon="15.87522896938026">
        <ele>76.079999999999998</ele>
        <time>2017-06-28T10:26:15Z</time>
      </trkpt>
      <trkpt lat="67.717247027903795" lon="15.874883970245719">
        <ele>74.640000000000001</ele>
        <time>2017-06-28T10:26:16Z</time>
      </trkpt>
      <trkpt lat="67.717094980180264" lon="15.874557998031378">
        <ele>72.719999999999999</ele>
        <time>2017-06-28T10:26:17Z</time>
      </trkpt>
      <trkpt lat="67.716930024325848" lon="15.874243006110191">
        <ele>71.760000000000005</ele>
        <time>2017-06-28T10:26:18Z</time>
      </trkpt>
      <trkpt lat="67.716748975217342" lon="15.873961038887501">
        <ele>70.310000000000002</ele>
        <time>2017-06-28T10:26:19Z</time>
      </trkpt>
      <trkpt lat="67.716555017977953" lon="15.873717963695526">
        <ele>69.829999999999998</ele>
        <time>2017-06-28T10:26:20Z</time>
      </trkpt>
      <trkpt lat="67.716356031596661" lon="15.873521994799376">
        <ele>69.349999999999994</ele>
        <time>2017-06-28T10:26:21Z</time>
      </trkpt>
      <trkpt lat="67.716153021901846" lon="15.873354021459818">
        <ele>69.829999999999998</ele>
        <time>2017-06-28T10:26:22Z</time>
      </trkpt>
      <trkpt lat="67.714240020141006" lon="15.87196396663785">
        <ele>60.700000000000003</ele>
        <time>2017-06-28T10:26:32Z</time>
      </trkpt>
      <trkpt lat="67.712847031652927" lon="15.870702993124723">
        <ele>48.68</ele>
        <time>2017-06-28T10:26:39Z</time>
      </trkpt>
      <trkpt lat="67.712674029171467" lon="15.870422031730413">
        <ele>47.719999999999999</ele>
        <time>2017-06-28T10:26:40Z</time>
      </trkpt>
      <trkpt lat="67.712514018639922" lon="15.870103016495705">
        <ele>46.280000000000001</ele>
        <time>2017-06-28T10:26:41Z</time>
      </trkpt>
      <trkpt lat="67.711248015984893" lon="15.866689989343286">
        <ele>31.859999999999999</ele>
        <time>2017-06-28T10:26:50Z</time>
      </trkpt>
      <trkpt lat="67.710380991920829" lon="15.862959958612919">
        <ele>17.440000000000001</ele>
        <time>2017-06-28T10:26:59Z</time>
      </trkpt>
      <trkpt lat="67.709945971146226" lon="15.860861968249083">
        <ele>9.27</ele>
        <time>2017-06-28T10:27:07Z</time>
      </trkpt>
      <trkpt lat="67.709888974204659" lon="15.860521998256445">
        <ele>7.35</ele>
        <time>2017-06-28T10:27:12Z</time>
      </trkpt>
      <trkpt lat="67.709875982254744" lon="15.860452009364963">
        <ele>6.87</ele>
        <time>2017-06-28T10:27:49Z</time>
      </trkpt>
      <trkpt lat="67.709836000576615" lon="15.860319994390011">
        <ele>6.87</ele>
        <time>2017-06-28T10:27:50Z</time>
      </trkpt>
      <trkpt lat="67.709382036700845" lon="15.85894200950861">
        <ele>4.94</ele>
        <time>2017-06-28T10:27:56Z</time>
      </trkpt>
      <trkpt lat="67.708362964913249" lon="15.856801019981503">
        <ele>3.5</ele>
        <time>2017-06-28T10:28:04Z</time>
      </trkpt>
      <trkpt lat="67.707015993073583" lon="15.853756964206696">
        <ele>4.46</ele>
        <time>2017-06-28T10:28:13Z</time>
      </trkpt>
      <trkpt lat="67.704466972500086" lon="15.846477029845119">
        <ele>1.58</ele>
        <time>2017-06-28T10:28:31Z</time>
      </trkpt>
      <trkpt lat="67.70410998724401" lon="15.845352010801435">
        <ele>2.06</ele>
        <time>2017-06-28T10:28:34Z</time>
      </trkpt>
      <trkpt lat="67.703978978097439" lon="15.845068031921983">
        <ele>2.54</ele>
        <time>2017-06-28T10:28:35Z</time>
      </trkpt>
      <trkpt lat="67.703832965344191" lon="15.844850018620491">
        <ele>2.06</ele>
        <time>2017-06-28T10:28:36Z</time>
      </trkpt>
      <trkpt lat="67.703669015318155" lon="15.844690008088946">
        <ele>1.58</ele>
        <time>2017-06-28T10:28:37Z</time>
      </trkpt>
      <trkpt lat="67.703488972038031" lon="15.844582971185446">
        <ele>1.1</ele>
        <time>2017-06-28T10:28:38Z</time>
      </trkpt>
      <trkpt lat="67.703298032283783" lon="15.844497978687286">
        <ele>1.1</ele>
        <time>2017-06-28T10:28:39Z</time>
      </trkpt>
      <trkpt lat="67.701878976076841" lon="15.843202974647284">
        <ele>3.02</ele>
        <time>2017-06-28T10:28:46Z</time>
      </trkpt>
      <trkpt lat="67.70148603245616" lon="15.842871973291039">
        <ele>2.54</ele>
        <time>2017-06-28T10:28:48Z</time>
      </trkpt>
      <trkpt lat="67.701290985569358" lon="15.842806007713079">
        <ele>2.54</ele>
        <time>2017-06-28T10:28:49Z</time>
      </trkpt>
      <trkpt lat="67.701089987531304" lon="15.842788992449641">
        <ele>2.54</ele>
        <time>2017-06-28T10:28:50Z</time>
      </trkpt>
      <trkpt lat="67.70088798366487" lon="15.842816988006234">
        <ele>2.54</ele>
        <time>2017-06-28T10:28:51Z</time>
      </trkpt>
      <trkpt lat="67.700682040303946" lon="15.842882031574845">
        <ele>3.02</ele>
        <time>2017-06-28T10:28:52Z</time>
      </trkpt>
      <trkpt lat="67.70047802478075" lon="15.842996025457978">
        <ele>3.98</ele>
        <time>2017-06-28T10:28:53Z</time>
      </trkpt>
      <trkpt lat="67.700274009257555" lon="15.84312804043293">
        <ele>4.46</ele>
        <time>2017-06-28T10:28:54Z</time>
      </trkpt>
      <trkpt lat="67.697776034474373" lon="15.844799978658557">
        <ele>3.02</ele>
        <time>2017-06-28T10:29:06Z</time>
      </trkpt>
      <trkpt lat="67.697567995637655" lon="15.844810036942363">
        <ele>3.02</ele>
        <time>2017-06-28T10:29:07Z</time>
      </trkpt>
      <trkpt lat="67.695932015776634" lon="15.844797967001796">
        <ele>7.35</ele>
        <time>2017-06-28T10:29:15Z</time>
      </trkpt>
      <trkpt lat="67.695736968889832" lon="15.844964012503624">
        <ele>6.39</ele>
        <time>2017-06-28T10:29:16Z</time>
      </trkpt>
      <trkpt lat="67.695544017478824" lon="15.845165010541677">
        <ele>6.87</ele>
        <time>2017-06-28T10:29:17Z</time>
      </trkpt>
      <trkpt lat="67.694176007062197" lon="15.846243007108569">
        <ele>16.960000000000001</ele>
        <time>2017-06-28T10:29:24Z</time>
      </trkpt>
      <trkpt lat="67.693972997367382" lon="15.846212999895215">
        <ele>18.879999999999999</ele>
        <time>2017-06-28T10:29:25Z</time>
      </trkpt>
      <trkpt lat="67.693773005157709" lon="15.84613798186183">
        <ele>20.809999999999999</ele>
        <time>2017-06-28T10:29:26Z</time>
      </trkpt>
      <trkpt lat="67.692203996703029" lon="15.84508697502315">
        <ele>29.940000000000001</ele>
        <time>2017-06-28T10:29:34Z</time>
      </trkpt>
      <trkpt lat="67.690401971340179" lon="15.845013968646526">
        <ele>27.050000000000001</ele>
        <time>2017-06-28T10:29:43Z</time>
      </trkpt>
      <trkpt lat="67.689223978668451" lon="15.845721988007426">
        <ele>21.77</ele>
        <time>2017-06-28T10:29:50Z</time>
      </trkpt>
      <trkpt lat="67.655200995504856" lon="15.904467981308699">
        <ele>182.78999999999999</ele>
        <time>2017-06-28T10:32:44Z</time>
      </trkpt>
      <trkpt lat="67.654101960361004" lon="15.903919972479343">
        <ele>217.88</ele>
        <time>2017-06-28T10:32:50Z</time>
      </trkpt>
      <trkpt lat="67.652569999918342" lon="15.901890965178609">
        <ele>222.68000000000001</ele>
        <time>2017-06-28T10:32:58Z</time>
      </trkpt>
      <trkpt lat="67.652193987742066" lon="15.90146298520267">
        <ele>221.72</ele>
        <time>2017-06-28T10:33:00Z</time>
      </trkpt>
      <trkpt lat="67.651989972218871" lon="15.901319989934564">
        <ele>220.75999999999999</ele>
        <time>2017-06-28T10:33:01Z</time>
      </trkpt>
      <trkpt lat="67.651781011372805" lon="15.90120499022305">
        <ele>220.75999999999999</ele>
        <time>2017-06-28T10:33:02Z</time>
      </trkpt>
      <trkpt lat="67.651573978364468" lon="15.901144975796342">
        <ele>220.28</ele>
        <time>2017-06-28T10:33:03Z</time>
      </trkpt>
      <trkpt lat="67.651370968669653" lon="15.901111029088497">
        <ele>220.28</ele>
        <time>2017-06-28T10:33:04Z</time>
      </trkpt>
      <trkpt lat="67.651167036965489" lon="15.901112034916878">
        <ele>218.84</ele>
        <time>2017-06-28T10:33:05Z</time>
      </trkpt>
      <trkpt lat="67.650963021442294" lon="15.901145981624722">
        <ele>219.80000000000001</ele>
        <time>2017-06-28T10:33:06Z</time>
      </trkpt>
      <trkpt lat="67.650752970948815" lon="15.901213958859444">
        <ele>219.80000000000001</ele>
        <time>2017-06-28T10:33:07Z</time>
      </trkpt>
      <trkpt lat="67.650553984567523" lon="15.901331976056099">
        <ele>218.84</ele>
        <time>2017-06-28T10:33:08Z</time>
      </trkpt>
      <trkpt lat="67.650359021499753" lon="15.901492992416024">
        <ele>217.88</ele>
        <time>2017-06-28T10:33:09Z</time>
      </trkpt>
      <trkpt lat="67.650167997926474" lon="15.901702037081122">
        <ele>217.40000000000001</ele>
        <time>2017-06-28T10:33:10Z</time>
      </trkpt>
      <trkpt lat="67.649986026808619" lon="15.901958020403981">
        <ele>216.43000000000001</ele>
        <time>2017-06-28T10:33:11Z</time>
      </trkpt>
      <trkpt lat="67.649807995185256" lon="15.902250967919827">
        <ele>216.43000000000001</ele>
        <time>2017-06-28T10:33:12Z</time>
      </trkpt>
      <trkpt lat="67.649468025192618" lon="15.902920011430979">
        <ele>214.50999999999999</ele>
        <time>2017-06-28T10:33:14Z</time>
      </trkpt>
      <trkpt lat="67.649318994954228" lon="15.903301974758506">
        <ele>213.06999999999999</ele>
        <time>2017-06-28T10:33:15Z</time>
      </trkpt>
      <trkpt lat="67.649179017171264" lon="15.903716962784529">
        <ele>211.15000000000001</ele>
        <time>2017-06-28T10:33:16Z</time>
      </trkpt>
      <trkpt lat="67.649049013853073" lon="15.904174027964473">
        <ele>209.69999999999999</ele>
        <time>2017-06-28T10:33:17Z</time>
      </trkpt>
      <trkpt lat="67.648922028020024" lon="15.904649030417204">
        <ele>207.78</ele>
        <time>2017-06-28T10:33:18Z</time>
      </trkpt>
      <trkpt lat="67.647782005369663" lon="15.910011017695069">
        <ele>187.11000000000001</ele>
        <time>2017-06-28T10:33:28Z</time>
      </trkpt>
      <trkpt lat="67.645688038319349" lon="15.920234005898237">
        <ele>163.08000000000001</ele>
        <time>2017-06-28T10:33:46Z</time>
      </trkpt>
      <trkpt lat="67.644346011802554" lon="15.925414022058249">
        <ele>141.44999999999999</ele>
        <time>2017-06-28T10:33:56Z</time>
      </trkpt>
      <trkpt lat="67.64319802634418" lon="15.927623994648457">
        <ele>136.16</ele>
        <time>2017-06-28T10:34:02Z</time>
      </trkpt>
      <trkpt lat="67.641906039789319" lon="15.928592020645738">
        <ele>131.84</ele>
        <time>2017-06-28T10:34:08Z</time>
      </trkpt>
      <trkpt lat="67.640549009665847" lon="15.928406026214361">
        <ele>130.88</ele>
        <time>2017-06-28T10:34:14Z</time>
      </trkpt>
      <trkpt lat="67.639214023947716" lon="15.926898960024118">
        <ele>130.40000000000001</ele>
        <time>2017-06-28T10:34:21Z</time>
      </trkpt>
      <trkpt lat="67.637750040739775" lon="15.924686975777149">
        <ele>120.78</ele>
        <time>2017-06-28T10:34:30Z</time>
      </trkpt>
      <trkpt lat="67.637564968317747" lon="15.924568036571145">
        <ele>119.34</ele>
        <time>2017-06-28T10:34:31Z</time>
      </trkpt>
      <trkpt lat="67.637371011078358" lon="15.924486983567476">
        <ele>117.42</ele>
        <time>2017-06-28T10:34:32Z</time>
      </trkpt>
      <trkpt lat="67.637174958363175" lon="15.92445001937449">
        <ele>115.01000000000001</ele>
        <time>2017-06-28T10:34:33Z</time>
      </trkpt>
      <trkpt lat="67.636981001123786" lon="15.924455970525742">
        <ele>113.56999999999999</ele>
        <time>2017-06-28T10:34:34Z</time>
      </trkpt>
      <trkpt lat="67.636783020570874" lon="15.924503998830914">
        <ele>111.65000000000001</ele>
        <time>2017-06-28T10:34:35Z</time>
      </trkpt>
      <trkpt lat="67.636583028361201" lon="15.924578011035919">
        <ele>109.73</ele>
        <time>2017-06-28T10:34:36Z</time>
      </trkpt>
      <trkpt lat="67.634791983291507" lon="15.924944970756769">
        <ele>94.829999999999998</ele>
        <time>2017-06-28T10:34:45Z</time>
      </trkpt>
      <trkpt lat="67.63323001563549" lon="15.92361300252378">
        <ele>81.849999999999994</ele>
        <time>2017-06-28T10:34:53Z</time>
      </trkpt>
      <trkpt lat="67.631950015202165" lon="15.923488028347492">
        <ele>72.719999999999999</ele>
        <time>2017-06-28T10:34:59Z</time>
      </trkpt>
      <trkpt lat="67.630699016153812" lon="15.924725029617548">
        <ele>66.469999999999999</ele>
        <time>2017-06-28T10:35:05Z</time>
      </trkpt>
      <trkpt lat="67.629136964678764" lon="15.926321027800441">
        <ele>54.450000000000003</ele>
        <time>2017-06-28T10:35:13Z</time>
      </trkpt>
      <trkpt lat="67.627857970073819" lon="15.926165962591767">
        <ele>45.32</ele>
        <time>2017-06-28T10:35:19Z</time>
      </trkpt>
      <trkpt lat="67.626087963581085" lon="15.926002012565732">
        <ele>34.740000000000002</ele>
        <time>2017-06-28T10:35:27Z</time>
      </trkpt>
      <trkpt lat="67.624823972582817" lon="15.927174976095557">
        <ele>26.57</ele>
        <time>2017-06-28T10:35:33Z</time>
      </trkpt>
      <trkpt lat="67.623783024027944" lon="15.929372040554881">
        <ele>17.920000000000002</ele>
        <time>2017-06-28T10:35:39Z</time>
      </trkpt>
      <trkpt lat="67.623076010495424" lon="15.932303024455905">
        <ele>16.960000000000001</ele>
        <time>2017-06-28T10:35:44Z</time>
      </trkpt>
      <trkpt lat="67.622439991682768" lon="15.935331992805004">
        <ele>24.649999999999999</ele>
        <time>2017-06-28T10:35:50Z</time>
      </trkpt>
      <trkpt lat="67.621399965137243" lon="15.937769031152129">
        <ele>28.98</ele>
        <time>2017-06-28T10:35:57Z</time>
      </trkpt>
      <trkpt lat="67.620100015774369" lon="15.938947023823857">
        <ele>31.379999999999999</ele>
        <time>2017-06-28T10:36:04Z</time>
      </trkpt>
      <trkpt lat="67.618152983486652" lon="15.939240977168083">
        <ele>36.670000000000002</ele>
        <time>2017-06-28T10:36:14Z</time>
      </trkpt>
      <trkpt lat="67.61655799113214" lon="15.940257031470537">
        <ele>36.670000000000002</ele>
        <time>2017-06-28T10:36:23Z</time>
      </trkpt>
      <trkpt lat="67.615535985678434" lon="15.942516038194299">
        <ele>32.82</ele>
        <time>2017-06-28T10:36:30Z</time>
      </trkpt>
      <trkpt lat="67.614877000451088" lon="15.945501001551747">
        <ele>29.460000000000001</ele>
        <time>2017-06-28T10:36:36Z</time>
      </trkpt>
      <trkpt lat="67.614061022177339" lon="15.948126967996359">
        <ele>26.57</ele>
        <time>2017-06-28T10:36:43Z</time>
      </trkpt>
      <trkpt lat="67.613605968654156" lon="15.948777990415692">
        <ele>25.609999999999999</ele>
        <time>2017-06-28T10:36:46Z</time>
      </trkpt>
      <trkpt lat="67.594805024564266" lon="15.939936004579067">
        <ele>22.25</ele>
        <time>2017-06-28T10:38:18Z</time>
      </trkpt>
      <trkpt lat="67.594673009589314" lon="15.939586982131004">
        <ele>16</ele>
        <time>2017-06-28T10:38:19Z</time>
      </trkpt>
      <trkpt lat="67.594540994614363" lon="15.939266039058566">
        <ele>11.19</ele>
        <time>2017-06-28T10:38:20Z</time>
      </trkpt>
      <trkpt lat="67.594437981024384" lon="15.938958004117012">
        <ele>11.67</ele>
        <time>2017-06-28T10:38:21Z</time>
      </trkpt>
      <trkpt lat="67.59431904181838" lon="15.938602024689317">
        <ele>8.310000000000001</ele>
        <time>2017-06-28T10:38:22Z</time>
      </trkpt>
      <trkpt lat="67.594199012964964" lon="15.938229029998183">
        <ele>6.39</ele>
        <time>2017-06-28T10:38:23Z</time>
      </trkpt>
      <trkpt lat="67.594120977446437" lon="15.93783700838685">
        <ele>5.42</ele>
        <time>2017-06-28T10:38:24Z</time>
      </trkpt>
      <trkpt lat="67.594028022140265" lon="15.937436018139124">
        <ele>3.5</ele>
        <time>2017-06-28T10:38:25Z</time>
      </trkpt>
      <trkpt lat="67.593949986621737" lon="15.937003009021282">
        <ele>1.1</ele>
        <time>2017-06-28T10:38:26Z</time>
      </trkpt>
      <trkpt lat="67.593897012993693" lon="15.936565976589918">
        <ele>0.62</ele>
        <time>2017-06-28T10:38:27Z</time>
      </trkpt>
      <trkpt lat="67.593669025227427" lon="15.933169964700937">
        <ele>2.54</ele>
        <time>2017-06-28T10:38:34Z</time>
      </trkpt>
      <trkpt lat="67.593634994700551" lon="15.928735015913844">
        <ele>6.87</ele>
        <time>2017-06-28T10:38:43Z</time>
      </trkpt>
      <trkpt lat="67.5931800249964" lon="15.92496701516211">
        <ele>7.35</ele>
        <time>2017-06-28T10:38:51Z</time>
      </trkpt>
      <trkpt lat="67.593252025544643" lon="15.92189596965909">
        <ele>4.46</ele>
        <time>2017-06-28T10:38:57Z</time>
      </trkpt>
      <trkpt lat="67.593720993027091" lon="15.917743993923068">
        <ele>5.42</ele>
        <time>2017-06-28T10:39:05Z</time>
      </trkpt>
      <trkpt lat="67.593798022717237" lon="15.913769965991378">
        <ele>4.94</ele>
        <time>2017-06-28T10:39:11Z</time>
      </trkpt>
      <trkpt lat="67.593505997210741" lon="15.908301025629044">
        <ele>3.5</ele>
        <time>2017-06-28T10:39:19Z</time>
      </trkpt>
      <trkpt lat="67.592926975339651" lon="15.900035966187716">
        <ele>3.5</ele>
        <time>2017-06-28T10:39:32Z</time>
      </trkpt>
      <trkpt lat="67.592809963971376" lon="15.893976017832756">
        <ele>3.98</ele>
        <time>2017-06-28T10:39:42Z</time>
      </trkpt>
      <trkpt lat="67.593027977272868" lon="15.889952033758163">
        <ele>3.5</ele>
        <time>2017-06-28T10:39:49Z</time>
      </trkpt>
      <trkpt lat="67.592845000326633" lon="15.886243041604757">
        <ele>3.98</ele>
        <time>2017-06-28T10:39:56Z</time>
      </trkpt>
      <trkpt lat="67.592072021216154" lon="15.881573986262083">
        <ele>5.91</ele>
        <time>2017-06-28T10:40:06Z</time>
      </trkpt>
      <trkpt lat="67.591957021504641" lon="15.881207026541233">
        <ele>4.94</ele>
        <time>2017-06-28T10:40:07Z</time>
      </trkpt>
      <trkpt lat="67.591830035671592" lon="15.880852974951267">
        <ele>4.46</ele>
        <time>2017-06-28T10:40:08Z</time>
      </trkpt>
      <trkpt lat="67.591691985726357" lon="15.8805369772017">
        <ele>4.46</ele>
        <time>2017-06-28T10:40:09Z</time>
      </trkpt>
      <trkpt lat="67.591543039306998" lon="15.88027898222208">
        <ele>4.94</ele>
        <time>2017-06-28T10:40:10Z</time>
      </trkpt>
      <trkpt lat="67.591383028775454" lon="15.880053006112576">
        <ele>4.94</ele>
        <time>2017-06-28T10:40:11Z</time>
      </trkpt>
      <trkpt lat="67.591212037950754" lon="15.879827030003071">
        <ele>4.94</ele>
        <time>2017-06-28T10:40:12Z</time>
      </trkpt>
      <trkpt lat="67.589256037026644" lon="15.877557964995503">
        <ele>11.19</ele>
        <time>2017-06-28T10:40:23Z</time>
      </trkpt>
      <trkpt lat="67.588727977126837" lon="15.87735797278583">
        <ele>11.67</ele>
        <time>2017-06-28T10:40:26Z</time>
      </trkpt>
      <trkpt lat="67.58344603702426" lon="15.891661019995809">
        <ele>7.83</ele>
        <time>2017-06-28T10:41:10Z</time>
      </trkpt>
      <trkpt lat="67.582626035436988" lon="15.894509023055434">
        <ele>-4.67</ele>
        <time>2017-06-28T10:41:18Z</time>
      </trkpt>
      <trkpt lat="67.582512963563204" lon="15.894776992499828">
        <ele>-5.15</ele>
        <time>2017-06-28T10:41:19Z</time>
      </trkpt>
      <trkpt lat="67.582364017143846" lon="15.895019983872771">
        <ele>-2.75</ele>
        <time>2017-06-28T10:41:20Z</time>
      </trkpt>
      <trkpt lat="67.582215992733836" lon="15.895200027152896">
        <ele>-3.23</ele>
        <time>2017-06-28T10:41:21Z</time>
      </trkpt>
      <trkpt lat="67.582080960273743" lon="15.895306980237365">
        <ele>-4.67</ele>
        <time>2017-06-28T10:41:22Z</time>
      </trkpt>
      <trkpt lat="67.581933019682765" lon="15.895403036847711">
        <ele>-2.75</ele>
        <time>2017-06-28T10:41:23Z</time>
      </trkpt>
      <trkpt lat="67.58177300915122" lon="15.895432038232684">
        <ele>-0.82</ele>
        <time>2017-06-28T10:41:24Z</time>
      </trkpt>
      <trkpt lat="67.581617021933198" lon="15.895392978563905">
        <ele>0.14</ele>
        <time>2017-06-28T10:41:25Z</time>
      </trkpt>
      <trkpt lat="67.581482995301485" lon="15.895322989672422">
        <ele>1.1</ele>
        <time>2017-06-28T10:41:26Z</time>
      </trkpt>
      <trkpt lat="67.581357015296817" lon="15.895192986354232">
        <ele>1.1</ele>
        <time>2017-06-28T10:41:27Z</time>
      </trkpt>
      <trkpt lat="67.581241009756923" lon="15.895034987479448">
        <ele>1.58</ele>
        <time>2017-06-28T10:41:28Z</time>
      </trkpt>
      <trkpt lat="67.581131961196661" lon="15.894858967512846">
        <ele>3.5</ele>
        <time>2017-06-28T10:41:29Z</time>
      </trkpt>
      <trkpt lat="67.581036994233727" lon="15.894683031365275">
        <ele>4.94</ele>
        <time>2017-06-28T10:41:30Z</time>
      </trkpt>
      <trkpt lat="67.580040972679853" lon="15.892529971897602">
        <ele>19.359999999999999</ele>
        <time>2017-06-28T10:41:42Z</time>
      </trkpt>
      <trkpt lat="67.579230023548007" lon="15.891202026978135">
        <ele>21.77</ele>
        <time>2017-06-28T10:41:49Z</time>
      </trkpt>
      <trkpt lat="67.577899983152747" lon="15.889920014888048">
        <ele>23.690000000000001</ele>
        <time>2017-06-28T10:41:57Z</time>
      </trkpt>
      <trkpt lat="67.576112961396575" lon="15.888846963644028">
        <ele>28.98</ele>
        <time>2017-06-28T10:42:06Z</time>
      </trkpt>
      <trkpt lat="67.575921015813947" lon="15.888599026948214">
        <ele>30.420000000000002</ele>
        <time>2017-06-28T10:42:07Z</time>
      </trkpt>
      <trkpt lat="67.575740972533822" lon="15.888303983956575">
        <ele>31.859999999999999</ele>
        <time>2017-06-28T10:42:08Z</time>
      </trkpt>
      <trkpt lat="67.575572999194264" lon="15.88796703144908">
        <ele>33.780000000000001</ele>
        <time>2017-06-28T10:42:09Z</time>
      </trkpt>
      <trkpt lat="67.575415000319481" lon="15.887585990130901">
        <ele>35.710000000000001</ele>
        <time>2017-06-28T10:42:10Z</time>
      </trkpt>
      <trkpt lat="67.575269993394613" lon="15.887155998498201">
        <ele>38.109999999999999</ele>
        <time>2017-06-28T10:42:11Z</time>
      </trkpt>
      <trkpt lat="67.57513303309679" lon="15.886692982167006">
        <ele>40.030000000000001</ele>
        <time>2017-06-28T10:42:12Z</time>
      </trkpt>
      <trkpt lat="67.575005041435361" lon="15.886218985542655">
        <ele>41.950000000000003</ele>
        <time>2017-06-28T10:42:13Z</time>
      </trkpt>
      <trkpt lat="67.574172969907522" lon="15.881765009835362">
        <ele>58.780000000000001</ele>
        <time>2017-06-28T10:42:21Z</time>
      </trkpt>
      <trkpt lat="67.573922015726566" lon="15.878262966871262">
        <ele>72.239999999999995</ele>
        <time>2017-06-28T10:42:27Z</time>
      </trkpt>
      <trkpt lat="67.573873987421393" lon="15.876492960378528">
        <ele>78</ele>
        <time>2017-06-28T10:42:31Z</time>
      </trkpt>
      <trkpt lat="67.573701990768313" lon="15.873921979218721">
        <ele>85.209999999999994</ele>
        <time>2017-06-28T10:42:39Z</time>
      </trkpt>
      <trkpt lat="67.57365002296865" lon="15.873656021431088">
        <ele>86.180000000000007</ele>
        <time>2017-06-28T10:42:40Z</time>
      </trkpt>
      <trkpt lat="67.570360964164138" lon="15.845950981602073">
        <ele>150.58000000000001</ele>
        <time>2017-06-28T10:43:44Z</time>
      </trkpt>
      <trkpt lat="67.569839023053646" lon="15.841636983677745">
        <ele>169.81</ele>
        <time>2017-06-28T10:43:52Z</time>
      </trkpt>
      <trkpt lat="67.5691610109061" lon="15.837722970172763">
        <ele>174.62</ele>
        <time>2017-06-28T10:44:00Z</time>
      </trkpt>
      <trkpt lat="67.568937968462706" lon="15.83423500880599">
        <ele>179.41999999999999</ele>
        <time>2017-06-28T10:44:08Z</time>
      </trkpt>
      <trkpt lat="67.568741999566555" lon="15.829030014574528">
        <ele>180.87</ele>
        <time>2017-06-28T10:44:17Z</time>
      </trkpt>
      <trkpt lat="67.568126013502479" lon="15.824533961713314">
        <ele>189.03999999999999</ele>
        <time>2017-06-28T10:44:25Z</time>
      </trkpt>
      <trkpt lat="67.567189000546932" lon="15.818567974492908">
        <ele>196.72999999999999</ele>
        <time>2017-06-28T10:44:35Z</time>
      </trkpt>
      <trkpt lat="67.566194990649819" lon="15.811193995177746">
        <ele>207.30000000000001</ele>
        <time>2017-06-28T10:44:47Z</time>
      </trkpt>
      <trkpt lat="67.564848018810153" lon="15.805797977373004">
        <ele>227.97</ele>
        <time>2017-06-28T10:44:57Z</time>
      </trkpt>
      <trkpt lat="67.563716964796185" lon="15.800870005041361">
        <ele>247.19999999999999</ele>
        <time>2017-06-28T10:45:06Z</time>
      </trkpt>
      <trkpt lat="67.562411986291409" lon="15.795207023620605">
        <ele>269.31</ele>
        <time>2017-06-28T10:45:16Z</time>
      </trkpt>
      <trkpt lat="67.561075994744897" lon="15.791586963459849">
        <ele>277</ele>
        <time>2017-06-28T10:45:24Z</time>
      </trkpt>
      <trkpt lat="67.559888027608395" lon="15.789937991648912">
        <ele>276.51999999999998</ele>
        <time>2017-06-28T10:45:30Z</time>
      </trkpt>
      <trkpt lat="67.559717958793044" lon="15.789613025262952">
        <ele>276.04000000000002</ele>
        <time>2017-06-28T10:45:31Z</time>
      </trkpt>
      <trkpt lat="67.559553002938628" lon="15.78924598172307">
        <ele>276.04000000000002</ele>
        <time>2017-06-28T10:45:32Z</time>
      </trkpt>
      <trkpt lat="67.559407996013761" lon="15.788830993697047">
        <ele>275.56</ele>
        <time>2017-06-28T10:45:33Z</time>
      </trkpt>
      <trkpt lat="67.559282016009092" lon="15.788381975144148">
        <ele>275.56</ele>
        <time>2017-06-28T10:45:34Z</time>
      </trkpt>
      <trkpt lat="67.559172967448831" lon="15.787896998226643">
        <ele>275.06999999999999</ele>
        <time>2017-06-28T10:45:35Z</time>
      </trkpt>
      <trkpt lat="67.559080012142658" lon="15.787383019924164">
        <ele>274.58999999999997</ele>
        <time>2017-06-28T10:45:36Z</time>
      </trkpt>
      <trkpt lat="67.559008011594415" lon="15.786850014701486">
        <ele>274.58999999999997</ele>
        <time>2017-06-28T10:45:37Z</time>
      </trkpt>
      <trkpt lat="67.55895403213799" lon="15.786298988386989">
        <ele>274.11000000000001</ele>
        <time>2017-06-28T10:45:38Z</time>
      </trkpt>
      <trkpt lat="67.558915978297591" lon="15.785731030628085">
        <ele>274.11000000000001</ele>
        <time>2017-06-28T10:45:39Z</time>
      </trkpt>
      <trkpt lat="67.558902986347675" lon="15.785146979615092">
        <ele>273.63</ele>
        <time>2017-06-28T10:45:40Z</time>
      </trkpt>
      <trkpt lat="67.558906003832817" lon="15.784563012421131">
        <ele>273.63</ele>
        <time>2017-06-28T10:45:41Z</time>
      </trkpt>
      <trkpt lat="67.558947997167706" lon="15.779976015910506">
        <ele>276.51999999999998</ele>
        <time>2017-06-28T10:45:49Z</time>
      </trkpt>
      <trkpt lat="67.558909021317959" lon="15.779472012072802">
        <ele>276.51999999999998</ele>
        <time>2017-06-28T10:45:50Z</time>
      </trkpt>
      <trkpt lat="67.558854036033154" lon="15.778977982699871">
        <ele>276.04000000000002</ele>
        <time>2017-06-28T10:45:51Z</time>
      </trkpt>
      <trkpt lat="67.558780023828149" lon="15.778495017439127">
        <ele>276.04000000000002</ele>
        <time>2017-06-28T10:45:52Z</time>
      </trkpt>
      <trkpt lat="67.558688996359706" lon="15.77802998945117">
        <ele>276.04000000000002</ele>
        <time>2017-06-28T10:45:53Z</time>
      </trkpt>
      <trkpt lat="67.558580031618476" lon="15.777587005868554">
        <ele>275.06999999999999</ele>
        <time>2017-06-28T10:45:54Z</time>
      </trkpt>
      <trkpt lat="67.558457991108298" lon="15.777169000357389">
        <ele>275.06999999999999</ele>
        <time>2017-06-28T10:45:55Z</time>
      </trkpt>
      <trkpt lat="67.558319019153714" lon="15.776773961260915">
        <ele>274.58999999999997</ele>
        <time>2017-06-28T10:45:56Z</time>
      </trkpt>
      <trkpt lat="67.558169988915324" lon="15.776390992105007">
        <ele>274.58999999999997</ele>
        <time>2017-06-28T10:45:57Z</time>
      </trkpt>
      <trkpt lat="67.556543983519077" lon="15.772349992766976">
        <ele>269.31</ele>
        <time>2017-06-28T10:46:08Z</time>
      </trkpt>
      <trkpt lat="67.556362012401223" lon="15.771525967866182">
        <ele>268.35000000000002</ele>
        <time>2017-06-28T10:46:10Z</time>
      </trkpt>
      <trkpt lat="67.558334022760391" lon="15.75957203283906">
        <ele>249.59999999999999</ele>
        <time>2017-06-28T10:46:38Z</time>
      </trkpt>
      <trkpt lat="67.5583750102669" lon="15.75914598070085">
        <ele>244.31</ele>
        <time>2017-06-28T10:46:39Z</time>
      </trkpt>
      <trkpt lat="67.558364029973745" lon="15.758696962147951">
        <ele>237.09999999999999</ele>
        <time>2017-06-28T10:46:40Z</time>
      </trkpt>
      <trkpt lat="67.558365035802126" lon="15.758174015209079">
        <ele>235.18000000000001</ele>
        <time>2017-06-28T10:46:41Z</time>
      </trkpt>
      <trkpt lat="67.558342991396785" lon="15.757651990279555">
        <ele>232.78</ele>
        <time>2017-06-28T10:46:42Z</time>
      </trkpt>
      <trkpt lat="67.558308960869908" lon="15.757175981998444">
        <ele>232.30000000000001</ele>
        <time>2017-06-28T10:46:43Z</time>
      </trkpt>
      <trkpt lat="67.558253975585103" lon="15.756712965667248">
        <ele>231.81</ele>
        <time>2017-06-28T10:46:44Z</time>
      </trkpt>
      <trkpt lat="67.558165965601802" lon="15.756238969042897">
        <ele>231.33000000000001</ele>
        <time>2017-06-28T10:46:45Z</time>
      </trkpt>
      <trkpt lat="67.55807401612401" lon="15.75574996881187">
        <ele>231.81</ele>
        <time>2017-06-28T10:46:46Z</time>
      </trkpt>
      <trkpt lat="67.557969996705651" lon="15.75529701076448">
        <ele>231.81</ele>
        <time>2017-06-28T10:46:47Z</time>
      </trkpt>
      <trkpt lat="67.557860026136041" lon="15.754876993596554">
        <ele>231.81</ele>
        <time>2017-06-28T10:46:48Z</time>
      </trkpt>
      <trkpt lat="67.557727005332708" lon="15.754492012783885">
        <ele>231.33000000000001</ele>
        <time>2017-06-28T10:46:49Z</time>
      </trkpt>
      <trkpt lat="67.557575041428208" lon="15.7541389670223">
        <ele>231.33000000000001</ele>
        <time>2017-06-28T10:46:50Z</time>
      </trkpt>
      <trkpt lat="67.557415030896664" lon="15.7538160122931">
        <ele>231.81</ele>
        <time>2017-06-28T10:46:51Z</time>
      </trkpt>
      <trkpt lat="67.557253008708358" lon="15.753504959866405">
        <ele>231.33000000000001</ele>
        <time>2017-06-28T10:46:52Z</time>
      </trkpt>
      <trkpt lat="67.556326976045966" lon="15.750839011743665">
        <ele>231.33000000000001</ele>
        <time>2017-06-28T10:46:59Z</time>
      </trkpt>
      <trkpt lat="67.555772010236979" lon="15.74749899096787">
        <ele>226.05000000000001</ele>
        <time>2017-06-28T10:47:06Z</time>
      </trkpt>
      <trkpt lat="67.554975980892777" lon="15.743713974952698">
        <ele>219.80000000000001</ele>
        <time>2017-06-28T10:47:13Z</time>
      </trkpt>
      <trkpt lat="67.553611993789673" lon="15.739624025300145">
        <ele>219.31999999999999</ele>
        <time>2017-06-28T10:47:22Z</time>
      </trkpt>
      <trkpt lat="67.553423987701535" lon="15.738615011796355">
        <ele>222.68000000000001</ele>
        <time>2017-06-28T10:47:24Z</time>
      </trkpt>
      <trkpt lat="67.553364979103208" lon="15.738090975210071">
        <ele>223.63999999999999</ele>
        <time>2017-06-28T10:47:25Z</time>
      </trkpt>
      <trkpt lat="67.553328014910221" lon="15.737559981644154">
        <ele>224.12</ele>
        <time>2017-06-28T10:47:26Z</time>
      </trkpt>
      <trkpt lat="67.553313011303544" lon="15.737032005563378">
        <ele>224.61000000000001</ele>
        <time>2017-06-28T10:47:27Z</time>
      </trkpt>
      <trkpt lat="67.553314017131925" lon="15.736506041139364">
        <ele>224.61000000000001</ele>
        <time>2017-06-28T10:47:28Z</time>
      </trkpt>
      <trkpt lat="67.553323991596699" lon="15.735977981239557">
        <ele>224.12</ele>
        <time>2017-06-28T10:47:29Z</time>
      </trkpt>
      <trkpt lat="67.553407978266478" lon="15.730344001203775">
        <ele>212.59</ele>
        <time>2017-06-28T10:47:39Z</time>
      </trkpt>
      <trkpt lat="67.552997013553977" lon="15.726050036028028">
        <ele>209.22</ele>
        <time>2017-06-28T10:47:47Z</time>
      </trkpt>
      <trkpt lat="67.552925013005733" lon="15.725044040009379">
        <ele>206.81999999999999</ele>
        <time>2017-06-28T10:47:49Z</time>
      </trkpt>
      <trkpt lat="67.552915038540959" lon="15.724545987322927">
        <ele>205.38</ele>
        <time>2017-06-28T10:47:50Z</time>
      </trkpt>
      <trkpt lat="67.552914032712579" lon="15.72403896600008">
        <ele>203.46000000000001</ele>
        <time>2017-06-28T10:47:51Z</time>
      </trkpt>
      <trkpt lat="67.552927024662495" lon="15.723524987697601">
        <ele>201.05000000000001</ele>
        <time>2017-06-28T10:47:52Z</time>
      </trkpt>
      <trkpt lat="67.552957031875849" lon="15.723028024658561">
        <ele>199.61000000000001</ele>
        <time>2017-06-28T10:47:53Z</time>
      </trkpt>
      <trkpt lat="67.552997013553977" lon="15.722530977800488">
        <ele>197.69</ele>
        <time>2017-06-28T10:47:54Z</time>
      </trkpt>
      <trkpt lat="67.553045963868499" lon="15.722051030024886">
        <ele>196.72999999999999</ele>
        <time>2017-06-28T10:47:55Z</time>
      </trkpt>
      <trkpt lat="67.55309097468853" lon="15.721602011471987">
        <ele>195.77000000000001</ele>
        <time>2017-06-28T10:47:56Z</time>
      </trkpt>
      <trkpt lat="67.553260959684849" lon="15.70347698405385">
        <ele>166.44999999999999</ele>
        <time>2017-06-28T10:48:33Z</time>
      </trkpt>
      <trkpt lat="67.553347963839769" lon="15.703199040144682">
        <ele>153.47</ele>
        <time>2017-06-28T10:48:34Z</time>
      </trkpt>
      <trkpt lat="67.553686005994678" lon="15.697466991841793">
        <ele>117.42</ele>
        <time>2017-06-28T10:48:44Z</time>
      </trkpt>
      <trkpt lat="67.553674019873142" lon="15.691929990425706">
        <ele>98.670000000000002</ele>
        <time>2017-06-28T10:48:53Z</time>
      </trkpt>
      <trkpt lat="67.553148977458477" lon="15.687316004186869">
        <ele>93.870000000000005</ele>
        <time>2017-06-28T10:49:01Z</time>
      </trkpt>
      <trkpt lat="67.552217999473214" lon="15.683511961251497">
        <ele>84.25</ele>
        <time>2017-06-28T10:49:09Z</time>
      </trkpt>
      <trkpt lat="67.550496021285653" lon="15.676820017397404">
        <ele>59.740000000000002</ele>
        <time>2017-06-28T10:49:22Z</time>
      </trkpt>
      <trkpt lat="67.548783011734486" lon="15.669489959254861">
        <ele>38.590000000000003</ele>
        <time>2017-06-28T10:49:35Z</time>
      </trkpt>
      <trkpt lat="67.547617005184293" lon="15.666919983923435">
        <ele>35.710000000000001</ele>
        <time>2017-06-28T10:49:42Z</time>
      </trkpt>
      <trkpt lat="67.545867031440139" lon="15.662770019844174">
        <ele>30.420000000000002</ele>
        <time>2017-06-28T10:49:52Z</time>
      </trkpt>
      <trkpt lat="67.544037010520697" lon="15.656038010492921">
        <ele>15.039999999999999</ele>
        <time>2017-06-28T10:50:05Z</time>
      </trkpt>
      <trkpt lat="67.542538996785879" lon="15.651882011443377">
        <ele>10.710000000000001</ele>
        <time>2017-06-28T10:50:14Z</time>
      </trkpt>
      <trkpt lat="67.540875021368265" lon="15.648398995399475">
        <ele>15.039999999999999</ele>
        <time>2017-06-28T10:50:23Z</time>
      </trkpt>
      <trkpt lat="67.538853976875544" lon="15.645907977595925">
        <ele>12.15</ele>
        <time>2017-06-28T10:50:33Z</time>
      </trkpt>
      <trkpt lat="67.536897975951433" lon="15.642847996205091">
        <ele>9.27</ele>
        <time>2017-06-28T10:50:43Z</time>
      </trkpt>
      <trkpt lat="67.527235988527536" lon="15.617754003033042">
        <ele>10.710000000000001</ele>
        <time>2017-06-28T10:51:39Z</time>
      </trkpt>
      <trkpt lat="67.526003010571003" lon="15.61199395917356">
        <ele>5.91</ele>
        <time>2017-06-28T10:51:50Z</time>
      </trkpt>
      <trkpt lat="67.525365985929966" lon="15.607615001499653">
        <ele>6.39</ele>
        <time>2017-06-28T10:51:58Z</time>
      </trkpt>
      <trkpt lat="67.524734996259212" lon="15.604959027841687">
        <ele>6.39</ele>
        <time>2017-06-28T10:52:04Z</time>
      </trkpt>
      <trkpt lat="67.523335972800851" lon="15.601410968229175">
        <ele>4.46</ele>
        <time>2017-06-28T10:52:13Z</time>
      </trkpt>
      <trkpt lat="67.522282032296062" lon="15.597883025184274">
        <ele>11.19</ele>
        <time>2017-06-28T10:52:21Z</time>
      </trkpt>
      <trkpt lat="67.522138031199574" lon="15.597573984414339">
        <ele>10.710000000000001</ele>
        <time>2017-06-28T10:52:22Z</time>
      </trkpt>
      <trkpt lat="67.521982965990901" lon="15.597313977777958">
        <ele>10.23</ele>
        <time>2017-06-28T10:52:23Z</time>
      </trkpt>
      <trkpt lat="67.521815998479724" lon="15.597090013325214">
        <ele>9.75</ele>
        <time>2017-06-28T10:52:24Z</time>
      </trkpt>
      <trkpt lat="67.521639978513122" lon="15.596884991973639">
        <ele>9.27</ele>
        <time>2017-06-28T10:52:25Z</time>
      </trkpt>
      <trkpt lat="67.519671991467476" lon="15.594895966351032">
        <ele>1.1</ele>
        <time>2017-06-28T10:52:35Z</time>
      </trkpt>
      <trkpt lat="67.518749982118607" lon="15.592620028182864">
        <ele>4.94</ele>
        <time>2017-06-28T10:52:41Z</time>
      </trkpt>
      <trkpt lat="67.517268983647227" lon="15.588455982506275">
        <ele>9.27</ele>
        <time>2017-06-28T10:52:51Z</time>
      </trkpt>
      <trkpt lat="67.514742007479072" lon="15.582546992227435">
        <ele>8.310000000000001</ele>
        <time>2017-06-28T10:53:06Z</time>
      </trkpt>
      <trkpt lat="67.512907963246107" lon="15.579242007806897">
        <ele>9.27</ele>
        <time>2017-06-28T10:53:16Z</time>
      </trkpt>
      <trkpt lat="67.51136502251029" lon="15.576846040785313">
        <ele>11.67</ele>
        <time>2017-06-28T10:53:24Z</time>
      </trkpt>
      <trkpt lat="67.509052036330104" lon="15.573129002004862">
        <ele>13.119999999999999</ele>
        <time>2017-06-28T10:53:36Z</time>
      </trkpt>
      <trkpt lat="67.507747979834676" lon="15.57134298607707">
        <ele>15.039999999999999</ele>
        <time>2017-06-28T10:53:43Z</time>
      </trkpt>
      <trkpt lat="67.506489017978311" lon="15.571285989135504">
        <ele>13.119999999999999</ele>
        <time>2017-06-28T10:53:49Z</time>
      </trkpt>
      <trkpt lat="67.504896959289908" lon="15.572671014815569">
        <ele>12.630000000000001</ele>
        <time>2017-06-28T10:53:57Z</time>
      </trkpt>
      <trkpt lat="67.481389995664358" lon="15.594361033290625">
        <ele>7.35</ele>
        <time>2017-06-28T10:55:48Z</time>
      </trkpt>
      <trkpt lat="67.479083966463804" lon="15.595489991828799">
        <ele>-0.34</ele>
        <time>2017-06-28T10:56:02Z</time>
      </trkpt>
      <trkpt lat="67.466361997649074" lon="15.581079991534352">
        <ele>39.07</ele>
        <time>2017-06-28T10:57:40Z</time>
      </trkpt>
      <trkpt lat="67.465132037177682" lon="15.580282034352422">
        <ele>48.68</ele>
        <time>2017-06-28T10:57:46Z</time>
      </trkpt>
      <trkpt lat="67.463653972372413" lon="15.578631972894073">
        <ele>52.530000000000001</ele>
        <time>2017-06-28T10:57:53Z</time>
      </trkpt>
      <trkpt lat="67.461338974535465" lon="15.577220963314176">
        <ele>68.870000000000005</ele>
        <time>2017-06-28T10:58:03Z</time>
      </trkpt>
      <trkpt lat="67.458243034780025" lon="15.574989030137658">
        <ele>78</ele>
        <time>2017-06-28T10:58:16Z</time>
      </trkpt>
      <trkpt lat="67.455102000385523" lon="15.572302965447307">
        <ele>73.200000000000003</ele>
        <time>2017-06-28T10:58:29Z</time>
      </trkpt>
      <trkpt lat="67.452680971473455" lon="15.570968985557556">
        <ele>77.519999999999996</ele>
        <time>2017-06-28T10:58:39Z</time>
      </trkpt>
      <trkpt lat="67.450277963653207" lon="15.569135025143623">
        <ele>88.579999999999998</ele>
        <time>2017-06-28T10:58:49Z</time>
      </trkpt>
      <trkpt lat="67.448623962700367" lon="15.566564965993166">
        <ele>97.230000000000004</ele>
        <time>2017-06-28T10:58:57Z</time>
      </trkpt>
      <trkpt lat="67.446971973404288" lon="15.56536803022027">
        <ele>101.56</ele>
        <time>2017-06-28T10:59:04Z</time>
      </trkpt>
      <trkpt lat="67.443534974008799" lon="15.564102027565241">
        <ele>115.98</ele>
        <time>2017-06-28T10:59:18Z</time>
      </trkpt>
      <trkpt lat="67.441357020288706" lon="15.562958987429738">
        <ele>120.3</ele>
        <time>2017-06-28T10:59:28Z</time>
      </trkpt>
      <trkpt lat="67.439809972420335" lon="15.561100970953703">
        <ele>123.19</ele>
        <time>2017-06-28T10:59:36Z</time>
      </trkpt>
      <trkpt lat="67.437817007303238" lon="15.55864398367703">
        <ele>124.63</ele>
        <time>2017-06-28T10:59:45Z</time>
      </trkpt>
      <trkpt lat="67.435434032231569" lon="15.557647040113807">
        <ele>129.91999999999999</ele>
        <time>2017-06-28T10:59:55Z</time>
      </trkpt>
      <trkpt lat="67.433905005455017" lon="15.557638993486762">
        <ele>121.26000000000001</ele>
        <time>2017-06-28T11:00:02Z</time>
      </trkpt>
      <trkpt lat="67.432118989527225" lon="15.55828096345067">
        <ele>113.09</ele>
        <time>2017-06-28T11:00:10Z</time>
      </trkpt>
      <trkpt lat="67.422314006835222" lon="15.564562026411295">
        <ele>100.11</ele>
        <time>2017-06-28T11:00:54Z</time>
      </trkpt>
      <trkpt lat="67.421028977259994" lon="15.56897995993495">
        <ele>85.689999999999998</ele>
        <time>2017-06-28T11:01:04Z</time>
      </trkpt>
      <trkpt lat="67.420094981789589" lon="15.572768999263644">
        <ele>81.849999999999994</ele>
        <time>2017-06-28T11:01:12Z</time>
      </trkpt>
      <trkpt lat="67.418934004381299" lon="15.579262040555477">
        <ele>80.409999999999997</ele>
        <time>2017-06-28T11:01:25Z</time>
      </trkpt>
      <trkpt lat="67.411548960953951" lon="15.588587997481227">
        <ele>79.930000000000007</ele>
        <time>2017-06-28T11:02:12Z</time>
      </trkpt>
      <trkpt lat="67.411173032596707" lon="15.591746969148517">
        <ele>74.640000000000001</ele>
        <time>2017-06-28T11:02:19Z</time>
      </trkpt>
      <trkpt lat="67.411172026768327" lon="15.592794958502054">
        <ele>72.719999999999999</ele>
        <time>2017-06-28T11:02:21Z</time>
      </trkpt>
      <trkpt lat="67.411191975697875" lon="15.593326035887003">
        <ele>70.790000000000006</ele>
        <time>2017-06-28T11:02:22Z</time>
      </trkpt>
      <trkpt lat="67.411245033144951" lon="15.593865998089314">
        <ele>69.349999999999994</ele>
        <time>2017-06-28T11:02:23Z</time>
      </trkpt>
      <trkpt lat="67.411300018429756" lon="15.594399003311992">
        <ele>67.909999999999997</ele>
        <time>2017-06-28T11:02:24Z</time>
      </trkpt>
      <trkpt lat="67.411364978179336" lon="15.594934020191431">
        <ele>65.989999999999995</ele>
        <time>2017-06-28T11:02:25Z</time>
      </trkpt>
      <trkpt lat="67.411792036145926" lon="15.600084029138088">
        <ele>50.130000000000003</ele>
        <time>2017-06-28T11:02:34Z</time>
      </trkpt>
      <trkpt lat="67.411596989259124" lon="15.603540977463126">
        <ele>40.030000000000001</ele>
        <time>2017-06-28T11:02:40Z</time>
      </trkpt>
      <trkpt lat="67.411531023681164" lon="15.605120966210961">
        <ele>36.189999999999998</ele>
        <time>2017-06-28T11:02:43Z</time>
      </trkpt>
      <trkpt lat="67.41154401563108" lon="15.605662018060684">
        <ele>34.259999999999998</ele>
        <time>2017-06-28T11:02:44Z</time>
      </trkpt>
      <trkpt lat="67.411572011187673" lon="15.60621103271842">
        <ele>32.82</ele>
        <time>2017-06-28T11:02:45Z</time>
      </trkpt>
      <trkpt lat="67.411873005330563" lon="15.610193023458123">
        <ele>19.359999999999999</ele>
        <time>2017-06-28T11:02:52Z</time>
      </trkpt>
      <trkpt lat="67.411870993673801" lon="15.610757963731885">
        <ele>17.920000000000002</ele>
        <time>2017-06-28T11:02:53Z</time>
      </trkpt>
      <trkpt lat="67.411850038915873" lon="15.611313013359904">
        <ele>16.48</ele>
        <time>2017-06-28T11:02:54Z</time>
      </trkpt>
      <trkpt lat="67.411807039752603" lon="15.61186496168375">
        <ele>15.039999999999999</ele>
        <time>2017-06-28T11:02:55Z</time>
      </trkpt>
      <trkpt lat="67.411746019497514" lon="15.612411964684725">
        <ele>13.119999999999999</ele>
        <time>2017-06-28T11:02:56Z</time>
      </trkpt>
      <trkpt lat="67.411678964272141" lon="15.612958967685699">
        <ele>11.19</ele>
        <time>2017-06-28T11:02:57Z</time>
      </trkpt>
      <trkpt lat="67.411563964560628" lon="15.614056997001171">
        <ele>8.310000000000001</ele>
        <time>2017-06-28T11:02:59Z</time>
      </trkpt>
      <trkpt lat="67.411534041166306" lon="15.614622021093965">
        <ele>6.87</ele>
        <time>2017-06-28T11:03:00Z</time>
      </trkpt>
      <trkpt lat="67.411521971225739" lon="15.615204982459545">
        <ele>4.94</ele>
        <time>2017-06-28T11:03:01Z</time>
      </trkpt>
      <trkpt lat="67.411611992865801" lon="15.622624978423119">
        <ele>-11.880000000000001</ele>
        <time>2017-06-28T11:03:13Z</time>
      </trkpt>
      <trkpt lat="67.411905024200678" lon="15.628474960103631">
        <ele>-9.48</ele>
        <time>2017-06-28T11:03:23Z</time>
      </trkpt>
      <trkpt lat="67.41300598718226" lon="15.635580969974399">
        <ele>-13.800000000000001</ele>
        <time>2017-06-28T11:03:36Z</time>
      </trkpt>
      <trkpt lat="67.414364023134112" lon="15.644179964438081">
        <ele>-3.23</ele>
        <time>2017-06-28T11:03:52Z</time>
      </trkpt>
      <trkpt lat="67.414712039753795" lon="15.645452002063394">
        <ele>-4.19</ele>
        <time>2017-06-28T11:03:55Z</time>
      </trkpt>
      <trkpt lat="67.414852017536759" lon="15.645833965390921">
        <ele>-4.67</ele>
        <time>2017-06-28T11:03:56Z</time>
      </trkpt>
      <trkpt lat="67.415005993098021" lon="15.646190028637648">
        <ele>-4.67</ele>
        <time>2017-06-28T11:03:57Z</time>
      </trkpt>
      <trkpt lat="67.415185030549765" lon="15.646529998630285">
        <ele>-5.63</ele>
        <time>2017-06-28T11:03:58Z</time>
      </trkpt>
      <trkpt lat="67.415371024981141" lon="15.646831998601556">
        <ele>-6.11</ele>
        <time>2017-06-28T11:03:59Z</time>
      </trkpt>
      <trkpt lat="67.417629025876522" lon="15.650769984349608">
        <ele>-9</ele>
        <time>2017-06-28T11:04:11Z</time>
      </trkpt>
      <trkpt lat="67.417772021144629" lon="15.651196958497167">
        <ele>-8.51</ele>
        <time>2017-06-28T11:04:12Z</time>
      </trkpt>
      <trkpt lat="67.417901018634439" lon="15.651662992313504">
        <ele>-8.029999999999999</ele>
        <time>2017-06-28T11:04:13Z</time>
      </trkpt>
      <trkpt lat="67.418014006689191" lon="15.652144029736519">
        <ele>-7.07</ele>
        <time>2017-06-28T11:04:14Z</time>
      </trkpt>
      <trkpt lat="67.418114002794027" lon="15.652646021917462">
        <ele>-6.59</ele>
        <time>2017-06-28T11:04:15Z</time>
      </trkpt>
      <trkpt lat="67.418202012777328" lon="15.653168968856335">
        <ele>-6.11</ele>
        <time>2017-06-28T11:04:16Z</time>
      </trkpt>
      <trkpt lat="67.418279964476824" lon="15.653721000999212">
        <ele>-5.63</ele>
        <time>2017-06-28T11:04:17Z</time>
      </trkpt>
      <trkpt lat="67.419199040159583" lon="15.660287970677018">
        <ele>-2.75</ele>
        <time>2017-06-28T11:04:29Z</time>
      </trkpt>
      <trkpt lat="67.419938994571567" lon="15.662635993212461">
        <ele>1.1</ele>
        <time>2017-06-28T11:04:35Z</time>
      </trkpt>
      <trkpt lat="67.420832002535462" lon="15.664970017969608">
        <ele>6.39</ele>
        <time>2017-06-28T11:04:42Z</time>
      </trkpt>
      <trkpt lat="67.421587966382504" lon="15.669014034792781">
        <ele>7.83</ele>
        <time>2017-06-28T11:04:52Z</time>
      </trkpt>
      <trkpt lat="67.42190002463758" lon="15.671120993793011">
        <ele>6.39</ele>
        <time>2017-06-28T11:04:58Z</time>
      </trkpt>
      <trkpt lat="67.415263988077641" lon="15.66862897016108">
        <ele>14.56</ele>
        <time>2017-06-28T11:05:54Z</time>
      </trkpt>
      <trkpt lat="67.415201961994171" lon="15.668110968545079">
        <ele>15.52</ele>
        <time>2017-06-28T11:05:55Z</time>
      </trkpt>
      <trkpt lat="67.415162986144423" lon="15.667634038254619">
        <ele>17.440000000000001</ele>
        <time>2017-06-28T11:05:56Z</time>
      </trkpt>
      <trkpt lat="67.415141025558114" lon="15.667139003053308">
        <ele>19.359999999999999</ele>
        <time>2017-06-28T11:05:57Z</time>
      </trkpt>
      <trkpt lat="67.415129961445928" lon="15.666653020307422">
        <ele>20.809999999999999</ele>
        <time>2017-06-28T11:05:58Z</time>
      </trkpt>
      <trkpt lat="67.415129961445928" lon="15.666159996762872">
        <ele>23.210000000000001</ele>
        <time>2017-06-28T11:05:59Z</time>
      </trkpt>
      <trkpt lat="67.414926029741764" lon="15.66301804035902">
        <ele>33.780000000000001</ele>
        <time>2017-06-28T11:06:06Z</time>
      </trkpt>
      <trkpt lat="67.414087001234293" lon="15.659382976591587">
        <ele>20.809999999999999</ele>
        <time>2017-06-28T11:06:15Z</time>
      </trkpt>
      <trkpt lat="67.412882018834352" lon="15.656363982707262">
        <ele>15.52</ele>
        <time>2017-06-28T11:06:24Z</time>
      </trkpt>
      <trkpt lat="67.4115239828825" lon="15.654494985938072">
        <ele>13.119999999999999</ele>
        <time>2017-06-28T11:06:33Z</time>
      </trkpt>
      <trkpt lat="67.409989004954696" lon="15.653062015771866">
        <ele>10.710000000000001</ele>
        <time>2017-06-28T11:06:42Z</time>
      </trkpt>
      <trkpt lat="67.406515963375568" lon="15.651501975953579">
        <ele>3.02</ele>
        <time>2017-06-28T11:07:02Z</time>
      </trkpt>
      <trkpt lat="67.405275022611022" lon="15.652438988909125">
        <ele>-2.75</ele>
        <time>2017-06-28T11:07:09Z</time>
      </trkpt>
      <trkpt lat="67.404266009107232" lon="15.654777958989143">
        <ele>-7.07</ele>
        <time>2017-06-28T11:07:16Z</time>
      </trkpt>
      <trkpt lat="67.403770973905921" lon="15.657886974513531">
        <ele>-5.15</ele>
        <time>2017-06-28T11:07:23Z</time>
      </trkpt>
      <trkpt lat="67.403718000277877" lon="15.660812007263303">
        <ele>-6.11</ele>
        <time>2017-06-28T11:07:28Z</time>
      </trkpt>
      <trkpt lat="67.403690004721284" lon="15.664811013266444">
        <ele>-5.63</ele>
        <time>2017-06-28T11:07:35Z</time>
      </trkpt>
      <trkpt lat="67.403193041682243" lon="15.668167965486646">
        <ele>-5.63</ele>
        <time>2017-06-28T11:07:42Z</time>
      </trkpt>
      <trkpt lat="67.402199031785131" lon="15.670703994110227">
        <ele>-5.15</ele>
        <time>2017-06-28T11:07:49Z</time>
      </trkpt>
      <trkpt lat="67.400876032188535" lon="15.672145010903478">
        <ele>-5.15</ele>
        <time>2017-06-28T11:07:56Z</time>
      </trkpt>
      <trkpt lat="67.397467028349638" lon="15.674894023686647">
        <ele>-8.51</ele>
        <time>2017-06-28T11:08:12Z</time>
      </trkpt>
      <trkpt lat="67.396101029589772" lon="15.675279004499316">
        <ele>-3.71</ele>
        <time>2017-06-28T11:08:18Z</time>
      </trkpt>
      <trkpt lat="67.395653016865253" lon="15.675021009519696">
        <ele>-1.3</ele>
        <time>2017-06-28T11:08:20Z</time>
      </trkpt>
      <trkpt lat="67.395446989685297" lon="15.674830991774797">
        <ele>-0.34</ele>
        <time>2017-06-28T11:08:21Z</time>
      </trkpt>
      <trkpt lat="67.395244985818863" lon="15.674606021493673">
        <ele>0.14</ele>
        <time>2017-06-28T11:08:22Z</time>
      </trkpt>
      <trkpt lat="67.393664997071028" lon="15.672062030062079">
        <ele>3.98</ele>
        <time>2017-06-28T11:08:30Z</time>
      </trkpt>
      <trkpt lat="67.393504986539483" lon="15.671607982367277">
        <ele>4.94</ele>
        <time>2017-06-28T11:08:31Z</time>
      </trkpt>
      <trkpt lat="67.393365008756518" lon="15.671134991571307">
        <ele>5.42</ele>
        <time>2017-06-28T11:08:32Z</time>
      </trkpt>
      <trkpt lat="67.393142972141504" lon="15.670080967247486">
        <ele>7.83</ele>
        <time>2017-06-28T11:08:34Z</time>
      </trkpt>
      <trkpt lat="67.392564034089446" lon="15.666125966235995">
        <ele>21.77</ele>
        <time>2017-06-28T11:08:41Z</time>
      </trkpt>
      <trkpt lat="67.391512021422386" lon="15.662784017622471">
        <ele>32.340000000000003</ele>
        <time>2017-06-28T11:08:48Z</time>
      </trkpt>
      <trkpt lat="67.390799978747964" lon="15.659998962655663">
        <ele>40.030000000000001</ele>
        <time>2017-06-28T11:08:54Z</time>
      </trkpt>
      <trkpt lat="67.390514994040132" lon="15.658576972782612">
        <ele>46.280000000000001</ele>
        <time>2017-06-28T11:08:57Z</time>
      </trkpt>
      <trkpt lat="67.390387002378702" lon="15.658171959221363">
        <ele>47.719999999999999</ele>
        <time>2017-06-28T11:08:58Z</time>
      </trkpt>
      <trkpt lat="67.390249036252499" lon="15.6577970366925">
        <ele>49.159999999999997</ele>
        <time>2017-06-28T11:08:59Z</time>
      </trkpt>
      <trkpt lat="67.390105035156012" lon="15.657437033951283">
        <ele>50.609999999999999</ele>
        <time>2017-06-28T11:09:00Z</time>
      </trkpt>
      <trkpt lat="67.389957010746002" lon="15.657093962654471">
        <ele>52.530000000000001</ele>
        <time>2017-06-28T11:09:01Z</time>
      </trkpt>
      <trkpt lat="67.387844016775489" lon="15.652965037152171">
        <ele>57.82</ele>
        <time>2017-06-28T11:09:13Z</time>
      </trkpt>
      <trkpt lat="67.385800005868077" lon="15.650588013231754">
        <ele>64.069999999999993</ele>
        <time>2017-06-28T11:09:22Z</time>
      </trkpt>
      <trkpt lat="67.383836964145303" lon="15.648563029244542">
        <ele>65.989999999999995</ele>
        <time>2017-06-28T11:09:31Z</time>
      </trkpt>
      <trkpt lat="67.382761985063553" lon="15.648199003189802">
        <ele>65.510000000000005</ele>
        <time>2017-06-28T11:09:37Z</time>
      </trkpt>
      <trkpt lat="67.381124999374151" lon="15.647575976327062">
        <ele>52.530000000000001</ele>
        <time>2017-06-28T11:09:44Z</time>
      </trkpt>
      <trkpt lat="67.376794992014766" lon="15.644337963312864">
        <ele>46.280000000000001</ele>
        <time>2017-06-28T11:10:01Z</time>
      </trkpt>
      <trkpt lat="67.373027997091413" lon="15.641571013256907">
        <ele>39.07</ele>
        <time>2017-06-28T11:10:16Z</time>
      </trkpt>
      <trkpt lat="67.371611958369613" lon="15.640569962561131">
        <ele>34.259999999999998</ele>
        <time>2017-06-28T11:10:23Z</time>
      </trkpt>
      <trkpt lat="67.371449014171958" lon="15.640292018651962">
        <ele>33.780000000000001</ele>
        <time>2017-06-28T11:10:24Z</time>
      </trkpt>
      <trkpt lat="67.370503032580018" lon="15.637870989739895">
        <ele>26.09</ele>
        <time>2017-06-28T11:10:30Z</time>
      </trkpt>
      <trkpt lat="67.368870992213488" lon="15.633349036797881">
        <ele>16</ele>
        <time>2017-06-28T11:10:41Z</time>
      </trkpt>
      <trkpt lat="67.368535967543721" lon="15.632279003039002">
        <ele>18.879999999999999</ele>
        <time>2017-06-28T11:10:44Z</time>
      </trkpt>
      <trkpt lat="67.367797018960118" lon="15.6298459880054">
        <ele>24.170000000000002</ele>
        <time>2017-06-28T11:10:50Z</time>
      </trkpt>
      <trkpt lat="67.366648027673364" lon="15.628134990110993">
        <ele>22.73</ele>
        <time>2017-06-28T11:10:56Z</time>
      </trkpt>
      <trkpt lat="67.365549998357892" lon="15.625815968960524">
        <ele>25.609999999999999</ele>
        <time>2017-06-28T11:11:02Z</time>
      </trkpt>
      <trkpt lat="67.363090999424458" lon="15.619678990915418">
        <ele>30.420000000000002</ele>
        <time>2017-06-28T11:11:17Z</time>
      </trkpt>
      <trkpt lat="67.362907016649842" lon="15.619387971237302">
        <ele>29.460000000000001</ele>
        <time>2017-06-28T11:11:18Z</time>
      </trkpt>
      <trkpt lat="67.361418977379799" lon="15.617445968091488">
        <ele>25.609999999999999</ele>
        <time>2017-06-28T11:11:25Z</time>
      </trkpt>
      <trkpt lat="67.358769960701466" lon="15.612977994605899">
        <ele>24.170000000000002</ele>
        <time>2017-06-28T11:11:38Z</time>
      </trkpt>
      <trkpt lat="67.356126978993416" lon="15.606601964682341">
        <ele>28.98</ele>
        <time>2017-06-28T11:11:54Z</time>
      </trkpt>
      <trkpt lat="67.355493977665901" lon="15.603359006345272">
        <ele>31.379999999999999</ele>
        <time>2017-06-28T11:12:01Z</time>
      </trkpt>
      <trkpt lat="67.354596024379134" lon="15.599861992523074">
        <ele>30.899999999999999</ele>
        <time>2017-06-28T11:12:09Z</time>
      </trkpt>
      <trkpt lat="67.353201024234295" lon="15.595778999850154">
        <ele>31.859999999999999</ele>
        <time>2017-06-28T11:12:20Z</time>
      </trkpt>
      <trkpt lat="67.351493965834379" lon="15.592579962685704">
        <ele>32.340000000000003</ele>
        <time>2017-06-28T11:12:32Z</time>
      </trkpt>
      <trkpt lat="67.350523006170988" lon="15.589872021228075">
        <ele>29.940000000000001</ele>
        <time>2017-06-28T11:12:40Z</time>
      </trkpt>
      <trkpt lat="67.349958987906575" lon="15.586539041250944">
        <ele>25.129999999999999</ele>
        <time>2017-06-28T11:12:48Z</time>
      </trkpt>
      <trkpt lat="67.349708033725619" lon="15.582338031381369">
        <ele>26.57</ele>
        <time>2017-06-28T11:12:56Z</time>
      </trkpt>
      <trkpt lat="67.349204029887915" lon="15.57916103862226">
        <ele>28.02</ele>
        <time>2017-06-28T11:13:03Z</time>
      </trkpt>
      <trkpt lat="67.348280008882284" lon="15.576590979471803">
        <ele>25.609999999999999</ele>
        <time>2017-06-28T11:13:10Z</time>
      </trkpt>
      <trkpt lat="67.346878973767161" lon="15.574056962504983">
        <ele>29.460000000000001</ele>
        <time>2017-06-28T11:13:18Z</time>
      </trkpt>
      <trkpt lat="67.345329998061061" lon="15.571318008005619">
        <ele>34.740000000000002</ele>
        <time>2017-06-28T11:13:26Z</time>
      </trkpt>
      <trkpt lat="67.343358993530273" lon="15.567877991124988">
        <ele>36.670000000000002</ele>
        <time>2017-06-28T11:13:35Z</time>
      </trkpt>
      <trkpt lat="67.34180498868227" lon="15.564700998365879">
        <ele>42.439999999999998</ele>
        <time>2017-06-28T11:13:43Z</time>
      </trkpt>
      <trkpt lat="67.341060005128384" lon="15.561148999258876">
        <ele>53.009999999999998</ele>
        <time>2017-06-28T11:13:50Z</time>
      </trkpt>
      <trkpt lat="67.339383037760854" lon="15.553131038323045">
        <ele>54.93</ele>
        <time>2017-06-28T11:14:05Z</time>
      </trkpt>
      <trkpt lat="67.338730003684759" lon="15.549144018441439">
        <ele>47.240000000000002</ele>
        <time>2017-06-28T11:14:12Z</time>
      </trkpt>
      <trkpt lat="67.338648028671741" lon="15.545028001070023">
        <ele>45.32</ele>
        <time>2017-06-28T11:14:19Z</time>
      </trkpt>
      <trkpt lat="67.338356003165245" lon="15.542320981621742">
        <ele>50.130000000000003</ele>
        <time>2017-06-28T11:14:24Z</time>
      </trkpt>
      <trkpt lat="67.338255001232028" lon="15.541839022189379">
        <ele>51.090000000000003</ele>
        <time>2017-06-28T11:14:25Z</time>
      </trkpt>
      <trkpt lat="67.33813002705574" lon="15.541385980322957">
        <ele>51.57</ele>
        <time>2017-06-28T11:14:26Z</time>
      </trkpt>
      <trkpt lat="67.33800102956593" lon="15.540976021438837">
        <ele>53.009999999999998</ele>
        <time>2017-06-28T11:14:27Z</time>
      </trkpt>
      <trkpt lat="67.337857028469443" lon="15.540605960413814">
        <ele>53.969999999999999</ele>
        <time>2017-06-28T11:14:28Z</time>
      </trkpt>
      <trkpt lat="67.33770196326077" lon="15.540262972936034">
        <ele>54.93</ele>
        <time>2017-06-28T11:14:29Z</time>
      </trkpt>
      <trkpt lat="67.337536001577973" lon="15.53993096575141">
        <ele>55.890000000000001</ele>
        <time>2017-06-28T11:14:30Z</time>
      </trkpt>
      <trkpt lat="67.337361993268132" lon="15.53960801102221">
        <ele>56.859999999999999</ele>
        <time>2017-06-28T11:14:31Z</time>
      </trkpt>
      <trkpt lat="67.336232028901577" lon="15.536803007125854">
        <ele>68.390000000000001</ele>
        <time>2017-06-28T11:14:38Z</time>
      </trkpt>
      <trkpt lat="67.335490984842181" lon="15.533253019675612">
        <ele>80.890000000000001</ele>
        <time>2017-06-28T11:14:45Z</time>
      </trkpt>
      <trkpt lat="67.335437005385756" lon="15.532698975875974">
        <ele>81.849999999999994</ele>
        <time>2017-06-28T11:14:46Z</time>
      </trkpt>
      <trkpt lat="67.335067028179765" lon="15.526322023943067">
        <ele>82.329999999999998</ele>
        <time>2017-06-28T11:14:57Z</time>
      </trkpt>
      <trkpt lat="67.334866030141711" lon="15.524831973016262">
        <ele>80.409999999999997</ele>
        <time>2017-06-28T11:15:00Z</time>
      </trkpt>
      <trkpt lat="67.334762010723352" lon="15.524383038282394">
        <ele>79.930000000000007</ele>
        <time>2017-06-28T11:15:01Z</time>
      </trkpt>
      <trkpt lat="67.334637958556414" lon="15.523950029164553">
        <ele>78.969999999999999</ele>
        <time>2017-06-28T11:15:02Z</time>
      </trkpt>
      <trkpt lat="67.334506027400494" lon="15.52353797480464">
        <ele>78.480000000000004</ele>
        <time>2017-06-28T11:15:03Z</time>
      </trkpt>
      <trkpt lat="67.334360014647245" lon="15.523144025355577">
        <ele>78</ele>
        <time>2017-06-28T11:15:04Z</time>
      </trkpt>
      <trkpt lat="67.334203021600842" lon="15.522770024836063">
        <ele>77.040000000000006</ele>
        <time>2017-06-28T11:15:05Z</time>
      </trkpt>
      <trkpt lat="67.334033036604524" lon="15.522421002388">
        <ele>76.560000000000002</ele>
        <time>2017-06-28T11:15:06Z</time>
      </trkpt>
      <trkpt lat="67.333849975839257" lon="15.52209896966815">
        <ele>75.120000000000005</ele>
        <time>2017-06-28T11:15:07Z</time>
      </trkpt>
      <trkpt lat="67.333664987236261" lon="15.521779032424092">
        <ele>75.120000000000005</ele>
        <time>2017-06-28T11:15:08Z</time>
      </trkpt>
      <trkpt lat="67.332049962133169" lon="15.518266009166837">
        <ele>71.269999999999996</ele>
        <time>2017-06-28T11:15:17Z</time>
      </trkpt>
      <trkpt lat="67.330642975866795" lon="15.513927033171058">
        <ele>70.310000000000002</ele>
        <time>2017-06-28T11:15:26Z</time>
      </trkpt>
      <trkpt lat="67.328682029619813" lon="15.51028199493885">
        <ele>64.549999999999997</ele>
        <time>2017-06-28T11:15:36Z</time>
      </trkpt>
      <trkpt lat="67.326350016519427" lon="15.505385035648942">
        <ele>69.349999999999994</ele>
        <time>2017-06-28T11:15:48Z</time>
      </trkpt>
      <trkpt lat="67.32504403218627" lon="15.501954993233085">
        <ele>65.989999999999995</ele>
        <time>2017-06-28T11:15:56Z</time>
      </trkpt>
      <trkpt lat="67.322717970237136" lon="15.497809974476695">
        <ele>41.950000000000003</ele>
        <time>2017-06-28T11:16:07Z</time>
      </trkpt>
      <trkpt lat="67.321008983999491" lon="15.494028981775045">
        <ele>37.630000000000003</ele>
        <time>2017-06-28T11:16:16Z</time>
      </trkpt>
      <trkpt lat="67.320149000734091" lon="15.490132989361882">
        <ele>38.109999999999999</ele>
        <time>2017-06-28T11:16:23Z</time>
      </trkpt>
      <trkpt lat="67.319623958319426" lon="15.484562963247299">
        <ele>37.630000000000003</ele>
        <time>2017-06-28T11:16:32Z</time>
      </trkpt>
      <trkpt lat="67.318945024162531" lon="15.478204032406211">
        <ele>38.590000000000003</ele>
        <time>2017-06-28T11:16:43Z</time>
      </trkpt>
      <trkpt lat="67.318045981228352" lon="15.475083030760288">
        <ele>39.07</ele>
        <time>2017-06-28T11:16:50Z</time>
      </trkpt>
      <trkpt lat="67.316702026873827" lon="15.472626965492964">
        <ele>39.07</ele>
        <time>2017-06-28T11:16:57Z</time>
      </trkpt>
      <trkpt lat="67.312255008146167" lon="15.465457001700997">
        <ele>39.549999999999997</ele>
        <time>2017-06-28T11:17:18Z</time>
      </trkpt>
      <trkpt lat="67.307424014434218" lon="15.458235992118716">
        <ele>40.030000000000001</ele>
        <time>2017-06-28T11:17:40Z</time>
      </trkpt>
      <trkpt lat="67.304925033822656" lon="15.453841025009751">
        <ele>40.030000000000001</ele>
        <time>2017-06-28T11:17:52Z</time>
      </trkpt>
      <trkpt lat="67.300698040053248" lon="15.445508994162083">
        <ele>41.950000000000003</ele>
        <time>2017-06-28T11:18:13Z</time>
      </trkpt>
      <trkpt lat="67.297691032290459" lon="15.44045303016901">
        <ele>46.280000000000001</ele>
        <time>2017-06-28T11:18:27Z</time>
      </trkpt>
      <trkpt lat="67.294528037309647" lon="15.434946035966277">
        <ele>48.68</ele>
        <time>2017-06-28T11:18:42Z</time>
      </trkpt>
      <trkpt lat="67.290550991892815" lon="15.427431995049119">
        <ele>49.649999999999999</ele>
        <time>2017-06-28T11:19:02Z</time>
      </trkpt>
      <trkpt lat="67.287515988573432" lon="15.423120008781552">
        <ele>49.649999999999999</ele>
        <time>2017-06-28T11:19:16Z</time>
      </trkpt>
      <trkpt lat="67.284607971087098" lon="15.418541980907321">
        <ele>46.759999999999998</ele>
        <time>2017-06-28T11:19:30Z</time>
      </trkpt>
      <trkpt lat="67.281080028042197" lon="15.411725984886289">
        <ele>40.030000000000001</ele>
        <time>2017-06-28T11:19:48Z</time>
      </trkpt>
      <trkpt lat="67.277973024174571" lon="15.406708996742964">
        <ele>37.149999999999999</ele>
        <time>2017-06-28T11:20:03Z</time>
      </trkpt>
      <trkpt lat="67.276379959657788" lon="15.403372999280691">
        <ele>34.740000000000002</ele>
        <time>2017-06-28T11:20:12Z</time>
      </trkpt>
      <trkpt lat="67.274832995608449" lon="15.400719037279487">
        <ele>34.259999999999998</ele>
        <time>2017-06-28T11:20:21Z</time>
      </trkpt>
      <trkpt lat="67.273715017363429" lon="15.399004016071558">
        <ele>35.229999999999997</ele>
        <time>2017-06-28T11:20:29Z</time>
      </trkpt>
      <trkpt lat="67.27240702137351" lon="15.397106017917395">
        <ele>33.299999999999997</ele>
        <time>2017-06-28T11:20:41Z</time>
      </trkpt>
      <trkpt lat="67.27189002558589" lon="15.396079989150167">
        <ele>34.259999999999998</ele>
        <time>2017-06-28T11:20:48Z</time>
      </trkpt>
      <trkpt lat="67.271739989519119" lon="15.395496021956205">
        <ele>34.259999999999998</ele>
        <time>2017-06-28T11:20:57Z</time>
      </trkpt>
      <trkpt lat="67.271341010928154" lon="15.394079983234406">
        <ele>33.780000000000001</ele>
        <time>2017-06-28T11:21:04Z</time>
      </trkpt>
      <trkpt lat="67.270578006282449" lon="15.39108001627028">
        <ele>31.379999999999999</ele>
        <time>2017-06-28T11:21:13Z</time>
      </trkpt>
      <trkpt lat="67.269349973648787" lon="15.386377014219761">
        <ele>27.050000000000001</ele>
        <time>2017-06-28T11:21:28Z</time>
      </trkpt>
      <trkpt lat="67.269177976995707" lon="15.3857740201056">
        <ele>27.530000000000001</ele>
        <time>2017-06-28T11:21:30Z</time>
      </trkpt>
      <trkpt lat="67.269071023911238" lon="15.385502027347684">
        <ele>27.530000000000001</ele>
        <time>2017-06-28T11:21:31Z</time>
      </trkpt>
      <trkpt lat="67.268957030028105" lon="15.385249983519316">
        <ele>28.02</ele>
        <time>2017-06-28T11:21:32Z</time>
      </trkpt>
      <trkpt lat="67.268838007003069" lon="15.385033981874585">
        <ele>28.5</ele>
        <time>2017-06-28T11:21:33Z</time>
      </trkpt>
      <trkpt lat="67.268714038655162" lon="15.384840024635196">
        <ele>28.98</ele>
        <time>2017-06-28T11:21:34Z</time>
      </trkpt>
      <trkpt lat="67.26858101785183" lon="15.384684959426522">
        <ele>28.98</ele>
        <time>2017-06-28T11:21:35Z</time>
      </trkpt>
      <trkpt lat="67.268443973734975" lon="15.384560991078615">
        <ele>29.460000000000001</ele>
        <time>2017-06-28T11:21:36Z</time>
      </trkpt>
      <trkpt lat="67.26830399595201" lon="15.384459989145398">
        <ele>30.420000000000002</ele>
        <time>2017-06-28T11:21:37Z</time>
      </trkpt>
      <trkpt lat="67.268159994855523" lon="15.384394023567438">
        <ele>30.899999999999999</ele>
        <time>2017-06-28T11:21:38Z</time>
      </trkpt>
      <trkpt lat="67.268009958788753" lon="15.38435404188931">
        <ele>30.899999999999999</ele>
        <time>2017-06-28T11:21:39Z</time>
      </trkpt>
      <trkpt lat="67.267859000712633" lon="15.384342977777123">
        <ele>30.899999999999999</ele>
        <time>2017-06-28T11:21:40Z</time>
      </trkpt>
      <trkpt lat="67.267703013494611" lon="15.384368961676955">
        <ele>30.899999999999999</ele>
        <time>2017-06-28T11:21:41Z</time>
      </trkpt>
      <trkpt lat="67.267546020448208" lon="15.384414978325367">
        <ele>30.899999999999999</ele>
        <time>2017-06-28T11:21:42Z</time>
      </trkpt>
      <trkpt lat="67.267391039058566" lon="15.384487984701991">
        <ele>30.420000000000002</ele>
        <time>2017-06-28T11:21:43Z</time>
      </trkpt>
      <trkpt lat="67.267236979678273" lon="15.38459200412035">
        <ele>30.420000000000002</ele>
        <time>2017-06-28T11:21:44Z</time>
      </trkpt>
      <trkpt lat="67.265614997595549" lon="15.385793969035149">
        <ele>27.530000000000001</ele>
        <time>2017-06-28T11:21:56Z</time>
      </trkpt>
      <trkpt lat="67.264375984668732" lon="15.387112023308873">
        <ele>27.530000000000001</ele>
        <time>2017-06-28T11:22:08Z</time>
      </trkpt>
      <trkpt lat="67.263046028092504" lon="15.389561969786882">
        <ele>18.399999999999999</ele>
        <time>2017-06-28T11:22:22Z</time>
      </trkpt>
      <trkpt lat="67.261930983513594" lon="15.39148704148829">
        <ele>12.15</ele>
        <time>2017-06-28T11:22:34Z</time>
      </trkpt>
      <trkpt lat="67.261821012943983" lon="15.391587037593126">
        <ele>11.67</ele>
        <time>2017-06-28T11:22:35Z</time>
      </trkpt>
      <trkpt lat="67.261702995747328" lon="15.391676975414157">
        <ele>11.19</ele>
        <time>2017-06-28T11:22:36Z</time>
      </trkpt>
      <trkpt lat="67.261581039056182" lon="15.391732966527343">
        <ele>10.23</ele>
        <time>2017-06-28T11:22:37Z</time>
      </trkpt>
      <trkpt lat="67.261464027687907" lon="15.391775965690613">
        <ele>9.75</ele>
        <time>2017-06-28T11:22:38Z</time>
      </trkpt>
      <trkpt lat="67.261337963864207" lon="15.39178904145956">
        <ele>9.27</ele>
        <time>2017-06-28T11:22:39Z</time>
      </trkpt>
      <trkpt lat="67.261210978031158" lon="15.391785018146038">
        <ele>8.310000000000001</ele>
        <time>2017-06-28T11:22:40Z</time>
      </trkpt>
      <trkpt lat="67.259470978751779" lon="15.391520988196135">
        <ele>-1.3</ele>
        <time>2017-06-28T11:22:56Z</time>
      </trkpt>
      <trkpt lat="67.259144000709057" lon="15.391614027321339">
        <ele>-1.3</ele>
        <time>2017-06-28T11:23:03Z</time>
      </trkpt>
      <trkpt lat="67.258955994620919" lon="15.391658032312989">
        <ele>-1.79</ele>
        <time>2017-06-28T11:23:15Z</time>
      </trkpt>
      <trkpt lat="67.258778968825936" lon="15.391654008999467">
        <ele>-1.79</ele>
        <time>2017-06-28T11:23:25Z</time>
      </trkpt>
      <trkpt lat="67.258740998804569" lon="15.391685022041202">
        <ele>-1.79</ele>
        <time>2017-06-28T11:23:26Z</time>
      </trkpt>
      <trkpt lat="67.258710991591215" lon="15.391750987619162">
        <ele>-2.27</ele>
        <time>2017-06-28T11:23:27Z</time>
      </trkpt>
      <trkpt lat="67.25870001129806" lon="15.391846960410476">
        <ele>-2.27</ele>
        <time>2017-06-28T11:23:28Z</time>
      </trkpt>
      <trkpt lat="67.258717026561499" lon="15.391971012577415">
        <ele>-1.79</ele>
        <time>2017-06-28T11:23:29Z</time>
      </trkpt>
      <trkpt lat="67.258758014068007" lon="15.39209296926856">
        <ele>-1.79</ele>
        <time>2017-06-28T11:23:30Z</time>
      </trkpt>
      <trkpt lat="67.258801013231277" lon="15.39226396009326">
        <ele>-1.3</ele>
        <time>2017-06-28T11:23:31Z</time>
      </trkpt>
      <trkpt lat="67.258839989081025" lon="15.39245598949492">
        <ele>-0.82</ele>
        <time>2017-06-28T11:23:32Z</time>
      </trkpt>
      <trkpt lat="67.25887100212276" lon="15.392666961997747">
        <ele>-0.82</ele>
        <time>2017-06-28T11:23:33Z</time>
      </trkpt>
      <trkpt lat="67.258897991850972" lon="15.39288598112762">
        <ele>-0.34</ele>
        <time>2017-06-28T11:23:34Z</time>
      </trkpt>
      <trkpt lat="67.258920036256313" lon="15.393105000257492">
        <ele>0.62</ele>
        <time>2017-06-28T11:23:35Z</time>
      </trkpt>
      <trkpt lat="67.259032018482685" lon="15.394492959603667">
        <ele>5.42</ele>
        <time>2017-06-28T11:23:45Z</time>
      </trkpt>
      <trkpt lat="67.25906697101891" lon="15.394924962893128">
        <ele>6.39</ele>
        <time>2017-06-28T11:23:54Z</time>
      </trkpt>
      <trkpt lat="67.25912899710238" lon="15.3960229922086">
        <ele>6.39</ele>
        <time>2017-06-28T11:23:59Z</time>
      </trkpt>
      <trkpt lat="67.259309962391853" lon="15.3993109613657">
        <ele>5.91</ele>
        <time>2017-06-28T11:24:13Z</time>
      </trkpt>
      <trkpt lat="67.259271992370486" lon="15.400543017312884">
        <ele>3.98</ele>
        <time>2017-06-28T11:24:20Z</time>
      </trkpt>
      <trkpt lat="67.25925799459219" lon="15.40066204033792">
        <ele>3.5</ele>
        <time>2017-06-28T11:24:21Z</time>
      </trkpt>
      <trkpt lat="67.259234022349119" lon="15.400799000635743">
        <ele>3.5</ele>
        <time>2017-06-28T11:24:22Z</time>
      </trkpt>
      <trkpt lat="67.259197980165482" lon="15.401131007820368">
        <ele>3.5</ele>
        <time>2017-06-28T11:24:24Z</time>
      </trkpt>
      <trkpt lat="67.259199991822243" lon="15.401339968666434">
        <ele>3.5</ele>
        <time>2017-06-28T11:24:25Z</time>
      </trkpt>
      <trkpt lat="67.25919496268034" lon="15.403673993423581">
        <ele>4.46</ele>
        <time>2017-06-28T11:24:33Z</time>
      </trkpt>
      <trkpt lat="67.259611962363124" lon="15.406069960445166">
        <ele>4.46</ele>
        <time>2017-06-28T11:24:41Z</time>
      </trkpt>
      <trkpt lat="67.260019993409514" lon="15.40784097276628">
        <ele>4.46</ele>
        <time>2017-06-28T11:24:48Z</time>
      </trkpt>
      <trkpt lat="67.260834965854883" lon="15.411775019019842">
        <ele>3.02</ele>
        <time>2017-06-28T11:25:02Z</time>
      </trkpt>
      <trkpt lat="67.261380963027477" lon="15.415072040632367">
        <ele>-2.27</ele>
        <time>2017-06-28T11:25:15Z</time>
      </trkpt>
      <trkpt lat="67.261834004893899" lon="15.418115006759763">
        <ele>-3.23</ele>
        <time>2017-06-28T11:25:25Z</time>
      </trkpt>
      <trkpt lat="67.262167017906904" lon="15.420610969886184">
        <ele>-3.23</ele>
        <time>2017-06-28T11:25:31Z</time>
      </trkpt>
      <trkpt lat="67.262233989313245" lon="15.422660009935498">
        <ele>-3.23</ele>
        <time>2017-06-28T11:25:38Z</time>
      </trkpt>
      <trkpt lat="67.262206999585032" lon="15.422968966886401">
        <ele>-2.75</ele>
        <time>2017-06-28T11:25:39Z</time>
      </trkpt>
      <trkpt lat="67.262171041220427" lon="15.423270966857672">
        <ele>-2.75</ele>
        <time>2017-06-28T11:25:40Z</time>
      </trkpt>
      <trkpt lat="67.262127036228776" lon="15.423567015677691">
        <ele>-2.27</ele>
        <time>2017-06-28T11:25:41Z</time>
      </trkpt>
      <trkpt lat="67.262075990438461" lon="15.423854012042284">
        <ele>-1.79</ele>
        <time>2017-06-28T11:25:42Z</time>
      </trkpt>
      <trkpt lat="67.262015976011753" lon="15.424138996750116">
        <ele>-1.3</ele>
        <time>2017-06-28T11:25:43Z</time>
      </trkpt>
      <trkpt lat="67.261947998777032" lon="15.424411995336413">
        <ele>-0.82</ele>
        <time>2017-06-28T11:25:44Z</time>
      </trkpt>
      <trkpt lat="67.261875998228788" lon="15.424682982265949">
        <ele>-0.82</ele>
        <time>2017-06-28T11:25:45Z</time>
      </trkpt>
      <trkpt lat="67.261318014934659" lon="15.427479017525911">
        <ele>-0.34</ele>
        <time>2017-06-28T11:25:55Z</time>
      </trkpt>
      <trkpt lat="67.261357996612787" lon="15.429905997589231">
        <ele>-2.27</ele>
        <time>2017-06-28T11:26:03Z</time>
      </trkpt>
      <trkpt lat="67.261568969115615" lon="15.431372998282313">
        <ele>-4.19</ele>
        <time>2017-06-28T11:26:09Z</time>
      </trkpt>
      <trkpt lat="67.261581039056182" lon="15.43162303045392">
        <ele>-4.19</ele>
        <time>2017-06-28T11:26:10Z</time>
      </trkpt>
      <trkpt lat="67.261579027399421" lon="15.431875996291637">
        <ele>-4.19</ele>
        <time>2017-06-28T11:26:11Z</time>
      </trkpt>
      <trkpt lat="67.261563017964363" lon="15.432122005149722">
        <ele>-4.19</ele>
        <time>2017-06-28T11:26:12Z</time>
      </trkpt>
      <trkpt lat="67.261526975780725" lon="15.432357033714652">
        <ele>-4.19</ele>
        <time>2017-06-28T11:26:13Z</time>
      </trkpt>
      <trkpt lat="67.261477019637823" lon="15.432585021480918">
        <ele>-4.19</ele>
        <time>2017-06-28T11:26:14Z</time>
      </trkpt>
      <trkpt lat="67.261407030746341" lon="15.432779984548688">
        <ele>-4.19</ele>
        <time>2017-06-28T11:26:15Z</time>
      </trkpt>
      <trkpt lat="67.261325977742672" lon="15.432951981201768">
        <ele>-4.19</ele>
        <time>2017-06-28T11:26:16Z</time>
      </trkpt>
      <trkpt lat="67.2612330224365" lon="15.433092964813113">
        <ele>-4.19</ele>
        <time>2017-06-28T11:26:17Z</time>
      </trkpt>
      <trkpt lat="67.26112699136138" lon="15.433200001716614">
        <ele>-3.71</ele>
        <time>2017-06-28T11:26:18Z</time>
      </trkpt>
      <trkpt lat="67.261005034670234" lon="15.433263033628464">
        <ele>-2.75</ele>
        <time>2017-06-28T11:26:19Z</time>
      </trkpt>
      <trkpt lat="67.260886011645198" lon="15.433305026963353">
        <ele>-2.27</ele>
        <time>2017-06-28T11:26:20Z</time>
      </trkpt>
      <trkpt lat="67.260764976963401" lon="15.433318018913269">
        <ele>-1.79</ele>
        <time>2017-06-28T11:26:21Z</time>
      </trkpt>
      <trkpt lat="67.260641008615494" lon="15.433308966457844">
        <ele>-0.82</ele>
        <time>2017-06-28T11:26:22Z</time>
      </trkpt>
      <trkpt lat="67.25930099375546" lon="15.432930020615458">
        <ele>7.83</ele>
        <time>2017-06-28T11:26:32Z</time>
      </trkpt>
      <trkpt lat="67.258246969431639" lon="15.431839032098651">
        <ele>12.15</ele>
        <time>2017-06-28T11:26:40Z</time>
      </trkpt>
      <trkpt lat="67.258131969720125" lon="15.431585982441902">
        <ele>13.119999999999999</ele>
        <time>2017-06-28T11:26:41Z</time>
      </trkpt>
      <trkpt lat="67.258030967786908" lon="15.431308038532734">
        <ele>13.6</ele>
        <time>2017-06-28T11:26:42Z</time>
      </trkpt>
      <trkpt lat="67.257944969460368" lon="15.431002015247941">
        <ele>14.56</ele>
        <time>2017-06-28T11:26:43Z</time>
      </trkpt>
      <trkpt lat="67.257856959477067" lon="15.430691968649626">
        <ele>15.039999999999999</ele>
        <time>2017-06-28T11:26:44Z</time>
      </trkpt>
      <trkpt lat="67.257569963112473" lon="15.429638028144836">
        <ele>17.440000000000001</ele>
        <time>2017-06-28T11:26:48Z</time>
      </trkpt>
      <trkpt lat="67.257482958957553" lon="15.429436024278402">
        <ele>17.440000000000001</ele>
        <time>2017-06-28T11:26:49Z</time>
      </trkpt>
      <trkpt lat="67.257394026964903" lon="15.429250029847026">
        <ele>17.440000000000001</ele>
        <time>2017-06-28T11:26:50Z</time>
      </trkpt>
      <trkpt lat="67.257305011153221" lon="15.429096976295114">
        <ele>17.440000000000001</ele>
        <time>2017-06-28T11:26:51Z</time>
      </trkpt>
      <trkpt lat="67.257213983684778" lon="15.428967978805304">
        <ele>17.920000000000002</ele>
        <time>2017-06-28T11:26:52Z</time>
      </trkpt>
      <trkpt lat="67.257124967873096" lon="15.428864965215325">
        <ele>17.920000000000002</ele>
        <time>2017-06-28T11:26:53Z</time>
      </trkpt>
      <trkpt lat="67.257026983425021" lon="15.428811991587281">
        <ele>17.920000000000002</ele>
        <time>2017-06-28T11:26:54Z</time>
      </trkpt>
      <trkpt lat="67.256931010633707" lon="15.428781984373927">
        <ele>17.920000000000002</ele>
        <time>2017-06-28T11:26:55Z</time>
      </trkpt>
      <trkpt lat="67.256838977336884" lon="15.428791958838701">
        <ele>18.399999999999999</ele>
        <time>2017-06-28T11:26:56Z</time>
      </trkpt>
      <trkpt lat="67.256741998717189" lon="15.428847027942538">
        <ele>18.399999999999999</ele>
        <time>2017-06-28T11:26:57Z</time>
      </trkpt>
      <trkpt lat="67.256650971248746" lon="15.428921962156892">
        <ele>18.879999999999999</ele>
        <time>2017-06-28T11:26:58Z</time>
      </trkpt>
      <trkpt lat="67.25655198097229" lon="15.429026987403631">
        <ele>19.359999999999999</ele>
        <time>2017-06-28T11:26:59Z</time>
      </trkpt>
      <trkpt lat="67.256445027887821" lon="15.429170988500118">
        <ele>18.879999999999999</ele>
        <time>2017-06-28T11:27:00Z</time>
      </trkpt>
      <trkpt lat="67.256347965449095" lon="15.429319012910128">
        <ele>19.359999999999999</ele>
        <time>2017-06-28T11:27:01Z</time>
      </trkpt>
      <trkpt lat="67.255587978288531" lon="15.430723987519741">
        <ele>17.920000000000002</ele>
        <time>2017-06-28T11:27:07Z</time>
      </trkpt>
      <trkpt lat="67.254497995600104" lon="15.432559037581086">
        <ele>18.879999999999999</ele>
        <time>2017-06-28T11:27:15Z</time>
      </trkpt>
      <trkpt lat="67.254367992281914" lon="15.432703960686922">
        <ele>18.879999999999999</ele>
        <time>2017-06-28T11:27:16Z</time>
      </trkpt>
      <trkpt lat="67.254243018105626" lon="15.43280404061079">
        <ele>19.359999999999999</ele>
        <time>2017-06-28T11:27:17Z</time>
      </trkpt>
      <trkpt lat="67.254109997302294" lon="15.432867994531989">
        <ele>19.84</ele>
        <time>2017-06-28T11:27:18Z</time>
      </trkpt>
      <trkpt lat="67.253973037004471" lon="15.432896995916963">
        <ele>20.32</ele>
        <time>2017-06-28T11:27:19Z</time>
      </trkpt>
      <trkpt lat="67.253832975402474" lon="15.432877968996763">
        <ele>20.32</ele>
        <time>2017-06-28T11:27:20Z</time>
      </trkpt>
      <trkpt lat="67.253697020933032" lon="15.432815020903945">
        <ele>19.84</ele>
        <time>2017-06-28T11:27:21Z</time>
      </trkpt>
      <trkpt lat="67.253568023443222" lon="15.432701027020812">
        <ele>18.879999999999999</ele>
        <time>2017-06-28T11:27:22Z</time>
      </trkpt>
      <trkpt lat="67.253447994589806" lon="15.432544033974409">
        <ele>18.399999999999999</ele>
        <time>2017-06-28T11:27:23Z</time>
      </trkpt>
      <trkpt lat="67.253330983221531" lon="15.432352004572749">
        <ele>17.440000000000001</ele>
        <time>2017-06-28T11:27:24Z</time>
      </trkpt>
      <trkpt lat="67.253214977681637" lon="15.432132985442877">
        <ele>16.48</ele>
        <time>2017-06-28T11:27:25Z</time>
      </trkpt>
      <trkpt lat="67.2531149815768" lon="15.431878007948399">
        <ele>16</ele>
        <time>2017-06-28T11:27:26Z</time>
      </trkpt>
      <trkpt lat="67.252112003043294" lon="15.430071037262678">
        <ele>8.310000000000001</ele>
        <time>2017-06-28T11:27:35Z</time>
      </trkpt>
      <trkpt lat="67.25087801925838" lon="15.428735967725515">
        <ele>6.87</ele>
        <time>2017-06-28T11:27:43Z</time>
      </trkpt>
      <trkpt lat="67.249655015766621" lon="15.427885036915541">
        <ele>5.42</ele>
        <time>2017-06-28T11:27:50Z</time>
      </trkpt>
      <trkpt lat="67.248638039454818" lon="15.427221022546291">
        <ele>4.94</ele>
        <time>2017-06-28T11:27:58Z</time>
      </trkpt>
      <trkpt lat="67.24741998128593" lon="15.426893960684538">
        <ele>6.39</ele>
        <time>2017-06-28T11:28:06Z</time>
      </trkpt>
      <trkpt lat="67.24524999037385" lon="15.426032971590757">
        <ele>17.920000000000002</ele>
        <time>2017-06-28T11:28:19Z</time>
      </trkpt>
      <trkpt lat="67.243964038789272" lon="15.424345023930073">
        <ele>21.77</ele>
        <time>2017-06-28T11:28:27Z</time>
      </trkpt>
      <trkpt lat="67.242182968184352" lon="15.42174001224339">
        <ele>33.299999999999997</ele>
        <time>2017-06-28T11:28:38Z</time>
      </trkpt>
      <trkpt lat="67.240040972828865" lon="15.420113001018763">
        <ele>44.840000000000003</ele>
        <time>2017-06-28T11:28:50Z</time>
      </trkpt>
      <trkpt lat="67.239545015618205" lon="15.419495003297925">
        <ele>46.759999999999998</ele>
        <time>2017-06-28T11:28:53Z</time>
      </trkpt>
      <trkpt lat="67.239397997036576" lon="15.419213036075234">
        <ele>47.240000000000002</ele>
        <time>2017-06-28T11:28:54Z</time>
      </trkpt>
      <trkpt lat="67.239272017031908" lon="15.418883040547371">
        <ele>47.719999999999999</ele>
        <time>2017-06-28T11:28:55Z</time>
      </trkpt>
      <trkpt lat="67.239161962643266" lon="15.418503005057573">
        <ele>48.200000000000003</ele>
        <time>2017-06-28T11:28:56Z</time>
      </trkpt>
      <trkpt lat="67.23906297236681" lon="15.418104026466608">
        <ele>48.68</ele>
        <time>2017-06-28T11:28:57Z</time>
      </trkpt>
      <trkpt lat="67.238973034545779" lon="15.417677974328399">
        <ele>49.159999999999997</ele>
        <time>2017-06-28T11:28:58Z</time>
      </trkpt>
      <trkpt lat="67.23891100846231" lon="15.417234990745783">
        <ele>50.609999999999999</ele>
        <time>2017-06-28T11:28:59Z</time>
      </trkpt>
      <trkpt lat="67.238844959065318" lon="15.416769962757826">
        <ele>51.090000000000003</ele>
        <time>2017-06-28T11:29:00Z</time>
      </trkpt>
      <trkpt lat="67.237884979695082" lon="15.409835027530789">
        <ele>65.989999999999995</ele>
        <time>2017-06-28T11:29:14Z</time>
      </trkpt>
      <trkpt lat="67.237009992823005" lon="15.406846962869167">
        <ele>73.680000000000007</ele>
        <time>2017-06-28T11:29:21Z</time>
      </trkpt>
      <trkpt lat="67.23579503595829" lon="15.404910994693637">
        <ele>76.079999999999998</ele>
        <time>2017-06-28T11:29:28Z</time>
      </trkpt>
      <trkpt lat="67.23371003754437" lon="15.403323965147138">
        <ele>78.480000000000004</ele>
        <time>2017-06-28T11:29:39Z</time>
      </trkpt>
      <trkpt lat="67.231731992214918" lon="15.401324965059757">
        <ele>87.620000000000005</ele>
        <time>2017-06-28T11:29:50Z</time>
      </trkpt>
      <trkpt lat="67.230980973690748" lon="15.400840993970633">
        <ele>93.390000000000001</ele>
        <time>2017-06-28T11:29:55Z</time>
      </trkpt>
      <trkpt lat="67.230548970401287" lon="15.400937972590327">
        <ele>94.829999999999998</ele>
        <time>2017-06-28T11:29:58Z</time>
      </trkpt>
      <trkpt lat="67.230417039245367" lon="15.401020031422377">
        <ele>95.790000000000006</ele>
        <time>2017-06-28T11:29:59Z</time>
      </trkpt>
      <trkpt lat="67.230277983471751" lon="15.401138970628381">
        <ele>96.269999999999996</ele>
        <time>2017-06-28T11:30:00Z</time>
      </trkpt>
      <trkpt lat="67.230143034830689" lon="15.401288000866771">
        <ele>96.269999999999996</ele>
        <time>2017-06-28T11:30:01Z</time>
      </trkpt>
      <trkpt lat="67.230014037340879" lon="15.401477012783289">
        <ele>96.269999999999996</ele>
        <time>2017-06-28T11:30:02Z</time>
      </trkpt>
      <trkpt lat="67.229884034022689" lon="15.401699971407652">
        <ele>95.310000000000002</ele>
        <time>2017-06-28T11:30:03Z</time>
      </trkpt>
      <trkpt lat="67.22975998185575" lon="15.401948997750878">
        <ele>94.829999999999998</ele>
        <time>2017-06-28T11:30:04Z</time>
      </trkpt>
      <trkpt lat="67.229650011286139" lon="15.402246974408627">
        <ele>94.829999999999998</ele>
        <time>2017-06-28T11:30:05Z</time>
      </trkpt>
      <trkpt lat="67.229545991867781" lon="15.402590967714787">
        <ele>94.349999999999994</ele>
        <time>2017-06-28T11:30:06Z</time>
      </trkpt>
      <trkpt lat="67.229443984106183" lon="15.402998998761177">
        <ele>92.420000000000002</ele>
        <time>2017-06-28T11:30:07Z</time>
      </trkpt>
      <trkpt lat="67.229336025193334" lon="15.403461009263992">
        <ele>90.5</ele>
        <time>2017-06-28T11:30:08Z</time>
      </trkpt>
      <trkpt lat="67.228933023288846" lon="15.404828013852239">
        <ele>87.140000000000001</ele>
        <time>2017-06-28T11:30:11Z</time>
      </trkpt>
      <trkpt lat="67.228783993050456" lon="15.405227998271585">
        <ele>84.25</ele>
        <time>2017-06-28T11:30:12Z</time>
      </trkpt>
      <trkpt lat="67.228629011660814" lon="15.405594035983086">
        <ele>82.329999999999998</ele>
        <time>2017-06-28T11:30:13Z</time>
      </trkpt>
      <trkpt lat="67.227259995415807" lon="15.409089960157871">
        <ele>76.079999999999998</ele>
        <time>2017-06-28T11:30:23Z</time>
      </trkpt>
      <trkpt lat="67.226022994145751" lon="15.413269009441137">
        <ele>77.040000000000006</ele>
        <time>2017-06-28T11:30:34Z</time>
      </trkpt>
      <trkpt lat="67.225691992789507" lon="15.413809977471828">
        <ele>77.519999999999996</ele>
        <time>2017-06-28T11:30:36Z</time>
      </trkpt>
      <trkpt lat="67.225515972822905" lon="15.414007036015391">
        <ele>78</ele>
        <time>2017-06-28T11:30:37Z</time>
      </trkpt>
      <trkpt lat="67.225320003926754" lon="15.414141984656453">
        <ele>78.969999999999999</ele>
        <time>2017-06-28T11:30:38Z</time>
      </trkpt>
      <trkpt lat="67.225124035030603" lon="15.414235023781657">
        <ele>80.409999999999997</ele>
        <time>2017-06-28T11:30:39Z</time>
      </trkpt>
      <trkpt lat="67.224932005628943" lon="15.414294032379985">
        <ele>81.370000000000005</ele>
        <time>2017-06-28T11:30:40Z</time>
      </trkpt>
      <trkpt lat="67.224741987884045" lon="15.414333008229733">
        <ele>83.290000000000006</ele>
        <time>2017-06-28T11:30:41Z</time>
      </trkpt>
      <trkpt lat="67.224553981795907" lon="15.414321022108197">
        <ele>83.769999999999996</ele>
        <time>2017-06-28T11:30:42Z</time>
      </trkpt>
      <trkpt lat="67.224373016506433" lon="15.414272993803024">
        <ele>85.209999999999994</ele>
        <time>2017-06-28T11:30:43Z</time>
      </trkpt>
      <trkpt lat="67.224196996539831" lon="15.414184983819723">
        <ele>86.659999999999997</ele>
        <time>2017-06-28T11:30:44Z</time>
      </trkpt>
      <trkpt lat="67.224020976573229" lon="15.414051041007042">
        <ele>87.620000000000005</ele>
        <time>2017-06-28T11:30:45Z</time>
      </trkpt>
      <trkpt lat="67.223837999626994" lon="15.413864962756634">
        <ele>88.579999999999998</ele>
        <time>2017-06-28T11:30:46Z</time>
      </trkpt>
      <trkpt lat="67.223667008802295" lon="15.413648039102554">
        <ele>89.060000000000002</ele>
        <time>2017-06-28T11:30:47Z</time>
      </trkpt>
      <trkpt lat="67.223498029634356" lon="15.413400018587708">
        <ele>89.060000000000002</ele>
        <time>2017-06-28T11:30:48Z</time>
      </trkpt>
      <trkpt lat="67.222283994778991" lon="15.411300016567111">
        <ele>83.290000000000006</ele>
        <time>2017-06-28T11:30:55Z</time>
      </trkpt>
      <trkpt lat="67.221562983468175" lon="15.408997004851699">
        <ele>77.519999999999996</ele>
        <time>2017-06-28T11:31:01Z</time>
      </trkpt>
      <trkpt lat="67.220782041549683" lon="15.406022015959024">
        <ele>74.159999999999997</ele>
        <time>2017-06-28T11:31:09Z</time>
      </trkpt>
      <trkpt lat="67.220650026574731" lon="15.405738959088922">
        <ele>74.640000000000001</ele>
        <time>2017-06-28T11:31:10Z</time>
      </trkpt>
      <trkpt lat="67.220509964972734" lon="15.405480964109302">
        <ele>74.640000000000001</ele>
        <time>2017-06-28T11:31:11Z</time>
      </trkpt>
      <trkpt lat="67.220354983583093" lon="15.405272003263235">
        <ele>74.640000000000001</ele>
        <time>2017-06-28T11:31:12Z</time>
      </trkpt>
      <trkpt lat="67.220193967223167" lon="15.405093971639872">
        <ele>75.599999999999994</ele>
        <time>2017-06-28T11:31:13Z</time>
      </trkpt>
      <trkpt lat="67.220029011368752" lon="15.404964974150062">
        <ele>76.079999999999998</ele>
        <time>2017-06-28T11:31:14Z</time>
      </trkpt>
      <trkpt lat="67.219870006665587" lon="15.404866989701986">
        <ele>76.560000000000002</ele>
        <time>2017-06-28T11:31:15Z</time>
      </trkpt>
      <trkpt lat="67.219718964770436" lon="15.404794989153743">
        <ele>78</ele>
        <time>2017-06-28T11:31:16Z</time>
      </trkpt>
      <trkpt lat="67.21955300308764" lon="15.404773028567433">
        <ele>78</ele>
        <time>2017-06-28T11:31:17Z</time>
      </trkpt>
      <trkpt lat="67.219392992556095" lon="15.404769005253911">
        <ele>78.480000000000004</ele>
        <time>2017-06-28T11:31:18Z</time>
      </trkpt>
      <trkpt lat="67.219219990074635" lon="15.404815021902323">
        <ele>78</ele>
        <time>2017-06-28T11:31:19Z</time>
      </trkpt>
      <trkpt lat="67.21906098537147" lon="15.404894985258579">
        <ele>78</ele>
        <time>2017-06-28T11:31:20Z</time>
      </trkpt>
      <trkpt lat="67.218903992325068" lon="15.40500302799046">
        <ele>77.519999999999996</ele>
        <time>2017-06-28T11:31:21Z</time>
      </trkpt>
      <trkpt lat="67.218743981793523" lon="15.405134037137032">
        <ele>77.040000000000006</ele>
        <time>2017-06-28T11:31:22Z</time>
      </trkpt>
      <trkpt lat="67.217101966962218" lon="15.405972981825471">
        <ele>69.349999999999994</ele>
        <time>2017-06-28T11:31:32Z</time>
      </trkpt>
      <trkpt lat="67.216630987823009" lon="15.406213961541653">
        <ele>66.950000000000003</ele>
        <time>2017-06-28T11:31:35Z</time>
      </trkpt>
      <trkpt lat="67.216487992554903" lon="15.406357040628791">
        <ele>65.989999999999995</ele>
        <time>2017-06-28T11:31:36Z</time>
      </trkpt>
      <trkpt lat="67.216361006721854" lon="15.40652803145349">
        <ele>65.030000000000001</ele>
        <time>2017-06-28T11:31:37Z</time>
      </trkpt>
      <trkpt lat="67.21624399535358" lon="15.406715031713247">
        <ele>65.030000000000001</ele>
        <time>2017-06-28T11:31:38Z</time>
      </trkpt>
      <trkpt lat="67.216140981763601" lon="15.406921980902553">
        <ele>65.030000000000001</ele>
        <time>2017-06-28T11:31:39Z</time>
      </trkpt>
      <trkpt lat="67.216040985658765" lon="15.407161032781005">
        <ele>64.549999999999997</ele>
        <time>2017-06-28T11:31:40Z</time>
      </trkpt>
      <trkpt lat="67.215949958190322" lon="15.407440988346934">
        <ele>64.069999999999993</ele>
        <time>2017-06-28T11:31:41Z</time>
      </trkpt>
      <trkpt lat="67.215863959863782" lon="15.407776013016701">
        <ele>63.579999999999998</ele>
        <time>2017-06-28T11:31:42Z</time>
      </trkpt>
      <trkpt lat="67.215790031477809" lon="15.408180020749569">
        <ele>62.619999999999997</ele>
        <time>2017-06-28T11:31:43Z</time>
      </trkpt>
      <trkpt lat="67.215719036757946" lon="15.408635996282101">
        <ele>61.659999999999997</ele>
        <time>2017-06-28T11:31:44Z</time>
      </trkpt>
      <trkpt lat="67.215069020166993" lon="15.41226401925087">
        <ele>55.890000000000001</ele>
        <time>2017-06-28T11:31:51Z</time>
      </trkpt>
      <trkpt lat="67.214512964710593" lon="15.41591702029109">
        <ele>46.759999999999998</ele>
        <time>2017-06-28T11:31:58Z</time>
      </trkpt>
      <trkpt lat="67.21383998170495" lon="15.4193149600178">
        <ele>38.590000000000003</ele>
        <time>2017-06-28T11:32:05Z</time>
      </trkpt>
      <trkpt lat="67.213529013097286" lon="15.420672995969653">
        <ele>36.189999999999998</ele>
        <time>2017-06-28T11:32:08Z</time>
      </trkpt>
      <trkpt lat="67.213405966758728" lon="15.42109795846045">
        <ele>35.710000000000001</ele>
        <time>2017-06-28T11:32:09Z</time>
      </trkpt>
      <trkpt lat="67.213273029774427" lon="15.42150397785008">
        <ele>34.259999999999998</ele>
        <time>2017-06-28T11:32:10Z</time>
      </trkpt>
      <trkpt lat="67.213123999536037" lon="15.421880995854735">
        <ele>33.299999999999997</ele>
        <time>2017-06-28T11:32:11Z</time>
      </trkpt>
      <trkpt lat="67.212961977347732" lon="15.422210991382599">
        <ele>31.859999999999999</ele>
        <time>2017-06-28T11:32:12Z</time>
      </trkpt>
      <trkpt lat="67.212786041200161" lon="15.422504022717476">
        <ele>30.420000000000002</ele>
        <time>2017-06-28T11:32:13Z</time>
      </trkpt>
      <trkpt lat="67.212600968778133" lon="15.422750031575561">
        <ele>28.98</ele>
        <time>2017-06-28T11:32:14Z</time>
      </trkpt>
      <trkpt lat="67.212412962689996" lon="15.422979025170207">
        <ele>28.02</ele>
        <time>2017-06-28T11:32:15Z</time>
      </trkpt>
      <trkpt lat="67.211892027407885" lon="15.423812018707395">
        <ele>25.129999999999999</ele>
        <time>2017-06-28T11:32:18Z</time>
      </trkpt>
      <trkpt lat="67.211740985512733" lon="15.424174033105373">
        <ele>24.649999999999999</ele>
        <time>2017-06-28T11:32:19Z</time>
      </trkpt>
      <trkpt lat="67.211607964709401" lon="15.424578040838242">
        <ele>23.690000000000001</ele>
        <time>2017-06-28T11:32:20Z</time>
      </trkpt>
      <trkpt lat="67.211487013846636" lon="15.425019012764096">
        <ele>22.25</ele>
        <time>2017-06-28T11:32:21Z</time>
      </trkpt>
      <trkpt lat="67.211368996649981" lon="15.425452021881938">
        <ele>21.77</ele>
        <time>2017-06-28T11:32:22Z</time>
      </trkpt>
      <trkpt lat="67.211118964478374" lon="15.42625299654901">
        <ele>19.84</ele>
        <time>2017-06-28T11:32:24Z</time>
      </trkpt>
      <trkpt lat="67.210974963381886" lon="15.426620962098241">
        <ele>18.399999999999999</ele>
        <time>2017-06-28T11:32:25Z</time>
      </trkpt>
      <trkpt lat="67.210806990042329" lon="15.426951041445136">
        <ele>17.920000000000002</ele>
        <time>2017-06-28T11:32:26Z</time>
      </trkpt>
      <trkpt lat="67.210287982597947" lon="15.427929041907191">
        <ele>16.48</ele>
        <time>2017-06-28T11:32:29Z</time>
      </trkpt>
      <trkpt lat="67.210126966238022" lon="15.428301030769944">
        <ele>16.48</ele>
        <time>2017-06-28T11:32:30Z</time>
      </trkpt>
      <trkpt lat="67.209978019818664" lon="15.428702021017671">
        <ele>15.52</ele>
        <time>2017-06-28T11:32:31Z</time>
      </trkpt>
      <trkpt lat="67.209398997947574" lon="15.43113000690937">
        <ele>13.6</ele>
        <time>2017-06-28T11:32:37Z</time>
      </trkpt>
      <trkpt lat="67.208927012979984" lon="15.434963973239064">
        <ele>12.15</ele>
        <time>2017-06-28T11:32:48Z</time>
      </trkpt>
      <trkpt lat="67.195979990065098" lon="15.459506018087268">
        <ele>78.969999999999999</ele>
        <time>2017-06-28T11:34:12Z</time>
      </trkpt>
      <trkpt lat="67.195557961240411" lon="15.463364040479064">
        <ele>79.930000000000007</ele>
        <time>2017-06-28T11:34:20Z</time>
      </trkpt>
      <trkpt lat="67.195439022034407" lon="15.464362995699048">
        <ele>83.290000000000006</ele>
        <time>2017-06-28T11:34:22Z</time>
      </trkpt>
      <trkpt lat="67.195364004001021" lon="15.464856019243598">
        <ele>83.290000000000006</ele>
        <time>2017-06-28T11:34:23Z</time>
      </trkpt>
      <trkpt lat="67.19525302760303" lon="15.465303026139736">
        <ele>82.810000000000002</ele>
        <time>2017-06-28T11:34:24Z</time>
      </trkpt>
      <trkpt lat="67.195130987092853" lon="15.465718014165759">
        <ele>82.329999999999998</ele>
        <time>2017-06-28T11:34:25Z</time>
      </trkpt>
      <trkpt lat="67.194977011531591" lon="15.466096960008144">
        <ele>82.810000000000002</ele>
        <time>2017-06-28T11:34:26Z</time>
      </trkpt>
      <trkpt lat="67.194824041798711" lon="15.466462997719646">
        <ele>83.769999999999996</ele>
        <time>2017-06-28T11:34:27Z</time>
      </trkpt>
      <trkpt lat="67.194664031267166" lon="15.466833980754018">
        <ele>84.25</ele>
        <time>2017-06-28T11:34:28Z</time>
      </trkpt>
      <trkpt lat="67.193346982821822" lon="15.469642002135515">
        <ele>88.099999999999994</ele>
        <time>2017-06-28T11:34:36Z</time>
      </trkpt>
      <trkpt lat="67.193161994218826" lon="15.469869989901781">
        <ele>88.579999999999998</ele>
        <time>2017-06-28T11:34:37Z</time>
      </trkpt>
      <trkpt lat="67.192984968423843" lon="15.470051039010286">
        <ele>87.140000000000001</ele>
        <time>2017-06-28T11:34:38Z</time>
      </trkpt>
      <trkpt lat="67.192802997305989" lon="15.470180036500096">
        <ele>85.689999999999998</ele>
        <time>2017-06-28T11:34:39Z</time>
      </trkpt>
      <trkpt lat="67.192580960690975" lon="15.47025203704834">
        <ele>87.140000000000001</ele>
        <time>2017-06-28T11:34:40Z</time>
      </trkpt>
      <trkpt lat="67.192356996238232" lon="15.470310039818287">
        <ele>88.099999999999994</ele>
        <time>2017-06-28T11:34:41Z</time>
      </trkpt>
      <trkpt lat="67.192154992371798" lon="15.470410035923123">
        <ele>88.579999999999998</ele>
        <time>2017-06-28T11:34:42Z</time>
      </trkpt>
      <trkpt lat="67.191970003768802" lon="15.470564011484385">
        <ele>88.099999999999994</ele>
        <time>2017-06-28T11:34:43Z</time>
      </trkpt>
      <trkpt lat="67.191789038479328" lon="15.470766015350819">
        <ele>88.099999999999994</ele>
        <time>2017-06-28T11:34:44Z</time>
      </trkpt>
      <trkpt lat="67.191611006855965" lon="15.471012024208903">
        <ele>88.099999999999994</ele>
        <time>2017-06-28T11:34:45Z</time>
      </trkpt>
      <trkpt lat="67.191440016031265" lon="15.47130798920989">
        <ele>87.620000000000005</ele>
        <time>2017-06-28T11:34:46Z</time>
      </trkpt>
      <trkpt lat="67.191275982186198" lon="15.471643013879657">
        <ele>87.140000000000001</ele>
        <time>2017-06-28T11:34:47Z</time>
      </trkpt>
      <trkpt lat="67.191119994968176" lon="15.47199203632772">
        <ele>86.659999999999997</ele>
        <time>2017-06-28T11:34:48Z</time>
      </trkpt>
      <trkpt lat="67.18951502814889" lon="15.475335996598005">
        <ele>83.290000000000006</ele>
        <time>2017-06-28T11:34:58Z</time>
      </trkpt>
      <trkpt lat="67.18889300711453" lon="15.476149041205645">
        <ele>80.890000000000001</ele>
        <time>2017-06-28T11:35:03Z</time>
      </trkpt>
      <trkpt lat="67.188718998804688" lon="15.476359007880092">
        <ele>78.969999999999999</ele>
        <time>2017-06-28T11:35:06Z</time>
      </trkpt>
      <trkpt lat="67.188504002988338" lon="15.476695960387588">
        <ele>78</ele>
        <time>2017-06-28T11:35:17Z</time>
      </trkpt>
      <trkpt lat="67.188518000766635" lon="15.476704007014632">
        <ele>78</ele>
        <time>2017-06-28T11:36:39Z</time>
      </trkpt>
      <trkpt lat="67.188520012423396" lon="15.476708030328155">
        <ele>78.969999999999999</ele>
        <time>2017-06-28T11:38:17Z</time>
      </trkpt>
      <trkpt lat="67.188524035736918" lon="15.476709036156535">
        <ele>79.450000000000003</ele>
        <time>2017-06-28T11:40:06Z</time>
      </trkpt>
      <trkpt lat="67.188530992716551" lon="15.476712975651026">
        <ele>79.930000000000007</ele>
        <time>2017-06-28T11:42:02Z</time>
      </trkpt>
      <trkpt lat="67.188537027686834" lon="15.476715993136168">
        <ele>80.409999999999997</ele>
        <time>2017-06-28T11:44:03Z</time>
      </trkpt>
      <trkpt lat="67.188387997448444" lon="15.477182026952505">
        <ele>80.890000000000001</ele>
        <time>2017-06-28T11:44:47Z</time>
      </trkpt>
      <trkpt lat="67.188229998573661" lon="15.477564996108413">
        <ele>81.370000000000005</ele>
        <time>2017-06-28T11:44:49Z</time>
      </trkpt>
      <trkpt lat="67.18756103888154" lon="15.47985602170229">
        <ele>81.849999999999994</ele>
        <time>2017-06-28T11:44:57Z</time>
      </trkpt>
      <trkpt lat="67.186778001487255" lon="15.484082009643316">
        <ele>79.930000000000007</ele>
        <time>2017-06-28T11:45:08Z</time>
      </trkpt>
      <trkpt lat="67.18659401871264" lon="15.484891030937433">
        <ele>79.450000000000003</ele>
        <time>2017-06-28T11:45:10Z</time>
      </trkpt>
      <trkpt lat="67.186480024829507" lon="15.485244998708367">
        <ele>79.450000000000003</ele>
        <time>2017-06-28T11:45:11Z</time>
      </trkpt>
      <trkpt lat="67.186352033168077" lon="15.485557978972793">
        <ele>78.969999999999999</ele>
        <time>2017-06-28T11:45:12Z</time>
      </trkpt>
      <trkpt lat="67.18620702624321" lon="15.485829971730709">
        <ele>78.969999999999999</ele>
        <time>2017-06-28T11:45:13Z</time>
      </trkpt>
      <trkpt lat="67.186055984348059" lon="15.486055025830865">
        <ele>78.480000000000004</ele>
        <time>2017-06-28T11:45:14Z</time>
      </trkpt>
      <trkpt lat="67.185890022665262" lon="15.486232973635197">
        <ele>78.480000000000004</ele>
        <time>2017-06-28T11:45:15Z</time>
      </trkpt>
      <trkpt lat="67.185712996870279" lon="15.486377980560064">
        <ele>78.969999999999999</ele>
        <time>2017-06-28T11:45:16Z</time>
      </trkpt>
      <trkpt lat="67.185533037409186" lon="15.486487029120326">
        <ele>79.450000000000003</ele>
        <time>2017-06-28T11:45:17Z</time>
      </trkpt>
      <trkpt lat="67.183769987896085" lon="15.486862035468221">
        <ele>83.769999999999996</ele>
        <time>2017-06-28T11:45:26Z</time>
      </trkpt>
      <trkpt lat="67.18165397644043" lon="15.486070029437542">
        <ele>85.209999999999994</ele>
        <time>2017-06-28T11:45:36Z</time>
      </trkpt>
      <trkpt lat="67.181455995887518" lon="15.485871965065598">
        <ele>85.689999999999998</ele>
        <time>2017-06-28T11:45:37Z</time>
      </trkpt>
      <trkpt lat="67.181262038648129" lon="15.485583040863276">
        <ele>84.730000000000004</ele>
        <time>2017-06-28T11:45:38Z</time>
      </trkpt>
      <trkpt lat="67.179571995511651" lon="15.482583995908499">
        <ele>81.849999999999994</ele>
        <time>2017-06-28T11:45:47Z</time>
      </trkpt>
      <trkpt lat="67.177670979872346" lon="15.47831098549068">
        <ele>86.180000000000007</ele>
        <time>2017-06-28T11:45:58Z</time>
      </trkpt>
      <trkpt lat="67.176736984401941" lon="15.477027967572212">
        <ele>89.060000000000002</ele>
        <time>2017-06-28T11:46:04Z</time>
      </trkpt>
      <trkpt lat="67.174415029585361" lon="15.475979978218675">
        <ele>85.689999999999998</ele>
        <time>2017-06-28T11:46:17Z</time>
      </trkpt>
      <trkpt lat="67.172471014782786" lon="15.475200964137912">
        <ele>76.560000000000002</ele>
        <time>2017-06-28T11:46:26Z</time>
      </trkpt>
      <trkpt lat="67.172090979292989" lon="15.475248992443085">
        <ele>72.719999999999999</ele>
        <time>2017-06-28T11:46:28Z</time>
      </trkpt>
      <trkpt lat="67.171919988468289" lon="15.475331973284483">
        <ele>71.269999999999996</ele>
        <time>2017-06-28T11:46:29Z</time>
      </trkpt>
      <trkpt lat="67.171759977936745" lon="15.475450996309519">
        <ele>69.829999999999998</ele>
        <time>2017-06-28T11:46:30Z</time>
      </trkpt>
      <trkpt lat="67.171609019860625" lon="15.475619975477457">
        <ele>68.390000000000001</ele>
        <time>2017-06-28T11:46:31Z</time>
      </trkpt>
      <trkpt lat="67.171466024592519" lon="15.475843017920852">
        <ele>67.430000000000007</ele>
        <time>2017-06-28T11:46:32Z</time>
      </trkpt>
      <trkpt lat="67.171337027102709" lon="15.476102018728852">
        <ele>66.950000000000003</ele>
        <time>2017-06-28T11:46:33Z</time>
      </trkpt>
      <trkpt lat="67.171227978542447" lon="15.476422961801291">
        <ele>65.989999999999995</ele>
        <time>2017-06-28T11:46:34Z</time>
      </trkpt>
      <trkpt lat="67.17112697660923" lon="15.476777013391256">
        <ele>64.069999999999993</ele>
        <time>2017-06-28T11:46:35Z</time>
      </trkpt>
      <trkpt lat="67.171027986332774" lon="15.477158976718783">
        <ele>63.579999999999998</ele>
        <time>2017-06-28T11:46:36Z</time>
      </trkpt>
      <trkpt lat="67.170355003327131" lon="15.481062009930611">
        <ele>50.130000000000003</ele>
        <time>2017-06-28T11:46:44Z</time>
      </trkpt>
      <trkpt lat="67.169909002259374" lon="15.484426002949476">
        <ele>40.509999999999998</ele>
        <time>2017-06-28T11:46:51Z</time>
      </trkpt>
      <trkpt lat="67.169812023639679" lon="15.484825987368822">
        <ele>39.07</ele>
        <time>2017-06-28T11:46:52Z</time>
      </trkpt>
      <trkpt lat="67.169693000614643" lon="15.48520602285862">
        <ele>37.630000000000003</ele>
        <time>2017-06-28T11:46:53Z</time>
      </trkpt>
      <trkpt lat="67.169551011174917" lon="15.485522020608187">
        <ele>36.189999999999998</ele>
        <time>2017-06-28T11:46:54Z</time>
      </trkpt>
      <trkpt lat="67.169391000643373" lon="15.485779009759426">
        <ele>35.229999999999997</ele>
        <time>2017-06-28T11:46:55Z</time>
      </trkpt>
      <trkpt lat="67.169222021475434" lon="15.485984031111002">
        <ele>33.780000000000001</ele>
        <time>2017-06-28T11:46:56Z</time>
      </trkpt>
      <trkpt lat="67.169039966538548" lon="15.486140018329024">
        <ele>32.82</ele>
        <time>2017-06-28T11:46:57Z</time>
      </trkpt>
      <trkpt lat="67.168850032612681" lon="15.486244959756732">
        <ele>31.379999999999999</ele>
        <time>2017-06-28T11:46:58Z</time>
      </trkpt>
      <trkpt lat="67.168649034574628" lon="15.486314026638865">
        <ele>30.420000000000002</ele>
        <time>2017-06-28T11:46:59Z</time>
      </trkpt>
      <trkpt lat="67.168444013223052" lon="15.486374963074923">
        <ele>28.98</ele>
        <time>2017-06-28T11:47:00Z</time>
      </trkpt>
      <trkpt lat="67.166860001161695" lon="15.487383976578712">
        <ele>17.920000000000002</ele>
        <time>2017-06-28T11:47:08Z</time>
      </trkpt>
      <trkpt lat="67.165158977732062" lon="15.489043006673455">
        <ele>4.94</ele>
        <time>2017-06-28T11:47:17Z</time>
      </trkpt>
      <trkpt lat="67.164974994957447" lon="15.489124981686473">
        <ele>3.98</ele>
        <time>2017-06-28T11:47:18Z</time>
      </trkpt>
      <trkpt lat="67.164790006354451" lon="15.489153983071446">
        <ele>3.02</ele>
        <time>2017-06-28T11:47:19Z</time>
      </trkpt>
      <trkpt lat="67.164609963074327" lon="15.489145014435053">
        <ele>2.06</ele>
        <time>2017-06-28T11:47:20Z</time>
      </trkpt>
      <trkpt lat="67.164431009441614" lon="15.489088017493486">
        <ele>1.1</ele>
        <time>2017-06-28T11:47:21Z</time>
      </trkpt>
      <trkpt lat="67.164259012788534" lon="15.488989027217031">
        <ele>-0.34</ele>
        <time>2017-06-28T11:47:22Z</time>
      </trkpt>
      <trkpt lat="67.164087016135454" lon="15.488844020292163">
        <ele>-1.79</ele>
        <time>2017-06-28T11:47:23Z</time>
      </trkpt>
      <trkpt lat="67.163915019482374" lon="15.488637993112206">
        <ele>-3.23</ele>
        <time>2017-06-28T11:47:24Z</time>
      </trkpt>
      <trkpt lat="67.163745034486055" lon="15.488387960940599">
        <ele>-4.19</ele>
        <time>2017-06-28T11:47:25Z</time>
      </trkpt>
      <trkpt lat="67.163578988984227" lon="15.488112028688192">
        <ele>-5.15</ele>
        <time>2017-06-28T11:47:26Z</time>
      </trkpt>
      <trkpt lat="67.16246603988111" lon="15.486129960045218">
        <ele>-8.029999999999999</ele>
        <time>2017-06-28T11:47:33Z</time>
      </trkpt>
      <trkpt lat="67.162347016856074" lon="15.485812034457922">
        <ele>-9</ele>
        <time>2017-06-28T11:47:34Z</time>
      </trkpt>
      <trkpt lat="67.16225003823638" lon="15.485476003959775">
        <ele>-9</ele>
        <time>2017-06-28T11:47:35Z</time>
      </trkpt>
      <trkpt lat="67.162174014374614" lon="15.485113989561796">
        <ele>-9</ele>
        <time>2017-06-28T11:47:36Z</time>
      </trkpt>
      <trkpt lat="67.16212397441268" lon="15.484734959900379">
        <ele>-9.48</ele>
        <time>2017-06-28T11:47:37Z</time>
      </trkpt>
      <trkpt lat="67.162090027704835" lon="15.484371017664671">
        <ele>-9.48</ele>
        <time>2017-06-28T11:47:38Z</time>
      </trkpt>
      <trkpt lat="67.162077035754919" lon="15.48400598578155">
        <ele>-10.44</ele>
        <time>2017-06-28T11:47:39Z</time>
      </trkpt>
      <trkpt lat="67.16208198107779" lon="15.483628967776895">
        <ele>-11.4</ele>
        <time>2017-06-28T11:47:40Z</time>
      </trkpt>
      <trkpt lat="67.162093967199326" lon="15.483212973922491">
        <ele>-10.92</ele>
        <time>2017-06-28T11:47:41Z</time>
      </trkpt>
      <trkpt lat="67.162248026579618" lon="15.478988997638226">
        <ele>-10.92</ele>
        <time>2017-06-28T11:47:50Z</time>
      </trkpt>
      <trkpt lat="67.162715988233685" lon="15.47590303234756">
        <ele>-8.029999999999999</ele>
        <time>2017-06-28T11:47:56Z</time>
      </trkpt>
      <trkpt lat="67.162753958255053" lon="15.475384024903178">
        <ele>-7.55</ele>
        <time>2017-06-28T11:47:57Z</time>
      </trkpt>
      <trkpt lat="67.16276896186173" lon="15.474863005802035">
        <ele>-7.07</ele>
        <time>2017-06-28T11:47:58Z</time>
      </trkpt>
      <trkpt lat="67.162756975740194" lon="15.47435799613595">
        <ele>-6.59</ele>
        <time>2017-06-28T11:47:59Z</time>
      </trkpt>
      <trkpt lat="67.162725040689111" lon="15.473871007561684">
        <ele>-6.11</ele>
        <time>2017-06-28T11:48:00Z</time>
      </trkpt>
      <trkpt lat="67.162667959928513" lon="15.47341201454401">
        <ele>-6.59</ele>
        <time>2017-06-28T11:48:01Z</time>
      </trkpt>
      <trkpt lat="67.162593025714159" lon="15.472980011254549">
        <ele>-6.59</ele>
        <time>2017-06-28T11:48:02Z</time>
      </trkpt>
      <trkpt lat="67.162496969103813" lon="15.472568040713668">
        <ele>-6.59</ele>
        <time>2017-06-28T11:48:03Z</time>
      </trkpt>
      <trkpt lat="67.162386998534203" lon="15.472206026315689">
        <ele>-6.11</ele>
        <time>2017-06-28T11:48:04Z</time>
      </trkpt>
      <trkpt lat="67.162263030186296" lon="15.471879970282316">
        <ele>-5.63</ele>
        <time>2017-06-28T11:48:05Z</time>
      </trkpt>
      <trkpt lat="67.162125986069441" lon="15.471590962260962">
        <ele>-5.15</ele>
        <time>2017-06-28T11:48:06Z</time>
      </trkpt>
      <trkpt lat="67.161974022164941" lon="15.471336990594864">
        <ele>-5.15</ele>
        <time>2017-06-28T11:48:07Z</time>
      </trkpt>
      <trkpt lat="67.161809988319874" lon="15.471123000606894">
        <ele>-4.67</ele>
        <time>2017-06-28T11:48:08Z</time>
      </trkpt>
      <trkpt lat="67.161637991666794" lon="15.470957960933447">
        <ele>-3.71</ele>
        <time>2017-06-28T11:48:09Z</time>
      </trkpt>
      <trkpt lat="67.161454008892179" lon="15.470837010070682">
        <ele>-2.75</ele>
        <time>2017-06-28T11:48:10Z</time>
      </trkpt>
      <trkpt lat="67.161258962005377" lon="15.470770038664341">
        <ele>-1.79</ele>
        <time>2017-06-28T11:48:11Z</time>
      </trkpt>
      <trkpt lat="67.161053018644452" lon="15.470741037279367">
        <ele>-1.3</ele>
        <time>2017-06-28T11:48:12Z</time>
      </trkpt>
      <trkpt lat="67.160843973979354" lon="15.470736008137465">
        <ele>-0.82</ele>
        <time>2017-06-28T11:48:13Z</time>
      </trkpt>
      <trkpt lat="67.158981012180448" lon="15.470659984275699">
        <ele>-0.34</ele>
        <time>2017-06-28T11:48:21Z</time>
      </trkpt>
      <trkpt lat="67.158140977844596" lon="15.470285983756185">
        <ele>-3.23</ele>
        <time>2017-06-28T11:48:25Z</time>
      </trkpt>
      <trkpt lat="67.157941991463304" lon="15.470069982111454">
        <ele>-3.71</ele>
        <time>2017-06-28T11:48:26Z</time>
      </trkpt>
      <trkpt lat="67.157748034223914" lon="15.469796983525157">
        <ele>-4.19</ele>
        <time>2017-06-28T11:48:27Z</time>
      </trkpt>
      <trkpt lat="67.156547997146845" lon="15.468407012522221">
        <ele>1.1</ele>
        <time>2017-06-28T11:48:33Z</time>
      </trkpt>
      <trkpt lat="67.153828991577029" lon="15.46690003015101">
        <ele>2.54</ele>
        <time>2017-06-28T11:48:45Z</time>
      </trkpt>
      <trkpt lat="67.151924958452582" lon="15.464441031217575">
        <ele>9.27</ele>
        <time>2017-06-28T11:48:55Z</time>
      </trkpt>
      <trkpt lat="67.151076961308718" lon="15.462197028100491">
        <ele>13.119999999999999</ele>
        <time>2017-06-28T11:49:01Z</time>
      </trkpt>
      <trkpt lat="67.150506991893053" lon="15.460200039669871">
        <ele>18.399999999999999</ele>
        <time>2017-06-28T11:49:06Z</time>
      </trkpt>
      <trkpt lat="67.150366008281708" lon="15.45987700112164">
        <ele>18.879999999999999</ele>
        <time>2017-06-28T11:49:07Z</time>
      </trkpt>
      <trkpt lat="67.150214966386557" lon="15.459593022242188">
        <ele>19.359999999999999</ele>
        <time>2017-06-28T11:49:08Z</time>
      </trkpt>
      <trkpt lat="67.150050010532141" lon="15.459329998120666">
        <ele>19.84</ele>
        <time>2017-06-28T11:49:09Z</time>
      </trkpt>
      <trkpt lat="67.149870973080397" lon="15.45908197760582">
        <ele>20.809999999999999</ele>
        <time>2017-06-28T11:49:10Z</time>
      </trkpt>
      <trkpt lat="67.148747965693474" lon="15.457611959427595">
        <ele>24.649999999999999</ele>
        <time>2017-06-28T11:49:16Z</time>
      </trkpt>
      <trkpt lat="67.147727971896529" lon="15.455732988193631">
        <ele>29.460000000000001</ele>
        <time>2017-06-28T11:49:24Z</time>
      </trkpt>
      <trkpt lat="67.146118981763721" lon="15.45285196043551">
        <ele>37.630000000000003</ele>
        <time>2017-06-28T11:49:36Z</time>
      </trkpt>
      <trkpt lat="67.144695986062288" lon="15.452189035713673">
        <ele>30.899999999999999</ele>
        <time>2017-06-28T11:49:44Z</time>
      </trkpt>
      <trkpt lat="67.142847022041678" lon="15.451609008014202">
        <ele>21.289999999999999</ele>
        <time>2017-06-28T11:49:53Z</time>
      </trkpt>
      <trkpt lat="67.140572005882859" lon="15.451247999444604">
        <ele>12.15</ele>
        <time>2017-06-28T11:50:03Z</time>
      </trkpt>
      <trkpt lat="67.138150976970792" lon="15.450348034501076">
        <ele>12.15</ele>
        <time>2017-06-28T11:50:14Z</time>
      </trkpt>
      <trkpt lat="67.136928979307413" lon="15.448791012167931">
        <ele>13.119999999999999</ele>
        <time>2017-06-28T11:50:21Z</time>
      </trkpt>
      <trkpt lat="67.136796964332461" lon="15.448479037731886">
        <ele>13.119999999999999</ele>
        <time>2017-06-28T11:50:22Z</time>
      </trkpt>
      <trkpt lat="67.136403014883399" lon="15.447550993412733">
        <ele>12.15</ele>
        <time>2017-06-28T11:50:25Z</time>
      </trkpt>
      <trkpt lat="67.136262031272054" lon="15.447316970676184">
        <ele>10.710000000000001</ele>
        <time>2017-06-28T11:50:26Z</time>
      </trkpt>
      <trkpt lat="67.136107971891761" lon="15.44711496680975">
        <ele>9.75</ele>
        <time>2017-06-28T11:50:27Z</time>
      </trkpt>
      <trkpt lat="67.135938992723823" lon="15.446970965713263">
        <ele>8.310000000000001</ele>
        <time>2017-06-28T11:50:28Z</time>
      </trkpt>
      <trkpt lat="67.135760961100459" lon="15.446888990700245">
        <ele>6.87</ele>
        <time>2017-06-28T11:50:29Z</time>
      </trkpt>
      <trkpt lat="67.135576978325844" lon="15.446851020678878">
        <ele>5.42</ele>
        <time>2017-06-28T11:50:30Z</time>
      </trkpt>
      <trkpt lat="67.135385032743216" lon="15.446882033720613">
        <ele>4.46</ele>
        <time>2017-06-28T11:50:31Z</time>
      </trkpt>
      <trkpt lat="67.135187974199653" lon="15.446959985420108">
        <ele>3.02</ele>
        <time>2017-06-28T11:50:32Z</time>
      </trkpt>
      <trkpt lat="67.134992005303502" lon="15.447082025930285">
        <ele>1.58</ele>
        <time>2017-06-28T11:50:33Z</time>
      </trkpt>
      <trkpt lat="67.133241025730968" lon="15.447551999241114">
        <ele>-3.23</ele>
        <time>2017-06-28T11:50:41Z</time>
      </trkpt>
      <trkpt lat="67.130540041252971" lon="15.447218986228108">
        <ele>2.06</ele>
        <time>2017-06-28T11:50:53Z</time>
      </trkpt>
      <trkpt lat="67.130309036001563" lon="15.447346977889538">
        <ele>2.54</ele>
        <time>2017-06-28T11:50:54Z</time>
      </trkpt>
      <trkpt lat="67.128636008128524" lon="15.447830026969314">
        <ele>4.46</ele>
        <time>2017-06-28T11:51:01Z</time>
      </trkpt>
      <trkpt lat="67.127265986055136" lon="15.447747968137264">
        <ele>6.39</ele>
        <time>2017-06-28T11:51:07Z</time>
      </trkpt>
      <trkpt lat="67.127057025209069" lon="15.447853999212384">
        <ele>6.39</ele>
        <time>2017-06-28T11:51:08Z</time>
      </trkpt>
      <trkpt lat="67.126853009685874" lon="15.448025995865464">
        <ele>6.39</ele>
        <time>2017-06-28T11:51:09Z</time>
      </trkpt>
      <trkpt lat="67.126649999991059" lon="15.448254989460111">
        <ele>6.39</ele>
        <time>2017-06-28T11:51:10Z</time>
      </trkpt>
      <trkpt lat="67.126449001953006" lon="15.448508039116859">
        <ele>5.91</ele>
        <time>2017-06-28T11:51:11Z</time>
      </trkpt>
      <trkpt lat="67.123781964182854" lon="15.451744962483644">
        <ele>5.91</ele>
        <time>2017-06-28T11:51:23Z</time>
      </trkpt>
      <trkpt lat="67.122233994305134" lon="15.453136023133993">
        <ele>3.02</ele>
        <time>2017-06-28T11:51:30Z</time>
      </trkpt>
      <trkpt lat="67.120529031381011" lon="15.453300978988409">
        <ele>2.06</ele>
        <time>2017-06-28T11:51:37Z</time>
      </trkpt>
      <trkpt lat="67.118977038189769" lon="15.452956985682249">
        <ele>0.14</ele>
        <time>2017-06-28T11:51:44Z</time>
      </trkpt>
      <trkpt lat="67.118047988042235" lon="15.452025001868606">
        <ele>-2.75</ele>
        <time>2017-06-28T11:51:50Z</time>
      </trkpt>
      <trkpt lat="67.116845017299056" lon="15.449904967099428">
        <ele>-5.15</ele>
        <time>2017-06-28T11:52:00Z</time>
      </trkpt>
      <trkpt lat="67.107497015967965" lon="15.454876022413373">
        <ele>-1.3</ele>
        <time>2017-06-28T11:53:01Z</time>
      </trkpt>
      <trkpt lat="67.107333987951279" lon="15.455436017364264">
        <ele>1.1</ele>
        <time>2017-06-28T11:53:02Z</time>
      </trkpt>
      <trkpt lat="67.105582002550364" lon="15.461103022098541">
        <ele>0.14</ele>
        <time>2017-06-28T11:53:13Z</time>
      </trkpt>
      <trkpt lat="67.103894976899028" lon="15.467354999855161">
        <ele>-1.3</ele>
        <time>2017-06-28T11:53:26Z</time>
      </trkpt>
      <trkpt lat="67.102785967290401" lon="15.469245035201311">
        <ele>-1.3</ele>
        <time>2017-06-28T11:53:32Z</time>
      </trkpt>
      <trkpt lat="67.099960008636117" lon="15.472222035750747">
        <ele>-1.79</ele>
        <time>2017-06-28T11:53:46Z</time>
      </trkpt>
      <trkpt lat="67.099566981196404" lon="15.472277021035552">
        <ele>-1.79</ele>
        <time>2017-06-28T11:53:48Z</time>
      </trkpt>
      <trkpt lat="67.099367994815111" lon="15.472245002165437">
        <ele>-2.75</ele>
        <time>2017-06-28T11:53:49Z</time>
      </trkpt>
      <trkpt lat="67.099169008433819" lon="15.472163027152419">
        <ele>-3.23</ele>
        <time>2017-06-28T11:53:50Z</time>
      </trkpt>
      <trkpt lat="67.098974967375398" lon="15.472036963328719">
        <ele>-2.75</ele>
        <time>2017-06-28T11:53:51Z</time>
      </trkpt>
      <trkpt lat="67.098785033449531" lon="15.471860021352768">
        <ele>-2.75</ele>
        <time>2017-06-28T11:53:52Z</time>
      </trkpt>
      <trkpt lat="67.098597027361393" lon="15.471645025536418">
        <ele>-2.75</ele>
        <time>2017-06-28T11:53:53Z</time>
      </trkpt>
      <trkpt lat="67.098414972424507" lon="15.47139298170805">
        <ele>-2.75</ele>
        <time>2017-06-28T11:53:54Z</time>
      </trkpt>
      <trkpt lat="67.098233001306653" lon="15.471114031970501">
        <ele>-2.75</ele>
        <time>2017-06-28T11:53:55Z</time>
      </trkpt>
      <trkpt lat="67.096778992563486" lon="15.467978026717901">
        <ele>0.14</ele>
        <time>2017-06-28T11:54:04Z</time>
      </trkpt>
      <trkpt lat="67.095548026263714" lon="15.463709039613605">
        <ele>-0.82</ele>
        <time>2017-06-28T11:54:14Z</time>
      </trkpt>
      <trkpt lat="67.094955006614327" lon="15.459839031100273">
        <ele>-1.79</ele>
        <time>2017-06-28T11:54:22Z</time>
      </trkpt>
      <trkpt lat="67.09500596858561" lon="15.456076981499791">
        <ele>-4.67</ele>
        <time>2017-06-28T11:54:29Z</time>
      </trkpt>
      <trkpt lat="67.095654979348183" lon="15.452653979882598">
        <ele>-5.15</ele>
        <time>2017-06-28T11:54:36Z</time>
      </trkpt>
      <trkpt lat="67.096626022830606" lon="15.450464962050319">
        <ele>-4.67</ele>
        <time>2017-06-28T11:54:42Z</time>
      </trkpt>
      <trkpt lat="67.098776986822486" lon="15.446489006280899">
        <ele>-5.15</ele>
        <time>2017-06-28T11:54:55Z</time>
      </trkpt>
      <trkpt lat="67.098776986822486" lon="15.445767994970083">
        <ele>-1.79</ele>
        <time>2017-06-28T11:54:56Z</time>
      </trkpt>
      <trkpt lat="67.098857033997774" lon="15.44515703804791">
        <ele>-0.82</ele>
        <time>2017-06-28T11:54:57Z</time>
      </trkpt>
      <trkpt lat="67.099506966769695" lon="15.440163016319275">
        <ele>6.39</ele>
        <time>2017-06-28T11:55:07Z</time>
      </trkpt>
      <trkpt lat="67.096238024532795" lon="15.428660027682781">
        <ele>10.710000000000001</ele>
        <time>2017-06-28T11:55:37Z</time>
      </trkpt>
      <trkpt lat="67.095201015472412" lon="15.425899028778076">
        <ele>20.809999999999999</ele>
        <time>2017-06-28T11:55:44Z</time>
      </trkpt>
      <trkpt lat="67.093469984829426" lon="15.420425981283188">
        <ele>17.440000000000001</ele>
        <time>2017-06-28T11:55:56Z</time>
      </trkpt>
      <trkpt lat="67.092401040717959" lon="15.415507983416319">
        <ele>0.14</ele>
        <time>2017-06-28T11:56:05Z</time>
      </trkpt>
      <trkpt lat="67.091141995042562" lon="15.407892018556595">
        <ele>-9.48</ele>
        <time>2017-06-28T11:56:18Z</time>
      </trkpt>
      <trkpt lat="67.090001972392201" lon="15.404060985893011">
        <ele>-9</ele>
        <time>2017-06-28T11:56:26Z</time>
      </trkpt>
      <trkpt lat="67.088323999196291" lon="15.400006994605064">
        <ele>-8.029999999999999</ele>
        <time>2017-06-28T11:56:36Z</time>
      </trkpt>
      <trkpt lat="67.086835037916899" lon="15.396995041519403">
        <ele>-9</ele>
        <time>2017-06-28T11:56:44Z</time>
      </trkpt>
      <trkpt lat="67.085993997752666" lon="15.393357966095209">
        <ele>-7.55</ele>
        <time>2017-06-28T11:56:51Z</time>
      </trkpt>
      <trkpt lat="67.084756996482611" lon="15.388553040102124">
        <ele>-7.55</ele>
        <time>2017-06-28T11:57:00Z</time>
      </trkpt>
      <trkpt lat="67.083312962204218" lon="15.38502199575305">
        <ele>-8.029999999999999</ele>
        <time>2017-06-28T11:57:08Z</time>
      </trkpt>
      <trkpt lat="67.081584027037024" lon="15.38224901072681">
        <ele>-8.029999999999999</ele>
        <time>2017-06-28T11:57:16Z</time>
      </trkpt>
      <trkpt lat="67.079587960615754" lon="15.380418989807367">
        <ele>-7.55</ele>
        <time>2017-06-28T11:57:24Z</time>
      </trkpt>
      <trkpt lat="67.0772560313344" lon="15.37971499375999">
        <ele>-7.07</ele>
        <time>2017-06-28T11:57:33Z</time>
      </trkpt>
      <trkpt lat="67.074660994112492" lon="15.38031698204577">
        <ele>-6.59</ele>
        <time>2017-06-28T11:57:43Z</time>
      </trkpt>
      <trkpt lat="67.068182034417987" lon="15.382513962686062">
        <ele>-4.19</ele>
        <time>2017-06-28T11:58:08Z</time>
      </trkpt>
      <trkpt lat="67.063649017363787" lon="15.3840989805758">
        <ele>-1.79</ele>
        <time>2017-06-28T11:58:26Z</time>
      </trkpt>
      <trkpt lat="67.057474991306663" lon="15.386150032281876">
        <ele>1.1</ele>
        <time>2017-06-28T11:58:50Z</time>
      </trkpt>
      <trkpt lat="67.054851958528161" lon="15.38618003949523">
        <ele>1.58</ele>
        <time>2017-06-28T11:59:00Z</time>
      </trkpt>
      <trkpt lat="67.049770010635257" lon="15.38497899658978">
        <ele>2.06</ele>
        <time>2017-06-28T11:59:20Z</time>
      </trkpt>
      <trkpt lat="67.047310005873442" lon="15.383792035281658">
        <ele>3.5</ele>
        <time>2017-06-28T11:59:30Z</time>
      </trkpt>
      <trkpt lat="67.043406972661614" lon="15.380732975900173">
        <ele>3.02</ele>
        <time>2017-06-28T11:59:45Z</time>
      </trkpt>
      <trkpt lat="67.039938038215041" lon="15.376827009022236">
        <ele>2.54</ele>
        <time>2017-06-28T11:59:59Z</time>
      </trkpt>
      <trkpt lat="67.036318983882666" lon="15.372123001143336">
        <ele>2.54</ele>
        <time>2017-06-28T12:00:14Z</time>
      </trkpt>
      <trkpt lat="67.03173098154366" lon="15.36699797026813">
        <ele>8.310000000000001</ele>
        <time>2017-06-28T12:00:33Z</time>
      </trkpt>
      <trkpt lat="67.028471007943153" lon="15.362817998975515">
        <ele>7.35</ele>
        <time>2017-06-28T12:00:47Z</time>
      </trkpt>
      <trkpt lat="67.025064015761018" lon="15.356516987085342">
        <ele>3.98</ele>
        <time>2017-06-28T12:01:03Z</time>
      </trkpt>
      <trkpt lat="67.021843018010259" lon="15.351080987602472">
        <ele>6.87</ele>
        <time>2017-06-28T12:01:18Z</time>
      </trkpt>
      <trkpt lat="67.020119028165936" lon="15.349653968587518">
        <ele>7.83</ele>
        <time>2017-06-28T12:01:25Z</time>
      </trkpt>
      <trkpt lat="67.018265035003424" lon="15.349538968876004">
        <ele>8.310000000000001</ele>
        <time>2017-06-28T12:01:32Z</time>
      </trkpt>
      <trkpt lat="67.016486981883645" lon="15.35077303647995">
        <ele>6.39</ele>
        <time>2017-06-28T12:01:39Z</time>
      </trkpt>
      <trkpt lat="67.014640029519796" lon="15.353017039597034">
        <ele>6.39</ele>
        <time>2017-06-28T12:01:48Z</time>
      </trkpt>
      <trkpt lat="67.01316699385643" lon="15.353623973205686">
        <ele>7.35</ele>
        <time>2017-06-28T12:01:55Z</time>
      </trkpt>
      <trkpt lat="67.011544005945325" lon="15.352961970493197">
        <ele>7.83</ele>
        <time>2017-06-28T12:02:03Z</time>
      </trkpt>
      <trkpt lat="67.009851029142737" lon="15.35242703743279">
        <ele>7.35</ele>
        <time>2017-06-28T12:02:10Z</time>
      </trkpt>
      <trkpt lat="67.006772020831704" lon="15.352267026901245">
        <ele>8.310000000000001</ele>
        <time>2017-06-28T12:02:21Z</time>
      </trkpt>
      <trkpt lat="67.003574995324016" lon="15.351697979494929">
        <ele>8.310000000000001</ele>
        <time>2017-06-28T12:02:33Z</time>
      </trkpt>
      <trkpt lat="67.001288998872042" lon="15.350048001855612">
        <ele>7.35</ele>
        <time>2017-06-28T12:02:42Z</time>
      </trkpt>
      <trkpt lat="66.999461995437741" lon="15.347558995708823">
        <ele>6.39</ele>
        <time>2017-06-28T12:02:50Z</time>
      </trkpt>
      <trkpt lat="66.996956979855895" lon="15.342561034485698">
        <ele>9.27</ele>
        <time>2017-06-28T12:03:02Z</time>
      </trkpt>
      <trkpt lat="66.992909023538232" lon="15.334261022508144">
        <ele>13.6</ele>
        <time>2017-06-28T12:03:22Z</time>
      </trkpt>
      <trkpt lat="66.988585973158479" lon="15.325506962835789">
        <ele>13.6</ele>
        <time>2017-06-28T12:03:43Z</time>
      </trkpt>
      <trkpt lat="66.985292974859476" lon="15.319823026657104">
        <ele>13.6</ele>
        <time>2017-06-28T12:03:58Z</time>
      </trkpt>
      <trkpt lat="66.98295802809298" lon="15.317155988886952">
        <ele>13.119999999999999</ele>
        <time>2017-06-28T12:04:08Z</time>
      </trkpt>
      <trkpt lat="66.980439014732838" lon="15.315566025674343">
        <ele>15.039999999999999</ele>
        <time>2017-06-28T12:04:19Z</time>
      </trkpt>
      <trkpt lat="66.977943973615766" lon="15.315170986577868">
        <ele>17.440000000000001</ele>
        <time>2017-06-28T12:04:29Z</time>
      </trkpt>
      <trkpt lat="66.97548296302557" lon="15.31489597633481">
        <ele>17.440000000000001</ele>
        <time>2017-06-28T12:04:39Z</time>
      </trkpt>
      <trkpt lat="66.973304003477097" lon="15.313506005331874">
        <ele>16</ele>
        <time>2017-06-28T12:04:48Z</time>
      </trkpt>
      <trkpt lat="66.971094030886889" lon="15.312371011823416">
        <ele>16</ele>
        <time>2017-06-28T12:04:57Z</time>
      </trkpt>
      <trkpt lat="66.967221004888415" lon="15.30879101715982">
        <ele>17.440000000000001</ele>
        <time>2017-06-28T12:05:13Z</time>
      </trkpt>
      <trkpt lat="66.964944982901216" lon="15.306245014071465">
        <ele>19.84</ele>
        <time>2017-06-28T12:05:23Z</time>
      </trkpt>
      <trkpt lat="66.962341982871294" lon="15.30427903868258">
        <ele>19.359999999999999</ele>
        <time>2017-06-28T12:05:34Z</time>
      </trkpt>
      <trkpt lat="66.960727963596582" lon="15.303474040701985">
        <ele>19.359999999999999</ele>
        <time>2017-06-28T12:05:41Z</time>
      </trkpt>
      <trkpt lat="66.959343021735549" lon="15.304223969578743">
        <ele>20.809999999999999</ele>
        <time>2017-06-28T12:05:47Z</time>
      </trkpt>
      <trkpt lat="66.957309991121292" lon="15.305843017995358">
        <ele>21.77</ele>
        <time>2017-06-28T12:05:56Z</time>
      </trkpt>
      <trkpt lat="66.955913985148072" lon="15.305531965568662">
        <ele>21.77</ele>
        <time>2017-06-28T12:06:02Z</time>
      </trkpt>
      <trkpt lat="66.953863017261028" lon="15.304327988997102">
        <ele>23.210000000000001</ele>
        <time>2017-06-28T12:06:11Z</time>
      </trkpt>
      <trkpt lat="66.950744027271867" lon="15.303674032911658">
        <ele>24.170000000000002</ele>
        <time>2017-06-28T12:06:24Z</time>
      </trkpt>
      <trkpt lat="66.947391014546156" lon="15.302064036950469">
        <ele>24.170000000000002</ele>
        <time>2017-06-28T12:06:38Z</time>
      </trkpt>
      <trkpt lat="66.945449011400342" lon="15.301888016983867">
        <ele>25.609999999999999</ele>
        <time>2017-06-28T12:06:46Z</time>
      </trkpt>
      <trkpt lat="66.943641034886241" lon="15.303151002153754">
        <ele>26.57</ele>
        <time>2017-06-28T12:06:54Z</time>
      </trkpt>
      <trkpt lat="66.942171016708016" lon="15.305498018860817">
        <ele>25.609999999999999</ele>
        <time>2017-06-28T12:07:01Z</time>
      </trkpt>
      <trkpt lat="66.93846101872623" lon="15.313042989000678">
        <ele>27.050000000000001</ele>
        <time>2017-06-28T12:07:20Z</time>
      </trkpt>
      <trkpt lat="66.936946995556355" lon="15.314739989116788">
        <ele>28.5</ele>
        <time>2017-06-28T12:07:27Z</time>
      </trkpt>
      <trkpt lat="66.935048997402191" lon="15.315464017912745">
        <ele>28.5</ele>
        <time>2017-06-28T12:07:35Z</time>
      </trkpt>
      <trkpt lat="66.931697996333241" lon="15.316707976162434">
        <ele>29.940000000000001</ele>
        <time>2017-06-28T12:07:49Z</time>
      </trkpt>
      <trkpt lat="66.930496031418443" lon="15.318642016500235">
        <ele>32.340000000000003</ele>
        <time>2017-06-28T12:07:55Z</time>
      </trkpt>
      <trkpt lat="66.929478971287608" lon="15.321820015087724">
        <ele>33.780000000000001</ele>
        <time>2017-06-28T12:08:02Z</time>
      </trkpt>
      <trkpt lat="66.928401980549097" lon="15.324419997632504">
        <ele>34.740000000000002</ele>
        <time>2017-06-28T12:08:09Z</time>
      </trkpt>
      <trkpt lat="66.927131032571197" lon="15.325516015291214">
        <ele>35.710000000000001</ele>
        <time>2017-06-28T12:08:15Z</time>
      </trkpt>
      <trkpt lat="66.925792023539543" lon="15.325120976194739">
        <ele>35.229999999999997</ele>
        <time>2017-06-28T12:08:21Z</time>
      </trkpt>
      <trkpt lat="66.924399035051465" lon="15.323232030496001">
        <ele>34.740000000000002</ele>
        <time>2017-06-28T12:08:28Z</time>
      </trkpt>
      <trkpt lat="66.922917030751705" lon="15.321849016472697">
        <ele>35.229999999999997</ele>
        <time>2017-06-28T12:08:35Z</time>
      </trkpt>
      <trkpt lat="66.920372033491731" lon="15.321249039843678">
        <ele>36.670000000000002</ele>
        <time>2017-06-28T12:08:46Z</time>
      </trkpt>
      <trkpt lat="66.918821968138218" lon="15.322322007268667">
        <ele>37.149999999999999</ele>
        <time>2017-06-28T12:08:53Z</time>
      </trkpt>
      <trkpt lat="66.917261006310582" lon="15.323006976395845">
        <ele>37.149999999999999</ele>
        <time>2017-06-28T12:09:00Z</time>
      </trkpt>
      <trkpt lat="66.915959967300296" lon="15.32198497094214">
        <ele>35.710000000000001</ele>
        <time>2017-06-28T12:09:06Z</time>
      </trkpt>
      <trkpt lat="66.914667980745435" lon="15.319429999217391">
        <ele>35.710000000000001</ele>
        <time>2017-06-28T12:09:13Z</time>
      </trkpt>
      <trkpt lat="66.913443971425295" lon="15.317760994657874">
        <ele>36.189999999999998</ele>
        <time>2017-06-28T12:09:19Z</time>
      </trkpt>
      <trkpt lat="66.911231987178326" lon="15.315234018489718">
        <ele>37.149999999999999</ele>
        <time>2017-06-28T12:09:30Z</time>
      </trkpt>
      <trkpt lat="66.908482974395156" lon="15.311299972236156">
        <ele>39.549999999999997</ele>
        <time>2017-06-28T12:09:44Z</time>
      </trkpt>
      <trkpt lat="66.90694103948772" lon="15.310007985681295">
        <ele>40.509999999999998</ele>
        <time>2017-06-28T12:09:51Z</time>
      </trkpt>
      <trkpt lat="66.905114036053419" lon="15.309873959049582">
        <ele>40.990000000000002</ele>
        <time>2017-06-28T12:09:59Z</time>
      </trkpt>
      <trkpt lat="66.90305502153933" lon="15.309536000713706">
        <ele>41.469999999999999</ele>
        <time>2017-06-28T12:10:08Z</time>
      </trkpt>
      <trkpt lat="66.901084017008543" lon="15.307702040299773">
        <ele>43.399999999999999</ele>
        <time>2017-06-28T12:10:17Z</time>
      </trkpt>
      <trkpt lat="66.89783401787281" lon="15.303691970184445">
        <ele>46.280000000000001</ele>
        <time>2017-06-28T12:10:32Z</time>
      </trkpt>
      <trkpt lat="66.894419984892011" lon="15.300250025466084">
        <ele>46.759999999999998</ele>
        <time>2017-06-28T12:10:47Z</time>
      </trkpt>
      <trkpt lat="66.890268009155989" lon="15.296070976182818">
        <ele>50.130000000000003</ele>
        <time>2017-06-28T12:11:06Z</time>
      </trkpt>
      <trkpt lat="66.887987963855267" lon="15.294470032677054">
        <ele>53.009999999999998</ele>
        <time>2017-06-28T12:11:16Z</time>
      </trkpt>
      <trkpt lat="66.885850997641683" lon="15.294287977740169">
        <ele>52.530000000000001</ele>
        <time>2017-06-28T12:11:25Z</time>
      </trkpt>
      <trkpt lat="66.884304033592343" lon="15.293110990896821">
        <ele>53.969999999999999</ele>
        <time>2017-06-28T12:11:32Z</time>
      </trkpt>
      <trkpt lat="66.880615996196866" lon="15.289107039570808">
        <ele>60.219999999999999</ele>
        <time>2017-06-28T12:11:49Z</time>
      </trkpt>
      <trkpt lat="66.878960989415646" lon="15.288066007196903">
        <ele>62.140000000000001</ele>
        <time>2017-06-28T12:11:56Z</time>
      </trkpt>
      <trkpt lat="66.877535982057452" lon="15.288415029644966">
        <ele>61.659999999999997</ele>
        <time>2017-06-28T12:12:02Z</time>
      </trkpt>
      <trkpt lat="66.875974014401436" lon="15.290227029472589">
        <ele>57.340000000000003</ele>
        <time>2017-06-28T12:12:09Z</time>
      </trkpt>
      <trkpt lat="66.873460030183196" lon="15.294833974912763">
        <ele>50.609999999999999</ele>
        <time>2017-06-28T12:12:21Z</time>
      </trkpt>
      <trkpt lat="66.871502017602324" lon="15.298279020935297">
        <ele>53.009999999999998</ele>
        <time>2017-06-28T12:12:31Z</time>
      </trkpt>
      <trkpt lat="66.870127972215414" lon="15.299134980887175">
        <ele>53.009999999999998</ele>
        <time>2017-06-28T12:12:37Z</time>
      </trkpt>
      <trkpt lat="66.867218026891351" lon="15.299649965018034">
        <ele>54.450000000000003</ele>
        <time>2017-06-28T12:12:49Z</time>
      </trkpt>
      <trkpt lat="66.865146020427346" lon="15.300767021253705">
        <ele>56.859999999999999</ele>
        <time>2017-06-28T12:12:58Z</time>
      </trkpt>
      <trkpt lat="66.863567959517241" lon="15.303408997133374">
        <ele>58.780000000000001</ele>
        <time>2017-06-28T12:13:06Z</time>
      </trkpt>
      <trkpt lat="66.861272994428873" lon="15.306781036779284">
        <ele>59.740000000000002</ele>
        <time>2017-06-28T12:13:17Z</time>
      </trkpt>
      <trkpt lat="66.858098013326526" lon="15.312692960724235">
        <ele>64.549999999999997</ele>
        <time>2017-06-28T12:13:33Z</time>
      </trkpt>
      <trkpt lat="66.856985986232758" lon="15.314506972208619">
        <ele>65.030000000000001</ele>
        <time>2017-06-28T12:13:39Z</time>
      </trkpt>
      <trkpt lat="66.856543002650142" lon="15.314801009371877">
        <ele>65.030000000000001</ele>
        <time>2017-06-28T12:13:41Z</time>
      </trkpt>
      <trkpt lat="66.856310991570354" lon="15.314880972728133">
        <ele>65.030000000000001</ele>
        <time>2017-06-28T12:13:42Z</time>
      </trkpt>
      <trkpt lat="66.856077974662185" lon="15.31491500325501">
        <ele>65.030000000000001</ele>
        <time>2017-06-28T12:13:43Z</time>
      </trkpt>
      <trkpt lat="66.855849986895919" lon="15.314899999648333">
        <ele>65.510000000000005</ele>
        <time>2017-06-28T12:13:44Z</time>
      </trkpt>
      <trkpt lat="66.855619987472892" lon="15.314844008535147">
        <ele>65.989999999999995</ele>
        <time>2017-06-28T12:13:45Z</time>
      </trkpt>
      <trkpt lat="66.855389988049865" lon="15.31476597301662">
        <ele>66.950000000000003</ele>
        <time>2017-06-28T12:13:46Z</time>
      </trkpt>
      <trkpt lat="66.85301598161459" lon="15.314541002735496">
        <ele>65.989999999999995</ele>
        <time>2017-06-28T12:13:56Z</time>
      </trkpt>
      <trkpt lat="66.850594030693173" lon="15.315736010670662">
        <ele>65.989999999999995</ele>
        <time>2017-06-28T12:14:06Z</time>
      </trkpt>
      <trkpt lat="66.848442982882261" lon="15.316364988684654">
        <ele>66.950000000000003</ele>
        <time>2017-06-28T12:14:16Z</time>
      </trkpt>
      <trkpt lat="66.846406012773514" lon="15.317294038832188">
        <ele>69.349999999999994</ele>
        <time>2017-06-28T12:14:26Z</time>
      </trkpt>
      <trkpt lat="66.844929959625006" lon="15.319672990590334">
        <ele>73.680000000000007</ele>
        <time>2017-06-28T12:14:34Z</time>
      </trkpt>
      <trkpt lat="66.84334603138268" lon="15.323173021897674">
        <ele>73.200000000000003</ele>
        <time>2017-06-28T12:14:43Z</time>
      </trkpt>
      <trkpt lat="66.841636039316654" lon="15.327893039211631">
        <ele>73.680000000000007</ele>
        <time>2017-06-28T12:14:54Z</time>
      </trkpt>
      <trkpt lat="66.840613028034568" lon="15.332700982689857">
        <ele>76.560000000000002</ele>
        <time>2017-06-28T12:15:04Z</time>
      </trkpt>
      <trkpt lat="66.839770982041955" lon="15.336756985634565">
        <ele>81.370000000000005</ele>
        <time>2017-06-28T12:15:12Z</time>
      </trkpt>
      <trkpt lat="66.838504979386926" lon="15.341998022049665">
        <ele>83.769999999999996</ele>
        <time>2017-06-28T12:15:22Z</time>
      </trkpt>
      <trkpt lat="66.837610965594649" lon="15.34643498249352">
        <ele>87.140000000000001</ele>
        <time>2017-06-28T12:15:30Z</time>
      </trkpt>
      <trkpt lat="66.836636988446116" lon="15.350434994325042">
        <ele>92.900000000000006</ele>
        <time>2017-06-28T12:15:38Z</time>
      </trkpt>
      <trkpt lat="66.835431000217795" lon="15.354622006416321">
        <ele>99.629999999999995</ele>
        <time>2017-06-28T12:15:47Z</time>
      </trkpt>
      <trkpt lat="66.83415200561285" lon="15.358899962157011">
        <ele>107.81</ele>
        <time>2017-06-28T12:15:56Z</time>
      </trkpt>
      <trkpt lat="66.831879001110792" lon="15.365189993754029">
        <ele>114.05</ele>
        <time>2017-06-28T12:16:10Z</time>
      </trkpt>
      <trkpt lat="66.830437984317541" lon="15.368117960169911">
        <ele>112.61</ele>
        <time>2017-06-28T12:16:18Z</time>
      </trkpt>
      <trkpt lat="66.828879034146667" lon="15.371843967586756">
        <ele>112.61</ele>
        <time>2017-06-28T12:16:28Z</time>
      </trkpt>
      <trkpt lat="66.826565964147449" lon="15.377150969579816">
        <ele>113.56999999999999</ele>
        <time>2017-06-28T12:16:41Z</time>
      </trkpt>
      <trkpt lat="66.825044983997941" lon="15.378847969695926">
        <ele>113.56999999999999</ele>
        <time>2017-06-28T12:16:48Z</time>
      </trkpt>
      <trkpt lat="66.824496975168586" lon="15.379684986546636">
        <ele>113.56999999999999</ele>
        <time>2017-06-28T12:16:51Z</time>
      </trkpt>
      <trkpt lat="66.824361020699143" lon="15.380031997337937">
        <ele>113.09</ele>
        <time>2017-06-28T12:16:52Z</time>
      </trkpt>
      <trkpt lat="66.824249038472772" lon="15.380413038656116">
        <ele>112.61</ele>
        <time>2017-06-28T12:16:53Z</time>
      </trkpt>
      <trkpt lat="66.824154993519187" lon="15.3808300383389">
        <ele>111.65000000000001</ele>
        <time>2017-06-28T12:16:54Z</time>
      </trkpt>
      <trkpt lat="66.824066983535886" lon="15.381290037184954">
        <ele>111.65000000000001</ele>
        <time>2017-06-28T12:16:55Z</time>
      </trkpt>
      <trkpt lat="66.82377596385777" lon="15.382800037041306">
        <ele>111.17</ele>
        <time>2017-06-28T12:16:58Z</time>
      </trkpt>
      <trkpt lat="66.823641015216708" lon="15.383278978988528">
        <ele>111.17</ele>
        <time>2017-06-28T12:16:59Z</time>
      </trkpt>
      <trkpt lat="66.823481004685163" lon="15.383717017248273">
        <ele>111.17</ele>
        <time>2017-06-28T12:17:00Z</time>
      </trkpt>
      <trkpt lat="66.821699012070894" lon="15.38785700686276">
        <ele>114.05</ele>
        <time>2017-06-28T12:17:10Z</time>
      </trkpt>
      <trkpt lat="66.819871002808213" lon="15.391914015635848">
        <ele>117.42</ele>
        <time>2017-06-28T12:17:22Z</time>
      </trkpt>
      <trkpt lat="66.817852975800633" lon="15.39615198969841">
        <ele>119.34</ele>
        <time>2017-06-28T12:17:35Z</time>
      </trkpt>
      <trkpt lat="66.816606000065804" lon="15.397112974897027">
        <ele>112.61</ele>
        <time>2017-06-28T12:17:41Z</time>
      </trkpt>
      <trkpt lat="66.815012013539672" lon="15.397480018436909">
        <ele>117.42</ele>
        <time>2017-06-28T12:17:49Z</time>
      </trkpt>
      <trkpt lat="66.813943991437554" lon="15.398755995556712">
        <ele>120.78</ele>
        <time>2017-06-28T12:17:55Z</time>
      </trkpt>
      <trkpt lat="66.812609005719423" lon="15.401654960587621">
        <ele>121.26000000000001</ele>
        <time>2017-06-28T12:18:04Z</time>
      </trkpt>
      <trkpt lat="66.81064797565341" lon="15.406063003465533">
        <ele>123.19</ele>
        <time>2017-06-28T12:18:16Z</time>
      </trkpt>
      <trkpt lat="66.808759029954672" lon="15.410270970314741">
        <ele>129.91999999999999</ele>
        <time>2017-06-28T12:18:28Z</time>
      </trkpt>
      <trkpt lat="66.806108001619577" lon="15.416442984715104">
        <ele>145.30000000000001</ele>
        <time>2017-06-28T12:18:44Z</time>
      </trkpt>
      <trkpt lat="66.804467998445034" lon="15.422387011349201">
        <ele>156.83000000000001</ele>
        <time>2017-06-28T12:18:56Z</time>
      </trkpt>
      <trkpt lat="66.802994962781668" lon="15.427291011437774">
        <ele>170.28999999999999</ele>
        <time>2017-06-28T12:19:07Z</time>
      </trkpt>
      <trkpt lat="66.802045963704586" lon="15.430478984490037">
        <ele>177.97999999999999</ele>
        <time>2017-06-28T12:19:14Z</time>
      </trkpt>
      <trkpt lat="66.801940016448498" lon="15.430978965014219">
        <ele>178.94</ele>
        <time>2017-06-28T12:19:15Z</time>
      </trkpt>
      <trkpt lat="66.80106402374804" lon="15.434431973844767">
        <ele>186.63</ele>
        <time>2017-06-28T12:19:22Z</time>
      </trkpt>
      <trkpt lat="66.799639016389847" lon="15.43828496709466">
        <ele>197.69</ele>
        <time>2017-06-28T12:19:31Z</time>
      </trkpt>
      <trkpt lat="66.799286976456642" lon="15.439665969461203">
        <ele>201.05000000000001</ele>
        <time>2017-06-28T12:19:34Z</time>
      </trkpt>
      <trkpt lat="66.799138030037284" lon="15.440079029649496">
        <ele>202.00999999999999</ele>
        <time>2017-06-28T12:19:35Z</time>
      </trkpt>
      <trkpt lat="66.798975002020597" lon="15.440483959391713">
        <ele>202.49000000000001</ele>
        <time>2017-06-28T12:19:36Z</time>
      </trkpt>
      <trkpt lat="66.797432983294129" lon="15.443881982937455">
        <ele>206.81999999999999</ele>
        <time>2017-06-28T12:19:45Z</time>
      </trkpt>
      <trkpt lat="66.796691017225385" lon="15.446614986285567">
        <ele>203.46000000000001</ele>
        <time>2017-06-28T12:19:51Z</time>
      </trkpt>
      <trkpt lat="66.79655103944242" lon="15.446999967098236">
        <ele>202.49000000000001</ele>
        <time>2017-06-28T12:19:52Z</time>
      </trkpt>
      <trkpt lat="66.796409972012043" lon="15.447378996759653">
        <ele>201.53</ele>
        <time>2017-06-28T12:19:53Z</time>
      </trkpt>
      <trkpt lat="66.796284997835755" lon="15.44780395925045">
        <ele>201.05000000000001</ele>
        <time>2017-06-28T12:19:54Z</time>
      </trkpt>
      <trkpt lat="66.796174021437764" lon="15.448260018602014">
        <ele>200.09</ele>
        <time>2017-06-28T12:19:55Z</time>
      </trkpt>
      <trkpt lat="66.796065978705883" lon="15.448707025498152">
        <ele>198.65000000000001</ele>
        <time>2017-06-28T12:19:56Z</time>
      </trkpt>
      <trkpt lat="66.795953996479511" lon="15.449122013524175">
        <ele>198.16999999999999</ele>
        <time>2017-06-28T12:19:57Z</time>
      </trkpt>
      <trkpt lat="66.795828016474843" lon="15.449484027922153">
        <ele>197.69</ele>
        <time>2017-06-28T12:19:58Z</time>
      </trkpt>
      <trkpt lat="66.795683009549975" lon="15.449802959337831">
        <ele>197.69</ele>
        <time>2017-06-28T12:19:59Z</time>
      </trkpt>
      <trkpt lat="66.79552199319005" lon="15.450062965974212">
        <ele>197.21000000000001</ele>
        <time>2017-06-28T12:20:00Z</time>
      </trkpt>
      <trkpt lat="66.795341027900577" lon="15.45027301646769">
        <ele>197.21000000000001</ele>
        <time>2017-06-28T12:20:01Z</time>
      </trkpt>
      <trkpt lat="66.795153021812439" lon="15.450449958443642">
        <ele>196.72999999999999</ele>
        <time>2017-06-28T12:20:02Z</time>
      </trkpt>
      <trkpt lat="66.794956969097257" lon="15.45059697702527">
        <ele>196.25</ele>
        <time>2017-06-28T12:20:03Z</time>
      </trkpt>
      <trkpt lat="66.794753959402442" lon="15.450710970908403">
        <ele>195.28</ele>
        <time>2017-06-28T12:20:04Z</time>
      </trkpt>
      <trkpt lat="66.792832994833589" lon="15.451485039666295">
        <ele>192.88</ele>
        <time>2017-06-28T12:20:13Z</time>
      </trkpt>
      <trkpt lat="66.790983024984598" lon="15.453437017276883">
        <ele>196.25</ele>
        <time>2017-06-28T12:20:22Z</time>
      </trkpt>
      <trkpt lat="66.789279989898205" lon="15.455995006486773">
        <ele>198.16999999999999</ele>
        <time>2017-06-28T12:20:31Z</time>
      </trkpt>
      <trkpt lat="66.787042021751404" lon="15.46079901047051">
        <ele>197.21000000000001</ele>
        <time>2017-06-28T12:20:44Z</time>
      </trkpt>
      <trkpt lat="66.784948976710439" lon="15.46511996537447">
        <ele>213.55000000000001</ele>
        <time>2017-06-28T12:20:56Z</time>
      </trkpt>
      <trkpt lat="66.783453980460763" lon="15.466754017397761">
        <ele>219.31999999999999</ele>
        <time>2017-06-28T12:21:03Z</time>
      </trkpt>
      <trkpt lat="66.779797039926052" lon="15.470114992931485">
        <ele>242.38999999999999</ele>
        <time>2017-06-28T12:21:19Z</time>
      </trkpt>
      <trkpt lat="66.776591967791319" lon="15.473028039559722">
        <ele>254.88999999999999</ele>
        <time>2017-06-28T12:21:33Z</time>
      </trkpt>
      <trkpt lat="66.77392995916307" lon="15.47495998442173">
        <ele>264.98000000000002</ele>
        <time>2017-06-28T12:21:44Z</time>
      </trkpt>
      <trkpt lat="66.771752005442977" lon="15.476111993193626">
        <ele>283.25</ele>
        <time>2017-06-28T12:21:53Z</time>
      </trkpt>
      <trkpt lat="66.769749987870455" lon="15.476262029260397">
        <ele>297.18000000000001</ele>
        <time>2017-06-28T12:22:01Z</time>
      </trkpt>
      <trkpt lat="66.766381971538067" lon="15.475728018209338">
        <ele>314.97000000000003</ele>
        <time>2017-06-28T12:22:14Z</time>
      </trkpt>
      <trkpt lat="66.764380037784576" lon="15.475900014862418">
        <ele>309.19999999999999</ele>
        <time>2017-06-28T12:22:22Z</time>
      </trkpt>
      <trkpt lat="66.761437989771366" lon="15.476332018151879">
        <ele>322.18000000000001</ele>
        <time>2017-06-28T12:22:33Z</time>
      </trkpt>
      <trkpt lat="66.760176010429859" lon="15.476552965119481">
        <ele>333.70999999999998</ele>
        <time>2017-06-28T12:22:40Z</time>
      </trkpt>
      <trkpt lat="66.758497031405568" lon="15.476711969822645">
        <ele>338.51999999999998</ele>
        <time>2017-06-28T12:22:49Z</time>
      </trkpt>
      <trkpt lat="66.756670027971268" lon="15.476137977093458">
        <ele>336.12</ele>
        <time>2017-06-28T12:22:58Z</time>
      </trkpt>
      <trkpt lat="66.756498031318188" lon="15.476094977930188">
        <ele>336.60000000000002</ele>
        <time>2017-06-28T12:22:59Z</time>
      </trkpt>
      <trkpt lat="66.756326034665108" lon="15.476093972101808">
        <ele>337.07999999999998</ele>
        <time>2017-06-28T12:23:00Z</time>
      </trkpt>
      <trkpt lat="66.756152026355267" lon="15.476146023720503">
        <ele>338.04000000000002</ele>
        <time>2017-06-28T12:23:01Z</time>
      </trkpt>
      <trkpt lat="66.755976006388664" lon="15.476252976804972">
        <ele>338.51999999999998</ele>
        <time>2017-06-28T12:23:02Z</time>
      </trkpt>
      <trkpt lat="66.75579596310854" lon="15.476392032578588">
        <ele>339</ele>
        <time>2017-06-28T12:23:03Z</time>
      </trkpt>
      <trkpt lat="66.754048001021147" lon="15.477627022191882">
        <ele>345.73000000000002</ele>
        <time>2017-06-28T12:23:12Z</time>
      </trkpt>
      <trkpt lat="66.752564990893006" lon="15.477915024384856">
        <ele>353.42000000000002</ele>
        <time>2017-06-28T12:23:20Z</time>
      </trkpt>
      <trkpt lat="66.750761037692428" lon="15.478012003004551">
        <ele>357.26999999999998</ele>
        <time>2017-06-28T12:23:29Z</time>
      </trkpt>
      <trkpt lat="66.750560039654374" lon="15.477921981364489">
        <ele>357.26999999999998</ele>
        <time>2017-06-28T12:23:30Z</time>
      </trkpt>
      <trkpt lat="66.750365998595953" lon="15.477788038551807">
        <ele>357.75</ele>
        <time>2017-06-28T12:23:31Z</time>
      </trkpt>
      <trkpt lat="66.749182976782322" lon="15.476111993193626">
        <ele>363.04000000000002</ele>
        <time>2017-06-28T12:23:38Z</time>
      </trkpt>
      <trkpt lat="66.748530026525259" lon="15.475209010764956">
        <ele>367.83999999999997</ele>
        <time>2017-06-28T12:23:42Z</time>
      </trkpt>
      <trkpt lat="66.74836004152894" lon="15.475076995790005">
        <ele>368.80000000000001</ele>
        <time>2017-06-28T12:23:43Z</time>
      </trkpt>
      <trkpt lat="66.748193996027112" lon="15.474986974149942">
        <ele>369.27999999999997</ele>
        <time>2017-06-28T12:23:44Z</time>
      </trkpt>
      <trkpt lat="66.748041026294231" lon="15.474940035492182">
        <ele>369.27999999999997</ele>
        <time>2017-06-28T12:23:45Z</time>
      </trkpt>
      <trkpt lat="66.747894007712603" lon="15.474926037713885">
        <ele>369.75999999999999</ele>
        <time>2017-06-28T12:23:46Z</time>
      </trkpt>
      <trkpt lat="66.747746989130974" lon="15.47493701800704">
        <ele>370.73000000000002</ele>
        <time>2017-06-28T12:23:47Z</time>
      </trkpt>
      <trkpt lat="66.747594019398093" lon="15.474974988028407">
        <ele>371.20999999999998</ele>
        <time>2017-06-28T12:23:48Z</time>
      </trkpt>
      <trkpt lat="66.747431997209787" lon="15.475040031597018">
        <ele>371.69</ele>
        <time>2017-06-28T12:23:49Z</time>
      </trkpt>
      <trkpt lat="66.745981005951762" lon="15.475757019594312">
        <ele>380.33999999999997</ele>
        <time>2017-06-28T12:23:57Z</time>
      </trkpt>
      <trkpt lat="66.744736041873693" lon="15.475898003205657">
        <ele>390.43000000000001</ele>
        <time>2017-06-28T12:24:03Z</time>
      </trkpt>
      <trkpt lat="66.742491032928228" lon="15.475669009611011">
        <ele>406.29000000000002</ele>
        <time>2017-06-28T12:24:12Z</time>
      </trkpt>
      <trkpt lat="66.740993019193411" lon="15.475529031828046">
        <ele>411.10000000000002</ele>
        <time>2017-06-28T12:24:20Z</time>
      </trkpt>
      <trkpt lat="66.740849018096924" lon="15.475427024066448">
        <ele>412.54000000000002</ele>
        <time>2017-06-28T12:24:21Z</time>
      </trkpt>
      <trkpt lat="66.740717003121972" lon="15.475287968292832">
        <ele>413.98000000000002</ele>
        <time>2017-06-28T12:24:22Z</time>
      </trkpt>
      <trkpt lat="66.740589011460543" lon="15.475108008831739">
        <ele>415.91000000000003</ele>
        <time>2017-06-28T12:24:23Z</time>
      </trkpt>
      <trkpt lat="66.740472000092268" lon="15.474883960559964">
        <ele>416.87</ele>
        <time>2017-06-28T12:24:24Z</time>
      </trkpt>
      <trkpt lat="66.74036898650229" lon="15.47461599111557">
        <ele>417.82999999999998</ele>
        <time>2017-06-28T12:24:25Z</time>
      </trkpt>
      <trkpt lat="66.740277037024498" lon="15.474308039993048">
        <ele>418.79000000000002</ele>
        <time>2017-06-28T12:24:26Z</time>
      </trkpt>
      <trkpt lat="66.740199001505971" lon="15.473963040858507">
        <ele>418.79000000000002</ele>
        <time>2017-06-28T12:24:27Z</time>
      </trkpt>
      <trkpt lat="66.740121971815825" lon="15.473595997318625">
        <ele>418.31</ele>
        <time>2017-06-28T12:24:28Z</time>
      </trkpt>
      <trkpt lat="66.740033039823174" lon="15.473242029547691">
        <ele>417.35000000000002</ele>
        <time>2017-06-28T12:24:29Z</time>
      </trkpt>
      <trkpt lat="66.739924997091293" lon="15.472908010706306">
        <ele>416.87</ele>
        <time>2017-06-28T12:24:30Z</time>
      </trkpt>
      <trkpt lat="66.739800022915006" lon="15.472598969936371">
        <ele>416.87</ele>
        <time>2017-06-28T12:24:31Z</time>
      </trkpt>
      <trkpt lat="66.739655015990138" lon="15.47233602963388">
        <ele>417.35000000000002</ele>
        <time>2017-06-28T12:24:32Z</time>
      </trkpt>
      <trkpt lat="66.739501040428877" lon="15.472136959433556">
        <ele>418.31</ele>
        <time>2017-06-28T12:24:33Z</time>
      </trkpt>
      <trkpt lat="66.739339018240571" lon="15.472008967772126">
        <ele>419.26999999999998</ele>
        <time>2017-06-28T12:24:34Z</time>
      </trkpt>
      <trkpt lat="66.739174984395504" lon="15.471935039386153">
        <ele>420.23000000000002</ele>
        <time>2017-06-28T12:24:35Z</time>
      </trkpt>
      <trkpt lat="66.739007011055946" lon="15.471935039386153">
        <ele>421.19</ele>
        <time>2017-06-28T12:24:36Z</time>
      </trkpt>
      <trkpt lat="66.738836020231247" lon="15.47199203632772">
        <ele>421.19</ele>
        <time>2017-06-28T12:24:37Z</time>
      </trkpt>
      <trkpt lat="66.738663017749786" lon="15.47207904048264">
        <ele>422.16000000000003</ele>
        <time>2017-06-28T12:24:38Z</time>
      </trkpt>
      <trkpt lat="66.738488003611565" lon="15.472178030759096">
        <ele>422.63999999999999</ele>
        <time>2017-06-28T12:24:39Z</time>
      </trkpt>
      <trkpt lat="66.737093003466725" lon="15.472884960472584">
        <ele>427.44</ele>
        <time>2017-06-28T12:24:47Z</time>
      </trkpt>
      <trkpt lat="66.736914971843362" lon="15.472858976572752">
        <ele>427.92000000000002</ele>
        <time>2017-06-28T12:24:48Z</time>
      </trkpt>
      <trkpt lat="66.736742975190282" lon="15.472797034308314">
        <ele>428.39999999999998</ele>
        <time>2017-06-28T12:24:49Z</time>
      </trkpt>
      <trkpt lat="66.735048992559314" lon="15.471569001674652">
        <ele>434.17000000000002</ele>
        <time>2017-06-28T12:24:59Z</time>
      </trkpt>
      <trkpt lat="66.733291978016496" lon="15.470230998471379">
        <ele>433.20999999999998</ele>
        <time>2017-06-28T12:25:07Z</time>
      </trkpt>
      <trkpt lat="66.729999985545874" lon="15.467721959576011">
        <ele>447.63</ele>
        <time>2017-06-28T12:25:20Z</time>
      </trkpt>
      <trkpt lat="66.728022024035454" lon="15.466270968317986">
        <ele>461.08999999999997</ele>
        <time>2017-06-28T12:25:29Z</time>
      </trkpt>
      <trkpt lat="66.726055964827538" lon="15.464812014251947">
        <ele>469.74000000000001</ele>
        <time>2017-06-28T12:25:39Z</time>
      </trkpt>
      <trkpt lat="66.724618971347809" lon="15.46426098793745">
        <ele>476.94999999999999</ele>
        <time>2017-06-28T12:25:46Z</time>
      </trkpt>
      <trkpt lat="66.723293038085103" lon="15.463934009894729">
        <ele>485.12</ele>
        <time>2017-06-28T12:25:53Z</time>
      </trkpt>
      <trkpt lat="66.721362015232444" lon="15.462918961420655">
        <ele>496.18000000000001</ele>
        <time>2017-06-28T12:26:02Z</time>
      </trkpt>
      <trkpt lat="66.719789989292622" lon="15.462840003892779">
        <ele>505.31</ele>
        <time>2017-06-28T12:26:09Z</time>
      </trkpt>
      <trkpt lat="66.718696989119053" lon="15.462941005825996">
        <ele>514.44000000000005</ele>
        <time>2017-06-28T12:26:15Z</time>
      </trkpt>
      <trkpt lat="66.717329984530807" lon="15.463123982772231">
        <ele>518.76999999999998</ele>
        <time>2017-06-28T12:26:22Z</time>
      </trkpt>
      <trkpt lat="66.715078018605709" lon="15.463403016328812">
        <ele>530.78999999999996</ele>
        <time>2017-06-28T12:26:31Z</time>
      </trkpt>
      <trkpt lat="66.713833976536989" lon="15.463177040219307">
        <ele>537.99000000000001</ele>
        <time>2017-06-28T12:26:37Z</time>
      </trkpt>
      <trkpt lat="66.713657034561038" lon="15.463009988889098">
        <ele>539.44000000000005</ele>
        <time>2017-06-28T12:26:38Z</time>
      </trkpt>
      <trkpt lat="66.712464038282633" lon="15.461176028475165">
        <ele>547.61000000000001</ele>
        <time>2017-06-28T12:26:45Z</time>
      </trkpt>
      <trkpt lat="66.712329005822539" lon="15.460847960785031">
        <ele>549.04999999999995</ele>
        <time>2017-06-28T12:26:46Z</time>
      </trkpt>
      <trkpt lat="66.712206965312362" lon="15.460494998842478">
        <ele>550.00999999999999</ele>
        <time>2017-06-28T12:26:47Z</time>
      </trkpt>
      <trkpt lat="66.712095988914371" lon="15.46011202968657">
        <ele>551.45000000000005</ele>
        <time>2017-06-28T12:26:48Z</time>
      </trkpt>
      <trkpt lat="66.711172973737121" lon="15.457108039408922">
        <ele>559.62</ele>
        <time>2017-06-28T12:26:56Z</time>
      </trkpt>
      <trkpt lat="66.709650987759233" lon="15.453755026683211">
        <ele>562.99000000000001</ele>
        <time>2017-06-28T12:27:06Z</time>
      </trkpt>
      <trkpt lat="66.708082985132933" lon="15.451215980574489">
        <ele>565.87</ele>
        <time>2017-06-28T12:27:15Z</time>
      </trkpt>
      <trkpt lat="66.706212982535362" lon="15.449313959106803">
        <ele>570.20000000000005</ele>
        <time>2017-06-28T12:27:24Z</time>
      </trkpt>
      <trkpt lat="66.704577002674341" lon="15.44732702895999">
        <ele>573.08000000000004</ele>
        <time>2017-06-28T12:27:31Z</time>
      </trkpt>
      <trkpt lat="66.700053960084915" lon="15.442008040845394">
        <ele>581.25</ele>
        <time>2017-06-28T12:27:50Z</time>
      </trkpt>
      <trkpt lat="66.69669097289443" lon="15.438453024253249">
        <ele>588.95000000000005</ele>
        <time>2017-06-28T12:28:04Z</time>
      </trkpt>
      <trkpt lat="66.693855039775372" lon="15.436602970585227">
        <ele>598.08000000000004</ele>
        <time>2017-06-28T12:28:15Z</time>
      </trkpt>
      <trkpt lat="66.692268010228872" lon="15.434859031811357">
        <ele>608.64999999999998</ele>
        <time>2017-06-28T12:28:22Z</time>
      </trkpt>
      <trkpt lat="66.691286992281675" lon="15.432061990723014">
        <ele>611.05999999999995</ele>
        <time>2017-06-28T12:28:28Z</time>
      </trkpt>
      <trkpt lat="66.68970599770546" lon="15.426576035097241">
        <ele>613.46000000000004</ele>
        <time>2017-06-28T12:28:39Z</time>
      </trkpt>
      <trkpt lat="66.688037998974323" lon="15.422014016658068">
        <ele>624.02999999999997</ele>
        <time>2017-06-28T12:28:49Z</time>
      </trkpt>
      <trkpt lat="66.686598993837833" lon="15.42040603235364">
        <ele>634.13</ele>
        <time>2017-06-28T12:28:55Z</time>
      </trkpt>
      <trkpt lat="66.683730036020279" lon="15.417901016771793">
        <ele>640.38</ele>
        <time>2017-06-28T12:29:06Z</time>
      </trkpt>
      <trkpt lat="66.681265002116561" lon="15.414529982954264">
        <ele>644.22000000000003</ele>
        <time>2017-06-28T12:29:16Z</time>
      </trkpt>
      <trkpt lat="66.679717032238841" lon="15.413256017491221">
        <ele>650.95000000000005</ele>
        <time>2017-06-28T12:29:22Z</time>
      </trkpt>
      <trkpt lat="66.678249025717378" lon="15.413129031658173">
        <ele>654.79999999999995</ele>
        <time>2017-06-28T12:29:28Z</time>
      </trkpt>
      <trkpt lat="66.676380028948188" lon="15.413042027503252">
        <ele>656.72000000000003</ele>
        <time>2017-06-28T12:29:35Z</time>
      </trkpt>
      <trkpt lat="66.67384902946651" lon="15.411894964054227">
        <ele>661.51999999999998</ele>
        <time>2017-06-28T12:29:44Z</time>
      </trkpt>
      <trkpt lat="66.670661978423595" lon="15.409247037023306">
        <ele>667.28999999999996</ele>
        <time>2017-06-28T12:29:56Z</time>
      </trkpt>
      <trkpt lat="66.668250001966953" lon="15.40822796523571">
        <ele>667.76999999999998</ele>
        <time>2017-06-28T12:30:05Z</time>
      </trkpt>
      <trkpt lat="66.665610959753394" lon="15.408370960503817">
        <ele>665.37</ele>
        <time>2017-06-28T12:30:15Z</time>
      </trkpt>
      <trkpt lat="66.662133978679776" lon="15.408287979662418">
        <ele>663.92999999999995</ele>
        <time>2017-06-28T12:30:28Z</time>
      </trkpt>
      <trkpt lat="66.659435005858541" lon="15.407052990049124">
        <ele>662.49000000000001</ele>
        <time>2017-06-28T12:30:38Z</time>
      </trkpt>
      <trkpt lat="66.65580103173852" lon="15.404325015842915">
        <ele>662.00999999999999</ele>
        <time>2017-06-28T12:30:52Z</time>
      </trkpt>
      <trkpt lat="66.653749980032444" lon="15.401145005598664">
        <ele>659.60000000000002</ele>
        <time>2017-06-28T12:31:01Z</time>
      </trkpt>
      <trkpt lat="66.6514209844172" lon="15.397957032546401">
        <ele>661.03999999999996</ele>
        <time>2017-06-28T12:31:11Z</time>
      </trkpt>
      <trkpt lat="66.649100035429001" lon="15.396560020744801">
        <ele>666.33000000000004</ele>
        <time>2017-06-28T12:31:20Z</time>
      </trkpt>
      <trkpt lat="66.644681012257934" lon="15.394520033150911">
        <ele>662.49000000000001</ele>
        <time>2017-06-28T12:31:37Z</time>
      </trkpt>
      <trkpt lat="66.642985017970204" lon="15.393424015492201">
        <ele>658.63999999999999</ele>
        <time>2017-06-28T12:31:44Z</time>
      </trkpt>
      <trkpt lat="66.641090037301183" lon="15.391053026542068">
        <ele>656.24000000000001</ele>
        <time>2017-06-28T12:31:52Z</time>
      </trkpt>
      <trkpt lat="66.638598013669252" lon="15.387310003861785">
        <ele>656.24000000000001</ele>
        <time>2017-06-28T12:32:03Z</time>
      </trkpt>
      <trkpt lat="66.636623991653323" lon="15.385836968198419">
        <ele>656.24000000000001</ele>
        <time>2017-06-28T12:32:11Z</time>
      </trkpt>
      <trkpt lat="66.634475961327553" lon="15.384836001321673">
        <ele>658.15999999999997</ele>
        <time>2017-06-28T12:32:20Z</time>
      </trkpt>
      <trkpt lat="66.632674019783735" lon="15.383101031184196">
        <ele>658.15999999999997</ele>
        <time>2017-06-28T12:32:28Z</time>
      </trkpt>
      <trkpt lat="66.63087802939117" lon="15.381407970562577">
        <ele>658.15999999999997</ele>
        <time>2017-06-28T12:32:35Z</time>
      </trkpt>
      <trkpt lat="66.628712983801961" lon="15.381119968369603">
        <ele>658.15999999999997</ele>
        <time>2017-06-28T12:32:43Z</time>
      </trkpt>
      <trkpt lat="66.626908024773002" lon="15.380269959568977">
        <ele>656.72000000000003</ele>
        <time>2017-06-28T12:32:50Z</time>
      </trkpt>
      <trkpt lat="66.623706975951791" lon="15.377500997856259">
        <ele>659.12</ele>
        <time>2017-06-28T12:33:03Z</time>
      </trkpt>
      <trkpt lat="66.620712960138917" lon="15.376111026853323">
        <ele>657.67999999999995</ele>
        <time>2017-06-28T12:33:15Z</time>
      </trkpt>
      <trkpt lat="66.617432031780481" lon="15.374402962625027">
        <ele>656.72000000000003</ele>
        <time>2017-06-28T12:33:28Z</time>
      </trkpt>
      <trkpt lat="66.615327000617981" lon="15.371893001720309">
        <ele>659.60000000000002</ele>
        <time>2017-06-28T12:33:37Z</time>
      </trkpt>
      <trkpt lat="66.611964013427496" lon="15.368174035102129">
        <ele>660.55999999999995</ele>
        <time>2017-06-28T12:33:51Z</time>
      </trkpt>
      <trkpt lat="66.607518000528216" lon="15.364003032445908">
        <ele>659.60000000000002</ele>
        <time>2017-06-28T12:34:09Z</time>
      </trkpt>
      <trkpt lat="66.602965034544468" lon="15.359833035618067">
        <ele>657.67999999999995</ele>
        <time>2017-06-28T12:34:27Z</time>
      </trkpt>
      <trkpt lat="66.597673958167434" lon="15.355002041906118">
        <ele>657.20000000000005</ele>
        <time>2017-06-28T12:34:48Z</time>
      </trkpt>
      <trkpt lat="66.594348018988967" lon="15.352775976061821">
        <ele>658.15999999999997</ele>
        <time>2017-06-28T12:35:01Z</time>
      </trkpt>
      <trkpt lat="66.590935997664928" lon="15.351671995595098">
        <ele>662.00999999999999</ele>
        <time>2017-06-28T12:35:14Z</time>
      </trkpt>
      <trkpt lat="66.587213007733226" lon="15.351682975888252">
        <ele>663.45000000000005</ele>
        <time>2017-06-28T12:35:28Z</time>
      </trkpt>
      <trkpt lat="66.582341026514769" lon="15.352178011089563">
        <ele>668.73000000000002</ele>
        <time>2017-06-28T12:35:46Z</time>
      </trkpt>
      <trkpt lat="66.579713970422745" lon="15.351389022544026">
        <ele>674.98000000000002</ele>
        <time>2017-06-28T12:35:56Z</time>
      </trkpt>
      <trkpt lat="66.577786970883608" lon="15.350701035931706">
        <ele>679.78999999999996</ele>
        <time>2017-06-28T12:36:04Z</time>
      </trkpt>
      <trkpt lat="66.577569963410497" lon="15.350812012329698">
        <ele>679.78999999999996</ele>
        <time>2017-06-28T12:36:05Z</time>
      </trkpt>
      <trkpt lat="66.577351028099656" lon="15.35096799954772">
        <ele>679.78999999999996</ele>
        <time>2017-06-28T12:36:06Z</time>
      </trkpt>
      <trkpt lat="66.577137960121036" lon="15.351157011464238">
        <ele>679.30999999999995</ele>
        <time>2017-06-28T12:36:07Z</time>
      </trkpt>
      <trkpt lat="66.576925981789827" lon="15.35137603059411">
        <ele>678.83000000000004</ele>
        <time>2017-06-28T12:36:08Z</time>
      </trkpt>
      <trkpt lat="66.57671601511538" lon="15.35163402557373">
        <ele>677.87</ele>
        <time>2017-06-28T12:36:09Z</time>
      </trkpt>
      <trkpt lat="66.574462037533522" lon="15.353956986218691">
        <ele>671.62</ele>
        <time>2017-06-28T12:36:19Z</time>
      </trkpt>
      <trkpt lat="66.572711979970336" lon="15.354138035327196">
        <ele>673.53999999999996</ele>
        <time>2017-06-28T12:36:26Z</time>
      </trkpt>
      <trkpt lat="66.571231987327337" lon="15.353093985468149">
        <ele>675.46000000000004</ele>
        <time>2017-06-28T12:36:32Z</time>
      </trkpt>
      <trkpt lat="66.567406989634037" lon="15.348698012530804">
        <ele>681.71000000000004</ele>
        <time>2017-06-28T12:36:48Z</time>
      </trkpt>
      <trkpt lat="66.565227024257183" lon="15.346015971153975">
        <ele>683.14999999999998</ele>
        <time>2017-06-28T12:36:58Z</time>
      </trkpt>
      <trkpt lat="66.563305975869298" lon="15.342869991436601">
        <ele>682.66999999999996</ele>
        <time>2017-06-28T12:37:08Z</time>
      </trkpt>
      <trkpt lat="66.561172027140856" lon="15.338203031569719">
        <ele>678.83000000000004</ele>
        <time>2017-06-28T12:37:19Z</time>
      </trkpt>
      <trkpt lat="66.559152994304895" lon="15.332357995212078">
        <ele>671.62</ele>
        <time>2017-06-28T12:37:31Z</time>
      </trkpt>
      <trkpt lat="66.558169964700937" lon="15.329777961596847">
        <ele>673.05999999999995</ele>
        <time>2017-06-28T12:37:38Z</time>
      </trkpt>
      <trkpt lat="66.557089034467936" lon="15.32726900652051">
        <ele>674.01999999999998</ele>
        <time>2017-06-28T12:37:46Z</time>
      </trkpt>
      <trkpt lat="66.554837990552187" lon="15.322990966960788">
        <ele>667.76999999999998</ele>
        <time>2017-06-28T12:38:00Z</time>
      </trkpt>
      <trkpt lat="66.552839996293187" lon="15.319786984473467">
        <ele>659.12</ele>
        <time>2017-06-28T12:38:13Z</time>
      </trkpt>
      <trkpt lat="66.55134198255837" lon="15.317642977461219">
        <ele>657.20000000000005</ele>
        <time>2017-06-28T12:38:24Z</time>
      </trkpt>
      <trkpt lat="66.55110402032733" lon="15.317378025501966">
        <ele>656.72000000000003</ele>
        <time>2017-06-28T12:38:27Z</time>
      </trkpt>
      <trkpt lat="66.551046017557383" lon="15.317375008016825">
        <ele>656.72000000000003</ele>
        <time>2017-06-28T12:38:28Z</time>
      </trkpt>
      <trkpt lat="66.550987008959055" lon="15.31740702688694">
        <ele>656.72000000000003</ele>
        <time>2017-06-28T12:38:29Z</time>
      </trkpt>
      <trkpt lat="66.550930012017488" lon="15.317483972758055">
        <ele>656.72000000000003</ele>
        <time>2017-06-28T12:38:30Z</time>
      </trkpt>
      <trkpt lat="66.550885001197457" lon="15.317620011046529">
        <ele>657.20000000000005</ele>
        <time>2017-06-28T12:38:31Z</time>
      </trkpt>
      <trkpt lat="66.550850970670581" lon="15.317795025184751">
        <ele>657.20000000000005</ele>
        <time>2017-06-28T12:38:32Z</time>
      </trkpt>
      <trkpt lat="66.550819035619497" lon="15.317993005737662">
        <ele>657.67999999999995</ele>
        <time>2017-06-28T12:38:33Z</time>
      </trkpt>
      <trkpt lat="66.55063203535974" lon="15.319103021174669">
        <ele>659.60000000000002</ele>
        <time>2017-06-28T12:38:38Z</time>
      </trkpt>
      <trkpt lat="66.550616025924683" lon="15.319309970363975">
        <ele>660.08000000000004</ele>
        <time>2017-06-28T12:38:39Z</time>
      </trkpt>
      <trkpt lat="66.550605967640877" lon="15.319503005594015">
        <ele>660.55999999999995</ele>
        <time>2017-06-28T12:38:40Z</time>
      </trkpt>
      <trkpt lat="66.55061099678278" lon="15.319695034995675">
        <ele>660.55999999999995</ele>
        <time>2017-06-28T12:38:41Z</time>
      </trkpt>
      <trkpt lat="66.550627006217837" lon="15.319883041083813">
        <ele>660.55999999999995</ele>
        <time>2017-06-28T12:38:42Z</time>
      </trkpt>
      <trkpt lat="66.55065500177443" lon="15.320052020251751">
        <ele>660.55999999999995</ele>
        <time>2017-06-28T12:38:43Z</time>
      </trkpt>
      <trkpt lat="66.550690038129687" lon="15.320215970277786">
        <ele>661.03999999999996</ele>
        <time>2017-06-28T12:38:44Z</time>
      </trkpt>
      <trkpt lat="66.550733037292957" lon="15.320359971374273">
        <ele>661.03999999999996</ele>
        <time>2017-06-28T12:38:45Z</time>
      </trkpt>
      <trkpt lat="66.550776958465576" lon="15.320495003834367">
        <ele>661.03999999999996</ele>
        <time>2017-06-28T12:38:46Z</time>
      </trkpt>
      <trkpt lat="66.55082699842751" lon="15.320611009374261">
        <ele>661.03999999999996</ele>
        <time>2017-06-28T12:38:47Z</time>
      </trkpt>
      <trkpt lat="66.550878966227174" lon="15.320711005479097">
        <ele>661.03999999999996</ele>
        <time>2017-06-28T12:38:48Z</time>
      </trkpt>
      <trkpt lat="66.550924982875586" lon="15.320790968835354">
        <ele>661.03999999999996</ele>
        <time>2017-06-28T12:38:49Z</time>
      </trkpt>
      <trkpt lat="66.550967982038856" lon="15.320858024060726">
        <ele>661.03999999999996</ele>
        <time>2017-06-28T12:38:50Z</time>
      </trkpt>
      <trkpt lat="66.551495036110282" lon="15.321508040651679">
        <ele>663.45000000000005</ele>
        <time>2017-06-28T12:39:05Z</time>
      </trkpt>
      <trkpt lat="66.551872976124287" lon="15.321958987042308">
        <ele>661.51999999999998</ele>
        <time>2017-06-28T12:39:20Z</time>
      </trkpt>
      <trkpt lat="66.551962997764349" lon="15.321981031447649">
        <ele>661.51999999999998</ele>
        <time>2017-06-28T12:39:24Z</time>
      </trkpt>
      <trkpt lat="66.551973978057504" lon="15.321956975385547">
        <ele>661.51999999999998</ele>
        <time>2017-06-28T12:39:25Z</time>
      </trkpt>
      <trkpt lat="66.551975989714265" lon="15.321926968172193">
        <ele>662.00999999999999</ele>
        <time>2017-06-28T12:39:44Z</time>
      </trkpt>
      <trkpt lat="66.552097024396062" lon="15.321580041199923">
        <ele>668.73000000000002</ele>
        <time>2017-06-28T13:19:37Z</time>
      </trkpt>
      <trkpt lat="66.552088977769017" lon="15.32155497930944">
        <ele>665.85000000000002</ele>
        <time>2017-06-28T13:20:32Z</time>
      </trkpt>
      <trkpt lat="66.552110016345978" lon="15.321583980694413">
        <ele>665.85000000000002</ele>
        <time>2017-06-28T13:20:34Z</time>
      </trkpt>
      <trkpt lat="66.55218000523746" lon="15.321277035400271">
        <ele>664.40999999999997</ele>
        <time>2017-06-28T13:20:41Z</time>
      </trkpt>
      <trkpt lat="66.552145974710584" lon="15.321244010701776">
        <ele>663.92999999999995</ele>
        <time>2017-06-28T13:20:42Z</time>
      </trkpt>
      <trkpt lat="66.552080009132624" lon="15.321175027638674">
        <ele>662.97000000000003</ele>
        <time>2017-06-28T13:20:44Z</time>
      </trkpt>
      <trkpt lat="66.551931984722614" lon="15.320928012952209">
        <ele>661.51999999999998</ele>
        <time>2017-06-28T13:20:49Z</time>
      </trkpt>
      <trkpt lat="66.551883034408092" lon="15.320935975760221">
        <ele>661.03999999999996</ele>
        <time>2017-06-28T13:20:50Z</time>
      </trkpt>
      <trkpt lat="66.551829976961017" lon="15.320969000458717">
        <ele>659.60000000000002</ele>
        <time>2017-06-28T13:20:51Z</time>
      </trkpt>
      <trkpt lat="66.551530994474888" lon="15.321171004325151">
        <ele>659.12</ele>
        <time>2017-06-28T13:20:56Z</time>
      </trkpt>
      <trkpt lat="66.551472991704941" lon="15.321177039295435">
        <ele>659.12</ele>
        <time>2017-06-28T13:20:57Z</time>
      </trkpt>
      <trkpt lat="66.551417000591755" lon="15.321166981011629">
        <ele>659.12</ele>
        <time>2017-06-28T13:20:58Z</time>
      </trkpt>
      <trkpt lat="66.551369978114963" lon="15.321137979626656">
        <ele>659.12</ele>
        <time>2017-06-28T13:20:59Z</time>
      </trkpt>
      <trkpt lat="66.551321027800441" lon="15.321101015433669">
        <ele>659.12</ele>
        <time>2017-06-28T13:21:00Z</time>
      </trkpt>
      <trkpt lat="66.551266964524984" lon="15.321054998785257">
        <ele>659.12</ele>
        <time>2017-06-28T13:21:01Z</time>
      </trkpt>
      <trkpt lat="66.550829010084271" lon="15.320625007152557">
        <ele>659.12</ele>
        <time>2017-06-28T13:21:08Z</time>
      </trkpt>
      <trkpt lat="66.550762038677931" lon="15.320490980520844">
        <ele>659.12</ele>
        <time>2017-06-28T13:21:09Z</time>
      </trkpt>
      <trkpt lat="66.550710992887616" lon="15.320329964160919">
        <ele>658.63999999999999</ele>
        <time>2017-06-28T13:21:10Z</time>
      </trkpt>
      <trkpt lat="66.550671011209488" lon="15.320126032456756">
        <ele>658.63999999999999</ele>
        <time>2017-06-28T13:21:11Z</time>
      </trkpt>
      <trkpt lat="66.550646033138037" lon="15.319912964478135">
        <ele>658.15999999999997</ele>
        <time>2017-06-28T13:21:12Z</time>
      </trkpt>
      <trkpt lat="66.550636980682611" lon="15.31968598254025">
        <ele>658.15999999999997</ele>
        <time>2017-06-28T13:21:13Z</time>
      </trkpt>
      <trkpt lat="66.550646033138037" lon="15.319463023915887">
        <ele>657.67999999999995</ele>
        <time>2017-06-28T13:21:14Z</time>
      </trkpt>
      <trkpt lat="66.550668999552727" lon="15.31923595815897">
        <ele>657.67999999999995</ele>
        <time>2017-06-28T13:21:15Z</time>
      </trkpt>
      <trkpt lat="66.550704035907984" lon="15.319008976221085">
        <ele>657.67999999999995</ele>
        <time>2017-06-28T13:21:16Z</time>
      </trkpt>
      <trkpt lat="66.550748040899634" lon="15.318800015375018">
        <ele>657.20000000000005</ele>
        <time>2017-06-28T13:21:17Z</time>
      </trkpt>
      <trkpt lat="66.550793973729014" lon="15.318598011508584">
        <ele>657.20000000000005</ele>
        <time>2017-06-28T13:21:18Z</time>
      </trkpt>
      <trkpt lat="66.550963958725333" lon="15.317861996591091">
        <ele>656.72000000000003</ele>
        <time>2017-06-28T13:21:23Z</time>
      </trkpt>
      <trkpt lat="66.550979968160391" lon="15.317753031849861">
        <ele>657.20000000000005</ele>
        <time>2017-06-28T13:21:24Z</time>
      </trkpt>
      <trkpt lat="66.550977034494281" lon="15.317630991339684">
        <ele>656.72000000000003</ele>
        <time>2017-06-28T13:21:25Z</time>
      </trkpt>
      <trkpt lat="66.550950966775417" lon="15.317477015778422">
        <ele>657.20000000000005</ele>
        <time>2017-06-28T13:21:26Z</time>
      </trkpt>
      <trkpt lat="66.550902016460896" lon="15.317319016903639">
        <ele>656.72000000000003</ele>
        <time>2017-06-28T13:21:27Z</time>
      </trkpt>
      <trkpt lat="66.550833033397794" lon="15.31717199832201">
        <ele>656.72000000000003</ele>
        <time>2017-06-28T13:21:28Z</time>
      </trkpt>
      <trkpt lat="66.550748040899634" lon="15.317008970305324">
        <ele>656.72000000000003</ele>
        <time>2017-06-28T13:21:29Z</time>
      </trkpt>
      <trkpt lat="66.550652990117669" lon="15.31684996560216">
        <ele>656.24000000000001</ele>
        <time>2017-06-28T13:21:30Z</time>
      </trkpt>
      <trkpt lat="66.549591002985835" lon="15.315570970997214">
        <ele>654.30999999999995</ele>
        <time>2017-06-28T13:21:38Z</time>
      </trkpt>
      <trkpt lat="66.547465017065406" lon="15.313379019498825">
        <ele>652.87</ele>
        <time>2017-06-28T13:21:50Z</time>
      </trkpt>
      <trkpt lat="66.54423002153635" lon="15.310646016150713">
        <ele>652.87</ele>
        <time>2017-06-28T13:22:07Z</time>
      </trkpt>
      <trkpt lat="66.541985012590885" lon="15.30816899612546">
        <ele>651.90999999999997</ele>
        <time>2017-06-28T13:22:19Z</time>
      </trkpt>
      <trkpt lat="66.539435992017388" lon="15.304958978667855">
        <ele>649.99000000000001</ele>
        <time>2017-06-28T13:22:33Z</time>
      </trkpt>
      <trkpt lat="66.537344036623836" lon="15.303669003769755">
        <ele>648.54999999999995</ele>
        <time>2017-06-28T13:22:43Z</time>
      </trkpt>
      <trkpt lat="66.5352270193398" lon="15.303479991853237">
        <ele>643.74000000000001</ele>
        <time>2017-06-28T13:22:53Z</time>
      </trkpt>
      <trkpt lat="66.53303598985076" lon="15.304384985938668">
        <ele>644.70000000000005</ele>
        <time>2017-06-28T13:23:04Z</time>
      </trkpt>
      <trkpt lat="66.530661983415484" lon="15.305551998317242">
        <ele>647.10000000000002</ele>
        <time>2017-06-28T13:23:17Z</time>
      </trkpt>
      <trkpt lat="66.529049975797534" lon="15.305717960000038">
        <ele>641.82000000000005</ele>
        <time>2017-06-28T13:23:25Z</time>
      </trkpt>
      <trkpt lat="66.526813013479114" lon="15.304735014215112">
        <ele>635.57000000000005</ele>
        <time>2017-06-28T13:23:34Z</time>
      </trkpt>
      <trkpt lat="66.524021001532674" lon="15.303791966289282">
        <ele>628.84000000000003</ele>
        <time>2017-06-28T13:23:45Z</time>
      </trkpt>
      <trkpt lat="66.521497964859009" lon="15.304112993180752">
        <ele>619.71000000000004</ele>
        <time>2017-06-28T13:23:55Z</time>
      </trkpt>
      <trkpt lat="66.518553989008069" lon="15.305162994191051">
        <ele>608.16999999999996</ele>
        <time>2017-06-28T13:24:07Z</time>
      </trkpt>
      <trkpt lat="66.517184972763062" lon="15.304476013407111">
        <ele>604.33000000000004</ele>
        <time>2017-06-28T13:24:13Z</time>
      </trkpt>
      <trkpt lat="66.515561984851956" lon="15.302338963374496">
        <ele>596.14999999999998</ele>
        <time>2017-06-28T13:24:21Z</time>
      </trkpt>
      <trkpt lat="66.513763982802629" lon="15.300928959622979">
        <ele>588.46000000000004</ele>
        <time>2017-06-28T13:24:29Z</time>
      </trkpt>
      <trkpt lat="66.511804964393377" lon="15.299223996698856">
        <ele>582.70000000000005</ele>
        <time>2017-06-28T13:24:38Z</time>
      </trkpt>
      <trkpt lat="66.51039001531899" lon="15.296424021944404">
        <ele>579.80999999999995</ele>
        <time>2017-06-28T13:24:46Z</time>
      </trkpt>
      <trkpt lat="66.50875898078084" lon="15.291571989655495">
        <ele>575.97000000000003</ele>
        <time>2017-06-28T13:24:57Z</time>
      </trkpt>
      <trkpt lat="66.506639029830694" lon="15.285597033798695">
        <ele>567.79999999999995</ele>
        <time>2017-06-28T13:25:10Z</time>
      </trkpt>
      <trkpt lat="66.505839983001351" lon="15.281813023611903">
        <ele>563.95000000000005</ele>
        <time>2017-06-28T13:25:17Z</time>
      </trkpt>
      <trkpt lat="66.504884026944637" lon="15.275343032553792">
        <ele>560.59000000000003</ele>
        <time>2017-06-28T13:25:29Z</time>
      </trkpt>
      <trkpt lat="66.504615973681211" lon="15.273524997755885">
        <ele>559.13999999999999</ele>
        <time>2017-06-28T13:25:35Z</time>
      </trkpt>
      <trkpt lat="66.504377005621791" lon="15.271916007623076">
        <ele>557.22000000000003</ele>
        <time>2017-06-28T13:25:43Z</time>
      </trkpt>
      <trkpt lat="66.504171984270215" lon="15.27052897028625">
        <ele>556.74000000000001</ele>
        <time>2017-06-28T13:25:56Z</time>
      </trkpt>
      <trkpt lat="66.503883982077241" lon="15.26846400462091">
        <ele>554.82000000000005</ele>
        <time>2017-06-28T13:26:03Z</time>
      </trkpt>
      <trkpt lat="66.503267996013165" lon="15.264228964224458">
        <ele>551.92999999999995</ele>
        <time>2017-06-28T13:26:13Z</time>
      </trkpt>
      <trkpt lat="66.502418993040919" lon="15.260530030354857">
        <ele>546.16999999999996</ele>
        <time>2017-06-28T13:26:21Z</time>
      </trkpt>
      <trkpt lat="66.5004220046103" lon="15.254365978762507">
        <ele>546.16999999999996</ele>
        <time>2017-06-28T13:26:35Z</time>
      </trkpt>
      <trkpt lat="66.498189987614751" lon="15.249314038082957">
        <ele>537.02999999999997</ele>
        <time>2017-06-28T13:26:48Z</time>
      </trkpt>
      <trkpt lat="66.496337000280619" lon="15.245919032022357">
        <ele>531.75</ele>
        <time>2017-06-28T13:26:58Z</time>
      </trkpt>
      <trkpt lat="66.493656970560551" lon="15.242368960753083">
        <ele>527.41999999999996</ele>
        <time>2017-06-28T13:27:12Z</time>
      </trkpt>
      <trkpt lat="66.491157989948988" lon="15.237737959250808">
        <ele>521.64999999999998</ele>
        <time>2017-06-28T13:27:26Z</time>
      </trkpt>
      <trkpt lat="66.4897430408746" lon="15.234715025871992">
        <ele>516.37</ele>
        <time>2017-06-28T13:27:35Z</time>
      </trkpt>
      <trkpt lat="66.489562997594476" lon="15.234536994248629">
        <ele>516.37</ele>
        <time>2017-06-28T13:27:36Z</time>
      </trkpt>
      <trkpt lat="66.489375997334719" lon="15.234373966231942">
        <ele>515.39999999999998</ele>
        <time>2017-06-28T13:27:37Z</time>
      </trkpt>
      <trkpt lat="66.487311031669378" lon="15.233425972983241">
        <ele>507.70999999999998</ele>
        <time>2017-06-28T13:27:47Z</time>
      </trkpt>
      <trkpt lat="66.487105004489422" lon="15.233466038480401">
        <ele>508.19</ele>
        <time>2017-06-28T13:27:48Z</time>
      </trkpt>
      <trkpt lat="66.48477902635932" lon="15.234230970963836">
        <ele>506.26999999999998</ele>
        <time>2017-06-28T13:27:59Z</time>
      </trkpt>
      <trkpt lat="66.483170036226511" lon="15.234298026189208">
        <ele>503.38999999999999</ele>
        <time>2017-06-28T13:28:07Z</time>
      </trkpt>
      <trkpt lat="66.480561001226306" lon="15.234200963750482">
        <ele>498.57999999999998</ele>
        <time>2017-06-28T13:28:18Z</time>
      </trkpt>
      <trkpt lat="66.476511033251882" lon="15.234531965106726">
        <ele>491.37</ele>
        <time>2017-06-28T13:28:35Z</time>
      </trkpt>
      <trkpt lat="66.474914029240608" lon="15.234450995922089">
        <ele>493.76999999999998</ele>
        <time>2017-06-28T13:28:42Z</time>
      </trkpt>
      <trkpt lat="66.472649993374944" lon="15.233168983832002">
        <ele>491.85000000000002</ele>
        <time>2017-06-28T13:28:53Z</time>
      </trkpt>
      <trkpt lat="66.472466010600328" lon="15.233180969953537">
        <ele>491.37</ele>
        <time>2017-06-28T13:28:54Z</time>
      </trkpt>
      <trkpt lat="66.472287978976965" lon="15.233237966895103">
        <ele>490.88999999999999</ele>
        <time>2017-06-28T13:28:55Z</time>
      </trkpt>
      <trkpt lat="66.471598986536264" lon="15.233413986861706">
        <ele>490.41000000000003</ele>
        <time>2017-06-28T13:28:59Z</time>
      </trkpt>
      <trkpt lat="66.471426989883184" lon="15.233372999355197">
        <ele>490.41000000000003</ele>
        <time>2017-06-28T13:29:00Z</time>
      </trkpt>
      <trkpt lat="66.471255999058485" lon="15.233288006857038">
        <ele>490.41000000000003</ele>
        <time>2017-06-28T13:29:01Z</time>
      </trkpt>
      <trkpt lat="66.469949008896947" lon="15.232252003625035">
        <ele>482.72000000000003</ele>
        <time>2017-06-28T13:29:10Z</time>
      </trkpt>
      <trkpt lat="66.468443032354116" lon="15.231652026996017">
        <ele>474.55000000000001</ele>
        <time>2017-06-28T13:29:20Z</time>
      </trkpt>
      <trkpt lat="66.468295007944107" lon="15.231623025611043">
        <ele>473.58999999999997</ele>
        <time>2017-06-28T13:29:21Z</time>
      </trkpt>
      <trkpt lat="66.468144971877337" lon="15.231553036719561">
        <ele>472.13999999999999</ele>
        <time>2017-06-28T13:29:22Z</time>
      </trkpt>
      <trkpt lat="66.467998037114739" lon="15.231430996209383">
        <ele>471.18000000000001</ele>
        <time>2017-06-28T13:29:23Z</time>
      </trkpt>
      <trkpt lat="66.467854036018252" lon="15.231275008991361">
        <ele>470.22000000000003</ele>
        <time>2017-06-28T13:29:24Z</time>
      </trkpt>
      <trkpt lat="66.467714980244637" lon="15.231084991246462">
        <ele>468.77999999999997</ele>
        <time>2017-06-28T13:29:25Z</time>
      </trkpt>
      <trkpt lat="66.467581959441304" lon="15.230874018743634">
        <ele>467.81999999999999</ele>
        <time>2017-06-28T13:29:26Z</time>
      </trkpt>
      <trkpt lat="66.466230964288116" lon="15.228936960920691">
        <ele>456.75999999999999</ele>
        <time>2017-06-28T13:29:35Z</time>
      </trkpt>
      <trkpt lat="66.464512003585696" lon="15.226709973067045">
        <ele>450.51999999999998</ele>
        <time>2017-06-28T13:29:47Z</time>
      </trkpt>
      <trkpt lat="66.463339040055871" lon="15.225187987089157">
        <ele>447.63</ele>
        <time>2017-06-28T13:29:57Z</time>
      </trkpt>
      <trkpt lat="66.461926018819213" lon="15.223175995051861">
        <ele>437.54000000000002</ele>
        <time>2017-06-28T13:30:11Z</time>
      </trkpt>
      <trkpt lat="66.461497033014894" lon="15.222330009564757">
        <ele>438.01999999999998</ele>
        <time>2017-06-28T13:30:18Z</time>
      </trkpt>
      <trkpt lat="66.461269967257977" lon="15.221845032647252">
        <ele>436.57999999999998</ele>
        <time>2017-06-28T13:30:25Z</time>
      </trkpt>
      <trkpt lat="66.461102999746799" lon="15.221486035734415">
        <ele>436.10000000000002</ele>
        <time>2017-06-28T13:30:34Z</time>
      </trkpt>
      <trkpt lat="66.461112974211574" lon="15.221483018249273">
        <ele>436.10000000000002</ele>
        <time>2017-06-28T13:31:31Z</time>
      </trkpt>
      <trkpt lat="66.461112974211574" lon="15.221483018249273">
        <ele>436.10000000000002</ele>
        <time>2017-06-28T13:33:16Z</time>
      </trkpt>
      <trkpt lat="66.461109034717083" lon="15.221484024077654">
        <ele>436.10000000000002</ele>
        <time>2017-06-28T13:35:09Z</time>
      </trkpt>
      <trkpt lat="66.461198972538114" lon="15.221545966342092">
        <ele>441.86000000000001</ele>
        <time>2017-06-28T13:36:54Z</time>
      </trkpt>
      <trkpt lat="66.460452983155847" lon="15.218936009332538">
        <ele>438.01999999999998</ele>
        <time>2017-06-28T13:37:13Z</time>
      </trkpt>
      <trkpt lat="66.459460984915495" lon="15.215119980275631">
        <ele>438.98000000000002</ele>
        <time>2017-06-28T13:37:23Z</time>
      </trkpt>
      <trkpt lat="66.458366978913546" lon="15.212464006617665">
        <ele>437.54000000000002</ele>
        <time>2017-06-28T13:37:30Z</time>
      </trkpt>
      <trkpt lat="66.456899978220463" lon="15.209919009357691">
        <ele>441.86000000000001</ele>
        <time>2017-06-28T13:37:39Z</time>
      </trkpt>
      <trkpt lat="66.455589970573783" lon="15.208063004538417">
        <ele>433.20999999999998</ele>
        <time>2017-06-28T13:37:46Z</time>
      </trkpt>
      <trkpt lat="66.454181978479028" lon="15.206171041354537">
        <ele>425.51999999999998</ele>
        <time>2017-06-28T13:37:53Z</time>
      </trkpt>
      <trkpt lat="66.453039022162557" lon="15.204062992706895">
        <ele>418.79000000000002</ele>
        <time>2017-06-28T13:38:00Z</time>
      </trkpt>
      <trkpt lat="66.45289502106607" lon="15.203662002459168">
        <ele>416.87</ele>
        <time>2017-06-28T13:38:01Z</time>
      </trkpt>
      <trkpt lat="66.451706970110536" lon="15.199846979230642">
        <ele>407.74000000000001</ele>
        <time>2017-06-28T13:38:09Z</time>
      </trkpt>
      <trkpt lat="66.45068496465683" lon="15.195014979690313">
        <ele>401.49000000000001</ele>
        <time>2017-06-28T13:38:18Z</time>
      </trkpt>
      <trkpt lat="66.449678968638182" lon="15.189045974984765">
        <ele>394.27999999999997</ele>
        <time>2017-06-28T13:38:30Z</time>
      </trkpt>
      <trkpt lat="66.449221987277269" lon="15.184239037334919">
        <ele>383.22000000000003</ele>
        <time>2017-06-28T13:38:39Z</time>
      </trkpt>
      <trkpt lat="66.448245998471975" lon="15.177290020510554">
        <ele>372.17000000000002</ele>
        <time>2017-06-28T13:38:52Z</time>
      </trkpt>
      <trkpt lat="66.447792034596205" lon="15.171770034357905">
        <ele>364</ele>
        <time>2017-06-28T13:39:01Z</time>
      </trkpt>
      <trkpt lat="66.447336981073022" lon="15.165347987785935">
        <ele>357.75</ele>
        <time>2017-06-28T13:39:12Z</time>
      </trkpt>
      <trkpt lat="66.44748198799789" lon="15.161335989832878">
        <ele>351.98000000000002</ele>
        <time>2017-06-28T13:39:19Z</time>
      </trkpt>
      <trkpt lat="66.448091017082334" lon="15.151719013229012">
        <ele>339</ele>
        <time>2017-06-28T13:39:35Z</time>
      </trkpt>
      <trkpt lat="66.448665009811521" lon="15.14277895912528">
        <ele>328.91000000000003</ele>
        <time>2017-06-28T13:39:50Z</time>
      </trkpt>
      <trkpt lat="66.449180999770761" lon="15.135415960103273">
        <ele>326.01999999999998</ele>
        <time>2017-06-28T13:40:03Z</time>
      </trkpt>
      <trkpt lat="66.449763961136341" lon="15.132432002574205">
        <ele>322.18000000000001</ele>
        <time>2017-06-28T13:40:09Z</time>
      </trkpt>
      <trkpt lat="66.451517036184669" lon="15.127626992762089">
        <ele>316.88999999999999</ele>
        <time>2017-06-28T13:40:20Z</time>
      </trkpt>
      <trkpt lat="66.454359004274011" lon="15.119939027354121">
        <ele>312.56999999999999</ele>
        <time>2017-06-28T13:40:37Z</time>
      </trkpt>
      <trkpt lat="66.457088990136981" lon="15.112405037507415">
        <ele>307.75999999999999</ele>
        <time>2017-06-28T13:40:53Z</time>
      </trkpt>
      <trkpt lat="66.459740018472075" lon="15.105056036263704">
        <ele>305.36000000000001</ele>
        <time>2017-06-28T13:41:09Z</time>
      </trkpt>
      <trkpt lat="66.462107989937067" lon="15.0981539580971">
        <ele>299.58999999999997</ele>
        <time>2017-06-28T13:41:24Z</time>
      </trkpt>
      <trkpt lat="66.462187031283975" lon="15.097688008099794">
        <ele>298.14999999999998</ele>
        <time>2017-06-28T13:41:25Z</time>
      </trkpt>
      <trkpt lat="66.462246039882302" lon="15.097199007868767">
        <ele>297.18000000000001</ele>
        <time>2017-06-28T13:41:26Z</time>
      </trkpt>
      <trkpt lat="66.462416024878621" lon="15.094122011214495">
        <ele>293.81999999999999</ele>
        <time>2017-06-28T13:41:33Z</time>
      </trkpt>
      <trkpt lat="66.462480984628201" lon="15.093392031267285">
        <ele>293.33999999999997</ele>
        <time>2017-06-28T13:41:35Z</time>
      </trkpt>
      <trkpt lat="66.462533958256245" lon="15.093046026304364">
        <ele>293.33999999999997</ele>
        <time>2017-06-28T13:41:36Z</time>
      </trkpt>
      <trkpt lat="66.462601013481617" lon="15.092702032998204">
        <ele>293.33999999999997</ele>
        <time>2017-06-28T13:41:37Z</time>
      </trkpt>
      <trkpt lat="66.463523022830486" lon="15.088590960949659">
        <ele>292.38</ele>
        <time>2017-06-28T13:41:48Z</time>
      </trkpt>
      <trkpt lat="66.465004021301866" lon="15.082106972113252">
        <ele>287.56999999999999</ele>
        <time>2017-06-28T13:42:03Z</time>
      </trkpt>
      <trkpt lat="66.466279998421669" lon="15.076418006792665">
        <ele>289.49000000000001</ele>
        <time>2017-06-28T13:42:16Z</time>
      </trkpt>
      <trkpt lat="66.46694996394217" lon="15.073219975456595">
        <ele>286.13</ele>
        <time>2017-06-28T13:42:23Z</time>
      </trkpt>
      <trkpt lat="66.466996986418962" lon="15.072739021852612">
        <ele>286.13</ele>
        <time>2017-06-28T13:42:24Z</time>
      </trkpt>
      <trkpt lat="66.467023976147175" lon="15.07226200774312">
        <ele>286.61000000000001</ele>
        <time>2017-06-28T13:42:25Z</time>
      </trkpt>
      <trkpt lat="66.467178035527468" lon="15.069970982149243">
        <ele>291.42000000000002</ele>
        <time>2017-06-28T13:42:30Z</time>
      </trkpt>
      <trkpt lat="66.467250036075711" lon="15.069537973031402">
        <ele>291.42000000000002</ele>
        <time>2017-06-28T13:42:31Z</time>
      </trkpt>
      <trkpt lat="66.467338968068361" lon="15.069123990833759">
        <ele>290.94</ele>
        <time>2017-06-28T13:42:32Z</time>
      </trkpt>
      <trkpt lat="66.467444999143481" lon="15.068721994757652">
        <ele>290.45999999999998</ele>
        <time>2017-06-28T13:42:33Z</time>
      </trkpt>
      <trkpt lat="66.467562010511756" lon="15.068327039480209">
        <ele>289.97000000000003</ele>
        <time>2017-06-28T13:42:34Z</time>
      </trkpt>
      <trkpt lat="66.468972014263272" lon="15.063807014375925">
        <ele>286.13</ele>
        <time>2017-06-28T13:42:45Z</time>
      </trkpt>
      <trkpt lat="66.470136009156704" lon="15.057667018845677">
        <ele>283.73000000000002</ele>
        <time>2017-06-28T13:42:58Z</time>
      </trkpt>
      <trkpt lat="66.471226997673512" lon="15.052104033529758">
        <ele>282.27999999999997</ele>
        <time>2017-06-28T13:43:10Z</time>
      </trkpt>
      <trkpt lat="66.471924036741257" lon="15.04963799379766">
        <ele>283.73000000000002</ele>
        <time>2017-06-28T13:43:16Z</time>
      </trkpt>
      <trkpt lat="66.472058985382318" lon="15.049289977177978">
        <ele>283.73000000000002</ele>
        <time>2017-06-28T13:43:17Z</time>
      </trkpt>
      <trkpt lat="66.473386008292437" lon="15.046900967136025">
        <ele>278.44</ele>
        <time>2017-06-28T13:43:25Z</time>
      </trkpt>
      <trkpt lat="66.474065026268363" lon="15.045783994719386">
        <ele>279.88</ele>
        <time>2017-06-28T13:43:29Z</time>
      </trkpt>
      <trkpt lat="66.474208021536469" lon="15.045444024726748">
        <ele>279.88</ele>
        <time>2017-06-28T13:43:30Z</time>
      </trkpt>
      <trkpt lat="66.475528003647923" lon="15.042223026975989">
        <ele>280.36000000000001</ele>
        <time>2017-06-28T13:43:39Z</time>
      </trkpt>
      <trkpt lat="66.477430025115609" lon="15.038248999044299">
        <ele>277.95999999999998</ele>
        <time>2017-06-28T13:43:51Z</time>
      </trkpt>
      <trkpt lat="66.478251032531261" lon="15.0340820197016">
        <ele>277.95999999999998</ele>
        <time>2017-06-28T13:44:00Z</time>
      </trkpt>
      <trkpt lat="66.4791280310601" lon="15.030513005331159">
        <ele>276.04000000000002</ele>
        <time>2017-06-28T13:44:08Z</time>
      </trkpt>
      <trkpt lat="66.479750974103808" lon="15.026560015976429">
        <ele>275.56</ele>
        <time>2017-06-28T13:44:16Z</time>
      </trkpt>
      <trkpt lat="66.480893008410931" lon="15.019243033602834">
        <ele>286.13</ele>
        <time>2017-06-28T13:44:31Z</time>
      </trkpt>
      <trkpt lat="66.481468006968498" lon="15.01708704046905">
        <ele>290.94</ele>
        <time>2017-06-28T13:44:37Z</time>
      </trkpt>
      <trkpt lat="66.482163034379482" lon="15.014414973556995">
        <ele>286.61000000000001</ele>
        <time>2017-06-28T13:44:46Z</time>
      </trkpt>
      <trkpt lat="66.483022011816502" lon="15.011371001601219">
        <ele>288.52999999999997</ele>
        <time>2017-06-28T13:44:53Z</time>
      </trkpt>
      <trkpt lat="66.483984002843499" lon="15.007586991414428">
        <ele>285.17000000000002</ele>
        <time>2017-06-28T13:45:01Z</time>
      </trkpt>
      <trkpt lat="66.485216980800033" lon="15.002038003876805">
        <ele>283.73000000000002</ele>
        <time>2017-06-28T13:45:13Z</time>
      </trkpt>
      <trkpt lat="66.486100014299154" lon="14.999500969424844">
        <ele>282.76999999999998</ele>
        <time>2017-06-28T13:45:20Z</time>
      </trkpt>
      <trkpt lat="66.487339027225971" lon="14.997015986591578">
        <ele>277.95999999999998</ele>
        <time>2017-06-28T13:45:28Z</time>
      </trkpt>
      <trkpt lat="66.487821992486715" lon="14.996170001104474">
        <ele>275.56</ele>
        <time>2017-06-28T13:45:31Z</time>
      </trkpt>
      <trkpt lat="66.487964987754822" lon="14.995817961171269">
        <ele>274.58999999999997</ele>
        <time>2017-06-28T13:45:32Z</time>
      </trkpt>
      <trkpt lat="66.488103037700057" lon="14.995439015328884">
        <ele>273.63</ele>
        <time>2017-06-28T13:45:33Z</time>
      </trkpt>
      <trkpt lat="66.488777026534081" lon="14.993012035265565">
        <ele>264.98000000000002</ele>
        <time>2017-06-28T13:45:39Z</time>
      </trkpt>
      <trkpt lat="66.488902000710368" lon="14.992664018645883">
        <ele>263.54000000000002</ele>
        <time>2017-06-28T13:45:40Z</time>
      </trkpt>
      <trkpt lat="66.489049019291997" lon="14.992354977875948">
        <ele>262.10000000000002</ele>
        <time>2017-06-28T13:45:41Z</time>
      </trkpt>
      <trkpt lat="66.489211963489652" lon="14.992096982896328">
        <ele>261.13999999999999</ele>
        <time>2017-06-28T13:45:42Z</time>
      </trkpt>
      <trkpt lat="66.489387983456254" lon="14.991868995130062">
        <ele>259.69</ele>
        <time>2017-06-28T13:45:43Z</time>
      </trkpt>
      <trkpt lat="66.48957297205925" lon="14.991659028455615">
        <ele>258.73000000000002</ele>
        <time>2017-06-28T13:45:44Z</time>
      </trkpt>
      <trkpt lat="66.491308026015759" lon="14.990041991695762">
        <ele>253.44</ele>
        <time>2017-06-28T13:45:53Z</time>
      </trkpt>
      <trkpt lat="66.492147976532578" lon="14.989622980356216">
        <ele>252.47999999999999</ele>
        <time>2017-06-28T13:45:58Z</time>
      </trkpt>
      <trkpt lat="66.492308992892504" lon="14.989445032551885">
        <ele>252.47999999999999</ele>
        <time>2017-06-28T13:45:59Z</time>
      </trkpt>
      <trkpt lat="66.492462968453765" lon="14.989214027300477">
        <ele>252.96000000000001</ele>
        <time>2017-06-28T13:46:00Z</time>
      </trkpt>
      <trkpt lat="66.493549011647701" lon="14.987519038841128">
        <ele>254.41</ele>
        <time>2017-06-28T13:46:06Z</time>
      </trkpt>
      <trkpt lat="66.494994973763824" lon="14.986533997580409">
        <ele>250.56</ele>
        <time>2017-06-28T13:46:13Z</time>
      </trkpt>
      <trkpt lat="66.498046992346644" lon="14.985362961888313">
        <ele>249.12</ele>
        <time>2017-06-28T13:46:28Z</time>
      </trkpt>
      <trkpt lat="66.50018597021699" lon="14.984532985836267">
        <ele>249.59999999999999</ele>
        <time>2017-06-28T13:46:40Z</time>
      </trkpt>
      <trkpt lat="66.502686040475965" lon="14.983527995646">
        <ele>246.22999999999999</ele>
        <time>2017-06-28T13:46:56Z</time>
      </trkpt>
      <trkpt lat="66.505214022472501" lon="14.982501966878772">
        <ele>244.78999999999999</ele>
        <time>2017-06-28T13:47:12Z</time>
      </trkpt>
      <trkpt lat="66.505500013008714" lon="14.982273979112506">
        <ele>244.78999999999999</ele>
        <time>2017-06-28T13:47:14Z</time>
      </trkpt>
      <trkpt lat="66.505633033812046" lon="14.982106005772948">
        <ele>244.78999999999999</ele>
        <time>2017-06-28T13:47:15Z</time>
      </trkpt>
      <trkpt lat="66.505755996331573" lon="14.981902996078134">
        <ele>244.31</ele>
        <time>2017-06-28T13:47:16Z</time>
      </trkpt>
      <trkpt lat="66.505872001871467" lon="14.981672996655107">
        <ele>244.78999999999999</ele>
        <time>2017-06-28T13:47:17Z</time>
      </trkpt>
      <trkpt lat="66.505978032946587" lon="14.981413995847106">
        <ele>244.78999999999999</ele>
        <time>2017-06-28T13:47:18Z</time>
      </trkpt>
      <trkpt lat="66.506076017394662" lon="14.981128005310893">
        <ele>245.27000000000001</ele>
        <time>2017-06-28T13:47:19Z</time>
      </trkpt>
      <trkpt lat="66.506170984357595" lon="14.980829022824764">
        <ele>245.75</ele>
        <time>2017-06-28T13:47:20Z</time>
      </trkpt>
      <trkpt lat="66.507382001727819" lon="14.976686015725136">
        <ele>248.63999999999999</ele>
        <time>2017-06-28T13:47:33Z</time>
      </trkpt>
      <trkpt lat="66.50744603946805" lon="14.976341016590595">
        <ele>248.63999999999999</ele>
        <time>2017-06-28T13:47:34Z</time>
      </trkpt>
      <trkpt lat="66.507492978125811" lon="14.975970033556223">
        <ele>248.16</ele>
        <time>2017-06-28T13:47:35Z</time>
      </trkpt>
      <trkpt lat="66.507519967854023" lon="14.975583963096142">
        <ele>247.68000000000001</ele>
        <time>2017-06-28T13:47:36Z</time>
      </trkpt>
      <trkpt lat="66.507531031966209" lon="14.975179033353925">
        <ele>247.68000000000001</ele>
        <time>2017-06-28T13:47:37Z</time>
      </trkpt>
      <trkpt lat="66.507524996995926" lon="14.974765973165631">
        <ele>247.19999999999999</ele>
        <time>2017-06-28T13:47:38Z</time>
      </trkpt>
      <trkpt lat="66.50751200504601" lon="14.974338999018073">
        <ele>247.19999999999999</ele>
        <time>2017-06-28T13:47:39Z</time>
      </trkpt>
      <trkpt lat="66.507224002853036" lon="14.968858994543552">
        <ele>236.62</ele>
        <time>2017-06-28T13:47:51Z</time>
      </trkpt>
      <trkpt lat="66.507006995379925" lon="14.96257902123034">
        <ele>223.16</ele>
        <time>2017-06-28T13:48:05Z</time>
      </trkpt>
      <trkpt lat="66.506972964853048" lon="14.962191022932529">
        <ele>222.19999999999999</ele>
        <time>2017-06-28T13:48:06Z</time>
      </trkpt>
      <trkpt lat="66.506930971518159" lon="14.961814004927874">
        <ele>221.24000000000001</ele>
        <time>2017-06-28T13:48:07Z</time>
      </trkpt>
      <trkpt lat="66.506874980404973" lon="14.961451990529895">
        <ele>220.28</ele>
        <time>2017-06-28T13:48:08Z</time>
      </trkpt>
      <trkpt lat="66.506811026483774" lon="14.961114032194018">
        <ele>218.84</ele>
        <time>2017-06-28T13:48:09Z</time>
      </trkpt>
      <trkpt lat="66.506725028157234" lon="14.960790993645787">
        <ele>217.40000000000001</ele>
        <time>2017-06-28T13:48:10Z</time>
      </trkpt>
      <trkpt lat="66.506634000688791" lon="14.960481030866504">
        <ele>216.91</ele>
        <time>2017-06-28T13:48:11Z</time>
      </trkpt>
      <trkpt lat="66.506534004583955" lon="14.960186993703246">
        <ele>215.94999999999999</ele>
        <time>2017-06-28T13:48:12Z</time>
      </trkpt>
      <trkpt lat="66.505954982712865" lon="14.957374026998878">
        <ele>206.34</ele>
        <time>2017-06-28T13:48:20Z</time>
      </trkpt>
      <trkpt lat="66.50587803684175" lon="14.954315973445773">
        <ele>199.13</ele>
        <time>2017-06-28T13:48:28Z</time>
      </trkpt>
      <trkpt lat="66.505845012143254" lon="14.953966028988361">
        <ele>198.16999999999999</ele>
        <time>2017-06-28T13:48:29Z</time>
      </trkpt>
      <trkpt lat="66.505802012979984" lon="14.95364198461175">
        <ele>197.21000000000001</ele>
        <time>2017-06-28T13:48:30Z</time>
      </trkpt>
      <trkpt lat="66.505741998553276" lon="14.953338978812099">
        <ele>196.25</ele>
        <time>2017-06-28T13:48:31Z</time>
      </trkpt>
      <trkpt lat="66.505671003833413" lon="14.953073021024466">
        <ele>195.28</ele>
        <time>2017-06-28T13:48:32Z</time>
      </trkpt>
      <trkpt lat="66.505590034648776" lon="14.95282500050962">
        <ele>193.84</ele>
        <time>2017-06-28T13:48:33Z</time>
      </trkpt>
      <trkpt lat="66.50549297221005" lon="14.952603969722986">
        <ele>193.36000000000001</ele>
        <time>2017-06-28T13:48:34Z</time>
      </trkpt>
      <trkpt lat="66.505383001640439" lon="14.952401965856552">
        <ele>192.40000000000001</ele>
        <time>2017-06-28T13:48:35Z</time>
      </trkpt>
      <trkpt lat="66.505261966958642" lon="14.952211026102304">
        <ele>191.44</ele>
        <time>2017-06-28T13:48:36Z</time>
      </trkpt>
      <trkpt lat="66.505129029974341" lon="14.952035006135702">
        <ele>190</ele>
        <time>2017-06-28T13:48:37Z</time>
      </trkpt>
      <trkpt lat="66.504858965054154" lon="14.951663017272949">
        <ele>187.11000000000001</ele>
        <time>2017-06-28T13:48:39Z</time>
      </trkpt>
      <trkpt lat="66.504733990877867" lon="14.951413990929723">
        <ele>186.15000000000001</ele>
        <time>2017-06-28T13:48:40Z</time>
      </trkpt>
      <trkpt lat="66.504626031965017" lon="14.951134035363793">
        <ele>185.19</ele>
        <time>2017-06-28T13:48:41Z</time>
      </trkpt>
      <trkpt lat="66.504535004496574" lon="14.950809990987182">
        <ele>184.22999999999999</ele>
        <time>2017-06-28T13:48:42Z</time>
      </trkpt>
      <trkpt lat="66.504464009776711" lon="14.950441019609571">
        <ele>182.78999999999999</ele>
        <time>2017-06-28T13:48:43Z</time>
      </trkpt>
      <trkpt lat="66.504424028098583" lon="14.950046986341476">
        <ele>181.83000000000001</ele>
        <time>2017-06-28T13:48:44Z</time>
      </trkpt>
      <trkpt lat="66.504409024491906" lon="14.949639039114118">
        <ele>180.87</ele>
        <time>2017-06-28T13:48:45Z</time>
      </trkpt>
      <trkpt lat="66.504415981471539" lon="14.949220027774572">
        <ele>179.90000000000001</ele>
        <time>2017-06-28T13:48:46Z</time>
      </trkpt>
      <trkpt lat="66.504437020048499" lon="14.948787018656731">
        <ele>178.94</ele>
        <time>2017-06-28T13:48:47Z</time>
      </trkpt>
      <trkpt lat="66.504557970911264" lon="14.944888008758426">
        <ele>177.02000000000001</ele>
        <time>2017-06-28T13:48:56Z</time>
      </trkpt>
      <trkpt lat="66.5045250300318" lon="14.944480983540416">
        <ele>176.06</ele>
        <time>2017-06-28T13:48:57Z</time>
      </trkpt>
      <trkpt lat="66.504475995898247" lon="14.944083010777831">
        <ele>175.09999999999999</ele>
        <time>2017-06-28T13:48:58Z</time>
      </trkpt>
      <trkpt lat="66.504411958158016" lon="14.943687971681356">
        <ele>173.66</ele>
        <time>2017-06-28T13:48:59Z</time>
      </trkpt>
      <trkpt lat="66.504326965659857" lon="14.943309025838971">
        <ele>172.21000000000001</ele>
        <time>2017-06-28T13:49:00Z</time>
      </trkpt>
      <trkpt lat="66.504230992868543" lon="14.942933013662696">
        <ele>170.28999999999999</ele>
        <time>2017-06-28T13:49:01Z</time>
      </trkpt>
      <trkpt lat="66.503189960494637" lon="14.938594959676266">
        <ele>160.68000000000001</ele>
        <time>2017-06-28T13:49:12Z</time>
      </trkpt>
      <trkpt lat="66.502815037965775" lon="14.934452958405018">
        <ele>162.12</ele>
        <time>2017-06-28T13:49:22Z</time>
      </trkpt>
      <trkpt lat="66.502948980778456" lon="14.932050034403801">
        <ele>159.72</ele>
        <time>2017-06-28T13:49:28Z</time>
      </trkpt>
      <trkpt lat="66.503014024347067" lon="14.931420972570777">
        <ele>159.24000000000001</ele>
        <time>2017-06-28T13:49:30Z</time>
      </trkpt>
      <trkpt lat="66.503015030175447" lon="14.931145962327719">
        <ele>159.24000000000001</ele>
        <time>2017-06-28T13:49:31Z</time>
      </trkpt>
      <trkpt lat="66.502996003255248" lon="14.930874975398183">
        <ele>158.75</ele>
        <time>2017-06-28T13:49:32Z</time>
      </trkpt>
      <trkpt lat="66.502929031848907" lon="14.930079029873013">
        <ele>157.31</ele>
        <time>2017-06-28T13:49:35Z</time>
      </trkpt>
      <trkpt lat="66.502944035455585" lon="14.929855987429619">
        <ele>157.31</ele>
        <time>2017-06-28T13:49:36Z</time>
      </trkpt>
      <trkpt lat="66.502980999648571" lon="14.929644009098411">
        <ele>157.31</ele>
        <time>2017-06-28T13:49:37Z</time>
      </trkpt>
      <trkpt lat="66.503039002418518" lon="14.929421972483397">
        <ele>157.31</ele>
        <time>2017-06-28T13:49:38Z</time>
      </trkpt>
      <trkpt lat="66.503109997138381" lon="14.929193984717131">
        <ele>157.31</ele>
        <time>2017-06-28T13:49:39Z</time>
      </trkpt>
      <trkpt lat="66.503540994599462" lon="14.927556999027729">
        <ele>155.87</ele>
        <time>2017-06-28T13:49:45Z</time>
      </trkpt>
      <trkpt lat="66.503596985712647" lon="14.927244018763304">
        <ele>155.87</ele>
        <time>2017-06-28T13:49:46Z</time>
      </trkpt>
      <trkpt lat="66.504111969843507" lon="14.923425978049636">
        <ele>153.94999999999999</ele>
        <time>2017-06-28T13:49:56Z</time>
      </trkpt>
      <trkpt lat="66.504414975643158" lon="14.919048026204109">
        <ele>154.43000000000001</ele>
        <time>2017-06-28T13:50:07Z</time>
      </trkpt>
      <trkpt lat="66.504034018144011" lon="14.914673008024693">
        <ele>155.87</ele>
        <time>2017-06-28T13:50:18Z</time>
      </trkpt>
      <trkpt lat="66.503188032656908" lon="14.90618297830224">
        <ele>151.53999999999999</ele>
        <time>2017-06-28T13:50:38Z</time>
      </trkpt>
      <trkpt lat="66.502737002447248" lon="14.903220981359482">
        <ele>150.58000000000001</ele>
        <time>2017-06-28T13:50:46Z</time>
      </trkpt>
      <trkpt lat="66.501941978931427" lon="14.900687970221043">
        <ele>152.50999999999999</ele>
        <time>2017-06-28T13:50:54Z</time>
      </trkpt>
      <trkpt lat="66.501807030290365" lon="14.900443973019719">
        <ele>152.50999999999999</ele>
        <time>2017-06-28T13:50:55Z</time>
      </trkpt>
      <trkpt lat="66.501662023365498" lon="14.900241969153285">
        <ele>152.50999999999999</ele>
        <time>2017-06-28T13:50:56Z</time>
      </trkpt>
      <trkpt lat="66.499973991885781" lon="14.898122018203139">
        <ele>152.99000000000001</ele>
        <time>2017-06-28T13:51:07Z</time>
      </trkpt>
      <trkpt lat="66.499855974689126" lon="14.897842984646559">
        <ele>154.43000000000001</ele>
        <time>2017-06-28T13:51:08Z</time>
      </trkpt>
      <trkpt lat="66.499752961099148" lon="14.897532016038895">
        <ele>155.38999999999999</ele>
        <time>2017-06-28T13:51:09Z</time>
      </trkpt>
      <trkpt lat="66.499671991914511" lon="14.897201014682651">
        <ele>156.34999999999999</ele>
        <time>2017-06-28T13:51:10Z</time>
      </trkpt>
      <trkpt lat="66.49960502050817" lon="14.896854003891349">
        <ele>157.78999999999999</ele>
        <time>2017-06-28T13:51:11Z</time>
      </trkpt>
      <trkpt lat="66.499551041051745" lon="14.896488972008228">
        <ele>158.27000000000001</ele>
        <time>2017-06-28T13:51:12Z</time>
      </trkpt>
      <trkpt lat="66.499503012746572" lon="14.896117988973856">
        <ele>158.75</ele>
        <time>2017-06-28T13:51:13Z</time>
      </trkpt>
      <trkpt lat="66.499332021921873" lon="14.894723994657397">
        <ele>161.63999999999999</ele>
        <time>2017-06-28T13:51:17Z</time>
      </trkpt>
      <trkpt lat="66.499273013323545" lon="14.894424006342888">
        <ele>162.12</ele>
        <time>2017-06-28T13:51:18Z</time>
      </trkpt>
      <trkpt lat="66.49919698946178" lon="14.894155031070113">
        <ele>162.59999999999999</ele>
        <time>2017-06-28T13:51:19Z</time>
      </trkpt>
      <trkpt lat="66.49911199696362" lon="14.893925031647086">
        <ele>162.59999999999999</ele>
        <time>2017-06-28T13:51:20Z</time>
      </trkpt>
      <trkpt lat="66.499015018343925" lon="14.893716992810369">
        <ele>162.59999999999999</ele>
        <time>2017-06-28T13:51:21Z</time>
      </trkpt>
      <trkpt lat="66.498908987268806" lon="14.893542984500527">
        <ele>162.59999999999999</ele>
        <time>2017-06-28T13:51:22Z</time>
      </trkpt>
      <trkpt lat="66.498799016699195" lon="14.893384985625744">
        <ele>162.12</ele>
        <time>2017-06-28T13:51:23Z</time>
      </trkpt>
      <trkpt lat="66.49818898178637" lon="14.892333978787065">
        <ele>162.59999999999999</ele>
        <time>2017-06-28T13:51:30Z</time>
      </trkpt>
      <trkpt lat="66.497471993789077" lon="14.890824984759092">
        <ele>166.93000000000001</ele>
        <time>2017-06-28T13:51:37Z</time>
      </trkpt>
      <trkpt lat="66.497208969667554" lon="14.890331039205194">
        <ele>166.93000000000001</ele>
        <time>2017-06-28T13:51:39Z</time>
      </trkpt>
      <trkpt lat="66.49709103628993" lon="14.890041025355458">
        <ele>167.41</ele>
        <time>2017-06-28T13:51:40Z</time>
      </trkpt>
      <trkpt lat="66.496986011043191" lon="14.889710023999214">
        <ele>167.41</ele>
        <time>2017-06-28T13:51:41Z</time>
      </trkpt>
      <trkpt lat="66.496900012716651" lon="14.889345997944474">
        <ele>167.41</ele>
        <time>2017-06-28T13:51:42Z</time>
      </trkpt>
      <trkpt lat="66.496828012168407" lon="14.888946013525128">
        <ele>167.41</ele>
        <time>2017-06-28T13:51:43Z</time>
      </trkpt>
      <trkpt lat="66.49676900357008" lon="14.888537982478738">
        <ele>167.88999999999999</ele>
        <time>2017-06-28T13:51:44Z</time>
      </trkpt>
      <trkpt lat="66.496711000800133" lon="14.888126011937857">
        <ele>168.84999999999999</ele>
        <time>2017-06-28T13:51:45Z</time>
      </trkpt>
      <trkpt lat="66.496517965570092" lon="14.886713996529579">
        <ele>172.69</ele>
        <time>2017-06-28T13:51:49Z</time>
      </trkpt>
      <trkpt lat="66.496440013870597" lon="14.886396992951632">
        <ele>173.66</ele>
        <time>2017-06-28T13:51:50Z</time>
      </trkpt>
      <trkpt lat="66.496343035250902" lon="14.886106979101896">
        <ele>175.09999999999999</ele>
        <time>2017-06-28T13:51:51Z</time>
      </trkpt>
      <trkpt lat="66.496223006397486" lon="14.885862981900573">
        <ele>176.06</ele>
        <time>2017-06-28T13:51:52Z</time>
      </trkpt>
      <trkpt lat="66.496077999472618" lon="14.885671036317945">
        <ele>177.02000000000001</ele>
        <time>2017-06-28T13:51:53Z</time>
      </trkpt>
      <trkpt lat="66.495911031961441" lon="14.885497028008103">
        <ele>177.5</ele>
        <time>2017-06-28T13:51:54Z</time>
      </trkpt>
      <trkpt lat="66.4957179967314" lon="14.885314973071218">
        <ele>178.94</ele>
        <time>2017-06-28T13:51:55Z</time>
      </trkpt>
      <trkpt lat="66.494589960202575" lon="14.884090963751078">
        <ele>184.71000000000001</ele>
        <time>2017-06-28T13:52:01Z</time>
      </trkpt>
      <trkpt lat="66.492950962856412" lon="14.882432017475367">
        <ele>190</ele>
        <time>2017-06-28T13:52:11Z</time>
      </trkpt>
      <trkpt lat="66.491512041538954" lon="14.882006971165538">
        <ele>187.11000000000001</ele>
        <time>2017-06-28T13:52:19Z</time>
      </trkpt>
      <trkpt lat="66.48933500982821" lon="14.881330970674753">
        <ele>189.03999999999999</ele>
        <time>2017-06-28T13:52:31Z</time>
      </trkpt>
      <trkpt lat="66.487815035507083" lon="14.879591977223754">
        <ele>186.63</ele>
        <time>2017-06-28T13:52:40Z</time>
      </trkpt>
      <trkpt lat="66.486260024830699" lon="14.877579985186458">
        <ele>194.31999999999999</ele>
        <time>2017-06-28T13:52:50Z</time>
      </trkpt>
      <trkpt lat="66.484380969777703" lon="14.875219976529479">
        <ele>192.40000000000001</ele>
        <time>2017-06-28T13:53:02Z</time>
      </trkpt>
      <trkpt lat="66.482766028493643" lon="14.87315802834928">
        <ele>189.03999999999999</ele>
        <time>2017-06-28T13:53:13Z</time>
      </trkpt>
      <trkpt lat="66.481805965304375" lon="14.871982969343662">
        <ele>183.75</ele>
        <time>2017-06-28T13:53:21Z</time>
      </trkpt>
      <trkpt lat="66.481669005006552" lon="14.871931001543999">
        <ele>182.78999999999999</ele>
        <time>2017-06-28T13:53:22Z</time>
      </trkpt>
      <trkpt lat="66.481530033051968" lon="14.871907029300928">
        <ele>182.31</ele>
        <time>2017-06-28T13:53:23Z</time>
      </trkpt>
      <trkpt lat="66.480343993753195" lon="14.871491035446525">
        <ele>174.62</ele>
        <time>2017-06-28T13:53:31Z</time>
      </trkpt>
      <trkpt lat="66.480050962418318" lon="14.871206972748041">
        <ele>173.16999999999999</ele>
        <time>2017-06-28T13:53:33Z</time>
      </trkpt>
      <trkpt lat="66.479907967150211" lon="14.871018966659904">
        <ele>171.72999999999999</ele>
        <time>2017-06-28T13:53:34Z</time>
      </trkpt>
      <trkpt lat="66.478439038619399" lon="14.868583017960191">
        <ele>162.12</ele>
        <time>2017-06-28T13:53:45Z</time>
      </trkpt>
      <trkpt lat="66.478330995887518" lon="14.86830398440361">
        <ele>160.68000000000001</ele>
        <time>2017-06-28T13:53:46Z</time>
      </trkpt>
      <trkpt lat="66.478234017267823" lon="14.867994021624327">
        <ele>160.19999999999999</ele>
        <time>2017-06-28T13:53:47Z</time>
      </trkpt>
      <trkpt lat="66.478151958435774" lon="14.867641981691122">
        <ele>159.72</ele>
        <time>2017-06-28T13:53:48Z</time>
      </trkpt>
      <trkpt lat="66.477879965677857" lon="14.866596003994346">
        <ele>156.83000000000001</ele>
        <time>2017-06-28T13:53:51Z</time>
      </trkpt>
      <trkpt lat="66.477762032300234" lon="14.866290986537933">
        <ele>155.87</ele>
        <time>2017-06-28T13:53:52Z</time>
      </trkpt>
      <trkpt lat="66.477631023153663" lon="14.866035003215075">
        <ele>155.87</ele>
        <time>2017-06-28T13:53:53Z</time>
      </trkpt>
      <trkpt lat="66.477486016228795" lon="14.865827970206738">
        <ele>155.38999999999999</ele>
        <time>2017-06-28T13:53:54Z</time>
      </trkpt>
      <trkpt lat="66.477337991818786" lon="14.865651028230786">
        <ele>155.38999999999999</ele>
        <time>2017-06-28T13:53:55Z</time>
      </trkpt>
      <trkpt lat="66.477184016257524" lon="14.865492023527622">
        <ele>155.38999999999999</ele>
        <time>2017-06-28T13:53:56Z</time>
      </trkpt>
      <trkpt lat="66.475705029442906" lon="14.864058969542384">
        <ele>156.34999999999999</ele>
        <time>2017-06-28T13:54:06Z</time>
      </trkpt>
      <trkpt lat="66.473907027393579" lon="14.863165039569139">
        <ele>154.91</ele>
        <time>2017-06-28T13:54:17Z</time>
      </trkpt>
      <trkpt lat="66.472370959818363" lon="14.861827958375216">
        <ele>155.87</ele>
        <time>2017-06-28T13:54:27Z</time>
      </trkpt>
      <trkpt lat="66.470762975513935" lon="14.859487982466817">
        <ele>149.13999999999999</ele>
        <time>2017-06-28T13:54:38Z</time>
      </trkpt>
      <trkpt lat="66.469393037259579" lon="14.856576025485992">
        <ele>137.61000000000001</ele>
        <time>2017-06-28T13:54:49Z</time>
      </trkpt>
      <trkpt lat="66.469303015619516" lon="14.856322975829244">
        <ele>136.63999999999999</ele>
        <time>2017-06-28T13:54:50Z</time>
      </trkpt>
      <trkpt lat="66.469234032556415" lon="14.856057018041611">
        <ele>136.16</ele>
        <time>2017-06-28T13:54:51Z</time>
      </trkpt>
      <trkpt lat="66.4691829867661" lon="14.855772033333778">
        <ele>135.68000000000001</ele>
        <time>2017-06-28T13:54:52Z</time>
      </trkpt>
      <trkpt lat="66.469148034229875" lon="14.855470033362508">
        <ele>135.19999999999999</ele>
        <time>2017-06-28T13:54:53Z</time>
      </trkpt>
      <trkpt lat="66.469125989824533" lon="14.855151018127799">
        <ele>134.72</ele>
        <time>2017-06-28T13:54:54Z</time>
      </trkpt>
      <trkpt lat="66.469111992046237" lon="14.854822028428316">
        <ele>134.24000000000001</ele>
        <time>2017-06-28T13:54:55Z</time>
      </trkpt>
      <trkpt lat="66.469034040346742" lon="14.85345502384007">
        <ele>133.75999999999999</ele>
        <time>2017-06-28T13:54:59Z</time>
      </trkpt>
      <trkpt lat="66.468976959586143" lon="14.853142965584993">
        <ele>133.28</ele>
        <time>2017-06-28T13:55:00Z</time>
      </trkpt>
      <trkpt lat="66.468899007886648" lon="14.852844988927245">
        <ele>133.28</ele>
        <time>2017-06-28T13:55:01Z</time>
      </trkpt>
      <trkpt lat="66.468800017610192" lon="14.852589005604386">
        <ele>132.80000000000001</ele>
        <time>2017-06-28T13:55:02Z</time>
      </trkpt>
      <trkpt lat="66.468676971271634" lon="14.852373003959656">
        <ele>132.31999999999999</ele>
        <time>2017-06-28T13:55:03Z</time>
      </trkpt>
      <trkpt lat="66.468543028458953" lon="14.852215005084872">
        <ele>132.31999999999999</ele>
        <time>2017-06-28T13:55:04Z</time>
      </trkpt>
      <trkpt lat="66.468399027362466" lon="14.852096987888217">
        <ele>132.31999999999999</ele>
        <time>2017-06-28T13:55:05Z</time>
      </trkpt>
      <trkpt lat="66.468246979638934" lon="14.851995985955">
        <ele>132.31999999999999</ele>
        <time>2017-06-28T13:55:06Z</time>
      </trkpt>
      <trkpt lat="66.466530030593276" lon="14.850815981626511">
        <ele>132.31999999999999</ele>
        <time>2017-06-28T13:55:16Z</time>
      </trkpt>
      <trkpt lat="66.465018019080162" lon="14.8491380084306">
        <ele>137.61000000000001</ele>
        <time>2017-06-28T13:55:25Z</time>
      </trkpt>
      <trkpt lat="66.462646024301648" lon="14.846148015931249">
        <ele>136.63999999999999</ele>
        <time>2017-06-28T13:55:39Z</time>
      </trkpt>
      <trkpt lat="66.46026698872447" lon="14.843849027529359">
        <ele>135.68000000000001</ele>
        <time>2017-06-28T13:55:52Z</time>
      </trkpt>
      <trkpt lat="66.456983964890242" lon="14.841133039444685">
        <ele>133.75999999999999</ele>
        <time>2017-06-28T13:56:10Z</time>
      </trkpt>
      <trkpt lat="66.453819964081049" lon="14.83854403719306">
        <ele>134.24000000000001</ele>
        <time>2017-06-28T13:56:27Z</time>
      </trkpt>
      <trkpt lat="66.450629979372025" lon="14.835927961394191">
        <ele>131.84</ele>
        <time>2017-06-28T13:56:43Z</time>
      </trkpt>
      <trkpt lat="66.449013026431203" lon="14.833827037364244">
        <ele>131.36000000000001</ele>
        <time>2017-06-28T13:56:52Z</time>
      </trkpt>
      <trkpt lat="66.446006018668413" lon="14.829484038054943">
        <ele>134.72</ele>
        <time>2017-06-28T13:57:09Z</time>
      </trkpt>
      <trkpt lat="66.444506999105215" lon="14.826431013643742">
        <ele>136.63999999999999</ele>
        <time>2017-06-28T13:57:19Z</time>
      </trkpt>
      <trkpt lat="66.442429041489959" lon="14.821581998839974">
        <ele>128.47</ele>
        <time>2017-06-28T13:57:33Z</time>
      </trkpt>
      <trkpt lat="66.439708024263382" lon="14.81527503579855">
        <ele>124.63</ele>
        <time>2017-06-28T13:57:51Z</time>
      </trkpt>
      <trkpt lat="66.438511004671454" lon="14.813362034037709">
        <ele>124.15000000000001</ele>
        <time>2017-06-28T13:57:58Z</time>
      </trkpt>
      <trkpt lat="66.437221029773355" lon="14.811341995373368">
        <ele>125.11</ele>
        <time>2017-06-28T13:58:06Z</time>
      </trkpt>
      <trkpt lat="66.436176979914308" lon="14.809116013348103">
        <ele>124.15000000000001</ele>
        <time>2017-06-28T13:58:13Z</time>
      </trkpt>
      <trkpt lat="66.436059968546033" lon="14.808740001171827">
        <ele>124.15000000000001</ele>
        <time>2017-06-28T13:58:14Z</time>
      </trkpt>
      <trkpt lat="66.435965001583099" lon="14.808335993438959">
        <ele>124.63</ele>
        <time>2017-06-28T13:58:15Z</time>
      </trkpt>
      <trkpt lat="66.435894006863236" lon="14.807899966835976">
        <ele>125.59</ele>
        <time>2017-06-28T13:58:16Z</time>
      </trkpt>
      <trkpt lat="66.435843966901302" lon="14.807442985475063">
        <ele>126.55</ele>
        <time>2017-06-28T13:58:17Z</time>
      </trkpt>
      <trkpt lat="66.435803985223174" lon="14.806978041306138">
        <ele>127.51000000000001</ele>
        <time>2017-06-28T13:58:18Z</time>
      </trkpt>
      <trkpt lat="66.435643974691629" lon="14.805653030052781">
        <ele>127.98999999999999</ele>
        <time>2017-06-28T13:58:21Z</time>
      </trkpt>
      <trkpt lat="66.435560993850231" lon="14.805242987349629">
        <ele>127.51000000000001</ele>
        <time>2017-06-28T13:58:22Z</time>
      </trkpt>
      <trkpt lat="66.435459991917014" lon="14.804861024022102">
        <ele>126.55</ele>
        <time>2017-06-28T13:58:23Z</time>
      </trkpt>
      <trkpt lat="66.435341974720359" lon="14.804502027109265">
        <ele>126.06999999999999</ele>
        <time>2017-06-28T13:58:24Z</time>
      </trkpt>
      <trkpt lat="66.435209037736058" lon="14.804164990782738">
        <ele>126.06999999999999</ele>
        <time>2017-06-28T13:58:25Z</time>
      </trkpt>
      <trkpt lat="66.435067970305681" lon="14.80386801995337">
        <ele>127.03</ele>
        <time>2017-06-28T13:58:26Z</time>
      </trkpt>
      <trkpt lat="66.434918018057942" lon="14.803584041073918">
        <ele>127.98999999999999</ele>
        <time>2017-06-28T13:58:27Z</time>
      </trkpt>
      <trkpt lat="66.43370901234448" lon="14.801728958263993">
        <ele>133.28</ele>
        <time>2017-06-28T13:58:35Z</time>
      </trkpt>
      <trkpt lat="66.433585966005921" lon="14.801450008526444">
        <ele>133.75999999999999</ele>
        <time>2017-06-28T13:58:36Z</time>
      </trkpt>
      <trkpt lat="66.433475995436311" lon="14.801131999120116">
        <ele>134.24000000000001</ele>
        <time>2017-06-28T13:58:37Z</time>
      </trkpt>
      <trkpt lat="66.433382034301758" lon="14.800780965015292">
        <ele>133.75999999999999</ele>
        <time>2017-06-28T13:58:38Z</time>
      </trkpt>
      <trkpt lat="66.433308022096753" lon="14.800394978374243">
        <ele>133.28</ele>
        <time>2017-06-28T13:58:39Z</time>
      </trkpt>
      <trkpt lat="66.433251025155187" lon="14.799984013661742">
        <ele>132.80000000000001</ele>
        <time>2017-06-28T13:58:40Z</time>
      </trkpt>
      <trkpt lat="66.433204002678394" lon="14.799544969573617">
        <ele>131.84</ele>
        <time>2017-06-28T13:58:41Z</time>
      </trkpt>
      <trkpt lat="66.433161003515124" lon="14.799094023182988">
        <ele>131.36000000000001</ele>
        <time>2017-06-28T13:58:42Z</time>
      </trkpt>
      <trkpt lat="66.432995041832328" lon="14.797775968909264">
        <ele>129.43000000000001</ele>
        <time>2017-06-28T13:58:45Z</time>
      </trkpt>
      <trkpt lat="66.432911977171898" lon="14.797374978661537">
        <ele>129.91999999999999</ele>
        <time>2017-06-28T13:58:46Z</time>
      </trkpt>
      <trkpt lat="66.432814998552203" lon="14.796991003677249">
        <ele>129.91999999999999</ele>
        <time>2017-06-28T13:58:47Z</time>
      </trkpt>
      <trkpt lat="66.43269999884069" lon="14.796618008986115">
        <ele>129.91999999999999</ele>
        <time>2017-06-28T13:58:48Z</time>
      </trkpt>
      <trkpt lat="66.432576030492783" lon="14.796268986538053">
        <ele>129.91999999999999</ele>
        <time>2017-06-28T13:58:49Z</time>
      </trkpt>
      <trkpt lat="66.432437980547547" lon="14.795945025980473">
        <ele>129.43000000000001</ele>
        <time>2017-06-28T13:58:50Z</time>
      </trkpt>
      <trkpt lat="66.43229003995657" lon="14.795648977160454">
        <ele>129.43000000000001</ele>
        <time>2017-06-28T13:58:51Z</time>
      </trkpt>
      <trkpt lat="66.432129023596644" lon="14.79538100771606">
        <ele>128.94999999999999</ele>
        <time>2017-06-28T13:58:52Z</time>
      </trkpt>
      <trkpt lat="66.431963983923197" lon="14.795136004686356">
        <ele>128.94999999999999</ele>
        <time>2017-06-28T13:58:53Z</time>
      </trkpt>
      <trkpt lat="66.43179701641202" lon="14.794902987778187">
        <ele>128.94999999999999</ele>
        <time>2017-06-28T13:58:54Z</time>
      </trkpt>
      <trkpt lat="66.43072597682476" lon="14.793583005666733">
        <ele>128.47</ele>
        <time>2017-06-28T13:59:01Z</time>
      </trkpt>
      <trkpt lat="66.430603014305234" lon="14.79334001429379">
        <ele>128.47</ele>
        <time>2017-06-28T13:59:02Z</time>
      </trkpt>
      <trkpt lat="66.43048801459372" lon="14.793070033192635">
        <ele>128.47</ele>
        <time>2017-06-28T13:59:03Z</time>
      </trkpt>
      <trkpt lat="66.429270040243864" lon="14.79041799902916">
        <ele>128.47</ele>
        <time>2017-06-28T13:59:12Z</time>
      </trkpt>
      <trkpt lat="66.427066018804908" lon="14.786992985755205">
        <ele>126.06999999999999</ele>
        <time>2017-06-28T13:59:25Z</time>
      </trkpt>
      <trkpt lat="66.425176989287138" lon="14.783936021849513">
        <ele>122.22</ele>
        <time>2017-06-28T13:59:36Z</time>
      </trkpt>
      <trkpt lat="66.424176022410393" lon="14.780577979981899">
        <ele>127.51000000000001</ele>
        <time>2017-06-28T13:59:44Z</time>
      </trkpt>
      <trkpt lat="66.423321990296245" lon="14.776705037802458">
        <ele>130.88</ele>
        <time>2017-06-28T13:59:53Z</time>
      </trkpt>
      <trkpt lat="66.422313982620835" lon="14.771389989182353">
        <ele>141.44999999999999</ele>
        <time>2017-06-28T14:00:05Z</time>
      </trkpt>
      <trkpt lat="66.422190014272928" lon="14.77103996090591">
        <ele>142.88999999999999</ele>
        <time>2017-06-28T14:00:06Z</time>
      </trkpt>
      <trkpt lat="66.421001963317394" lon="14.76775299757719">
        <ele>150.09999999999999</ele>
        <time>2017-06-28T14:00:15Z</time>
      </trkpt>
      <trkpt lat="66.419869987294078" lon="14.763289969414473">
        <ele>155.87</ele>
        <time>2017-06-28T14:00:25Z</time>
      </trkpt>
      <trkpt lat="66.418954012915492" lon="14.758947975933552">
        <ele>155.87</ele>
        <time>2017-06-28T14:00:34Z</time>
      </trkpt>
      <trkpt lat="66.418167036026716" lon="14.753629993647337">
        <ele>147.22</ele>
        <time>2017-06-28T14:00:44Z</time>
      </trkpt>
      <trkpt lat="66.416836995631456" lon="14.74869598634541">
        <ele>129.43000000000001</ele>
        <time>2017-06-28T14:00:54Z</time>
      </trkpt>
      <trkpt lat="66.415419029071927" lon="14.743168959394097">
        <ele>122.22</ele>
        <time>2017-06-28T14:01:04Z</time>
      </trkpt>
      <trkpt lat="66.41441403888166" lon="14.739530961960554">
        <ele>123.67</ele>
        <time>2017-06-28T14:01:11Z</time>
      </trkpt>
      <trkpt lat="66.412338009104133" lon="14.734314987435937">
        <ele>127.51000000000001</ele>
        <time>2017-06-28T14:01:23Z</time>
      </trkpt>
      <trkpt lat="66.410200959071517" lon="14.730213973671198">
        <ele>129.43000000000001</ele>
        <time>2017-06-28T14:01:34Z</time>
      </trkpt>
      <trkpt lat="66.409208038821816" lon="14.726667003706098">
        <ele>126.06999999999999</ele>
        <time>2017-06-28T14:01:41Z</time>
      </trkpt>
      <trkpt lat="66.408768994733691" lon="14.722514022141695">
        <ele>119.34</ele>
        <time>2017-06-28T14:01:48Z</time>
      </trkpt>
      <trkpt lat="66.408819034695625" lon="14.717492004856467">
        <ele>106.84</ele>
        <time>2017-06-28T14:01:56Z</time>
      </trkpt>
      <trkpt lat="66.408665981143713" lon="14.711199961602688">
        <ele>104.92</ele>
        <time>2017-06-28T14:02:06Z</time>
      </trkpt>
      <trkpt lat="66.408132975921035" lon="14.707973012700677">
        <ele>107.81</ele>
        <time>2017-06-28T14:02:12Z</time>
      </trkpt>
      <trkpt lat="66.406990019604564" lon="14.70488796941936">
        <ele>106.84</ele>
        <time>2017-06-28T14:02:19Z</time>
      </trkpt>
      <trkpt lat="66.404507970437407" lon="14.699806021526456">
        <ele>106.36</ele>
        <time>2017-06-28T14:02:32Z</time>
      </trkpt>
      <trkpt lat="66.403374988585711" lon="14.696602039039135">
        <ele>107.31999999999999</ele>
        <time>2017-06-28T14:02:39Z</time>
      </trkpt>
      <trkpt lat="66.401835987344384" lon="14.692787015810609">
        <ele>109.25</ele>
        <time>2017-06-28T14:02:48Z</time>
      </trkpt>
      <trkpt lat="66.400738963857293" lon="14.689196040853858">
        <ele>115.98</ele>
        <time>2017-06-28T14:02:56Z</time>
      </trkpt>
      <trkpt lat="66.400162037461996" lon="14.684924958273768">
        <ele>119.81999999999999</ele>
        <time>2017-06-28T14:03:04Z</time>
      </trkpt>
      <trkpt lat="66.399391992017627" lon="14.67571098357439">
        <ele>118.86</ele>
        <time>2017-06-28T14:03:20Z</time>
      </trkpt>
      <trkpt lat="66.39894699677825" lon="14.671364966779947">
        <ele>117.90000000000001</ele>
        <time>2017-06-28T14:03:29Z</time>
      </trkpt>
      <trkpt lat="66.39853703789413" lon="14.669507034122944">
        <ele>114.05</ele>
        <time>2017-06-28T14:03:36Z</time>
      </trkpt>
      <trkpt lat="66.398200001567602" lon="14.668387966230512">
        <ele>109.25</ele>
        <time>2017-06-28T14:03:45Z</time>
      </trkpt>
      <trkpt lat="66.398086007684469" lon="14.668027963489294">
        <ele>108.77</ele>
        <time>2017-06-28T14:03:53Z</time>
      </trkpt>
      <trkpt lat="66.398048037663102" lon="14.667889997363091">
        <ele>107.81</ele>
        <time>2017-06-28T14:05:33Z</time>
      </trkpt>
      <trkpt lat="66.397634977474809" lon="14.666660958901048">
        <ele>105.40000000000001</ele>
        <time>2017-06-28T14:05:42Z</time>
      </trkpt>
      <trkpt lat="66.396616995334625" lon="14.663802981376648">
        <ele>99.629999999999995</ele>
        <time>2017-06-28T14:05:56Z</time>
      </trkpt>
      <trkpt lat="66.395836975425482" lon="14.661961980164051">
        <ele>97.230000000000004</ele>
        <time>2017-06-28T14:06:09Z</time>
      </trkpt>
      <trkpt lat="66.395116969943047" lon="14.660096000880003">
        <ele>96.269999999999996</ele>
        <time>2017-06-28T14:06:19Z</time>
      </trkpt>
      <trkpt lat="66.393992034718394" lon="14.657173985615373">
        <ele>103</ele>
        <time>2017-06-28T14:06:32Z</time>
      </trkpt>
      <trkpt lat="66.392990984022617" lon="14.654802996665239">
        <ele>108.29000000000001</ele>
        <time>2017-06-28T14:06:41Z</time>
      </trkpt>
      <trkpt lat="66.391668990254402" lon="14.652638034895062">
        <ele>110.20999999999999</ele>
        <time>2017-06-28T14:06:49Z</time>
      </trkpt>
      <trkpt lat="66.39067699201405" lon="14.64988399296999">
        <ele>113.09</ele>
        <time>2017-06-28T14:06:57Z</time>
      </trkpt>
      <trkpt lat="66.389952963218093" lon="14.646846977993846">
        <ele>116.45999999999999</ele>
        <time>2017-06-28T14:07:05Z</time>
      </trkpt>
      <trkpt lat="66.389550967141986" lon="14.644002998247743">
        <ele>118.86</ele>
        <time>2017-06-28T14:07:13Z</time>
      </trkpt>
      <trkpt lat="66.388439023867249" lon="14.639504011720419">
        <ele>115.01000000000001</ele>
        <time>2017-06-28T14:07:26Z</time>
      </trkpt>
      <trkpt lat="66.387303024530411" lon="14.63673303835094">
        <ele>113.09</ele>
        <time>2017-06-28T14:07:35Z</time>
      </trkpt>
      <trkpt lat="66.387090962380171" lon="14.636116968467832">
        <ele>112.61</ele>
        <time>2017-06-28T14:07:37Z</time>
      </trkpt>
      <trkpt lat="66.387005969882011" lon="14.63576702401042">
        <ele>112.13</ele>
        <time>2017-06-28T14:07:38Z</time>
      </trkpt>
      <trkpt lat="66.386940004304051" lon="14.635378019884229">
        <ele>112.13</ele>
        <time>2017-06-28T14:07:39Z</time>
      </trkpt>
      <trkpt lat="66.386472964659333" lon="14.631671039387584">
        <ele>108.77</ele>
        <time>2017-06-28T14:07:47Z</time>
      </trkpt>
      <trkpt lat="66.385812973603606" lon="14.628885984420776">
        <ele>114.05</ele>
        <time>2017-06-28T14:07:53Z</time>
      </trkpt>
      <trkpt lat="66.383825959637761" lon="14.622309040278196">
        <ele>114.53</ele>
        <time>2017-06-28T14:08:10Z</time>
      </trkpt>
      <trkpt lat="66.382569009438157" lon="14.617222985252738">
        <ele>114.05</ele>
        <time>2017-06-28T14:08:23Z</time>
      </trkpt>
      <trkpt lat="66.381463017314672" lon="14.612152017652988">
        <ele>113.56999999999999</ele>
        <time>2017-06-28T14:08:36Z</time>
      </trkpt>
      <trkpt lat="66.380576966330409" lon="14.607203006744385">
        <ele>111.17</ele>
        <time>2017-06-28T14:08:48Z</time>
      </trkpt>
      <trkpt lat="66.37948296032846" lon="14.603335009887815">
        <ele>105.40000000000001</ele>
        <time>2017-06-28T14:08:59Z</time>
      </trkpt>
      <trkpt lat="66.379436021670699" lon="14.602937959134579">
        <ele>104.92</ele>
        <time>2017-06-28T14:09:00Z</time>
      </trkpt>
      <trkpt lat="66.379411965608597" lon="14.602520959451795">
        <ele>104.44</ele>
        <time>2017-06-28T14:09:01Z</time>
      </trkpt>
      <trkpt lat="66.379402996972203" lon="14.602064983919263">
        <ele>103</ele>
        <time>2017-06-28T14:09:02Z</time>
      </trkpt>
      <trkpt lat="66.379398973658681" lon="14.601598028093576">
        <ele>102.04000000000001</ele>
        <time>2017-06-28T14:09:03Z</time>
      </trkpt>
      <trkpt lat="66.379196969792247" lon="14.598091961815953">
        <ele>93.390000000000001</ele>
        <time>2017-06-28T14:09:10Z</time>
      </trkpt>
      <trkpt lat="66.378716016188264" lon="14.594462011009455">
        <ele>90.980000000000004</ele>
        <time>2017-06-28T14:09:18Z</time>
      </trkpt>
      <trkpt lat="66.378445029258728" lon="14.588927021250129">
        <ele>82.329999999999998</ele>
        <time>2017-06-28T14:09:31Z</time>
      </trkpt>
      <trkpt lat="66.378552988171577" lon="14.583983039483428">
        <ele>79.930000000000007</ele>
        <time>2017-06-28T14:09:43Z</time>
      </trkpt>
      <trkpt lat="66.378731019794941" lon="14.579752022400498">
        <ele>74.640000000000001</ele>
        <time>2017-06-28T14:09:53Z</time>
      </trkpt>
      <trkpt lat="66.379041988402605" lon="14.575734995305538">
        <ele>67.430000000000007</ele>
        <time>2017-06-28T14:10:02Z</time>
      </trkpt>
      <trkpt lat="66.379218008369207" lon="14.574918011203408">
        <ele>65.989999999999995</ele>
        <time>2017-06-28T14:10:04Z</time>
      </trkpt>
      <trkpt lat="66.379335019737482" lon="14.574539987370372">
        <ele>65.510000000000005</ele>
        <time>2017-06-28T14:10:05Z</time>
      </trkpt>
      <trkpt lat="66.379473991692066" lon="14.574193982407451">
        <ele>65.510000000000005</ele>
        <time>2017-06-28T14:10:06Z</time>
      </trkpt>
      <trkpt lat="66.37963199056685" lon="14.573874967172742">
        <ele>65.989999999999995</ele>
        <time>2017-06-28T14:10:07Z</time>
      </trkpt>
      <trkpt lat="66.379793006926775" lon="14.573560981079936">
        <ele>65.989999999999995</ele>
        <time>2017-06-28T14:10:08Z</time>
      </trkpt>
      <trkpt lat="66.381277022883296" lon="14.570219032466412">
        <ele>65.030000000000001</ele>
        <time>2017-06-28T14:10:18Z</time>
      </trkpt>
      <trkpt lat="66.381366038694978" lon="14.569790968671441">
        <ele>64.549999999999997</ele>
        <time>2017-06-28T14:10:19Z</time>
      </trkpt>
      <trkpt lat="66.381443990394473" lon="14.569339016452432">
        <ele>64.549999999999997</ele>
        <time>2017-06-28T14:10:20Z</time>
      </trkpt>
      <trkpt lat="66.381506016477942" lon="14.568867031484842">
        <ele>64.549999999999997</ele>
        <time>2017-06-28T14:10:21Z</time>
      </trkpt>
      <trkpt lat="66.381550021469593" lon="14.568379959091544">
        <ele>64.549999999999997</ele>
        <time>2017-06-28T14:10:22Z</time>
      </trkpt>
      <trkpt lat="66.381578017026186" lon="14.567893976345658">
        <ele>64.549999999999997</ele>
        <time>2017-06-28T14:10:23Z</time>
      </trkpt>
      <trkpt lat="66.381583968177438" lon="14.56740397028625">
        <ele>64.549999999999997</ele>
        <time>2017-06-28T14:10:24Z</time>
      </trkpt>
      <trkpt lat="66.381569970399141" lon="14.566919999197125">
        <ele>64.549999999999997</ele>
        <time>2017-06-28T14:10:25Z</time>
      </trkpt>
      <trkpt lat="66.381536023691297" lon="14.566429993137717">
        <ele>64.069999999999993</ele>
        <time>2017-06-28T14:10:26Z</time>
      </trkpt>
      <trkpt lat="66.381491012871265" lon="14.56596203148365">
        <ele>64.069999999999993</ele>
        <time>2017-06-28T14:10:27Z</time>
      </trkpt>
      <trkpt lat="66.381259001791477" lon="14.563824981451035">
        <ele>66.469999999999999</ele>
        <time>2017-06-28T14:10:32Z</time>
      </trkpt>
      <trkpt lat="66.3812439981848" lon="14.563422985374928">
        <ele>66.950000000000003</ele>
        <time>2017-06-28T14:10:33Z</time>
      </trkpt>
      <trkpt lat="66.381254978477955" lon="14.56302098929882">
        <ele>66.950000000000003</ele>
        <time>2017-06-28T14:10:34Z</time>
      </trkpt>
      <trkpt lat="66.38128699734807" lon="14.562617987394333">
        <ele>67.430000000000007</ele>
        <time>2017-06-28T14:10:35Z</time>
      </trkpt>
      <trkpt lat="66.381335025653243" lon="14.562210962176323">
        <ele>67.430000000000007</ele>
        <time>2017-06-28T14:10:36Z</time>
      </trkpt>
      <trkpt lat="66.381841963157058" lon="14.558929027989507">
        <ele>66.469999999999999</ele>
        <time>2017-06-28T14:10:44Z</time>
      </trkpt>
      <trkpt lat="66.381950005888939" lon="14.558588974177837">
        <ele>66.469999999999999</ele>
        <time>2017-06-28T14:10:45Z</time>
      </trkpt>
      <trkpt lat="66.382072968408465" lon="14.55829200334847">
        <ele>66.950000000000003</ele>
        <time>2017-06-28T14:10:46Z</time>
      </trkpt>
      <trkpt lat="66.38221001252532" lon="14.558036020025611">
        <ele>66.469999999999999</ele>
        <time>2017-06-28T14:10:47Z</time>
      </trkpt>
      <trkpt lat="66.382357031106949" lon="14.557810965925455">
        <ele>66.469999999999999</ele>
        <time>2017-06-28T14:10:48Z</time>
      </trkpt>
      <trkpt lat="66.382516035810113" lon="14.557612985372543">
        <ele>65.989999999999995</ele>
        <time>2017-06-28T14:10:49Z</time>
      </trkpt>
      <trkpt lat="66.382684009149671" lon="14.557424979284406">
        <ele>65.989999999999995</ele>
        <time>2017-06-28T14:10:50Z</time>
      </trkpt>
      <trkpt lat="66.383297983556986" lon="14.55648997798562">
        <ele>66.469999999999999</ele>
        <time>2017-06-28T14:10:54Z</time>
      </trkpt>
      <trkpt lat="66.383414994925261" lon="14.556195018813014">
        <ele>66.469999999999999</ele>
        <time>2017-06-28T14:10:55Z</time>
      </trkpt>
      <trkpt lat="66.383513985201716" lon="14.555874997749925">
        <ele>66.950000000000003</ele>
        <time>2017-06-28T14:10:56Z</time>
      </trkpt>
      <trkpt lat="66.383595960214734" lon="14.555525975301862">
        <ele>66.469999999999999</ele>
        <time>2017-06-28T14:10:57Z</time>
      </trkpt>
      <trkpt lat="66.383670978248119" lon="14.555139988660812">
        <ele>66.469999999999999</ele>
        <time>2017-06-28T14:10:58Z</time>
      </trkpt>
      <trkpt lat="66.383739961311221" lon="14.554727012291551">
        <ele>65.989999999999995</ele>
        <time>2017-06-28T14:10:59Z</time>
      </trkpt>
      <trkpt lat="66.384088983759284" lon="14.550872007384896">
        <ele>63.579999999999998</ele>
        <time>2017-06-28T14:11:07Z</time>
      </trkpt>
      <trkpt lat="66.384457033127546" lon="14.547585966065526">
        <ele>69.829999999999998</ele>
        <time>2017-06-28T14:11:14Z</time>
      </trkpt>
      <trkpt lat="66.384715028107166" lon="14.545972030609846">
        <ele>73.680000000000007</ele>
        <time>2017-06-28T14:11:18Z</time>
      </trkpt>
      <trkpt lat="66.384821981191635" lon="14.545604987069964">
        <ele>74.159999999999997</ele>
        <time>2017-06-28T14:11:19Z</time>
      </trkpt>
      <trkpt lat="66.384945027530193" lon="14.545253030955791">
        <ele>75.120000000000005</ele>
        <time>2017-06-28T14:11:20Z</time>
      </trkpt>
      <trkpt lat="66.386256963014603" lon="14.541266011074185">
        <ele>86.659999999999997</ele>
        <time>2017-06-28T14:11:31Z</time>
      </trkpt>
      <trkpt lat="66.387032959610224" lon="14.53987997956574">
        <ele>92.420000000000002</ele>
        <time>2017-06-28T14:11:37Z</time>
      </trkpt>
      <trkpt lat="66.387104960158467" lon="14.539732038974762">
        <ele>92.900000000000006</ele>
        <time>2017-06-28T14:11:38Z</time>
      </trkpt>
      <trkpt lat="66.387162040919065" lon="14.539580997079611">
        <ele>92.900000000000006</ele>
        <time>2017-06-28T14:11:39Z</time>
      </trkpt>
      <trkpt lat="66.387209985405207" lon="14.539424004033208">
        <ele>93.390000000000001</ele>
        <time>2017-06-28T14:11:40Z</time>
      </trkpt>
      <trkpt lat="66.387349041178823" lon="14.53895403072238">
        <ele>93.390000000000001</ele>
        <time>2017-06-28T14:11:43Z</time>
      </trkpt>
      <trkpt lat="66.38740997761488" lon="14.538845987990499">
        <ele>93.390000000000001</ele>
        <time>2017-06-28T14:11:44Z</time>
      </trkpt>
      <trkpt lat="66.387484995648265" lon="14.5387820340693">
        <ele>93.870000000000005</ele>
        <time>2017-06-28T14:11:45Z</time>
      </trkpt>
      <trkpt lat="66.387567976489663" lon="14.538760995492339">
        <ele>93.870000000000005</ele>
        <time>2017-06-28T14:11:46Z</time>
      </trkpt>
      <trkpt lat="66.387654980644584" lon="14.538759989663959">
        <ele>94.349999999999994</ele>
        <time>2017-06-28T14:11:47Z</time>
      </trkpt>
      <trkpt lat="66.38783996924758" lon="14.538653958588839">
        <ele>94.829999999999998</ele>
        <time>2017-06-28T14:11:49Z</time>
      </trkpt>
      <trkpt lat="66.387938037514687" lon="14.538558991625905">
        <ele>94.829999999999998</ele>
        <time>2017-06-28T14:11:50Z</time>
      </trkpt>
      <trkpt lat="66.389040006324649" lon="14.537328025326133">
        <ele>95.310000000000002</ele>
        <time>2017-06-28T14:12:00Z</time>
      </trkpt>
      <trkpt lat="66.389403026551008" lon="14.5370430406183">
        <ele>95.790000000000006</ele>
        <time>2017-06-28T14:12:03Z</time>
      </trkpt>
      <trkpt lat="66.389531018212438" lon="14.536897027865052">
        <ele>96.269999999999996</ele>
        <time>2017-06-28T14:12:04Z</time>
      </trkpt>
      <trkpt lat="66.390596022829413" lon="14.535029958933592">
        <ele>103.48</ele>
        <time>2017-06-28T14:12:12Z</time>
      </trkpt>
      <trkpt lat="66.392150027677417" lon="14.531322978436947">
        <ele>112.13</ele>
        <time>2017-06-28T14:12:24Z</time>
      </trkpt>
      <trkpt lat="66.393282003700733" lon="14.529882967472076">
        <ele>112.61</ele>
        <time>2017-06-28T14:12:31Z</time>
      </trkpt>
      <trkpt lat="66.393768992275" lon="14.529636958613992">
        <ele>111.65000000000001</ele>
        <time>2017-06-28T14:12:35Z</time>
      </trkpt>
      <trkpt lat="66.394223961979151" lon="14.529510978609324">
        <ele>111.17</ele>
        <time>2017-06-28T14:12:41Z</time>
      </trkpt>
      <trkpt lat="66.394298980012536" lon="14.529521036893129">
        <ele>110.69</ele>
        <time>2017-06-28T14:12:42Z</time>
      </trkpt>
      <trkpt lat="66.394367041066289" lon="14.529549032449722">
        <ele>110.20999999999999</ele>
        <time>2017-06-28T14:12:43Z</time>
      </trkpt>
      <trkpt lat="66.39499400742352" lon="14.530172981321812">
        <ele>106.84</ele>
        <time>2017-06-28T14:12:52Z</time>
      </trkpt>
      <trkpt lat="66.395877040922642" lon="14.531472008675337">
        <ele>103.48</ele>
        <time>2017-06-28T14:13:04Z</time>
      </trkpt>
      <trkpt lat="66.396610038354993" lon="14.533035987988114">
        <ele>102.04000000000001</ele>
        <time>2017-06-28T14:13:13Z</time>
      </trkpt>
      <trkpt lat="66.397831030189991" lon="14.53461698256433">
        <ele>98.189999999999998</ele>
        <time>2017-06-28T14:13:23Z</time>
      </trkpt>
      <trkpt lat="66.399326026439667" lon="14.536294033750892">
        <ele>90.5</ele>
        <time>2017-06-28T14:13:36Z</time>
      </trkpt>
      <trkpt lat="66.399600030854344" lon="14.53672100789845">
        <ele>91.459999999999994</ele>
        <time>2017-06-28T14:13:39Z</time>
      </trkpt>
      <trkpt lat="66.39969801530242" lon="14.536804994568229">
        <ele>91.459999999999994</ele>
        <time>2017-06-28T14:13:40Z</time>
      </trkpt>
      <trkpt lat="66.399804968386889" lon="14.536852017045021">
        <ele>91.459999999999994</ele>
        <time>2017-06-28T14:13:41Z</time>
      </trkpt>
      <trkpt lat="66.400217022746801" lon="14.537005992606282">
        <ele>90.980000000000004</ele>
        <time>2017-06-28T14:13:45Z</time>
      </trkpt>
      <trkpt lat="66.400311989709735" lon="14.537084028124809">
        <ele>90.980000000000004</ele>
        <time>2017-06-28T14:13:46Z</time>
      </trkpt>
      <trkpt lat="66.40040603466332" lon="14.537186035886407">
        <ele>90.980000000000004</ele>
        <time>2017-06-28T14:13:47Z</time>
      </trkpt>
      <trkpt lat="66.400504019111395" lon="14.537306986749172">
        <ele>90.980000000000004</ele>
        <time>2017-06-28T14:13:48Z</time>
      </trkpt>
      <trkpt lat="66.400603009387851" lon="14.537441013380885">
        <ele>90.980000000000004</ele>
        <time>2017-06-28T14:13:49Z</time>
      </trkpt>
      <trkpt lat="66.401459975168109" lon="14.538297979161143">
        <ele>95.310000000000002</ele>
        <time>2017-06-28T14:13:57Z</time>
      </trkpt>
      <trkpt lat="66.401561982929707" lon="14.538309965282679">
        <ele>95.790000000000006</ele>
        <time>2017-06-28T14:13:58Z</time>
      </trkpt>
      <trkpt lat="66.402580970898271" lon="14.53783999197185">
        <ele>100.11</ele>
        <time>2017-06-28T14:14:10Z</time>
      </trkpt>
      <trkpt lat="66.402650037780404" lon="14.537725998088717">
        <ele>100.11</ele>
        <time>2017-06-28T14:14:11Z</time>
      </trkpt>
      <trkpt lat="66.402718015015125" lon="14.537598006427288">
        <ele>100.59999999999999</ele>
        <time>2017-06-28T14:14:12Z</time>
      </trkpt>
      <trkpt lat="66.402780041098595" lon="14.537440007552505">
        <ele>100.11</ele>
        <time>2017-06-28T14:14:13Z</time>
      </trkpt>
      <trkpt lat="66.402840977534652" lon="14.537268010899425">
        <ele>100.59999999999999</ele>
        <time>2017-06-28T14:14:14Z</time>
      </trkpt>
      <trkpt lat="66.402898980304599" lon="14.53708503395319">
        <ele>100.59999999999999</ele>
        <time>2017-06-28T14:14:15Z</time>
      </trkpt>
      <trkpt lat="66.403022026643157" lon="14.536742968484759">
        <ele>100.11</ele>
        <time>2017-06-28T14:14:17Z</time>
      </trkpt>
      <trkpt lat="66.403096038848162" lon="14.536601984873414">
        <ele>100.11</ele>
        <time>2017-06-28T14:14:18Z</time>
      </trkpt>
      <trkpt lat="66.403168961405754" lon="14.536470975726843">
        <ele>100.11</ele>
        <time>2017-06-28T14:14:19Z</time>
      </trkpt>
      <trkpt lat="66.403245991095901" lon="14.536357987672091">
        <ele>100.59999999999999</ele>
        <time>2017-06-28T14:14:20Z</time>
      </trkpt>
      <trkpt lat="66.403324026614428" lon="14.536262014880776">
        <ele>100.59999999999999</ele>
        <time>2017-06-28T14:14:21Z</time>
      </trkpt>
      <trkpt lat="66.403537010774016" lon="14.535968983545899">
        <ele>101.56</ele>
        <time>2017-06-28T14:14:24Z</time>
      </trkpt>
      <trkpt lat="66.403597025200725" lon="14.535846021026373">
        <ele>101.56</ele>
        <time>2017-06-28T14:14:25Z</time>
      </trkpt>
      <trkpt lat="66.403648993000388" lon="14.535703025758266">
        <ele>102.04000000000001</ele>
        <time>2017-06-28T14:14:26Z</time>
      </trkpt>
      <trkpt lat="66.403691992163658" lon="14.535533040761948">
        <ele>102.52</ele>
        <time>2017-06-28T14:14:27Z</time>
      </trkpt>
      <trkpt lat="66.403729040175676" lon="14.535346962511539">
        <ele>102.52</ele>
        <time>2017-06-28T14:14:28Z</time>
      </trkpt>
      <trkpt lat="66.403762986883521" lon="14.535146970301867">
        <ele>103</ele>
        <time>2017-06-28T14:14:29Z</time>
      </trkpt>
      <trkpt lat="66.404064986854792" lon="14.533366989344358">
        <ele>104.92</ele>
        <time>2017-06-28T14:14:38Z</time>
      </trkpt>
      <trkpt lat="66.404140004888177" lon="14.532873965799809">
        <ele>104.92</ele>
        <time>2017-06-28T14:14:44Z</time>
      </trkpt>
      <trkpt lat="66.40438299626112" lon="14.531401013955474">
        <ele>103</ele>
        <time>2017-06-28T14:14:50Z</time>
      </trkpt>
      <trkpt lat="66.405097972601652" lon="14.528727019205689">
        <ele>102.04000000000001</ele>
        <time>2017-06-28T14:14:59Z</time>
      </trkpt>
      <trkpt lat="66.40549804084003" lon="14.527938030660152">
        <ele>101.56</ele>
        <time>2017-06-28T14:15:03Z</time>
      </trkpt>
      <trkpt lat="66.405604993924499" lon="14.527802998200059">
        <ele>101.08</ele>
        <time>2017-06-28T14:15:04Z</time>
      </trkpt>
      <trkpt lat="66.405942030251026" lon="14.52737401239574">
        <ele>100.11</ele>
        <time>2017-06-28T14:15:07Z</time>
      </trkpt>
      <trkpt lat="66.406931011006236" lon="14.525158004835248">
        <ele>97.230000000000004</ele>
        <time>2017-06-28T14:15:16Z</time>
      </trkpt>
      <trkpt lat="66.407523024827242" lon="14.522613007575274">
        <ele>94.349999999999994</ele>
        <time>2017-06-28T14:15:23Z</time>
      </trkpt>
      <trkpt lat="66.407766016200185" lon="14.521064031869173">
        <ele>93.390000000000001</ele>
        <time>2017-06-28T14:15:27Z</time>
      </trkpt>
      <trkpt lat="66.407792000100017" lon="14.520673016086221">
        <ele>92.900000000000006</ele>
        <time>2017-06-28T14:15:28Z</time>
      </trkpt>
      <trkpt lat="66.407803986221552" lon="14.520279988646507">
        <ele>92.420000000000002</ele>
        <time>2017-06-28T14:15:29Z</time>
      </trkpt>
      <trkpt lat="66.40780096873641" lon="14.519885033369064">
        <ele>91.939999999999998</ele>
        <time>2017-06-28T14:15:30Z</time>
      </trkpt>
      <trkpt lat="66.407789988443255" lon="14.519485970959067">
        <ele>91.939999999999998</ele>
        <time>2017-06-28T14:15:31Z</time>
      </trkpt>
      <trkpt lat="66.407782025635242" lon="14.514812976121902">
        <ele>88.099999999999994</ele>
        <time>2017-06-28T14:15:43Z</time>
      </trkpt>
      <trkpt lat="66.40754004009068" lon="14.511272041127086">
        <ele>79.450000000000003</ele>
        <time>2017-06-28T14:15:51Z</time>
      </trkpt>
      <trkpt lat="66.407091021537781" lon="14.502887958660722">
        <ele>61.659999999999997</ele>
        <time>2017-06-28T14:16:10Z</time>
      </trkpt>
      <trkpt lat="66.406821040436625" lon="14.495429992675781">
        <ele>58.780000000000001</ele>
        <time>2017-06-28T14:16:27Z</time>
      </trkpt>
      <trkpt lat="66.40653002075851" lon="14.493140978738666">
        <ele>58.299999999999997</ele>
        <time>2017-06-28T14:16:34Z</time>
      </trkpt>
      <trkpt lat="66.406001038849354" lon="14.490608973428607">
        <ele>57.82</ele>
        <time>2017-06-28T14:16:43Z</time>
      </trkpt>
      <trkpt lat="66.405723011121154" lon="14.487580005079508">
        <ele>56.369999999999997</ele>
        <time>2017-06-28T14:16:51Z</time>
      </trkpt>
      <trkpt lat="66.405793000012636" lon="14.483839999884367">
        <ele>56.369999999999997</ele>
        <time>2017-06-28T14:17:00Z</time>
      </trkpt>
      <trkpt lat="66.406174963340163" lon="14.480366036295891">
        <ele>61.18</ele>
        <time>2017-06-28T14:17:11Z</time>
      </trkpt>
      <trkpt lat="66.406288035213947" lon="14.479489037767053">
        <ele>63.100000000000001</ele>
        <time>2017-06-28T14:17:14Z</time>
      </trkpt>
      <trkpt lat="66.406508982181549" lon="14.475767975673079">
        <ele>60.700000000000003</ele>
        <time>2017-06-28T14:17:25Z</time>
      </trkpt>
      <trkpt lat="66.40661702491343" lon="14.475108990445733">
        <ele>60.219999999999999</ele>
        <time>2017-06-28T14:17:27Z</time>
      </trkpt>
      <trkpt lat="66.406686007976532" lon="14.474787963554263">
        <ele>60.219999999999999</ele>
        <time>2017-06-28T14:17:28Z</time>
      </trkpt>
      <trkpt lat="66.406764965504408" lon="14.474486969411373">
        <ele>60.700000000000003</ele>
        <time>2017-06-28T14:17:29Z</time>
      </trkpt>
      <trkpt lat="66.406988007947803" lon="14.473656993359327">
        <ele>60.219999999999999</ele>
        <time>2017-06-28T14:17:32Z</time>
      </trkpt>
      <trkpt lat="66.407034024596214" lon="14.473377959802747">
        <ele>59.259999999999998</ele>
        <time>2017-06-28T14:17:33Z</time>
      </trkpt>
      <trkpt lat="66.407060008496046" lon="14.472773959860206">
        <ele>58.780000000000001</ele>
        <time>2017-06-28T14:17:35Z</time>
      </trkpt>
      <trkpt lat="66.407099990174174" lon="14.468469014391303">
        <ele>57.340000000000003</ele>
        <time>2017-06-28T14:17:47Z</time>
      </trkpt>
      <trkpt lat="66.407142989337444" lon="14.467419013381004">
        <ele>57.82</ele>
        <time>2017-06-28T14:17:50Z</time>
      </trkpt>
      <trkpt lat="66.406988007947803" lon="14.46640295907855">
        <ele>56.859999999999999</ele>
        <time>2017-06-28T14:17:54Z</time>
      </trkpt>
      <trkpt lat="66.406892035156488" lon="14.466231968253851">
        <ele>56.859999999999999</ele>
        <time>2017-06-28T14:17:55Z</time>
      </trkpt>
      <trkpt lat="66.406781980767846" lon="14.466090984642506">
        <ele>56.369999999999997</ele>
        <time>2017-06-28T14:17:56Z</time>
      </trkpt>
      <trkpt lat="66.406672010198236" lon="14.465942960232496">
        <ele>55.890000000000001</ele>
        <time>2017-06-28T14:17:57Z</time>
      </trkpt>
      <trkpt lat="66.406566984951496" lon="14.465753026306629">
        <ele>55.409999999999997</ele>
        <time>2017-06-28T14:17:58Z</time>
      </trkpt>
      <trkpt lat="66.406476963311434" lon="14.465511962771416">
        <ele>55.409999999999997</ele>
        <time>2017-06-28T14:17:59Z</time>
      </trkpt>
      <trkpt lat="66.406400017440319" lon="14.465237036347389">
        <ele>54.93</ele>
        <time>2017-06-28T14:18:00Z</time>
      </trkpt>
      <trkpt lat="66.406324999406934" lon="14.464945010840893">
        <ele>54.93</ele>
        <time>2017-06-28T14:18:01Z</time>
      </trkpt>
      <trkpt lat="66.405325038358569" lon="14.461838006973267">
        <ele>53.009999999999998</ele>
        <time>2017-06-28T14:18:12Z</time>
      </trkpt>
      <trkpt lat="66.404546024277806" lon="14.460386009886861">
        <ele>54.450000000000003</ele>
        <time>2017-06-28T14:18:19Z</time>
      </trkpt>
      <trkpt lat="66.404431024566293" lon="14.460266986861825">
        <ele>54.450000000000003</ele>
        <time>2017-06-28T14:18:20Z</time>
      </trkpt>
      <trkpt lat="66.404090970754623" lon="14.459916036576033">
        <ele>54.450000000000003</ele>
        <time>2017-06-28T14:18:23Z</time>
      </trkpt>
      <trkpt lat="66.403983011841774" lon="14.45976298302412">
        <ele>54.450000000000003</ele>
        <time>2017-06-28T14:18:24Z</time>
      </trkpt>
      <trkpt lat="66.403039041906595" lon="14.457762977108359">
        <ele>53.009999999999998</ele>
        <time>2017-06-28T14:18:33Z</time>
      </trkpt>
      <trkpt lat="66.40223597176373" lon="14.45497096516192">
        <ele>52.530000000000001</ele>
        <time>2017-06-28T14:18:43Z</time>
      </trkpt>
      <trkpt lat="66.401531975716352" lon="14.451326010748744">
        <ele>55.890000000000001</ele>
        <time>2017-06-28T14:18:55Z</time>
      </trkpt>
      <trkpt lat="66.400891011580825" lon="14.447368998080492">
        <ele>59.259999999999998</ele>
        <time>2017-06-28T14:19:08Z</time>
      </trkpt>
      <trkpt lat="66.400395976379514" lon="14.443698981776834">
        <ele>58.780000000000001</ele>
        <time>2017-06-28T14:19:18Z</time>
      </trkpt>
      <trkpt lat="66.400233032181859" lon="14.44061703979969">
        <ele>56.369999999999997</ele>
        <time>2017-06-28T14:19:26Z</time>
      </trkpt>
      <trkpt lat="66.40062203630805" lon="14.438143959268928">
        <ele>56.369999999999997</ele>
        <time>2017-06-28T14:19:33Z</time>
      </trkpt>
      <trkpt lat="66.401839004829526" lon="14.432672001421452">
        <ele>68.390000000000001</ele>
        <time>2017-06-28T14:19:49Z</time>
      </trkpt>
      <trkpt lat="66.40257703140378" lon="14.428078969940543">
        <ele>62.619999999999997</ele>
        <time>2017-06-28T14:20:00Z</time>
      </trkpt>
      <trkpt lat="66.402760008350015" lon="14.423994971439242">
        <ele>54.450000000000003</ele>
        <time>2017-06-28T14:20:08Z</time>
      </trkpt>
      <trkpt lat="66.402897974476218" lon="14.417548030614853">
        <ele>51.090000000000003</ele>
        <time>2017-06-28T14:20:21Z</time>
      </trkpt>
      <trkpt lat="66.402640985324979" lon="14.414280010387301">
        <ele>49.649999999999999</ele>
        <time>2017-06-28T14:20:28Z</time>
      </trkpt>
      <trkpt lat="66.401544967666268" lon="14.407811025157571">
        <ele>54.93</ele>
        <time>2017-06-28T14:20:42Z</time>
      </trkpt>
      <trkpt lat="66.400312995538116" lon="14.401476988568902">
        <ele>57.82</ele>
        <time>2017-06-28T14:20:56Z</time>
      </trkpt>
      <trkpt lat="66.399414036422968" lon="14.399656020104885">
        <ele>59.259999999999998</ele>
        <time>2017-06-28T14:21:02Z</time>
      </trkpt>
      <trkpt lat="66.38693799264729" lon="14.393911985680461">
        <ele>72.239999999999995</ele>
        <time>2017-06-28T14:21:59Z</time>
      </trkpt>
      <trkpt lat="66.38513102196157" lon="14.394677001982927">
        <ele>84.25</ele>
        <time>2017-06-28T14:22:08Z</time>
      </trkpt>
      <trkpt lat="66.383347017690539" lon="14.394926028326154">
        <ele>84.25</ele>
        <time>2017-06-28T14:22:18Z</time>
      </trkpt>
      <trkpt lat="66.382949966937304" lon="14.394881017506123">
        <ele>84.25</ele>
        <time>2017-06-28T14:22:24Z</time>
      </trkpt>
      <trkpt lat="66.382729019969702" lon="14.394857967272401">
        <ele>84.25</ele>
        <time>2017-06-28T14:22:35Z</time>
      </trkpt>
      <trkpt lat="66.382710998877883" lon="14.394842041656375">
        <ele>84.25</ele>
        <time>2017-06-28T14:23:46Z</time>
      </trkpt>
      <trkpt lat="66.382710998877883" lon="14.394846986979246">
        <ele>84.25</ele>
        <time>2017-06-28T14:24:39Z</time>
      </trkpt>
      <trkpt lat="66.382526010274887" lon="14.394821003079414">
        <ele>85.209999999999994</ele>
        <time>2017-06-28T14:25:46Z</time>
      </trkpt>
      <trkpt lat="66.382032986730337" lon="14.394795019179583">
        <ele>86.180000000000007</ele>
        <time>2017-06-28T14:25:54Z</time>
      </trkpt>
      <trkpt lat="66.381236035376787" lon="14.394550016149879">
        <ele>86.659999999999997</ele>
        <time>2017-06-28T14:26:07Z</time>
      </trkpt>
      <trkpt lat="66.380359036847949" lon="14.394367039203644">
        <ele>88.099999999999994</ele>
        <time>2017-06-28T14:26:21Z</time>
      </trkpt>
      <trkpt lat="66.379412971436977" lon="14.39360998570919">
        <ele>86.659999999999997</ele>
        <time>2017-06-28T14:26:34Z</time>
      </trkpt>
      <trkpt lat="66.378072034567595" lon="14.39225303940475">
        <ele>87.140000000000001</ele>
        <time>2017-06-28T14:26:52Z</time>
      </trkpt>
      <trkpt lat="66.376809971407056" lon="14.391016960144043">
        <ele>85.209999999999994</ele>
        <time>2017-06-28T14:27:07Z</time>
      </trkpt>
      <trkpt lat="66.376125002279878" lon="14.390668021515012">
        <ele>83.290000000000006</ele>
        <time>2017-06-28T14:27:16Z</time>
      </trkpt>
      <trkpt lat="66.375231994315982" lon="14.389745006337762">
        <ele>80.890000000000001</ele>
        <time>2017-06-28T14:27:24Z</time>
      </trkpt>
      <trkpt lat="66.375134009867907" lon="14.389536967501044">
        <ele>80.409999999999997</ele>
        <time>2017-06-28T14:27:25Z</time>
      </trkpt>
      <trkpt lat="66.375039964914322" lon="14.389305040240288">
        <ele>80.409999999999997</ele>
        <time>2017-06-28T14:27:26Z</time>
      </trkpt>
      <trkpt lat="66.37423999607563" lon="14.386550998315215">
        <ele>77.040000000000006</ele>
        <time>2017-06-28T14:27:36Z</time>
      </trkpt>
      <trkpt lat="66.373693998903036" lon="14.383248025551438">
        <ele>71.760000000000005</ele>
        <time>2017-06-28T14:27:47Z</time>
      </trkpt>
      <trkpt lat="66.373308012261987" lon="14.381252964958549">
        <ele>63.579999999999998</ele>
        <time>2017-06-28T14:27:54Z</time>
      </trkpt>
      <trkpt lat="66.372722033411264" lon="14.378375960513949">
        <ele>55.409999999999997</ele>
        <time>2017-06-28T14:28:04Z</time>
      </trkpt>
      <trkpt lat="66.371894991025329" lon="14.374881964176893">
        <ele>53.009999999999998</ele>
        <time>2017-06-28T14:28:14Z</time>
      </trkpt>
      <trkpt lat="66.371270036324859" lon="14.371386040002108">
        <ele>53.969999999999999</ele>
        <time>2017-06-28T14:28:22Z</time>
      </trkpt>
      <trkpt lat="66.370582971721888" lon="14.367130966857076">
        <ele>54.450000000000003</ele>
        <time>2017-06-28T14:28:31Z</time>
      </trkpt>
      <trkpt lat="66.369821978732944" lon="14.362468030303717">
        <ele>55.890000000000001</ele>
        <time>2017-06-28T14:28:43Z</time>
      </trkpt>
      <trkpt lat="66.369227031245828" lon="14.358989959582686">
        <ele>54.93</ele>
        <time>2017-06-28T14:28:51Z</time>
      </trkpt>
      <trkpt lat="66.368581037968397" lon="14.35508600436151">
        <ele>54.450000000000003</ele>
        <time>2017-06-28T14:28:59Z</time>
      </trkpt>
      <trkpt lat="66.36766598559916" lon="14.350806036964059">
        <ele>53.009999999999998</ele>
        <time>2017-06-28T14:29:11Z</time>
      </trkpt>
      <trkpt lat="66.366163026541471" lon="14.345921985805035">
        <ele>51.57</ele>
        <time>2017-06-28T14:29:27Z</time>
      </trkpt>
      <trkpt lat="66.365360962226987" lon="14.343328960239887">
        <ele>52.530000000000001</ele>
        <time>2017-06-28T14:29:34Z</time>
      </trkpt>
      <trkpt lat="66.364268967881799" lon="14.339755000546575">
        <ele>52.049999999999997</ele>
        <time>2017-06-28T14:29:45Z</time>
      </trkpt>
      <trkpt lat="66.363084018230438" lon="14.33598498813808">
        <ele>51.57</ele>
        <time>2017-06-28T14:29:57Z</time>
      </trkpt>
      <trkpt lat="66.362030999734998" lon="14.332496020942926">
        <ele>50.609999999999999</ele>
        <time>2017-06-28T14:30:07Z</time>
      </trkpt>
      <trkpt lat="66.360630970448256" lon="14.328803960233927">
        <ele>49.649999999999999</ele>
        <time>2017-06-28T14:30:20Z</time>
      </trkpt>
      <trkpt lat="66.358600035309792" lon="14.324797997251153">
        <ele>49.159999999999997</ele>
        <time>2017-06-28T14:30:37Z</time>
      </trkpt>
      <trkpt lat="66.356584019958973" lon="14.320850959047675">
        <ele>47.719999999999999</ele>
        <time>2017-06-28T14:30:55Z</time>
      </trkpt>
      <trkpt lat="66.354465996846557" lon="14.316812977194786">
        <ele>48.68</ele>
        <time>2017-06-28T14:31:13Z</time>
      </trkpt>
      <trkpt lat="66.353572988882661" lon="14.315967997536063">
        <ele>48.200000000000003</ele>
        <time>2017-06-28T14:31:21Z</time>
      </trkpt>
      <trkpt lat="66.3531409855932" lon="14.31572500616312">
        <ele>48.200000000000003</ele>
        <time>2017-06-28T14:31:26Z</time>
      </trkpt>
      <trkpt lat="66.353070996701717" lon="14.315728023648262">
        <ele>48.200000000000003</ele>
        <time>2017-06-28T14:31:27Z</time>
      </trkpt>
      <trkpt lat="66.35301198810339" lon="14.315775968134403">
        <ele>48.200000000000003</ele>
        <time>2017-06-28T14:31:28Z</time>
      </trkpt>
      <trkpt lat="66.352972006425261" lon="14.315888034179807">
        <ele>48.200000000000003</ele>
        <time>2017-06-28T14:31:29Z</time>
      </trkpt>
      <trkpt lat="66.352949040010571" lon="14.31604796089232">
        <ele>48.200000000000003</ele>
        <time>2017-06-28T14:31:30Z</time>
      </trkpt>
      <trkpt lat="66.352935964241624" lon="14.316258011385798">
        <ele>47.719999999999999</ele>
        <time>2017-06-28T14:31:31Z</time>
      </trkpt>
      <trkpt lat="66.352928001433611" lon="14.316493039950728">
        <ele>47.240000000000002</ele>
        <time>2017-06-28T14:31:32Z</time>
      </trkpt>
      <trkpt lat="66.352901011705399" lon="14.319153036922216">
        <ele>48.200000000000003</ele>
        <time>2017-06-28T14:31:40Z</time>
      </trkpt>
      <trkpt lat="66.352802021428943" lon="14.320552982389927">
        <ele>50.609999999999999</ele>
        <time>2017-06-28T14:31:44Z</time>
      </trkpt>
      <trkpt lat="66.352746030315757" lon="14.320865962654352">
        <ele>50.609999999999999</ele>
        <time>2017-06-28T14:31:45Z</time>
      </trkpt>
      <trkpt lat="66.352674029767513" lon="14.321173997595906">
        <ele>50.609999999999999</ele>
        <time>2017-06-28T14:31:46Z</time>
      </trkpt>
      <trkpt lat="66.352577973157167" lon="14.321470968425274">
        <ele>50.609999999999999</ele>
        <time>2017-06-28T14:31:47Z</time>
      </trkpt>
      <trkpt lat="66.35247697122395" lon="14.321760982275009">
        <ele>50.609999999999999</ele>
        <time>2017-06-28T14:31:48Z</time>
      </trkpt>
      <trkpt lat="66.351156989112496" lon="14.324547965079546">
        <ele>54.450000000000003</ele>
        <time>2017-06-28T14:31:59Z</time>
      </trkpt>
      <trkpt lat="66.349933985620737" lon="14.325252966955304">
        <ele>57.340000000000003</ele>
        <time>2017-06-28T14:32:07Z</time>
      </trkpt>
      <trkpt lat="66.348833022639155" lon="14.324685009196401">
        <ele>59.740000000000002</ele>
        <time>2017-06-28T14:32:14Z</time>
      </trkpt>
      <trkpt lat="66.346687003970146" lon="14.32184798642993">
        <ele>65.510000000000005</ele>
        <time>2017-06-28T14:32:29Z</time>
      </trkpt>
      <trkpt lat="66.344045028090477" lon="14.318327000364661">
        <ele>82.329999999999998</ele>
        <time>2017-06-28T14:32:48Z</time>
      </trkpt>
      <trkpt lat="66.343028973788023" lon="14.316263040527701">
        <ele>81.849999999999994</ele>
        <time>2017-06-28T14:32:56Z</time>
      </trkpt>
      <trkpt lat="66.34220402687788" lon="14.313021004199982">
        <ele>74.159999999999997</ele>
        <time>2017-06-28T14:33:05Z</time>
      </trkpt>
      <trkpt lat="66.34074498899281" lon="14.306603986769915">
        <ele>59.259999999999998</ele>
        <time>2017-06-28T14:33:21Z</time>
      </trkpt>
      <trkpt lat="66.339599015191197" lon="14.302214970812201">
        <ele>53.969999999999999</ele>
        <time>2017-06-28T14:33:32Z</time>
      </trkpt>
      <trkpt lat="66.339287962764502" lon="14.301641983911395">
        <ele>50.609999999999999</ele>
        <time>2017-06-28T14:33:34Z</time>
      </trkpt>
      <trkpt lat="66.339115966111422" lon="14.301403015851974">
        <ele>49.159999999999997</ele>
        <time>2017-06-28T14:33:35Z</time>
      </trkpt>
      <trkpt lat="66.338940029963851" lon="14.301194977015257">
        <ele>47.719999999999999</ele>
        <time>2017-06-28T14:33:36Z</time>
      </trkpt>
      <trkpt lat="66.338759986683726" lon="14.301025997847319">
        <ele>46.759999999999998</ele>
        <time>2017-06-28T14:33:37Z</time>
      </trkpt>
      <trkpt lat="66.338566029444337" lon="14.300895994529128">
        <ele>45.799999999999997</ele>
        <time>2017-06-28T14:33:38Z</time>
      </trkpt>
      <trkpt lat="66.338370982557535" lon="14.300806978717446">
        <ele>45.32</ele>
        <time>2017-06-28T14:33:39Z</time>
      </trkpt>
      <trkpt lat="66.338173002004623" lon="14.300756016746163">
        <ele>44.359999999999999</ele>
        <time>2017-06-28T14:33:40Z</time>
      </trkpt>
      <trkpt lat="66.337976027280092" lon="14.300758028402925">
        <ele>44.359999999999999</ele>
        <time>2017-06-28T14:33:41Z</time>
      </trkpt>
      <trkpt lat="66.33777997456491" lon="14.300766997039318">
        <ele>44.359999999999999</ele>
        <time>2017-06-28T14:33:42Z</time>
      </trkpt>
      <trkpt lat="66.336678005754948" lon="14.300464997068048">
        <ele>44.359999999999999</ele>
        <time>2017-06-28T14:33:48Z</time>
      </trkpt>
      <trkpt lat="66.336517995223403" lon="14.300294006243348">
        <ele>44.359999999999999</ele>
        <time>2017-06-28T14:33:49Z</time>
      </trkpt>
      <trkpt lat="66.336366031318903" lon="14.300093008205295">
        <ele>44.359999999999999</ele>
        <time>2017-06-28T14:33:50Z</time>
      </trkpt>
      <trkpt lat="66.336224963888526" lon="14.299854962155223">
        <ele>44.359999999999999</ele>
        <time>2017-06-28T14:33:51Z</time>
      </trkpt>
      <trkpt lat="66.336093032732606" lon="14.299570983275771">
        <ele>43.880000000000003</ele>
        <time>2017-06-28T14:33:52Z</time>
      </trkpt>
      <trkpt lat="66.335969986394048" lon="14.299250040203333">
        <ele>43.399999999999999</ele>
        <time>2017-06-28T14:33:53Z</time>
      </trkpt>
      <trkpt lat="66.335850963369012" lon="14.298907974734902">
        <ele>42.920000000000002</ele>
        <time>2017-06-28T14:33:54Z</time>
      </trkpt>
      <trkpt lat="66.335568996146321" lon="14.29776300676167">
        <ele>41.950000000000003</ele>
        <time>2017-06-28T14:33:57Z</time>
      </trkpt>
      <trkpt lat="66.335504958406091" lon="14.297343995422125">
        <ele>40.990000000000002</ele>
        <time>2017-06-28T14:33:58Z</time>
      </trkpt>
      <trkpt lat="66.335452990606427" lon="14.296915009617805">
        <ele>40.030000000000001</ele>
        <time>2017-06-28T14:33:59Z</time>
      </trkpt>
      <trkpt lat="66.335417032241821" lon="14.296490969136357">
        <ele>40.030000000000001</ele>
        <time>2017-06-28T14:34:00Z</time>
      </trkpt>
      <trkpt lat="66.335392976179719" lon="14.296047985553741">
        <ele>39.549999999999997</ele>
        <time>2017-06-28T14:34:01Z</time>
      </trkpt>
      <trkpt lat="66.335385013371706" lon="14.295602990314364">
        <ele>39.07</ele>
        <time>2017-06-28T14:34:02Z</time>
      </trkpt>
      <trkpt lat="66.3353939820081" lon="14.295150032266974">
        <ele>39.07</ele>
        <time>2017-06-28T14:34:03Z</time>
      </trkpt>
      <trkpt lat="66.335408985614777" lon="14.294695984572172">
        <ele>39.07</ele>
        <time>2017-06-28T14:34:04Z</time>
      </trkpt>
      <trkpt lat="66.335430024191737" lon="14.294246966019273">
        <ele>38.590000000000003</ele>
        <time>2017-06-28T14:34:05Z</time>
      </trkpt>
      <trkpt lat="66.335838977247477" lon="14.287763983011246">
        <ele>38.109999999999999</ele>
        <time>2017-06-28T14:34:19Z</time>
      </trkpt>
      <trkpt lat="66.335697993636131" lon="14.283310007303953">
        <ele>37.149999999999999</ele>
        <time>2017-06-28T14:34:28Z</time>
      </trkpt>
      <trkpt lat="66.335187032818794" lon="14.275523973628879">
        <ele>26.57</ele>
        <time>2017-06-28T14:34:44Z</time>
      </trkpt>
      <trkpt lat="66.334709012880921" lon="14.269018024206161">
        <ele>10.23</ele>
        <time>2017-06-28T14:34:57Z</time>
      </trkpt>
      <trkpt lat="66.334610022604465" lon="14.26858501508832">
        <ele>9.75</ele>
        <time>2017-06-28T14:34:58Z</time>
      </trkpt>
      <trkpt lat="66.334498040378094" lon="14.268184024840593">
        <ele>9.75</ele>
        <time>2017-06-28T14:34:59Z</time>
      </trkpt>
      <trkpt lat="66.334372982382774" lon="14.267815975472331">
        <ele>9.75</ele>
        <time>2017-06-28T14:35:00Z</time>
      </trkpt>
      <trkpt lat="66.334236022084951" lon="14.267477011308074">
        <ele>9.75</ele>
        <time>2017-06-28T14:35:01Z</time>
      </trkpt>
      <trkpt lat="66.334090009331703" lon="14.267167970538139">
        <ele>9.27</ele>
        <time>2017-06-28T14:35:02Z</time>
      </trkpt>
      <trkpt lat="66.333936033770442" lon="14.266894971951842">
        <ele>9.27</ele>
        <time>2017-06-28T14:35:03Z</time>
      </trkpt>
      <trkpt lat="66.333776023238897" lon="14.266671007499099">
        <ele>8.789999999999999</ele>
        <time>2017-06-28T14:35:04Z</time>
      </trkpt>
      <trkpt lat="66.333606960251927" lon="14.266478978097439">
        <ele>8.789999999999999</ele>
        <time>2017-06-28T14:35:05Z</time>
      </trkpt>
      <trkpt lat="66.333432029932737" lon="14.266327014192939">
        <ele>8.789999999999999</ele>
        <time>2017-06-28T14:35:06Z</time>
      </trkpt>
      <trkpt lat="66.333253998309374" lon="14.26620002835989">
        <ele>8.310000000000001</ele>
        <time>2017-06-28T14:35:07Z</time>
      </trkpt>
      <trkpt lat="66.3330730330199" lon="14.266115035861731">
        <ele>8.310000000000001</ele>
        <time>2017-06-28T14:35:08Z</time>
      </trkpt>
      <trkpt lat="66.332887960597873" lon="14.266037000343204">
        <ele>8.789999999999999</ele>
        <time>2017-06-28T14:35:09Z</time>
      </trkpt>
      <trkpt lat="66.330903964117169" lon="14.265156984329224">
        <ele>11.67</ele>
        <time>2017-06-28T14:35:20Z</time>
      </trkpt>
      <trkpt lat="66.328509002923965" lon="14.263143986463547">
        <ele>8.310000000000001</ele>
        <time>2017-06-28T14:35:34Z</time>
      </trkpt>
      <trkpt lat="66.325615989044309" lon="14.258580962195992">
        <ele>10.23</ele>
        <time>2017-06-28T14:35:52Z</time>
      </trkpt>
      <trkpt lat="66.323829973116517" lon="14.255140023306012">
        <ele>10.23</ele>
        <time>2017-06-28T14:36:03Z</time>
      </trkpt>
      <trkpt lat="66.322232969105244" lon="14.252271987497807">
        <ele>13.119999999999999</ele>
        <time>2017-06-28T14:36:13Z</time>
      </trkpt>
      <trkpt lat="66.32177003659308" lon="14.25019696354866">
        <ele>13.6</ele>
        <time>2017-06-28T14:36:18Z</time>
      </trkpt>
      <trkpt lat="66.321717984974384" lon="14.249735958874226">
        <ele>14.08</ele>
        <time>2017-06-28T14:36:19Z</time>
      </trkpt>
      <trkpt lat="66.321683032438159" lon="14.2492710147053">
        <ele>14.56</ele>
        <time>2017-06-28T14:36:20Z</time>
      </trkpt>
      <trkpt lat="66.321658976376057" lon="14.248809004202485">
        <ele>15.52</ele>
        <time>2017-06-28T14:36:21Z</time>
      </trkpt>
      <trkpt lat="66.321651013568044" lon="14.248331990092993">
        <ele>16</ele>
        <time>2017-06-28T14:36:22Z</time>
      </trkpt>
      <trkpt lat="66.321655036881566" lon="14.2478549759835">
        <ele>16.48</ele>
        <time>2017-06-28T14:36:23Z</time>
      </trkpt>
      <trkpt lat="66.321674985811114" lon="14.247381985187531">
        <ele>17.440000000000001</ele>
        <time>2017-06-28T14:36:24Z</time>
      </trkpt>
      <trkpt lat="66.32170700468123" lon="14.246914023533463">
        <ele>17.920000000000002</ele>
        <time>2017-06-28T14:36:25Z</time>
      </trkpt>
      <trkpt lat="66.322241015732288" lon="14.24402897246182">
        <ele>21.289999999999999</ele>
        <time>2017-06-28T14:36:32Z</time>
      </trkpt>
      <trkpt lat="66.323723020032048" lon="14.2385040409863">
        <ele>20.809999999999999</ele>
        <time>2017-06-28T14:36:47Z</time>
      </trkpt>
      <trkpt lat="66.324514020234346" lon="14.23384596593678">
        <ele>18.399999999999999</ele>
        <time>2017-06-28T14:36:59Z</time>
      </trkpt>
      <trkpt lat="66.325179040431976" lon="14.229516964405775">
        <ele>16.960000000000001</ele>
        <time>2017-06-28T14:37:11Z</time>
      </trkpt>
      <trkpt lat="66.325206030160189" lon="14.229110023006797">
        <ele>16.48</ele>
        <time>2017-06-28T14:37:12Z</time>
      </trkpt>
      <trkpt lat="66.325222961604595" lon="14.228695034980774">
        <ele>16</ele>
        <time>2017-06-28T14:37:13Z</time>
      </trkpt>
      <trkpt lat="66.325255986303091" lon="14.2244559712708">
        <ele>10.710000000000001</ele>
        <time>2017-06-28T14:37:23Z</time>
      </trkpt>
      <trkpt lat="66.325568966567516" lon="14.2181839607656">
        <ele>7.35</ele>
        <time>2017-06-28T14:37:37Z</time>
      </trkpt>
      <trkpt lat="66.325470982119441" lon="14.213226987048984">
        <ele>10.23</ele>
        <time>2017-06-28T14:37:49Z</time>
      </trkpt>
      <trkpt lat="66.325478022918105" lon="14.207253037020564">
        <ele>13.6</ele>
        <time>2017-06-28T14:38:04Z</time>
      </trkpt>
      <trkpt lat="66.325721014291048" lon="14.201257964596152">
        <ele>11.67</ele>
        <time>2017-06-28T14:38:18Z</time>
      </trkpt>
      <trkpt lat="66.325863003730774" lon="14.197088973596692">
        <ele>12.15</ele>
        <time>2017-06-28T14:38:29Z</time>
      </trkpt>
      <trkpt lat="66.325562009587884" lon="14.193214019760489">
        <ele>11.67</ele>
        <time>2017-06-28T14:38:40Z</time>
      </trkpt>
      <trkpt lat="66.324686016887426" lon="14.187617003917694">
        <ele>10.710000000000001</ele>
        <time>2017-06-28T14:38:56Z</time>
      </trkpt>
      <trkpt lat="66.323946984484792" lon="14.182271026074886">
        <ele>9.75</ele>
        <time>2017-06-28T14:39:10Z</time>
      </trkpt>
      <trkpt lat="66.323849000036716" lon="14.178936034440994">
        <ele>12.630000000000001</ele>
        <time>2017-06-28T14:39:18Z</time>
      </trkpt>
      <trkpt lat="66.323955031111836" lon="14.176917001605034">
        <ele>13.119999999999999</ele>
        <time>2017-06-28T14:39:25Z</time>
      </trkpt>
      <trkpt lat="66.323996018618345" lon="14.17652296833694">
        <ele>12.15</ele>
        <time>2017-06-28T14:39:32Z</time>
      </trkpt>
      <trkpt lat="66.324058966711164" lon="14.176238989457488">
        <ele>11.67</ele>
        <time>2017-06-28T14:39:41Z</time>
      </trkpt>
      <trkpt lat="66.324089979752898" lon="14.176037991419435">
        <ele>11.67</ele>
        <time>2017-06-28T14:39:43Z</time>
      </trkpt>
      <trkpt lat="66.324078999459743" lon="14.175906982272863">
        <ele>11.67</ele>
        <time>2017-06-28T14:39:44Z</time>
      </trkpt>
      <trkpt lat="66.324046980589628" lon="14.175783013924956">
        <ele>11.67</ele>
        <time>2017-06-28T14:39:45Z</time>
      </trkpt>
      <trkpt lat="66.323997024446726" lon="14.175680000334978">
        <ele>11.19</ele>
        <time>2017-06-28T14:39:46Z</time>
      </trkpt>
      <trkpt lat="66.323936004191637" lon="14.175599031150341">
        <ele>10.710000000000001</ele>
        <time>2017-06-28T14:39:47Z</time>
      </trkpt>
      <trkpt lat="66.323865009471774" lon="14.175528958439827">
        <ele>10.23</ele>
        <time>2017-06-28T14:39:48Z</time>
      </trkpt>
      <trkpt lat="66.322931014001369" lon="14.174814987927675">
        <ele>8.310000000000001</ele>
        <time>2017-06-28T14:39:57Z</time>
      </trkpt>
      <trkpt lat="66.322254007682204" lon="14.174301009625196">
        <ele>6.39</ele>
        <time>2017-06-28T14:40:03Z</time>
      </trkpt>
      <trkpt lat="66.322163986042142" lon="14.174194978550076">
        <ele>5.91</ele>
        <time>2017-06-28T14:40:04Z</time>
      </trkpt>
      <trkpt lat="66.321861986070871" lon="14.173885015770793">
        <ele>4.94</ele>
        <time>2017-06-28T14:40:07Z</time>
      </trkpt>
      <trkpt lat="66.320861019194126" lon="14.173215972259641">
        <ele>3.5</ele>
        <time>2017-06-28T14:40:15Z</time>
      </trkpt>
      <trkpt lat="66.320747025310993" lon="14.173037018626928">
        <ele>3.5</ele>
        <time>2017-06-28T14:40:16Z</time>
      </trkpt>
      <trkpt lat="66.320651974529028" lon="14.172858987003565">
        <ele>3.5</ele>
        <time>2017-06-28T14:40:17Z</time>
      </trkpt>
      <trkpt lat="66.320579973980784" lon="14.172692019492388">
        <ele>3.5</ele>
        <time>2017-06-28T14:40:18Z</time>
      </trkpt>
      <trkpt lat="66.32052599452436" lon="14.172531003132463">
        <ele>3.5</ele>
        <time>2017-06-28T14:40:19Z</time>
      </trkpt>
      <trkpt lat="66.320480983704329" lon="14.172369986772537">
        <ele>3.5</ele>
        <time>2017-06-28T14:40:20Z</time>
      </trkpt>
      <trkpt lat="66.320442007854581" lon="14.172207964584231">
        <ele>3.5</ele>
        <time>2017-06-28T14:40:21Z</time>
      </trkpt>
      <trkpt lat="66.320408983156085" lon="14.172032028436661">
        <ele>3.5</ele>
        <time>2017-06-28T14:40:22Z</time>
      </trkpt>
      <trkpt lat="66.320382999256253" lon="14.1718590259552">
        <ele>3.5</ele>
        <time>2017-06-28T14:40:23Z</time>
      </trkpt>
      <trkpt lat="66.320358021184802" lon="14.171680994331837">
        <ele>3.5</ele>
        <time>2017-06-28T14:40:24Z</time>
      </trkpt>
      <trkpt lat="66.320309992879629" lon="14.171289978548884">
        <ele>3.5</ele>
        <time>2017-06-28T14:40:26Z</time>
      </trkpt>
      <trkpt lat="66.320272022858262" lon="14.171119993552566">
        <ele>3.98</ele>
        <time>2017-06-28T14:40:27Z</time>
      </trkpt>
      <trkpt lat="66.320217959582806" lon="14.170971969142556">
        <ele>3.98</ele>
        <time>2017-06-28T14:40:28Z</time>
      </trkpt>
      <trkpt lat="66.320145037025213" lon="14.170857975259423">
        <ele>3.5</ele>
        <time>2017-06-28T14:40:29Z</time>
      </trkpt>
      <trkpt lat="66.320063984021544" lon="14.170748004689813">
        <ele>3.5</ele>
        <time>2017-06-28T14:40:30Z</time>
      </trkpt>
      <trkpt lat="66.319912020117044" lon="14.170494033023715">
        <ele>3.5</ele>
        <time>2017-06-28T14:40:32Z</time>
      </trkpt>
      <trkpt lat="66.319856029003859" lon="14.170369980856776">
        <ele>3.5</ele>
        <time>2017-06-28T14:40:33Z</time>
      </trkpt>
      <trkpt lat="66.319587975740433" lon="14.169811997562647">
        <ele>3.98</ele>
        <time>2017-06-28T14:40:41Z</time>
      </trkpt>
      <trkpt lat="66.319543970748782" lon="14.169706972315907">
        <ele>3.02</ele>
        <time>2017-06-28T14:40:52Z</time>
      </trkpt>
      <trkpt lat="66.319498037919402" lon="14.169684005901217">
        <ele>3.98</ele>
        <time>2017-06-28T14:41:35Z</time>
      </trkpt>
      <trkpt lat="66.319441962987185" lon="14.169631032273173">
        <ele>4.46</ele>
        <time>2017-06-28T14:41:36Z</time>
      </trkpt>
      <trkpt lat="66.319371974095702" lon="14.169552996754646">
        <ele>4.94</ele>
        <time>2017-06-28T14:41:37Z</time>
      </trkpt>
      <trkpt lat="66.318746013566852" lon="14.169100960716605">
        <ele>8.310000000000001</ele>
        <time>2017-06-28T14:41:44Z</time>
      </trkpt>
      <trkpt lat="66.318647023290396" lon="14.169091992080212">
        <ele>8.789999999999999</ele>
        <time>2017-06-28T14:41:45Z</time>
      </trkpt>
      <trkpt lat="66.317370962351561" lon="14.168792003765702">
        <ele>15.039999999999999</ele>
        <time>2017-06-28T14:41:57Z</time>
      </trkpt>
      <trkpt lat="66.315495008602738" lon="14.167173961177468">
        <ele>23.690000000000001</ele>
        <time>2017-06-28T14:42:14Z</time>
      </trkpt>
      <trkpt lat="66.314816996455193" lon="14.166295034810901">
        <ele>29.460000000000001</ele>
        <time>2017-06-28T14:42:20Z</time>
      </trkpt>
      <trkpt lat="66.31472404114902" lon="14.16607802733779">
        <ele>29.940000000000001</ele>
        <time>2017-06-28T14:42:21Z</time>
      </trkpt>
      <trkpt lat="66.314635025337338" lon="14.165840987116098">
        <ele>30.899999999999999</ele>
        <time>2017-06-28T14:42:22Z</time>
      </trkpt>
      <trkpt lat="66.314555983990431" lon="14.165582992136478">
        <ele>31.859999999999999</ele>
        <time>2017-06-28T14:42:23Z</time>
      </trkpt>
      <trkpt lat="66.314481971785426" lon="14.16530697606504">
        <ele>33.299999999999997</ele>
        <time>2017-06-28T14:42:24Z</time>
      </trkpt>
      <trkpt lat="66.314419023692608" lon="14.165013022720814">
        <ele>34.259999999999998</ele>
        <time>2017-06-28T14:42:25Z</time>
      </trkpt>
      <trkpt lat="66.314369989559054" lon="14.164693001657724">
        <ele>34.740000000000002</ele>
        <time>2017-06-28T14:42:26Z</time>
      </trkpt>
      <trkpt lat="66.314335037022829" lon="14.164358982816339">
        <ele>35.710000000000001</ele>
        <time>2017-06-28T14:42:27Z</time>
      </trkpt>
      <trkpt lat="66.31431601010263" lon="14.164011972025037">
        <ele>36.670000000000002</ele>
        <time>2017-06-28T14:42:28Z</time>
      </trkpt>
      <trkpt lat="66.314310980960727" lon="14.163662027567625">
        <ele>37.630000000000003</ele>
        <time>2017-06-28T14:42:29Z</time>
      </trkpt>
      <trkpt lat="66.314321039244533" lon="14.163304036483169">
        <ele>39.07</ele>
        <time>2017-06-28T14:42:30Z</time>
      </trkpt>
      <trkpt lat="66.314337970688939" lon="14.162947973236442">
        <ele>40.030000000000001</ele>
        <time>2017-06-28T14:42:31Z</time>
      </trkpt>
      <trkpt lat="66.314570987597108" lon="14.160049008205533">
        <ele>47.719999999999999</ele>
        <time>2017-06-28T14:42:41Z</time>
      </trkpt>
      <trkpt lat="66.314592026174068" lon="14.159893020987511">
        <ele>48.200000000000003</ele>
        <time>2017-06-28T14:42:42Z</time>
      </trkpt>
      <trkpt lat="66.314627984538674" lon="14.159752037376165">
        <ele>48.68</ele>
        <time>2017-06-28T14:42:43Z</time>
      </trkpt>
      <trkpt lat="66.314678024500608" lon="14.15961398743093">
        <ele>48.68</ele>
        <time>2017-06-28T14:42:44Z</time>
      </trkpt>
      <trkpt lat="66.314946999773383" lon="14.15890202857554">
        <ele>48.200000000000003</ele>
        <time>2017-06-28T14:42:48Z</time>
      </trkpt>
      <trkpt lat="66.315006008371711" lon="14.158675968647003">
        <ele>48.68</ele>
        <time>2017-06-28T14:42:49Z</time>
      </trkpt>
      <trkpt lat="66.315185967832804" lon="14.157996028661728">
        <ele>48.68</ele>
        <time>2017-06-28T14:42:52Z</time>
      </trkpt>
      <trkpt lat="66.315264003351331" lon="14.157812967896461">
        <ele>49.159999999999997</ele>
        <time>2017-06-28T14:42:53Z</time>
      </trkpt>
      <trkpt lat="66.315343966707587" lon="14.15763895958662">
        <ele>49.159999999999997</ele>
        <time>2017-06-28T14:42:54Z</time>
      </trkpt>
      <trkpt lat="66.315645966678858" lon="14.157093968242407">
        <ele>50.130000000000003</ele>
        <time>2017-06-28T14:42:58Z</time>
      </trkpt>
      <trkpt lat="66.315699024125934" lon="14.156958013772964">
        <ele>50.130000000000003</ele>
        <time>2017-06-28T14:42:59Z</time>
      </trkpt>
      <trkpt lat="66.315744034945965" lon="14.156816024333239">
        <ele>50.130000000000003</ele>
        <time>2017-06-28T14:43:00Z</time>
      </trkpt>
      <trkpt lat="66.31577898748219" lon="14.156681997701526">
        <ele>50.130000000000003</ele>
        <time>2017-06-28T14:43:01Z</time>
      </trkpt>
      <trkpt lat="66.315801031887531" lon="14.156550988554955">
        <ele>50.130000000000003</ele>
        <time>2017-06-28T14:43:02Z</time>
      </trkpt>
      <trkpt lat="66.315816035494208" lon="14.156430959701538">
        <ele>50.609999999999999</ele>
        <time>2017-06-28T14:43:03Z</time>
      </trkpt>
      <trkpt lat="66.315817041322589" lon="14.156313026323915">
        <ele>50.609999999999999</ele>
        <time>2017-06-28T14:43:04Z</time>
      </trkpt>
      <trkpt lat="66.315802959725261" lon="14.156200960278511">
        <ele>50.609999999999999</ele>
        <time>2017-06-28T14:43:05Z</time>
      </trkpt>
      <trkpt lat="66.315775969997048" lon="14.1560909897089">
        <ele>50.609999999999999</ele>
        <time>2017-06-28T14:43:06Z</time>
      </trkpt>
      <trkpt lat="66.315736994147301" lon="14.155978001654148">
        <ele>50.609999999999999</ele>
        <time>2017-06-28T14:43:07Z</time>
      </trkpt>
      <trkpt lat="66.315690977498889" lon="14.155867025256157">
        <ele>50.609999999999999</ele>
        <time>2017-06-28T14:43:08Z</time>
      </trkpt>
      <trkpt lat="66.315631968900561" lon="14.155754959210753">
        <ele>50.130000000000003</ele>
        <time>2017-06-28T14:43:09Z</time>
      </trkpt>
      <trkpt lat="66.315569020807743" lon="14.155648006126285">
        <ele>50.130000000000003</ele>
        <time>2017-06-28T14:43:10Z</time>
      </trkpt>
      <trkpt lat="66.314524970948696" lon="14.153717989102006">
        <ele>43.880000000000003</ele>
        <time>2017-06-28T14:43:25Z</time>
      </trkpt>
      <trkpt lat="66.313383020460606" lon="14.151713959872723">
        <ele>39.07</ele>
        <time>2017-06-28T14:43:42Z</time>
      </trkpt>
      <trkpt lat="66.312795029953122" lon="14.150748029351234">
        <ele>36.670000000000002</ele>
        <time>2017-06-28T14:43:51Z</time>
      </trkpt>
      <trkpt lat="66.312737027183175" lon="14.150579972192645">
        <ele>36.189999999999998</ele>
        <time>2017-06-28T14:43:52Z</time>
      </trkpt>
      <trkpt lat="66.312687993049622" lon="14.150401018559933">
        <ele>35.710000000000001</ele>
        <time>2017-06-28T14:43:53Z</time>
      </trkpt>
      <trkpt lat="66.312644993886352" lon="14.150209994986653">
        <ele>35.229999999999997</ele>
        <time>2017-06-28T14:43:54Z</time>
      </trkpt>
      <trkpt lat="66.312606018036604" lon="14.150027018040419">
        <ele>35.229999999999997</ele>
        <time>2017-06-28T14:43:55Z</time>
      </trkpt>
      <trkpt lat="66.311893975362182" lon="14.146686997264624">
        <ele>30.899999999999999</ele>
        <time>2017-06-28T14:44:13Z</time>
      </trkpt>
      <trkpt lat="66.31126600317657" lon="14.143271958455443">
        <ele>25.609999999999999</ele>
        <time>2017-06-28T14:44:30Z</time>
      </trkpt>
      <trkpt lat="66.311059975996614" lon="14.142172001302242">
        <ele>25.129999999999999</ele>
        <time>2017-06-28T14:44:36Z</time>
      </trkpt>
      <trkpt lat="66.311019994318485" lon="14.142023976892233">
        <ele>25.129999999999999</ele>
        <time>2017-06-28T14:44:37Z</time>
      </trkpt>
      <trkpt lat="66.310954028740525" lon="14.141901014372706">
        <ele>24.649999999999999</ele>
        <time>2017-06-28T14:44:38Z</time>
      </trkpt>
      <trkpt lat="66.310881022363901" lon="14.141838988289237">
        <ele>24.170000000000002</ele>
        <time>2017-06-28T14:44:39Z</time>
      </trkpt>
      <trkpt lat="66.310799969360232" lon="14.141828007996082">
        <ele>24.170000000000002</ele>
        <time>2017-06-28T14:44:40Z</time>
      </trkpt>
      <trkpt lat="66.310712965205312" lon="14.141852986067533">
        <ele>23.690000000000001</ele>
        <time>2017-06-28T14:44:41Z</time>
      </trkpt>
      <trkpt lat="66.310626966878772" lon="14.141901014372706">
        <ele>23.690000000000001</ele>
        <time>2017-06-28T14:44:42Z</time>
      </trkpt>
      <trkpt lat="66.309962030500174" lon="14.142271997407079">
        <ele>22.73</ele>
        <time>2017-06-28T14:44:51Z</time>
      </trkpt>
      <trkpt lat="66.309919031336904" lon="14.142262022942305">
        <ele>22.73</ele>
        <time>2017-06-28T14:44:52Z</time>
      </trkpt>
      <trkpt lat="66.309878965839744" lon="14.142218017950654">
        <ele>22.25</ele>
        <time>2017-06-28T14:44:53Z</time>
      </trkpt>
      <trkpt lat="66.309854993596673" lon="14.142139982432127">
        <ele>22.25</ele>
        <time>2017-06-28T14:44:54Z</time>
      </trkpt>
      <trkpt lat="66.309839989989996" lon="14.142021965235472">
        <ele>21.77</ele>
        <time>2017-06-28T14:44:55Z</time>
      </trkpt>
      <trkpt lat="66.30982699804008" lon="14.141878969967365">
        <ele>21.289999999999999</ele>
        <time>2017-06-28T14:44:56Z</time>
      </trkpt>
      <trkpt lat="66.309819035232067" lon="14.141723988577724">
        <ele>20.809999999999999</ele>
        <time>2017-06-28T14:44:57Z</time>
      </trkpt>
      <trkpt lat="66.309816017746925" lon="14.141568001359701">
        <ele>20.32</ele>
        <time>2017-06-28T14:44:58Z</time>
      </trkpt>
      <trkpt lat="66.309707975015044" lon="14.139142027124763">
        <ele>12.630000000000001</ele>
        <time>2017-06-28T14:45:15Z</time>
      </trkpt>
      <trkpt lat="66.309620970860124" lon="14.13772095926106">
        <ele>9.27</ele>
        <time>2017-06-28T14:45:26Z</time>
      </trkpt>
      <trkpt lat="66.309551987797022" lon="14.136493010446429">
        <ele>6.39</ele>
        <time>2017-06-28T14:45:38Z</time>
      </trkpt>
      <trkpt lat="66.309531033039093" lon="14.135473016649485">
        <ele>2.54</ele>
        <time>2017-06-28T14:45:52Z</time>
      </trkpt>
      <trkpt lat="66.309585012495518" lon="14.135011006146669">
        <ele>2.54</ele>
        <time>2017-06-28T14:46:02Z</time>
      </trkpt>
      <trkpt lat="66.309583000838757" lon="14.134959038347006">
        <ele>2.54</ele>
        <time>2017-06-28T14:46:03Z</time>
      </trkpt>
      <trkpt lat="66.309571014717221" lon="14.134908998385072">
        <ele>2.54</ele>
        <time>2017-06-28T14:46:04Z</time>
      </trkpt>
      <trkpt lat="66.309555005282164" lon="14.134860970079899">
        <ele>2.54</ele>
        <time>2017-06-28T14:46:05Z</time>
      </trkpt>
      <trkpt lat="66.309533966705203" lon="14.134820988401771">
        <ele>2.54</ele>
        <time>2017-06-28T14:46:06Z</time>
      </trkpt>
      <trkpt lat="66.309501025825739" lon="14.134799027815461">
        <ele>2.06</ele>
        <time>2017-06-28T14:46:07Z</time>
      </trkpt>
      <trkpt lat="66.309465989470482" lon="14.134800033643842">
        <ele>2.06</ele>
        <time>2017-06-28T14:46:08Z</time>
      </trkpt>
      <trkpt lat="66.309425001963973" lon="14.134818976745009">
        <ele>2.06</ele>
        <time>2017-06-28T14:46:09Z</time>
      </trkpt>
      <trkpt lat="66.309388037770987" lon="14.134861975908279">
        <ele>1.58</ele>
        <time>2017-06-28T14:46:10Z</time>
      </trkpt>
      <trkpt lat="66.30935400724411" lon="14.134903969243169">
        <ele>2.06</ele>
        <time>2017-06-28T14:46:11Z</time>
      </trkpt>
      <trkpt lat="66.309273960068822" lon="14.134993990883231">
        <ele>1.58</ele>
        <time>2017-06-28T14:46:13Z</time>
      </trkpt>
      <trkpt lat="66.309058964252472" lon="14.135154001414776">
        <ele>1.58</ele>
        <time>2017-06-28T14:46:18Z</time>
      </trkpt>
      <trkpt lat="66.30901001393795" lon="14.135167999193072">
        <ele>2.06</ele>
        <time>2017-06-28T14:46:19Z</time>
      </trkpt>
      <trkpt lat="66.308507015928626" lon="14.135347958654165">
        <ele>1.1</ele>
        <time>2017-06-28T14:46:32Z</time>
      </trkpt>
      <trkpt lat="66.308332001790404" lon="14.135377965867519">
        <ele>1.58</ele>
        <time>2017-06-28T14:46:43Z</time>
      </trkpt>
      <trkpt lat="66.308333007618785" lon="14.135377965867519">
        <ele>1.1</ele>
        <time>2017-06-28T14:48:34Z</time>
      </trkpt>
      <trkpt lat="66.308209039270878" lon="14.135392969474196">
        <ele>1.1</ele>
        <time>2017-06-28T14:50:01Z</time>
      </trkpt>
      <trkpt lat="66.307565979659557" lon="14.135357011109591">
        <ele>-2.27</ele>
        <time>2017-06-28T14:50:15Z</time>
      </trkpt>
      <trkpt lat="66.307435976341367" lon="14.135336978361011">
        <ele>-1.79</ele>
        <time>2017-06-28T14:50:18Z</time>
      </trkpt>
      <trkpt lat="66.307113021612167" lon="14.135152995586395">
        <ele>3.02</ele>
        <time>2017-06-28T14:50:28Z</time>
      </trkpt>
      <trkpt lat="66.306976983323693" lon="14.135135980322957">
        <ele>3.98</ele>
        <time>2017-06-28T14:50:32Z</time>
      </trkpt>
      <trkpt lat="66.306934989988804" lon="14.135171016678214">
        <ele>3.98</ele>
        <time>2017-06-28T14:50:33Z</time>
      </trkpt>
      <trkpt lat="66.306899031624198" lon="14.135213010013103">
        <ele>3.98</ele>
        <time>2017-06-28T14:50:34Z</time>
      </trkpt>
      <trkpt lat="66.306866006925702" lon="14.135274030268192">
        <ele>3.98</ele>
        <time>2017-06-28T14:50:35Z</time>
      </trkpt>
      <trkpt lat="66.306844968348742" lon="14.135353993624449">
        <ele>4.46</ele>
        <time>2017-06-28T14:50:36Z</time>
      </trkpt>
      <trkpt lat="66.306834993883967" lon="14.135440997779369">
        <ele>4.46</ele>
        <time>2017-06-28T14:50:37Z</time>
      </trkpt>
      <trkpt lat="66.306835999712348" lon="14.135526996105909">
        <ele>4.46</ele>
        <time>2017-06-28T14:50:38Z</time>
      </trkpt>
      <trkpt lat="66.306853014975786" lon="14.135597990825772">
        <ele>4.46</ele>
        <time>2017-06-28T14:50:39Z</time>
      </trkpt>
      <trkpt lat="66.306873969733715" lon="14.135663034394383">
        <ele>4.46</ele>
        <time>2017-06-28T14:50:40Z</time>
      </trkpt>
      <trkpt lat="66.306902971118689" lon="14.135713996365666">
        <ele>3.98</ele>
        <time>2017-06-28T14:50:41Z</time>
      </trkpt>
      <trkpt lat="66.306935995817184" lon="14.135730005800724">
        <ele>3.98</ele>
        <time>2017-06-28T14:50:42Z</time>
      </trkpt>
      <trkpt lat="66.306972038000822" lon="14.135709973052144">
        <ele>3.98</ele>
        <time>2017-06-28T14:50:43Z</time>
      </trkpt>
      <trkpt lat="66.307007996365428" lon="14.135667979717255">
        <ele>3.98</ele>
        <time>2017-06-28T14:50:44Z</time>
      </trkpt>
      <trkpt lat="66.307042026892304" lon="14.135623974725604">
        <ele>3.98</ele>
        <time>2017-06-28T14:50:45Z</time>
      </trkpt>
      <trkpt lat="66.307436982169747" lon="14.135479973629117">
        <ele>1.58</ele>
        <time>2017-06-28T14:50:59Z</time>
      </trkpt>
      <trkpt lat="66.30759104155004" lon="14.135551974177361">
        <ele>1.1</ele>
        <time>2017-06-28T14:51:13Z</time>
      </trkpt>
      <trkpt lat="66.307606967166066" lon="14.135529007762671">
        <ele>4.46</ele>
        <time>2017-06-28T14:51:36Z</time>
      </trkpt>
      <trkpt lat="66.307662036269903" lon="14.135534036904573">
        <ele>3.5</ele>
        <time>2017-06-28T14:53:05Z</time>
      </trkpt>
      <trkpt lat="66.308148019015789" lon="14.135509980842471">
        <ele>4.46</ele>
        <time>2017-06-28T14:53:17Z</time>
      </trkpt>
      <trkpt lat="66.30827802233398" lon="14.135782979428768">
        <ele>4.94</ele>
        <time>2017-06-28T14:53:26Z</time>
      </trkpt>
      <trkpt lat="66.308323033154011" lon="14.136350015178323">
        <ele>7.35</ele>
        <time>2017-06-28T14:53:36Z</time>
      </trkpt>
      <trkpt lat="66.30832202732563" lon="14.136931970715523">
        <ele>9.75</ele>
        <time>2017-06-28T14:53:44Z</time>
      </trkpt>
      <trkpt lat="66.308338958770037" lon="14.136966001242399">
        <ele>9.75</ele>
        <time>2017-06-28T14:53:45Z</time>
      </trkpt>
      <trkpt lat="66.308356979861856" lon="14.136969018727541">
        <ele>9.75</ele>
        <time>2017-06-28T14:53:46Z</time>
      </trkpt>
      <trkpt lat="66.308377012610435" lon="14.136956026777625">
        <ele>9.75</ele>
        <time>2017-06-28T14:53:47Z</time>
      </trkpt>
      <trkpt lat="66.308398973196745" lon="14.136928031221032">
        <ele>9.75</ele>
        <time>2017-06-28T14:53:48Z</time>
      </trkpt>
      <trkpt lat="66.30840802565217" lon="14.136895006522536">
        <ele>9.27</ele>
        <time>2017-06-28T14:53:49Z</time>
      </trkpt>
      <trkpt lat="66.308411965146661" lon="14.136841027066112">
        <ele>9.27</ele>
        <time>2017-06-28T14:53:50Z</time>
      </trkpt>
      <trkpt lat="66.308406013995409" lon="14.136782018467784">
        <ele>9.27</ele>
        <time>2017-06-28T14:53:51Z</time>
      </trkpt>
      <trkpt lat="66.308395033702254" lon="14.136687973514199">
        <ele>9.27</ele>
        <time>2017-06-28T14:53:52Z</time>
      </trkpt>
      <trkpt lat="66.308379024267197" lon="14.136427966877818">
        <ele>7.83</ele>
        <time>2017-06-28T14:53:54Z</time>
      </trkpt>
      <trkpt lat="66.30836796015501" lon="14.135732017457485">
        <ele>5.91</ele>
        <time>2017-06-28T14:54:03Z</time>
      </trkpt>
      <trkpt lat="66.308409031480551" lon="14.135646019130945">
        <ele>6.87</ele>
        <time>2017-06-28T14:54:08Z</time>
      </trkpt>
      <trkpt lat="66.308434009552002" lon="14.135615006089211">
        <ele>6.87</ele>
        <time>2017-06-28T14:54:29Z</time>
      </trkpt>
      <trkpt lat="66.308437027037144" lon="14.135612994432449">
        <ele>6.87</ele>
        <time>2017-06-28T14:56:48Z</time>
      </trkpt>
      <trkpt lat="66.308438032865524" lon="14.135609976947308">
        <ele>7.35</ele>
        <time>2017-06-28T14:59:21Z</time>
      </trkpt>
    </trkseg>
  </trk>

  <trk>
    <name>Track vom: 28 JUN 2017 17:00</name>
    <extensions>
      <gpxx:TrackExtension>
        <gpxx:DisplayColor>DarkGray</gpxx:DisplayColor>
      </gpxx:TrackExtension>
    </extensions>
    <trkseg>
      <trkpt lat="66.308439960703254" lon="14.135610982775688">
        <ele>7.35</ele>
        <time>2017-06-28T15:00:37Z</time>
      </trkpt>
      <trkpt lat="66.308560995385051" lon="14.135526996105909">
        <ele>7.35</ele>
        <time>2017-06-28T15:00:55Z</time>
      </trkpt>
      <trkpt lat="66.308887973427773" lon="14.135363968089223">
        <ele>7.35</ele>
        <time>2017-06-28T15:01:02Z</time>
      </trkpt>
      <trkpt lat="66.309361970052123" lon="14.135237988084555">
        <ele>7.35</ele>
        <time>2017-06-28T15:01:12Z</time>
      </trkpt>
      <trkpt lat="66.309396000579" lon="14.13529297336936">
        <ele>7.35</ele>
        <time>2017-06-28T15:01:13Z</time>
      </trkpt>
      <trkpt lat="66.309425001963973" lon="14.135381989181042">
        <ele>6.87</ele>
        <time>2017-06-28T15:01:14Z</time>
      </trkpt>
      <trkpt lat="66.309444028884172" lon="14.135495983064175">
        <ele>6.87</ele>
        <time>2017-06-28T15:01:15Z</time>
      </trkpt>
      <trkpt lat="66.309459032490849" lon="14.135630009695888">
        <ele>7.35</ele>
        <time>2017-06-28T15:01:16Z</time>
      </trkpt>
      <trkpt lat="66.309464983642101" lon="14.13576596416533">
        <ele>7.35</ele>
        <time>2017-06-28T15:01:17Z</time>
      </trkpt>
      <trkpt lat="66.309474036097527" lon="14.135900996625423">
        <ele>7.35</ele>
        <time>2017-06-28T15:01:18Z</time>
      </trkpt>
      <trkpt lat="66.309585012495518" lon="14.13801901973784">
        <ele>11.19</ele>
        <time>2017-06-28T15:01:32Z</time>
      </trkpt>
      <trkpt lat="66.309629017487168" lon="14.138928959146142">
        <ele>14.08</ele>
        <time>2017-06-28T15:01:41Z</time>
      </trkpt>
      <trkpt lat="66.309722978621721" lon="14.140570973977447">
        <ele>17.920000000000002</ele>
        <time>2017-06-28T15:01:50Z</time>
      </trkpt>
      <trkpt lat="66.309809982776642" lon="14.142039986327291">
        <ele>21.77</ele>
        <time>2017-06-28T15:02:00Z</time>
      </trkpt>
      <trkpt lat="66.309828003868461" lon="14.14214501157403">
        <ele>21.77</ele>
        <time>2017-06-28T15:02:01Z</time>
      </trkpt>
      <trkpt lat="66.309865973889828" lon="14.142239978536963">
        <ele>22.25</ele>
        <time>2017-06-28T15:02:02Z</time>
      </trkpt>
      <trkpt lat="66.309918025508523" lon="14.142306027933955">
        <ele>22.25</ele>
        <time>2017-06-28T15:02:03Z</time>
      </trkpt>
      <trkpt lat="66.309977034106851" lon="14.142333017662168">
        <ele>22.25</ele>
        <time>2017-06-28T15:02:04Z</time>
      </trkpt>
      <trkpt lat="66.310038976371288" lon="14.142328994348645">
        <ele>22.25</ele>
        <time>2017-06-28T15:02:05Z</time>
      </trkpt>
      <trkpt lat="66.31010502576828" lon="14.142309967428446">
        <ele>22.25</ele>
        <time>2017-06-28T15:02:06Z</time>
      </trkpt>
      <trkpt lat="66.310174008831382" lon="14.142279038205743">
        <ele>21.77</ele>
        <time>2017-06-28T15:02:07Z</time>
      </trkpt>
      <trkpt lat="66.310811033472419" lon="14.141998998820782">
        <ele>21.289999999999999</ele>
        <time>2017-06-28T15:02:16Z</time>
      </trkpt>
      <trkpt lat="66.310872975736856" lon="14.14201601408422">
        <ele>21.289999999999999</ele>
        <time>2017-06-28T15:02:17Z</time>
      </trkpt>
      <trkpt lat="66.310924021527171" lon="14.142070999369025">
        <ele>21.77</ele>
        <time>2017-06-28T15:02:18Z</time>
      </trkpt>
      <trkpt lat="66.310970038175583" lon="14.142178036272526">
        <ele>22.25</ele>
        <time>2017-06-28T15:02:19Z</time>
      </trkpt>
      <trkpt lat="66.311000967398286" lon="14.142314996570349">
        <ele>22.73</ele>
        <time>2017-06-28T15:02:20Z</time>
      </trkpt>
      <trkpt lat="66.311028962954879" lon="14.142480036243796">
        <ele>22.73</ele>
        <time>2017-06-28T15:02:21Z</time>
      </trkpt>
      <trkpt lat="66.311054024845362" lon="14.142652032896876">
        <ele>22.73</ele>
        <time>2017-06-28T15:02:22Z</time>
      </trkpt>
      <trkpt lat="66.31150203756988" lon="14.145370032638311">
        <ele>27.530000000000001</ele>
        <time>2017-06-28T15:02:34Z</time>
      </trkpt>
      <trkpt lat="66.312237968668342" lon="14.148794962093234">
        <ele>33.299999999999997</ele>
        <time>2017-06-28T15:02:49Z</time>
      </trkpt>
      <trkpt lat="66.312846997752786" lon="14.151086993515491">
        <ele>32.82</ele>
        <time>2017-06-28T15:03:00Z</time>
      </trkpt>
      <trkpt lat="66.312923021614552" lon="14.151236023753881">
        <ele>33.299999999999997</ele>
        <time>2017-06-28T15:03:01Z</time>
      </trkpt>
      <trkpt lat="66.314342999830842" lon="14.153614975512028">
        <ele>37.630000000000003</ele>
        <time>2017-06-28T15:03:18Z</time>
      </trkpt>
      <trkpt lat="66.315482016652822" lon="14.15578999556601">
        <ele>45.799999999999997</ele>
        <time>2017-06-28T15:03:33Z</time>
      </trkpt>
      <trkpt lat="66.315580001100898" lon="14.155989987775683">
        <ele>46.759999999999998</ele>
        <time>2017-06-28T15:03:35Z</time>
      </trkpt>
      <trkpt lat="66.315615959465504" lon="14.156114961951971">
        <ele>46.759999999999998</ele>
        <time>2017-06-28T15:03:36Z</time>
      </trkpt>
      <trkpt lat="66.315642027184367" lon="14.156235996633768">
        <ele>47.240000000000002</ele>
        <time>2017-06-28T15:03:37Z</time>
      </trkpt>
      <trkpt lat="66.315658958628774" lon="14.156357031315565">
        <ele>47.719999999999999</ele>
        <time>2017-06-28T15:03:38Z</time>
      </trkpt>
      <trkpt lat="66.315672034397721" lon="14.156471025198698">
        <ele>47.719999999999999</ele>
        <time>2017-06-28T15:03:39Z</time>
      </trkpt>
      <trkpt lat="66.315678991377354" lon="14.156599016860127">
        <ele>47.719999999999999</ele>
        <time>2017-06-28T15:03:40Z</time>
      </trkpt>
      <trkpt lat="66.315679997205734" lon="14.156743017956614">
        <ele>47.719999999999999</ele>
        <time>2017-06-28T15:03:41Z</time>
      </trkpt>
      <trkpt lat="66.315673962235451" lon="14.156890036538243">
        <ele>47.719999999999999</ele>
        <time>2017-06-28T15:03:42Z</time>
      </trkpt>
      <trkpt lat="66.315654013305902" lon="14.15703403763473">
        <ele>47.719999999999999</ele>
        <time>2017-06-28T15:03:43Z</time>
      </trkpt>
      <trkpt lat="66.315618976950645" lon="14.157178038731217">
        <ele>47.719999999999999</ele>
        <time>2017-06-28T15:03:44Z</time>
      </trkpt>
      <trkpt lat="66.315570026636124" lon="14.157310975715518">
        <ele>47.719999999999999</ele>
        <time>2017-06-28T15:03:45Z</time>
      </trkpt>
      <trkpt lat="66.315506994724274" lon="14.157432010397315">
        <ele>47.719999999999999</ele>
        <time>2017-06-28T15:03:46Z</time>
      </trkpt>
      <trkpt lat="66.31543398834765" lon="14.157555978745222">
        <ele>47.719999999999999</ele>
        <time>2017-06-28T15:03:47Z</time>
      </trkpt>
      <trkpt lat="66.315362993627787" lon="14.157667960971594">
        <ele>47.719999999999999</ele>
        <time>2017-06-28T15:03:48Z</time>
      </trkpt>
      <trkpt lat="66.315161995589733" lon="14.158080015331507">
        <ele>47.719999999999999</ele>
        <time>2017-06-28T15:03:51Z</time>
      </trkpt>
      <trkpt lat="66.315104998648167" lon="14.158246982842684">
        <ele>47.719999999999999</ele>
        <time>2017-06-28T15:03:52Z</time>
      </trkpt>
      <trkpt lat="66.315056970342994" lon="14.15842903777957">
        <ele>47.719999999999999</ele>
        <time>2017-06-28T15:03:53Z</time>
      </trkpt>
      <trkpt lat="66.314877010881901" lon="14.159138984978199">
        <ele>47.719999999999999</ele>
        <time>2017-06-28T15:03:57Z</time>
      </trkpt>
      <trkpt lat="66.314826970919967" lon="14.159263037145138">
        <ele>48.200000000000003</ele>
        <time>2017-06-28T15:03:58Z</time>
      </trkpt>
      <trkpt lat="66.314775003120303" lon="14.159364961087704">
        <ele>48.68</ele>
        <time>2017-06-28T15:03:59Z</time>
      </trkpt>
      <trkpt lat="66.314720017835498" lon="14.159436961635947">
        <ele>48.68</ele>
        <time>2017-06-28T15:04:00Z</time>
      </trkpt>
      <trkpt lat="66.314669977873564" lon="14.159500999376178">
        <ele>48.68</ele>
        <time>2017-06-28T15:04:01Z</time>
      </trkpt>
      <trkpt lat="66.3146180100739" lon="14.159545004367828">
        <ele>48.68</ele>
        <time>2017-06-28T15:04:02Z</time>
      </trkpt>
      <trkpt lat="66.314570987597108" lon="14.159582974389195">
        <ele>48.68</ele>
        <time>2017-06-28T15:04:03Z</time>
      </trkpt>
      <trkpt lat="66.314442995935678" lon="14.159701997414231">
        <ele>48.68</ele>
        <time>2017-06-28T15:04:06Z</time>
      </trkpt>
      <trkpt lat="66.314410977065563" lon="14.159778021275997">
        <ele>48.68</ele>
        <time>2017-06-28T15:04:07Z</time>
      </trkpt>
      <trkpt lat="66.314394967630506" lon="14.159882962703705">
        <ele>48.68</ele>
        <time>2017-06-28T15:04:08Z</time>
      </trkpt>
      <trkpt lat="66.314395973458886" lon="14.160008020699024">
        <ele>48.200000000000003</ele>
        <time>2017-06-28T15:04:09Z</time>
      </trkpt>
      <trkpt lat="66.314409971237183" lon="14.160141963511705">
        <ele>48.200000000000003</ele>
        <time>2017-06-28T15:04:10Z</time>
      </trkpt>
      <trkpt lat="66.314435033127666" lon="14.160285964608192">
        <ele>48.200000000000003</ele>
        <time>2017-06-28T15:04:11Z</time>
      </trkpt>
      <trkpt lat="66.314478032290936" lon="14.160842020064592">
        <ele>46.759999999999998</ele>
        <time>2017-06-28T15:04:14Z</time>
      </trkpt>
      <trkpt lat="66.314471997320652" lon="14.161063972860575">
        <ele>46.759999999999998</ele>
        <time>2017-06-28T15:04:15Z</time>
      </trkpt>
      <trkpt lat="66.314287008717656" lon="14.164000991731882">
        <ele>39.549999999999997</ele>
        <time>2017-06-28T15:04:26Z</time>
      </trkpt>
      <trkpt lat="66.314300000667572" lon="14.16429796256125">
        <ele>38.590000000000003</ele>
        <time>2017-06-28T15:04:27Z</time>
      </trkpt>
      <trkpt lat="66.314324978739023" lon="14.164590993896127">
        <ele>37.630000000000003</ele>
        <time>2017-06-28T15:04:28Z</time>
      </trkpt>
      <trkpt lat="66.314356997609138" lon="14.164883019402623">
        <ele>36.670000000000002</ele>
        <time>2017-06-28T15:04:29Z</time>
      </trkpt>
      <trkpt lat="66.314399996772408" lon="14.165174039080739">
        <ele>36.189999999999998</ele>
        <time>2017-06-28T15:04:30Z</time>
      </trkpt>
      <trkpt lat="66.314452970400453" lon="14.165448965504766">
        <ele>35.229999999999997</ele>
        <time>2017-06-28T15:04:31Z</time>
      </trkpt>
      <trkpt lat="66.314517008140683" lon="14.165725987404585">
        <ele>34.259999999999998</ele>
        <time>2017-06-28T15:04:32Z</time>
      </trkpt>
      <trkpt lat="66.314590014517307" lon="14.165962021797895">
        <ele>33.299999999999997</ele>
        <time>2017-06-28T15:04:33Z</time>
      </trkpt>
      <trkpt lat="66.314670983701944" lon="14.166182968765497">
        <ele>32.340000000000003</ele>
        <time>2017-06-28T15:04:34Z</time>
      </trkpt>
      <trkpt lat="66.314753964543343" lon="14.166387990117073">
        <ele>31.379999999999999</ele>
        <time>2017-06-28T15:04:35Z</time>
      </trkpt>
      <trkpt lat="66.314847003668547" lon="14.166571972891688">
        <ele>30.899999999999999</ele>
        <time>2017-06-28T15:04:36Z</time>
      </trkpt>
      <trkpt lat="66.31494197063148" lon="14.166736006736755">
        <ele>29.460000000000001</ele>
        <time>2017-06-28T15:04:37Z</time>
      </trkpt>
      <trkpt lat="66.315041966736317" lon="14.166887970641255">
        <ele>28.5</ele>
        <time>2017-06-28T15:04:38Z</time>
      </trkpt>
      <trkpt lat="66.315146991983056" lon="14.167016968131065">
        <ele>28.02</ele>
        <time>2017-06-28T15:04:39Z</time>
      </trkpt>
      <trkpt lat="66.316080987453461" lon="14.167967978864908">
        <ele>20.32</ele>
        <time>2017-06-28T15:04:50Z</time>
      </trkpt>
      <trkpt lat="66.316338982433081" lon="14.168196972459555">
        <ele>18.879999999999999</ele>
        <time>2017-06-28T15:04:59Z</time>
      </trkpt>
      <trkpt lat="66.317055970430374" lon="14.168755039572716">
        <ele>17.440000000000001</ele>
        <time>2017-06-28T15:05:08Z</time>
      </trkpt>
      <trkpt lat="66.318437978625298" lon="14.169252002611756">
        <ele>11.67</ele>
        <time>2017-06-28T15:05:21Z</time>
      </trkpt>
      <trkpt lat="66.318963021039963" lon="14.169320985674858">
        <ele>7.35</ele>
        <time>2017-06-28T15:05:25Z</time>
      </trkpt>
      <trkpt lat="66.319093024358153" lon="14.169407989829779">
        <ele>6.39</ele>
        <time>2017-06-28T15:05:26Z</time>
      </trkpt>
      <trkpt lat="66.319219004362822" lon="14.169526007026434">
        <ele>5.42</ele>
        <time>2017-06-28T15:05:27Z</time>
      </trkpt>
      <trkpt lat="66.319332998245955" lon="14.169665984809399">
        <ele>4.94</ele>
        <time>2017-06-28T15:05:28Z</time>
      </trkpt>
      <trkpt lat="66.319439029321074" lon="14.169836975634098">
        <ele>4.46</ele>
        <time>2017-06-28T15:05:29Z</time>
      </trkpt>
      <trkpt lat="66.31953701376915" lon="14.170022970065475">
        <ele>3.5</ele>
        <time>2017-06-28T15:05:30Z</time>
      </trkpt>
      <trkpt lat="66.319982009008527" lon="14.17108504101634">
        <ele>3.02</ele>
        <time>2017-06-28T15:05:37Z</time>
      </trkpt>
      <trkpt lat="66.320092985406518" lon="14.171481002122164">
        <ele>3.02</ele>
        <time>2017-06-28T15:05:41Z</time>
      </trkpt>
      <trkpt lat="66.320129027590156" lon="14.171588039025664">
        <ele>3.02</ele>
        <time>2017-06-28T15:05:42Z</time>
      </trkpt>
      <trkpt lat="66.320175966247916" lon="14.171688035130501">
        <ele>3.02</ele>
        <time>2017-06-28T15:05:43Z</time>
      </trkpt>
      <trkpt lat="66.320338994264603" lon="14.172091037034988">
        <ele>2.54</ele>
        <time>2017-06-28T15:05:46Z</time>
      </trkpt>
      <trkpt lat="66.320395991206169" lon="14.17226898483932">
        <ele>2.54</ele>
        <time>2017-06-28T15:05:47Z</time>
      </trkpt>
      <trkpt lat="66.320586008951068" lon="14.172857981175184">
        <ele>3.02</ele>
        <time>2017-06-28T15:05:50Z</time>
      </trkpt>
      <trkpt lat="66.320664966478944" lon="14.173043975606561">
        <ele>3.02</ele>
        <time>2017-06-28T15:05:51Z</time>
      </trkpt>
      <trkpt lat="66.320752976462245" lon="14.173213038593531">
        <ele>3.02</ele>
        <time>2017-06-28T15:05:52Z</time>
      </trkpt>
      <trkpt lat="66.320851966738701" lon="14.173360979184508">
        <ele>3.02</ele>
        <time>2017-06-28T15:05:53Z</time>
      </trkpt>
      <trkpt lat="66.32095598615706" lon="14.173493999987841">
        <ele>2.54</ele>
        <time>2017-06-28T15:05:54Z</time>
      </trkpt>
      <trkpt lat="66.321065034717321" lon="14.173595001921058">
        <ele>2.54</ele>
        <time>2017-06-28T15:05:55Z</time>
      </trkpt>
      <trkpt lat="66.321176011115313" lon="14.173683011904359">
        <ele>2.06</ele>
        <time>2017-06-28T15:05:56Z</time>
      </trkpt>
      <trkpt lat="66.321286987513304" lon="14.173751994967461">
        <ele>2.06</ele>
        <time>2017-06-28T15:05:57Z</time>
      </trkpt>
      <trkpt lat="66.322282003238797" lon="14.174493039026856">
        <ele>3.98</ele>
        <time>2017-06-28T15:06:07Z</time>
      </trkpt>
      <trkpt lat="66.323668034747243" lon="14.175497023388743">
        <ele>6.87</ele>
        <time>2017-06-28T15:06:20Z</time>
      </trkpt>
      <trkpt lat="66.32374900393188" lon="14.175621997565031">
        <ele>7.83</ele>
        <time>2017-06-28T15:06:21Z</time>
      </trkpt>
      <trkpt lat="66.32381203584373" lon="14.175759041681886">
        <ele>8.310000000000001</ele>
        <time>2017-06-28T15:06:22Z</time>
      </trkpt>
      <trkpt lat="66.323864003643394" lon="14.175903964787722">
        <ele>8.310000000000001</ele>
        <time>2017-06-28T15:06:23Z</time>
      </trkpt>
      <trkpt lat="66.323915971443057" lon="14.176038997247815">
        <ele>8.789999999999999</ele>
        <time>2017-06-28T15:06:24Z</time>
      </trkpt>
      <trkpt lat="66.323972968384624" lon="14.17615701444447">
        <ele>8.789999999999999</ele>
        <time>2017-06-28T15:06:25Z</time>
      </trkpt>
      <trkpt lat="66.324042035266757" lon="14.176231026649475">
        <ele>8.789999999999999</ele>
        <time>2017-06-28T15:06:26Z</time>
      </trkpt>
      <trkpt lat="66.324119986966252" lon="14.176254998892546">
        <ele>9.27</ele>
        <time>2017-06-28T15:06:27Z</time>
      </trkpt>
      <trkpt lat="66.324211014434695" lon="14.176247958093882">
        <ele>9.75</ele>
        <time>2017-06-28T15:06:28Z</time>
      </trkpt>
      <trkpt lat="66.324312016367912" lon="14.17624200694263">
        <ele>10.23</ele>
        <time>2017-06-28T15:06:29Z</time>
      </trkpt>
      <trkpt lat="66.325557986274362" lon="14.176572002470493">
        <ele>15.52</ele>
        <time>2017-06-28T15:06:41Z</time>
      </trkpt>
      <trkpt lat="66.326471026986837" lon="14.176837038248777">
        <ele>16.960000000000001</ele>
        <time>2017-06-28T15:06:52Z</time>
      </trkpt>
      <trkpt lat="66.3272949680686" lon="14.17712302878499">
        <ele>17.440000000000001</ele>
        <time>2017-06-28T15:07:04Z</time>
      </trkpt>
      <trkpt lat="66.327393036335707" lon="14.177196035161614">
        <ele>17.440000000000001</ele>
        <time>2017-06-28T15:07:06Z</time>
      </trkpt>
      <trkpt lat="66.327432012185454" lon="14.177241967990994">
        <ele>17.440000000000001</ele>
        <time>2017-06-28T15:07:07Z</time>
      </trkpt>
      <trkpt lat="66.327463025227189" lon="14.177311034873128">
        <ele>17.440000000000001</ele>
        <time>2017-06-28T15:07:08Z</time>
      </trkpt>
      <trkpt lat="66.327484985813498" lon="14.177393009886146">
        <ele>17.440000000000001</ele>
        <time>2017-06-28T15:07:09Z</time>
      </trkpt>
      <trkpt lat="66.327482974156737" lon="14.177487976849079">
        <ele>17.920000000000002</ele>
        <time>2017-06-28T15:07:10Z</time>
      </trkpt>
      <trkpt lat="66.327475011348724" lon="14.177579004317522">
        <ele>17.920000000000002</ele>
        <time>2017-06-28T15:07:11Z</time>
      </trkpt>
      <trkpt lat="66.327463025227189" lon="14.177689980715513">
        <ele>18.399999999999999</ele>
        <time>2017-06-28T15:07:12Z</time>
      </trkpt>
      <trkpt lat="66.327447015792131" lon="14.17779098264873">
        <ele>18.399999999999999</ele>
        <time>2017-06-28T15:07:13Z</time>
      </trkpt>
      <trkpt lat="66.327207963913679" lon="14.179598959162831">
        <ele>20.809999999999999</ele>
        <time>2017-06-28T15:07:26Z</time>
      </trkpt>
      <trkpt lat="66.327021969482303" lon="14.181587984785438">
        <ele>21.289999999999999</ele>
        <time>2017-06-28T15:07:38Z</time>
      </trkpt>
      <trkpt lat="66.32677897810936" lon="14.185454975813627">
        <ele>20.32</ele>
        <time>2017-06-28T15:07:58Z</time>
      </trkpt>
      <trkpt lat="66.326687028631568" lon="14.186287969350815">
        <ele>19.84</ele>
        <time>2017-06-28T15:08:08Z</time>
      </trkpt>
      <trkpt lat="66.326647968962789" lon="14.186743022873998">
        <ele>20.32</ele>
        <time>2017-06-28T15:08:19Z</time>
      </trkpt>
      <trkpt lat="66.32664998061955" lon="14.186734976246953">
        <ele>19.84</ele>
        <time>2017-06-28T15:11:18Z</time>
      </trkpt>
      <trkpt lat="66.32664998061955" lon="14.186730030924082">
        <ele>20.32</ele>
        <time>2017-06-28T15:13:49Z</time>
      </trkpt>
      <trkpt lat="66.326646963134408" lon="14.186723995953798">
        <ele>20.32</ele>
        <time>2017-06-28T15:16:19Z</time>
      </trkpt>
      <trkpt lat="66.326645035296679" lon="14.186722990125418">
        <ele>20.32</ele>
        <time>2017-06-28T15:18:40Z</time>
      </trkpt>
      <trkpt lat="66.326637994498014" lon="14.186725001782179">
        <ele>20.32</ele>
        <time>2017-06-28T15:21:04Z</time>
      </trkpt>
      <trkpt lat="66.32658401504159" lon="14.186670016497374">
        <ele>16.960000000000001</ele>
        <time>2017-06-28T15:38:34Z</time>
      </trkpt>
      <trkpt lat="66.326574040576816" lon="14.186786022037268">
        <ele>23.690000000000001</ele>
        <time>2017-06-28T15:40:25Z</time>
      </trkpt>
      <trkpt lat="66.326576974242926" lon="14.186788033694029">
        <ele>23.210000000000001</ele>
        <time>2017-06-28T15:40:29Z</time>
      </trkpt>
      <trkpt lat="66.326599018648267" lon="14.18713403865695">
        <ele>22.73</ele>
        <time>2017-06-28T15:40:39Z</time>
      </trkpt>
      <trkpt lat="66.326680993661284" lon="14.187030019238591">
        <ele>21.289999999999999</ele>
        <time>2017-06-28T15:40:45Z</time>
      </trkpt>
      <trkpt lat="66.3266939856112" lon="14.186907978728414">
        <ele>21.77</ele>
        <time>2017-06-28T15:40:46Z</time>
      </trkpt>
      <trkpt lat="66.326703038066626" lon="14.186759032309055">
        <ele>21.77</ele>
        <time>2017-06-28T15:40:47Z</time>
      </trkpt>
      <trkpt lat="66.326863970607519" lon="14.184721978381276">
        <ele>20.809999999999999</ele>
        <time>2017-06-28T15:40:58Z</time>
      </trkpt>
      <trkpt lat="66.326895989477634" lon="14.18449399061501">
        <ele>20.809999999999999</ele>
        <time>2017-06-28T15:41:00Z</time>
      </trkpt>
      <trkpt lat="66.326923985034227" lon="14.184413021430373">
        <ele>20.32</ele>
        <time>2017-06-28T15:41:01Z</time>
      </trkpt>
      <trkpt lat="66.326961033046246" lon="14.184354012832046">
        <ele>20.809999999999999</ele>
        <time>2017-06-28T15:41:02Z</time>
      </trkpt>
      <trkpt lat="66.327008977532387" lon="14.184326017275453">
        <ele>20.32</ele>
        <time>2017-06-28T15:41:03Z</time>
      </trkpt>
      <trkpt lat="66.327065974473953" lon="14.184316964820027">
        <ele>20.32</ele>
        <time>2017-06-28T15:41:04Z</time>
      </trkpt>
      <trkpt lat="66.327124983072281" lon="14.184315958991647">
        <ele>20.32</ele>
        <time>2017-06-28T15:41:05Z</time>
      </trkpt>
      <trkpt lat="66.32725196890533" lon="14.184287963435054">
        <ele>20.32</ele>
        <time>2017-06-28T15:41:07Z</time>
      </trkpt>
      <trkpt lat="66.327330004423857" lon="14.184249993413687">
        <ele>22.25</ele>
        <time>2017-06-28T15:41:08Z</time>
      </trkpt>
      <trkpt lat="66.327409967780113" lon="14.184183022007346">
        <ele>22.73</ele>
        <time>2017-06-28T15:41:09Z</time>
      </trkpt>
      <trkpt lat="66.327494960278273" lon="14.184100963175297">
        <ele>23.210000000000001</ele>
        <time>2017-06-28T15:41:10Z</time>
      </trkpt>
      <trkpt lat="66.327582970261574" lon="14.184002978727221">
        <ele>23.690000000000001</ele>
        <time>2017-06-28T15:41:11Z</time>
      </trkpt>
      <trkpt lat="66.328199962154031" lon="14.183198986575007">
        <ele>25.609999999999999</ele>
        <time>2017-06-28T15:41:20Z</time>
      </trkpt>
      <trkpt lat="66.328698014840484" lon="14.182522986084223">
        <ele>25.609999999999999</ele>
        <time>2017-06-28T15:41:29Z</time>
      </trkpt>
      <trkpt lat="66.328739002346992" lon="14.182499013841152">
        <ele>25.609999999999999</ele>
        <time>2017-06-28T15:41:30Z</time>
      </trkpt>
      <trkpt lat="66.328774960711598" lon="14.182529021054506">
        <ele>25.129999999999999</ele>
        <time>2017-06-28T15:41:31Z</time>
      </trkpt>
      <trkpt lat="66.328807985410094" lon="14.182569002732635">
        <ele>24.649999999999999</ele>
        <time>2017-06-28T15:41:32Z</time>
      </trkpt>
      <trkpt lat="66.328830029815435" lon="14.182641003280878">
        <ele>24.170000000000002</ele>
        <time>2017-06-28T15:41:33Z</time>
      </trkpt>
      <trkpt lat="66.328847967088223" lon="14.182742005214095">
        <ele>22.73</ele>
        <time>2017-06-28T15:41:34Z</time>
      </trkpt>
      <trkpt lat="66.328860959038138" lon="14.18285901658237">
        <ele>25.129999999999999</ele>
        <time>2017-06-28T15:41:35Z</time>
      </trkpt>
      <trkpt lat="66.328864982351661" lon="14.182950966060162">
        <ele>25.609999999999999</ele>
        <time>2017-06-28T15:41:36Z</time>
      </trkpt>
      <trkpt lat="66.328864982351661" lon="14.183027995750308">
        <ele>25.609999999999999</ele>
        <time>2017-06-28T15:41:37Z</time>
      </trkpt>
      <trkpt lat="66.328829023987055" lon="14.183989986777306">
        <ele>26.57</ele>
        <time>2017-06-28T15:41:48Z</time>
      </trkpt>
      <trkpt lat="66.328809997066855" lon="14.184229960665107">
        <ele>26.57</ele>
        <time>2017-06-28T15:41:59Z</time>
      </trkpt>
      <trkpt lat="66.328817959874868" lon="14.184101969003677">
        <ele>26.09</ele>
        <time>2017-06-28T15:42:18Z</time>
      </trkpt>
      <trkpt lat="66.328814020380378" lon="14.184111021459103">
        <ele>25.609999999999999</ele>
        <time>2017-06-28T15:42:24Z</time>
      </trkpt>
      <trkpt lat="66.328799016773701" lon="14.184181010350585">
        <ele>26.09</ele>
        <time>2017-06-28T15:42:25Z</time>
      </trkpt>
    </trkseg>
  </trk>

  <trk>
    <name>Track vom: 28 JUN 2017 17:56</name>
    <extensions>
      <gpxx:TrackExtension>
        <gpxx:DisplayColor>DarkGray</gpxx:DisplayColor>
      </gpxx:TrackExtension>
    </extensions>
    <trkseg>
      <trkpt lat="66.328849978744984" lon="14.18384799733758">
        <ele>10.710000000000001</ele>
        <time>2017-06-28T15:56:59Z</time>
      </trkpt>
      <trkpt lat="66.328782001510262" lon="14.183787982910872">
        <ele>1.1</ele>
        <time>2017-06-28T15:58:37Z</time>
      </trkpt>
      <trkpt lat="66.328782001510262" lon="14.183572987094522">
        <ele>0.62</ele>
        <time>2017-06-28T15:58:41Z</time>
      </trkpt>
      <trkpt lat="66.328792981803417" lon="14.183463016524911">
        <ele>0.62</ele>
        <time>2017-06-28T15:58:42Z</time>
      </trkpt>
      <trkpt lat="66.32879801094532" lon="14.183200998231769">
        <ele>0.14</ele>
        <time>2017-06-28T15:58:44Z</time>
      </trkpt>
      <trkpt lat="66.328792981803417" lon="14.183077029883862">
        <ele>0.14</ele>
        <time>2017-06-28T15:58:45Z</time>
      </trkpt>
      <trkpt lat="66.328774960711598" lon="14.182341014966369">
        <ele>-0.82</ele>
        <time>2017-06-28T15:58:53Z</time>
      </trkpt>
      <trkpt lat="66.328799016773701" lon="14.182243030518293">
        <ele>-0.82</ele>
        <time>2017-06-28T15:58:54Z</time>
      </trkpt>
      <trkpt lat="66.328831035643816" lon="14.182144962251186">
        <ele>-1.3</ele>
        <time>2017-06-28T15:58:55Z</time>
      </trkpt>
      <trkpt lat="66.328872023150325" lon="14.182047983631492">
        <ele>-0.82</ele>
        <time>2017-06-28T15:58:56Z</time>
      </trkpt>
      <trkpt lat="66.328918039798737" lon="14.181938013061881">
        <ele>-0.34</ele>
        <time>2017-06-28T15:58:57Z</time>
      </trkpt>
      <trkpt lat="66.328965984284878" lon="14.181819995865226">
        <ele>0.14</ele>
        <time>2017-06-28T15:58:58Z</time>
      </trkpt>
      <trkpt lat="66.329246023669839" lon="14.181099990382791">
        <ele>2.06</ele>
        <time>2017-06-28T15:59:04Z</time>
      </trkpt>
      <trkpt lat="66.329272007569671" lon="14.181011980399489">
        <ele>2.54</ele>
        <time>2017-06-28T15:59:05Z</time>
      </trkpt>
      <trkpt lat="66.329277958720922" lon="14.180917013436556">
        <ele>2.54</ele>
        <time>2017-06-28T15:59:06Z</time>
      </trkpt>
      <trkpt lat="66.329261027276516" lon="14.180798996239901">
        <ele>2.06</ele>
        <time>2017-06-28T15:59:07Z</time>
      </trkpt>
      <trkpt lat="66.329223979264498" lon="14.180663041770458">
        <ele>2.06</ele>
        <time>2017-06-28T15:59:08Z</time>
      </trkpt>
      <trkpt lat="66.329176034778357" lon="14.180510994046926">
        <ele>1.58</ele>
        <time>2017-06-28T15:59:09Z</time>
      </trkpt>
      <trkpt lat="66.329123983159661" lon="14.180346960201859">
        <ele>1.1</ele>
        <time>2017-06-28T15:59:10Z</time>
      </trkpt>
      <trkpt lat="66.328523000702262" lon="14.1785420011729">
        <ele>-0.34</ele>
        <time>2017-06-28T15:59:22Z</time>
      </trkpt>
      <trkpt lat="66.328242961317301" lon="14.177590990439057">
        <ele>-0.34</ele>
        <time>2017-06-28T15:59:33Z</time>
      </trkpt>
      <trkpt lat="66.328276991844177" lon="14.177427040413022">
        <ele>0.14</ele>
        <time>2017-06-28T15:59:36Z</time>
      </trkpt>
      <trkpt lat="66.328317979350686" lon="14.177388986572623">
        <ele>0.14</ele>
        <time>2017-06-28T15:59:37Z</time>
      </trkpt>
      <trkpt lat="66.328371036797762" lon="14.177377000451088">
        <ele>0.14</ele>
        <time>2017-06-28T15:59:38Z</time>
      </trkpt>
      <trkpt lat="66.32843398489058" lon="14.177400972694159">
        <ele>0.14</ele>
        <time>2017-06-28T15:59:39Z</time>
      </trkpt>
      <trkpt lat="66.328507997095585" lon="14.177440032362938">
        <ele>0.14</ele>
        <time>2017-06-28T15:59:40Z</time>
      </trkpt>
      <trkpt lat="66.329536959528923" lon="14.177788970991969">
        <ele>1.58</ele>
        <time>2017-06-28T15:59:50Z</time>
      </trkpt>
      <trkpt lat="66.330576986074448" lon="14.178002960979939">
        <ele>-4.19</ele>
        <time>2017-06-28T15:59:58Z</time>
      </trkpt>
      <trkpt lat="66.330698020756245" lon="14.177935989573598">
        <ele>-6.11</ele>
        <time>2017-06-28T15:59:59Z</time>
      </trkpt>
      <trkpt lat="66.330821989104152" lon="14.177823001518846">
        <ele>-7.07</ele>
        <time>2017-06-28T16:00:00Z</time>
      </trkpt>
      <trkpt lat="66.330936988815665" lon="14.177653016522527">
        <ele>-8.51</ele>
        <time>2017-06-28T16:00:01Z</time>
      </trkpt>
      <trkpt lat="66.331045031547546" lon="14.177427040413022">
        <ele>-10.44</ele>
        <time>2017-06-28T16:00:02Z</time>
      </trkpt>
      <trkpt lat="66.331149972975254" lon="14.177169967442751">
        <ele>-11.880000000000001</ele>
        <time>2017-06-28T16:00:03Z</time>
      </trkpt>
      <trkpt lat="66.331252986565232" lon="14.176891017705202">
        <ele>-13.32</ele>
        <time>2017-06-28T16:00:04Z</time>
      </trkpt>
      <trkpt lat="66.332484036684036" lon="14.173392998054624">
        <ele>-18.609999999999999</ele>
        <time>2017-06-28T16:00:15Z</time>
      </trkpt>
      <trkpt lat="66.333801001310349" lon="14.170257998630404">
        <ele>-17.649999999999999</ele>
        <time>2017-06-28T16:00:27Z</time>
      </trkpt>
      <trkpt lat="66.333964029327035" lon="14.169881986454129">
        <ele>-17.170000000000002</ele>
        <time>2017-06-28T16:00:29Z</time>
      </trkpt>
      <trkpt lat="66.334021026268601" lon="14.169678976759315">
        <ele>-16.690000000000001</ele>
        <time>2017-06-28T16:00:30Z</time>
      </trkpt>
      <trkpt lat="66.33406100794673" lon="14.169470015913248">
        <ele>-16.210000000000001</ele>
        <time>2017-06-28T16:00:31Z</time>
      </trkpt>
      <trkpt lat="66.334085986018181" lon="14.169278992339969">
        <ele>-16.210000000000001</ele>
        <time>2017-06-28T16:00:32Z</time>
      </trkpt>
      <trkpt lat="66.334100989624858" lon="14.169115964323282">
        <ele>-16.210000000000001</ele>
        <time>2017-06-28T16:00:33Z</time>
      </trkpt>
      <trkpt lat="66.334110964089632" lon="14.168975986540318">
        <ele>-16.210000000000001</ele>
        <time>2017-06-28T16:00:34Z</time>
      </trkpt>
      <trkpt lat="66.334139965474606" lon="14.168840032070875">
        <ele>-16.210000000000001</ele>
        <time>2017-06-28T16:00:35Z</time>
      </trkpt>
      <trkpt lat="66.334182964637876" lon="14.168712040409446">
        <ele>-16.210000000000001</ele>
        <time>2017-06-28T16:00:36Z</time>
      </trkpt>
      <trkpt lat="66.334252031520009" lon="14.16859402321279">
        <ele>-16.210000000000001</ele>
        <time>2017-06-28T16:00:37Z</time>
      </trkpt>
      <trkpt lat="66.33434004150331" lon="14.168491009622812">
        <ele>-16.210000000000001</ele>
        <time>2017-06-28T16:00:38Z</time>
      </trkpt>
      <trkpt lat="66.334441965445876" lon="14.168389001861215">
        <ele>-16.210000000000001</ele>
        <time>2017-06-28T16:00:39Z</time>
      </trkpt>
      <trkpt lat="66.335418038070202" lon="14.167118975892663">
        <ele>-15.24</ele>
        <time>2017-06-28T16:00:47Z</time>
      </trkpt>
      <trkpt lat="66.336612962186337" lon="14.164136024191976">
        <ele>-15.24</ele>
        <time>2017-06-28T16:00:58Z</time>
      </trkpt>
      <trkpt lat="66.337356017902493" lon="14.16098702698946">
        <ele>-15.24</ele>
        <time>2017-06-28T16:01:08Z</time>
      </trkpt>
      <trkpt lat="66.338635012507439" lon="14.154894975945354">
        <ele>-13.800000000000001</ele>
        <time>2017-06-28T16:01:29Z</time>
      </trkpt>
      <trkpt lat="66.339881988242269" lon="14.148465972393751">
        <ele>-12.84</ele>
        <time>2017-06-28T16:01:50Z</time>
      </trkpt>
      <trkpt lat="66.340246014297009" lon="14.144178964197636">
        <ele>-11.880000000000001</ele>
        <time>2017-06-28T16:02:04Z</time>
      </trkpt>
      <trkpt lat="66.340353973209858" lon="14.141834964975715">
        <ele>-12.84</ele>
        <time>2017-06-28T16:02:15Z</time>
      </trkpt>
      <trkpt lat="66.340374005958438" lon="14.141718037426472">
        <ele>-12.84</ele>
        <time>2017-06-28T16:02:16Z</time>
      </trkpt>
      <trkpt lat="66.340398984029889" lon="14.141612006351352">
        <ele>-12.84</ele>
        <time>2017-06-28T16:02:17Z</time>
      </trkpt>
      <trkpt lat="66.340434020385146" lon="14.141527013853192">
        <ele>-12.84</ele>
        <time>2017-06-28T16:02:18Z</time>
      </trkpt>
      <trkpt lat="66.340480959042907" lon="14.141483008861542">
        <ele>-12.84</ele>
        <time>2017-06-28T16:02:19Z</time>
      </trkpt>
      <trkpt lat="66.340533010661602" lon="14.141485020518303">
        <ele>-12.359999999999999</ele>
        <time>2017-06-28T16:02:20Z</time>
      </trkpt>
      <trkpt lat="66.340579027310014" lon="14.141536988317966">
        <ele>-11.880000000000001</ele>
        <time>2017-06-28T16:02:21Z</time>
      </trkpt>
      <trkpt lat="66.34061498567462" lon="14.141619969159365">
        <ele>-11.880000000000001</ele>
        <time>2017-06-28T16:02:22Z</time>
      </trkpt>
      <trkpt lat="66.340642981231213" lon="14.141719965264201">
        <ele>-11.4</ele>
        <time>2017-06-28T16:02:23Z</time>
      </trkpt>
      <trkpt lat="66.340754041448236" lon="14.142422033473849">
        <ele>-10.44</ele>
        <time>2017-06-28T16:02:33Z</time>
      </trkpt>
      <trkpt lat="66.340814977884293" lon="14.142625965178013">
        <ele>-10.44</ele>
        <time>2017-06-28T16:02:36Z</time>
      </trkpt>
    </trkseg>
  </trk>

  <trk>
    <name>Track vom: 28 JUN 2017 20:50</name>
    <extensions>
      <gpxx:TrackExtension>
        <gpxx:DisplayColor>DarkGray</gpxx:DisplayColor>
      </gpxx:TrackExtension>
    </extensions>
    <trkseg>
      <trkpt lat="66.341177998110652" lon="14.142121039330959">
        <ele>-43.600000000000001</ele>
        <time>2017-06-28T18:50:18Z</time>
      </trkpt>
      <trkpt lat="66.340943975374103" lon="14.142207037657499">
        <ele>-27.739999999999998</ele>
        <time>2017-06-28T18:51:11Z</time>
      </trkpt>
      <trkpt lat="66.340967025607824" lon="14.142250036820769">
        <ele>-30.140000000000001</ele>
        <time>2017-06-28T18:51:55Z</time>
      </trkpt>
      <trkpt lat="66.340969037264585" lon="14.142269985750318">
        <ele>-33.509999999999998</ele>
        <time>2017-06-28T18:52:40Z</time>
      </trkpt>
      <trkpt lat="66.340978005900979" lon="14.142300998792052">
        <ele>-35.43</ele>
        <time>2017-06-28T18:53:27Z</time>
      </trkpt>
      <trkpt lat="66.340981023386121" lon="14.142310973256826">
        <ele>-35.43</ele>
        <time>2017-06-28T18:53:33Z</time>
      </trkpt>
      <trkpt lat="66.340805003419518" lon="14.141859021037817">
        <ele>-22.449999999999999</ele>
        <time>2017-06-28T18:53:40Z</time>
      </trkpt>
      <trkpt lat="66.340735014528036" lon="14.141781991347671">
        <ele>-14.76</ele>
        <time>2017-06-28T18:53:42Z</time>
      </trkpt>
      <trkpt lat="66.340596964582801" lon="14.141269018873572">
        <ele>-3.23</ele>
        <time>2017-06-28T18:53:49Z</time>
      </trkpt>
      <trkpt lat="66.340556982904673" lon="14.141207998618484">
        <ele>-2.27</ele>
        <time>2017-06-28T18:53:50Z</time>
      </trkpt>
      <trkpt lat="66.340512977913022" lon="14.141146978363395">
        <ele>-2.27</ele>
        <time>2017-06-28T18:53:51Z</time>
      </trkpt>
      <trkpt lat="66.340468972921371" lon="14.141085958108306">
        <ele>-2.27</ele>
        <time>2017-06-28T18:53:52Z</time>
      </trkpt>
      <trkpt lat="66.34042102843523" lon="14.141054023057222">
        <ele>-2.27</ele>
        <time>2017-06-28T18:53:53Z</time>
      </trkpt>
      <trkpt lat="66.340368976816535" lon="14.141059974208474">
        <ele>-2.75</ele>
        <time>2017-06-28T18:53:54Z</time>
      </trkpt>
      <trkpt lat="66.340322960168123" lon="14.141134992241859">
        <ele>-2.27</ele>
        <time>2017-06-28T18:53:55Z</time>
      </trkpt>
      <trkpt lat="66.34029203094542" lon="14.141252003610134">
        <ele>-1.3</ele>
        <time>2017-06-28T18:53:56Z</time>
      </trkpt>
      <trkpt lat="66.340282978489995" lon="14.141401033848524">
        <ele>-1.3</ele>
        <time>2017-06-28T18:53:57Z</time>
      </trkpt>
      <trkpt lat="66.340290019288659" lon="14.141580993309617">
        <ele>-0.82</ele>
        <time>2017-06-28T18:53:58Z</time>
      </trkpt>
      <trkpt lat="66.34029496461153" lon="14.141793977469206">
        <ele>-0.82</ele>
        <time>2017-06-28T18:53:59Z</time>
      </trkpt>
      <trkpt lat="66.340245008468628" lon="14.144261023029685">
        <ele>0.14</ele>
        <time>2017-06-28T18:54:08Z</time>
      </trkpt>
      <trkpt lat="66.339891962707043" lon="14.148406963795424">
        <ele>1.58</ele>
        <time>2017-06-28T18:54:21Z</time>
      </trkpt>
      <trkpt lat="66.339101968333125" lon="14.1526959836483">
        <ele>4.94</ele>
        <time>2017-06-28T18:54:34Z</time>
      </trkpt>
      <trkpt lat="66.338114999234676" lon="14.157336037606001">
        <ele>4.94</ele>
        <time>2017-06-28T18:54:49Z</time>
      </trkpt>
      <trkpt lat="66.33709198795259" lon="14.162183040753007">
        <ele>6.39</ele>
        <time>2017-06-28T18:55:06Z</time>
      </trkpt>
      <trkpt lat="66.336072999984026" lon="14.165718024596572">
        <ele>8.310000000000001</ele>
        <time>2017-06-28T18:55:19Z</time>
      </trkpt>
      <trkpt lat="66.334913028404117" lon="14.167796988040209">
        <ele>8.310000000000001</ele>
        <time>2017-06-28T18:55:29Z</time>
      </trkpt>
      <trkpt lat="66.334097972139716" lon="14.168602991849184">
        <ele>7.35</ele>
        <time>2017-06-28T18:55:37Z</time>
      </trkpt>
      <trkpt lat="66.334052039310336" lon="14.168697036802769">
        <ele>7.35</ele>
        <time>2017-06-28T18:55:38Z</time>
      </trkpt>
      <trkpt lat="66.334017002955079" lon="14.168821005150676">
        <ele>7.83</ele>
        <time>2017-06-28T18:55:39Z</time>
      </trkpt>
      <trkpt lat="66.334000993520021" lon="14.168973974883556">
        <ele>7.83</ele>
        <time>2017-06-28T18:55:40Z</time>
      </trkpt>
      <trkpt lat="66.333988001570106" lon="14.169160975143313">
        <ele>8.789999999999999</ele>
        <time>2017-06-28T18:55:41Z</time>
      </trkpt>
      <trkpt lat="66.333979032933712" lon="14.169364990666509">
        <ele>8.789999999999999</ele>
        <time>2017-06-28T18:55:42Z</time>
      </trkpt>
      <trkpt lat="66.333918012678623" lon="14.169809985905886">
        <ele>9.75</ele>
        <time>2017-06-28T18:55:44Z</time>
      </trkpt>
      <trkpt lat="66.333854980766773" lon="14.1700320225209">
        <ele>9.75</ele>
        <time>2017-06-28T18:55:45Z</time>
      </trkpt>
      <trkpt lat="66.333769988268614" lon="14.170235032215714">
        <ele>9.27</ele>
        <time>2017-06-28T18:55:46Z</time>
      </trkpt>
      <trkpt lat="66.332905981689692" lon="14.172211987897754">
        <ele>8.789999999999999</ele>
        <time>2017-06-28T18:55:55Z</time>
      </trkpt>
      <trkpt lat="66.331326998770237" lon="14.176603015512228">
        <ele>13.6</ele>
        <time>2017-06-28T18:56:11Z</time>
      </trkpt>
      <trkpt lat="66.330934977158904" lon="14.177555032074451">
        <ele>18.879999999999999</ele>
        <time>2017-06-28T18:56:15Z</time>
      </trkpt>
      <trkpt lat="66.33081897161901" lon="14.177734991535544">
        <ele>20.809999999999999</ele>
        <time>2017-06-28T18:56:16Z</time>
      </trkpt>
      <trkpt lat="66.330696009099483" lon="14.177872035652399">
        <ele>22.25</ele>
        <time>2017-06-28T18:56:17Z</time>
      </trkpt>
      <trkpt lat="66.330568017438054" lon="14.177956022322178">
        <ele>23.210000000000001</ele>
        <time>2017-06-28T18:56:18Z</time>
      </trkpt>
      <trkpt lat="66.330441031605005" lon="14.177985023707151">
        <ele>24.649999999999999</ele>
        <time>2017-06-28T18:56:19Z</time>
      </trkpt>
      <trkpt lat="66.330310022458434" lon="14.177977982908487">
        <ele>26.09</ele>
        <time>2017-06-28T18:56:20Z</time>
      </trkpt>
      <trkpt lat="66.330183036625385" lon="14.17793900705874">
        <ele>27.050000000000001</ele>
        <time>2017-06-28T18:56:21Z</time>
      </trkpt>
      <trkpt lat="66.330055966973305" lon="14.177890978753567">
        <ele>28.02</ele>
        <time>2017-06-28T18:56:22Z</time>
      </trkpt>
      <trkpt lat="66.329065980389714" lon="14.177559977397323">
        <ele>28.98</ele>
        <time>2017-06-28T18:56:31Z</time>
      </trkpt>
      <trkpt lat="66.328369025141001" lon="14.177346993237734">
        <ele>25.609999999999999</ele>
        <time>2017-06-28T18:56:39Z</time>
      </trkpt>
      <trkpt lat="66.328331977128983" lon="14.177371971309185">
        <ele>25.129999999999999</ele>
        <time>2017-06-28T18:56:40Z</time>
      </trkpt>
      <trkpt lat="66.328301969915628" lon="14.177414970472455">
        <ele>25.129999999999999</ele>
        <time>2017-06-28T18:56:41Z</time>
      </trkpt>
      <trkpt lat="66.328280009329319" lon="14.177475990727544">
        <ele>25.609999999999999</ele>
        <time>2017-06-28T18:56:42Z</time>
      </trkpt>
      <trkpt lat="66.328272968530655" lon="14.177579004317522">
        <ele>25.609999999999999</ele>
        <time>2017-06-28T18:56:43Z</time>
      </trkpt>
      <trkpt lat="66.328279003500938" lon="14.177700038999319">
        <ele>25.609999999999999</ele>
        <time>2017-06-28T18:56:44Z</time>
      </trkpt>
      <trkpt lat="66.328300964087248" lon="14.177821995690465">
        <ele>25.609999999999999</ele>
        <time>2017-06-28T18:56:45Z</time>
      </trkpt>
      <trkpt lat="66.328330971300602" lon="14.17793900705874">
        <ele>25.609999999999999</ele>
        <time>2017-06-28T18:56:46Z</time>
      </trkpt>
      <trkpt lat="66.328371036797762" lon="14.178065992891788">
        <ele>25.609999999999999</ele>
        <time>2017-06-28T18:56:47Z</time>
      </trkpt>
      <trkpt lat="66.328418981283903" lon="14.178207982331514">
        <ele>25.609999999999999</ele>
        <time>2017-06-28T18:56:48Z</time>
      </trkpt>
      <trkpt lat="66.328961038962007" lon="14.179767016321421">
        <ele>27.530000000000001</ele>
        <time>2017-06-28T18:56:58Z</time>
      </trkpt>
      <trkpt lat="66.329326992854476" lon="14.180860016494989">
        <ele>30.899999999999999</ele>
        <time>2017-06-28T18:57:07Z</time>
      </trkpt>
      <trkpt lat="66.329332021996379" lon="14.180937968194485">
        <ele>30.899999999999999</ele>
        <time>2017-06-28T18:57:08Z</time>
      </trkpt>
      <trkpt lat="66.329323975369334" lon="14.181032013148069">
        <ele>31.379999999999999</ele>
        <time>2017-06-28T18:57:09Z</time>
      </trkpt>
      <trkpt lat="66.329297991469502" lon="14.181131003424525">
        <ele>30.899999999999999</ele>
        <time>2017-06-28T18:57:10Z</time>
      </trkpt>
      <trkpt lat="66.329261027276516" lon="14.181224964559078">
        <ele>31.379999999999999</ele>
        <time>2017-06-28T18:57:11Z</time>
      </trkpt>
      <trkpt lat="66.329220039770007" lon="14.181315992027521">
        <ele>31.379999999999999</ele>
        <time>2017-06-28T18:57:12Z</time>
      </trkpt>
      <trkpt lat="66.32890697568655" lon="14.182096011936665">
        <ele>29.940000000000001</ele>
        <time>2017-06-28T18:57:21Z</time>
      </trkpt>
      <trkpt lat="66.328873028978705" lon="14.182213023304939">
        <ele>29.460000000000001</ele>
        <time>2017-06-28T18:57:22Z</time>
      </trkpt>
      <trkpt lat="66.328847967088223" lon="14.182342020794749">
        <ele>28.98</ele>
        <time>2017-06-28T18:57:23Z</time>
      </trkpt>
      <trkpt lat="66.328842015936971" lon="14.18247202411294">
        <ele>28.98</ele>
        <time>2017-06-28T18:57:24Z</time>
      </trkpt>
      <trkpt lat="66.328843021765351" lon="14.182585012167692">
        <ele>29.460000000000001</ele>
        <time>2017-06-28T18:57:25Z</time>
      </trkpt>
      <trkpt lat="66.328849978744984" lon="14.182693976908922">
        <ele>29.460000000000001</ele>
        <time>2017-06-28T18:57:26Z</time>
      </trkpt>
      <trkpt lat="66.328864982351661" lon="14.18281702324748">
        <ele>29.460000000000001</ele>
        <time>2017-06-28T18:57:27Z</time>
      </trkpt>
      <trkpt lat="66.328886020928621" lon="14.183313986286521">
        <ele>29.940000000000001</ele>
        <time>2017-06-28T18:57:30Z</time>
      </trkpt>
      <trkpt lat="66.328880991786718" lon="14.183471985161304">
        <ele>30.420000000000002</ele>
        <time>2017-06-28T18:57:31Z</time>
      </trkpt>
      <trkpt lat="66.328875040635467" lon="14.183599976822734">
        <ele>30.899999999999999</ele>
        <time>2017-06-28T18:57:32Z</time>
      </trkpt>
      <trkpt lat="66.328866994008422" lon="14.183898959308863">
        <ele>31.379999999999999</ele>
        <time>2017-06-28T18:57:37Z</time>
      </trkpt>
      <trkpt lat="66.328900018706918" lon="14.183899965137243">
        <ele>30.899999999999999</ele>
        <time>2017-06-28T18:57:54Z</time>
      </trkpt>
    </trkseg>
  </trk>

</gpx>